<?xml version='1.0' encoding='UTF-8'?>
<gpx version="1.1" creator="https://www.komoot.de" xmlns="http://www.topografix.com/GPX/1/1" xmlns:xsi="http://www.w3.org/2001/XMLSchema-instance" xsi:schemaLocation="http://www.topografix.com/GPX/1/1 http://www.topografix.com/GPX/1/1/gpx.xsd">
  <metadata>
    <name>Randonnée Lungo 2026 (6/5/26)</name>
    <author>
      <link href="https://www.komoot.de">
        <text>komoot</text>
        <type>text/html</type>
      </link>
    </author>
  </metadata>
  <wpt lat="43.609974" lon="10.643829">
    <name>Rotonda delle Banane</name>
    <sym>Flag, Blue</sym>
  </wpt>
  <trk>
    <name>Randonnée Lungo 2026 (6/5/26)</name>
    <trkseg>
      <trkpt lat="43.655877" lon="10.630097">
        <ele>15.362924</ele>
        <time>2026-05-06T19:31:04.441Z</time>
      </trkpt>
      <trkpt lat="43.655783" lon="10.630798">
        <ele>15.362924</ele>
        <time>2026-05-06T19:31:13.602Z</time>
      </trkpt>
      <trkpt lat="43.655747" lon="10.631021">
        <ele>15.362924</ele>
        <time>2026-05-06T19:31:16.490Z</time>
      </trkpt>
      <trkpt lat="43.655659" lon="10.631488">
        <ele>15.251205</ele>
        <time>2026-05-06T19:31:22.487Z</time>
      </trkpt>
      <trkpt lat="43.655605" lon="10.631749">
        <ele>15.083636</ele>
        <time>2026-05-06T19:31:25.805Z</time>
      </trkpt>
      <trkpt lat="43.655659" lon="10.631488">
        <ele>14.916067</ele>
        <time>2026-05-06T19:31:29.113Z</time>
      </trkpt>
      <trkpt lat="43.655590" lon="10.631469">
        <ele>14.856040</ele>
        <time>2026-05-06T19:31:30.316Z</time>
      </trkpt>
      <trkpt lat="43.655438" lon="10.631528">
        <ele>14.721338</ele>
        <time>2026-05-06T19:31:33.032Z</time>
      </trkpt>
      <trkpt lat="43.655125" lon="10.631413">
        <ele>14.445016</ele>
        <time>2026-05-06T19:31:38.608Z</time>
      </trkpt>
      <trkpt lat="43.654984" lon="10.631432">
        <ele>14.324147</ele>
        <time>2026-05-06T19:31:41.036Z</time>
      </trkpt>
      <trkpt lat="43.654679" lon="10.631313">
        <ele>14.053755</ele>
        <time>2026-05-06T19:31:46.427Z</time>
      </trkpt>
      <trkpt lat="43.654628" lon="10.631289">
        <ele>14.007789</ele>
        <time>2026-05-06T19:31:47.336Z</time>
      </trkpt>
      <trkpt lat="43.654604" lon="10.631337">
        <ele>13.971772</ele>
        <time>2026-05-06T19:31:48.051Z</time>
      </trkpt>
      <trkpt lat="43.654457" lon="10.631186">
        <ele>13.820971</ele>
        <time>2026-05-06T19:31:51.149Z</time>
      </trkpt>
      <trkpt lat="43.654409" lon="10.631137">
        <ele>13.791723</ele>
        <time>2026-05-06T19:31:52.147Z</time>
      </trkpt>
      <trkpt lat="43.654390" lon="10.631087">
        <ele>13.771695</ele>
        <time>2026-05-06T19:31:52.842Z</time>
      </trkpt>
      <trkpt lat="43.654348" lon="10.630904">
        <ele>13.703613</ele>
        <time>2026-05-06T19:31:55.205Z</time>
      </trkpt>
      <trkpt lat="43.654261" lon="10.630020">
        <ele>13.387241</ele>
        <time>2026-05-06T19:32:06.555Z</time>
      </trkpt>
      <trkpt lat="43.654250" lon="10.629909">
        <ele>13.347511</ele>
        <time>2026-05-06T19:32:08.035Z</time>
      </trkpt>
      <trkpt lat="43.654165" lon="10.629503">
        <ele>13.197628</ele>
        <time>2026-05-06T19:32:13.632Z</time>
      </trkpt>
      <trkpt lat="43.653977" lon="10.628956">
        <ele>12.982876</ele>
        <time>2026-05-06T19:32:21.811Z</time>
      </trkpt>
      <trkpt lat="43.653551" lon="10.628080">
        <ele>12.875555</ele>
        <time>2026-05-06T19:32:36.457Z</time>
      </trkpt>
      <trkpt lat="43.653522" lon="10.627967">
        <ele>12.866602</ele>
        <time>2026-05-06T19:32:38.125Z</time>
      </trkpt>
      <trkpt lat="43.653513" lon="10.627930">
        <ele>12.863687</ele>
        <time>2026-05-06T19:32:38.664Z</time>
      </trkpt>
      <trkpt lat="43.653511" lon="10.627778">
        <ele>12.852335</ele>
        <time>2026-05-06T19:32:40.800Z</time>
      </trkpt>
      <trkpt lat="43.653522" lon="10.627635">
        <ele>12.841597</ele>
        <time>2026-05-06T19:32:42.777Z</time>
      </trkpt>
      <trkpt lat="43.653462" lon="10.627401">
        <ele>12.823058</ele>
        <time>2026-05-06T19:32:46.171Z</time>
      </trkpt>
      <trkpt lat="43.653390" lon="10.627308">
        <ele>12.812888</ele>
        <time>2026-05-06T19:32:47.984Z</time>
      </trkpt>
      <trkpt lat="43.653309" lon="10.627252">
        <ele>12.803540</ele>
        <time>2026-05-06T19:32:49.656Z</time>
      </trkpt>
      <trkpt lat="43.653194" lon="10.627236">
        <ele>12.791612</ele>
        <time>2026-05-06T19:32:51.797Z</time>
      </trkpt>
      <trkpt lat="43.653039" lon="10.627318">
        <ele>12.774483</ele>
        <time>2026-05-06T19:32:54.842Z</time>
      </trkpt>
      <trkpt lat="43.652945" lon="10.627477">
        <ele>12.764688</ele>
        <time>2026-05-06T19:32:57.587Z</time>
      </trkpt>
      <trkpt lat="43.652919" lon="10.627674">
        <ele>12.791445</ele>
        <time>2026-05-06T19:33:00.255Z</time>
      </trkpt>
      <trkpt lat="43.652858" lon="10.627921">
        <ele>12.826319</ele>
        <time>2026-05-06T19:33:03.743Z</time>
      </trkpt>
      <trkpt lat="43.652692" lon="10.628222">
        <ele>12.876890</ele>
        <time>2026-05-06T19:33:08.885Z</time>
      </trkpt>
      <trkpt lat="43.651701" lon="10.629282">
        <ele>13.157306</ele>
        <time>2026-05-06T19:33:34.907Z</time>
      </trkpt>
      <trkpt lat="43.651363" lon="10.629639">
        <ele>13.492331</ele>
        <time>2026-05-06T19:33:45.089Z</time>
      </trkpt>
      <trkpt lat="43.651325" lon="10.629680">
        <ele>13.530298</ele>
        <time>2026-05-06T19:33:46.216Z</time>
      </trkpt>
      <trkpt lat="43.651169" lon="10.629782">
        <ele>13.666211</ele>
        <time>2026-05-06T19:33:50.278Z</time>
      </trkpt>
      <trkpt lat="43.650994" lon="10.629836">
        <ele>13.807426</ele>
        <time>2026-05-06T19:33:54.545Z</time>
      </trkpt>
      <trkpt lat="43.650865" lon="10.629799">
        <ele>13.911184</ele>
        <time>2026-05-06T19:33:57.688Z</time>
      </trkpt>
      <trkpt lat="43.650773" lon="10.629697">
        <ele>14.004072</ele>
        <time>2026-05-06T19:34:00.489Z</time>
      </trkpt>
      <trkpt lat="43.650663" lon="10.629624">
        <ele>14.100172</ele>
        <time>2026-05-06T19:34:03.417Z</time>
      </trkpt>
      <trkpt lat="43.650582" lon="10.629626">
        <ele>14.163974</ele>
        <time>2026-05-06T19:34:05.367Z</time>
      </trkpt>
      <trkpt lat="43.650506" lon="10.629668">
        <ele>14.228435</ele>
        <time>2026-05-06T19:34:07.293Z</time>
      </trkpt>
      <trkpt lat="43.650424" lon="10.629794">
        <ele>14.325005</ele>
        <time>2026-05-06T19:34:10.149Z</time>
      </trkpt>
      <trkpt lat="43.650414" lon="10.629829">
        <ele>14.346448</ele>
        <time>2026-05-06T19:34:10.764Z</time>
      </trkpt>
      <trkpt lat="43.650311" lon="10.629978">
        <ele>14.463876</ele>
        <time>2026-05-06T19:34:14.202Z</time>
      </trkpt>
      <trkpt lat="43.650064" lon="10.630088">
        <ele>14.635202</ele>
        <time>2026-05-06T19:34:20.005Z</time>
      </trkpt>
      <trkpt lat="43.648362" lon="10.629594">
        <ele>15.710616</ele>
        <time>2026-05-06T19:34:58.349Z</time>
      </trkpt>
      <trkpt lat="43.647311" lon="10.629292">
        <ele>16.315090</ele>
        <time>2026-05-06T19:35:22.345Z</time>
      </trkpt>
      <trkpt lat="43.647164" lon="10.629249">
        <ele>16.399700</ele>
        <time>2026-05-06T19:35:25.686Z</time>
      </trkpt>
      <trkpt lat="43.646987" lon="10.629197">
        <ele>16.501596</ele>
        <time>2026-05-06T19:35:29.637Z</time>
      </trkpt>
      <trkpt lat="43.646035" lon="10.628916">
        <ele>16.919035</ele>
        <time>2026-05-06T19:35:50.163Z</time>
      </trkpt>
      <trkpt lat="43.643094" lon="10.628072">
        <ele>18.037684</ele>
        <time>2026-05-06T19:36:53.419Z</time>
      </trkpt>
      <trkpt lat="43.642842" lon="10.628025">
        <ele>18.053755</ele>
        <time>2026-05-06T19:36:58.828Z</time>
      </trkpt>
      <trkpt lat="43.642718" lon="10.628002">
        <ele>18.061663</ele>
        <time>2026-05-06T19:37:01.461Z</time>
      </trkpt>
      <trkpt lat="43.642326" lon="10.627982">
        <ele>18.086455</ele>
        <time>2026-05-06T19:37:09.439Z</time>
      </trkpt>
      <trkpt lat="43.641749" lon="10.628010">
        <ele>18.122946</ele>
        <time>2026-05-06T19:37:20.419Z</time>
      </trkpt>
      <trkpt lat="43.641685" lon="10.628016">
        <ele>18.127000</ele>
        <time>2026-05-06T19:37:21.614Z</time>
      </trkpt>
      <trkpt lat="43.640730" lon="10.628111">
        <ele>17.897368</ele>
        <time>2026-05-06T19:37:38.962Z</time>
      </trkpt>
      <trkpt lat="43.640232" lon="10.628496">
        <ele>17.696780</ele>
        <time>2026-05-06T19:37:49.748Z</time>
      </trkpt>
      <trkpt lat="43.640014" lon="10.628718">
        <ele>17.601589</ele>
        <time>2026-05-06T19:37:54.993Z</time>
      </trkpt>
      <trkpt lat="43.639782" lon="10.629060">
        <ele>17.508445</ele>
        <time>2026-05-06T19:38:01.712Z</time>
      </trkpt>
      <trkpt lat="43.639640" lon="10.629420">
        <ele>17.498978</ele>
        <time>2026-05-06T19:38:07.628Z</time>
      </trkpt>
      <trkpt lat="43.639546" lon="10.629871">
        <ele>17.488141</ele>
        <time>2026-05-06T19:38:14.423Z</time>
      </trkpt>
      <trkpt lat="43.639463" lon="10.630073">
        <ele>17.482778</ele>
        <time>2026-05-06T19:38:17.802Z</time>
      </trkpt>
      <trkpt lat="43.639465" lon="10.630218">
        <ele>17.479429</ele>
        <time>2026-05-06T19:38:19.918Z</time>
      </trkpt>
      <trkpt lat="43.639070" lon="10.630980">
        <ele>17.457786</ele>
        <time>2026-05-06T19:38:33.814Z</time>
      </trkpt>
      <trkpt lat="43.638996" lon="10.631122">
        <ele>17.453746</ele>
        <time>2026-05-06T19:38:36.452Z</time>
      </trkpt>
      <trkpt lat="43.638868" lon="10.631772">
        <ele>17.563486</ele>
        <time>2026-05-06T19:38:46.476Z</time>
      </trkpt>
      <trkpt lat="43.638836" lon="10.631878">
        <ele>17.582311</ele>
        <time>2026-05-06T19:38:48.173Z</time>
      </trkpt>
      <trkpt lat="43.638741" lon="10.632043">
        <ele>17.616868</ele>
        <time>2026-05-06T19:38:51.310Z</time>
      </trkpt>
      <trkpt lat="43.638587" lon="10.632190">
        <ele>17.659257</ele>
        <time>2026-05-06T19:38:55.145Z</time>
      </trkpt>
      <trkpt lat="43.637491" lon="10.632823">
        <ele>17.944391</ele>
        <time>2026-05-06T19:39:21.423Z</time>
      </trkpt>
      <trkpt lat="43.636833" lon="10.633185">
        <ele>18.143201</ele>
        <time>2026-05-06T19:39:36.633Z</time>
      </trkpt>
      <trkpt lat="43.636609" lon="10.633248">
        <ele>18.207369</ele>
        <time>2026-05-06T19:39:41.522Z</time>
      </trkpt>
      <trkpt lat="43.636094" lon="10.633303">
        <ele>18.352365</ele>
        <time>2026-05-06T19:39:52.749Z</time>
      </trkpt>
      <trkpt lat="43.635384" lon="10.633149">
        <ele>18.465212</ele>
        <time>2026-05-06T19:40:07.744Z</time>
      </trkpt>
      <trkpt lat="43.635121" lon="10.633194">
        <ele>18.504466</ele>
        <time>2026-05-06T19:40:13.202Z</time>
      </trkpt>
      <trkpt lat="43.634806" lon="10.633306">
        <ele>18.552645</ele>
        <time>2026-05-06T19:40:20.080Z</time>
      </trkpt>
      <trkpt lat="43.634594" lon="10.633447">
        <ele>18.587495</ele>
        <time>2026-05-06T19:40:25.083Z</time>
      </trkpt>
      <trkpt lat="43.634104" lon="10.633901">
        <ele>18.709372</ele>
        <time>2026-05-06T19:40:37.581Z</time>
      </trkpt>
      <trkpt lat="43.633926" lon="10.633901">
        <ele>18.757100</ele>
        <time>2026-05-06T19:40:41.236Z</time>
      </trkpt>
      <trkpt lat="43.633857" lon="10.633902">
        <ele>18.775603</ele>
        <time>2026-05-06T19:40:42.660Z</time>
      </trkpt>
      <trkpt lat="43.633001" lon="10.633702">
        <ele>19.008388</ele>
        <time>2026-05-06T19:41:01.352Z</time>
      </trkpt>
      <trkpt lat="43.632865" lon="10.633739">
        <ele>19.045555</ele>
        <time>2026-05-06T19:41:04.453Z</time>
      </trkpt>
      <trkpt lat="43.632545" lon="10.634508">
        <ele>19.220958</ele>
        <time>2026-05-06T19:41:18.803Z</time>
      </trkpt>
      <trkpt lat="43.632377" lon="10.634772">
        <ele>19.291333</ele>
        <time>2026-05-06T19:41:24.488Z</time>
      </trkpt>
      <trkpt lat="43.632315" lon="10.634911">
        <ele>19.324020</ele>
        <time>2026-05-06T19:41:27.148Z</time>
      </trkpt>
      <trkpt lat="43.632171" lon="10.635325">
        <ele>19.415976</ele>
        <time>2026-05-06T19:41:34.419Z</time>
      </trkpt>
      <trkpt lat="43.632063" lon="10.635430">
        <ele>19.452503</ele>
        <time>2026-05-06T19:41:37.212Z</time>
      </trkpt>
      <trkpt lat="43.631951" lon="10.635458">
        <ele>19.483986</ele>
        <time>2026-05-06T19:41:39.595Z</time>
      </trkpt>
      <trkpt lat="43.631766" lon="10.635443">
        <ele>19.535244</ele>
        <time>2026-05-06T19:41:43.421Z</time>
      </trkpt>
      <trkpt lat="43.631534" lon="10.635378">
        <ele>19.600721</ele>
        <time>2026-05-06T19:41:48.266Z</time>
      </trkpt>
      <trkpt lat="43.631334" lon="10.635272">
        <ele>19.587501</ele>
        <time>2026-05-06T19:41:52.647Z</time>
      </trkpt>
      <trkpt lat="43.631000" lon="10.634979">
        <ele>19.531248</ele>
        <time>2026-05-06T19:42:00.915Z</time>
      </trkpt>
      <trkpt lat="43.630814" lon="10.634862">
        <ele>19.502190</ele>
        <time>2026-05-06T19:42:05.245Z</time>
      </trkpt>
      <trkpt lat="43.630297" lon="10.634692">
        <ele>19.426629</ele>
        <time>2026-05-06T19:42:15.823Z</time>
      </trkpt>
      <trkpt lat="43.630055" lon="10.634689">
        <ele>19.392219</ele>
        <time>2026-05-06T19:42:20.439Z</time>
      </trkpt>
      <trkpt lat="43.629951" lon="10.634688">
        <ele>19.377432</ele>
        <time>2026-05-06T19:42:22.402Z</time>
      </trkpt>
      <trkpt lat="43.629733" lon="10.634720">
        <ele>19.332342</ele>
        <time>2026-05-06T19:42:26.531Z</time>
      </trkpt>
      <trkpt lat="43.629383" lon="10.634877">
        <ele>19.207976</ele>
        <time>2026-05-06T19:42:33.259Z</time>
      </trkpt>
      <trkpt lat="43.629213" lon="10.634858">
        <ele>19.150335</ele>
        <time>2026-05-06T19:42:36.331Z</time>
      </trkpt>
      <trkpt lat="43.629145" lon="10.634820">
        <ele>19.125544</ele>
        <time>2026-05-06T19:42:37.676Z</time>
      </trkpt>
      <trkpt lat="43.628915" lon="10.634690">
        <ele>19.041559</ele>
        <time>2026-05-06T19:42:42.305Z</time>
      </trkpt>
      <trkpt lat="43.628254" lon="10.634421">
        <ele>18.808675</ele>
        <time>2026-05-06T19:42:55.702Z</time>
      </trkpt>
      <trkpt lat="43.627935" lon="10.634319">
        <ele>18.782675</ele>
        <time>2026-05-06T19:43:03.187Z</time>
      </trkpt>
      <trkpt lat="43.627755" lon="10.634303">
        <ele>18.823950</ele>
        <time>2026-05-06T19:43:07.459Z</time>
      </trkpt>
      <trkpt lat="43.627389" lon="10.634345">
        <ele>18.907989</ele>
        <time>2026-05-06T19:43:16.075Z</time>
      </trkpt>
      <trkpt lat="43.626780" lon="10.634414">
        <ele>19.047814</ele>
        <time>2026-05-06T19:43:29.555Z</time>
      </trkpt>
      <trkpt lat="43.626566" lon="10.634684">
        <ele>19.114131</ele>
        <time>2026-05-06T19:43:35.410Z</time>
      </trkpt>
      <trkpt lat="43.626350" lon="10.634762">
        <ele>19.151963</ele>
        <time>2026-05-06T19:43:39.874Z</time>
      </trkpt>
      <trkpt lat="43.626155" lon="10.634749">
        <ele>19.081481</ele>
        <time>2026-05-06T19:43:43.785Z</time>
      </trkpt>
      <trkpt lat="43.625999" lon="10.634645">
        <ele>19.018947</ele>
        <time>2026-05-06T19:43:46.939Z</time>
      </trkpt>
      <trkpt lat="43.625792" lon="10.634555">
        <ele>18.940601</ele>
        <time>2026-05-06T19:43:50.830Z</time>
      </trkpt>
      <trkpt lat="43.625123" lon="10.634603">
        <ele>18.698751</ele>
        <time>2026-05-06T19:44:03.282Z</time>
      </trkpt>
      <trkpt lat="43.625159" lon="10.634657">
        <ele>18.679566</ele>
        <time>2026-05-06T19:44:04.895Z</time>
      </trkpt>
      <trkpt lat="43.625306" lon="10.634717">
        <ele>18.624227</ele>
        <time>2026-05-06T19:44:09.709Z</time>
      </trkpt>
      <trkpt lat="43.624706" lon="10.634788">
        <ele>18.707810</ele>
        <time>2026-05-06T19:44:29.072Z</time>
      </trkpt>
      <trkpt lat="43.624512" lon="10.634774">
        <ele>18.840841</ele>
        <time>2026-05-06T19:44:35.308Z</time>
      </trkpt>
      <trkpt lat="43.624494" lon="10.634766">
        <ele>18.853790</ele>
        <time>2026-05-06T19:44:35.946Z</time>
      </trkpt>
      <trkpt lat="43.624359" lon="10.634702">
        <ele>18.951529</ele>
        <time>2026-05-06T19:44:40.471Z</time>
      </trkpt>
      <trkpt lat="43.624031" lon="10.634390">
        <ele>19.224239</ele>
        <time>2026-05-06T19:44:54.565Z</time>
      </trkpt>
      <trkpt lat="43.623902" lon="10.634338">
        <ele>19.316262</ele>
        <time>2026-05-06T19:44:59.442Z</time>
      </trkpt>
      <trkpt lat="43.623753" lon="10.634343">
        <ele>19.418326</ele>
        <time>2026-05-06T19:45:04.908Z</time>
      </trkpt>
      <trkpt lat="43.623411" lon="10.634468">
        <ele>19.660584</ele>
        <time>2026-05-06T19:45:17.963Z</time>
      </trkpt>
      <trkpt lat="43.622870" lon="10.634403">
        <ele>20.519442</ele>
        <time>2026-05-06T19:45:39.554Z</time>
      </trkpt>
      <trkpt lat="43.622374" lon="10.634301">
        <ele>21.439439</ele>
        <time>2026-05-06T19:46:01.184Z</time>
      </trkpt>
      <trkpt lat="43.622238" lon="10.634248">
        <ele>21.698685</ele>
        <time>2026-05-06T19:46:07.284Z</time>
      </trkpt>
      <trkpt lat="43.622102" lon="10.634111">
        <ele>22.007487</ele>
        <time>2026-05-06T19:46:14.476Z</time>
      </trkpt>
      <trkpt lat="43.621912" lon="10.634068">
        <ele>22.360711</ele>
        <time>2026-05-06T19:46:20.402Z</time>
      </trkpt>
      <trkpt lat="43.621790" lon="10.634040">
        <ele>22.587602</ele>
        <time>2026-05-06T19:46:24.059Z</time>
      </trkpt>
      <trkpt lat="43.621893" lon="10.633813">
        <ele>22.943406</ele>
        <time>2026-05-06T19:46:29.567Z</time>
      </trkpt>
      <trkpt lat="43.622179" lon="10.633183">
        <ele>23.348936</ele>
        <time>2026-05-06T19:46:43.923Z</time>
      </trkpt>
      <trkpt lat="43.622445" lon="10.632599">
        <ele>23.665148</ele>
        <time>2026-05-06T19:46:55.325Z</time>
      </trkpt>
      <trkpt lat="43.622471" lon="10.632540">
        <ele>23.696803</ele>
        <time>2026-05-06T19:46:56.324Z</time>
      </trkpt>
      <trkpt lat="43.622915" lon="10.631563">
        <ele>24.189065</ele>
        <time>2026-05-06T19:47:11.867Z</time>
      </trkpt>
      <trkpt lat="43.622935" lon="10.631517">
        <ele>24.193556</ele>
        <time>2026-05-06T19:47:12.606Z</time>
      </trkpt>
      <trkpt lat="43.622870" lon="10.631450">
        <ele>24.202934</ele>
        <time>2026-05-06T19:47:14.256Z</time>
      </trkpt>
      <trkpt lat="43.622611" lon="10.631229">
        <ele>24.238134</ele>
        <time>2026-05-06T19:47:20.546Z</time>
      </trkpt>
      <trkpt lat="43.622416" lon="10.631149">
        <ele>24.261655</ele>
        <time>2026-05-06T19:47:25.024Z</time>
      </trkpt>
      <trkpt lat="43.621904" lon="10.631308">
        <ele>24.322335</ele>
        <time>2026-05-06T19:47:36.652Z</time>
      </trkpt>
      <trkpt lat="43.621581" lon="10.631408">
        <ele>24.360610</ele>
        <time>2026-05-06T19:47:43.519Z</time>
      </trkpt>
      <trkpt lat="43.621422" lon="10.631357">
        <ele>24.379484</ele>
        <time>2026-05-06T19:47:46.828Z</time>
      </trkpt>
      <trkpt lat="43.621350" lon="10.631334">
        <ele>24.388029</ele>
        <time>2026-05-06T19:47:48.333Z</time>
      </trkpt>
      <trkpt lat="43.621344" lon="10.631301">
        <ele>24.390436</ele>
        <time>2026-05-06T19:47:48.793Z</time>
      </trkpt>
      <trkpt lat="43.621267" lon="10.631149">
        <ele>24.402491</ele>
        <time>2026-05-06T19:47:51.308Z</time>
      </trkpt>
      <trkpt lat="43.620877" lon="10.630836">
        <ele>24.442977</ele>
        <time>2026-05-06T19:47:59.769Z</time>
      </trkpt>
      <trkpt lat="43.620610" lon="10.630661">
        <ele>24.469504</ele>
        <time>2026-05-06T19:48:05.694Z</time>
      </trkpt>
      <trkpt lat="43.620595" lon="10.630652">
        <ele>24.470972</ele>
        <time>2026-05-06T19:48:06.048Z</time>
      </trkpt>
      <trkpt lat="43.620476" lon="10.630575">
        <ele>24.482767</ele>
        <time>2026-05-06T19:48:08.735Z</time>
      </trkpt>
      <trkpt lat="43.620309" lon="10.630466">
        <ele>24.499346</ele>
        <time>2026-05-06T19:48:12.400Z</time>
      </trkpt>
      <trkpt lat="43.620108" lon="10.630331">
        <ele>24.519407</ele>
        <time>2026-05-06T19:48:16.787Z</time>
      </trkpt>
      <trkpt lat="43.620048" lon="10.630338">
        <ele>24.524812</ele>
        <time>2026-05-06T19:48:18.018Z</time>
      </trkpt>
      <trkpt lat="43.620015" lon="10.630342">
        <ele>24.527785</ele>
        <time>2026-05-06T19:48:18.685Z</time>
      </trkpt>
      <trkpt lat="43.619953" lon="10.630390">
        <ele>24.534165</ele>
        <time>2026-05-06T19:48:20.139Z</time>
      </trkpt>
      <trkpt lat="43.619878" lon="10.630624">
        <ele>24.549082</ele>
        <time>2026-05-06T19:48:23.864Z</time>
      </trkpt>
      <trkpt lat="43.619827" lon="10.630796">
        <ele>24.514403</ele>
        <time>2026-05-06T19:48:26.519Z</time>
      </trkpt>
      <trkpt lat="43.619776" lon="10.630962">
        <ele>24.480757</ele>
        <time>2026-05-06T19:48:29.037Z</time>
      </trkpt>
      <trkpt lat="43.619738" lon="10.631101">
        <ele>24.453035</ele>
        <time>2026-05-06T19:48:31.148Z</time>
      </trkpt>
      <trkpt lat="43.619643" lon="10.631432">
        <ele>24.386601</ele>
        <time>2026-05-06T19:48:36.259Z</time>
      </trkpt>
      <trkpt lat="43.619583" lon="10.631640">
        <ele>24.344825</ele>
        <time>2026-05-06T19:48:39.483Z</time>
      </trkpt>
      <trkpt lat="43.619511" lon="10.631902">
        <ele>24.292537</ele>
        <time>2026-05-06T19:48:43.317Z</time>
      </trkpt>
      <trkpt lat="43.619456" lon="10.632100">
        <ele>24.252968</ele>
        <time>2026-05-06T19:48:46.178Z</time>
      </trkpt>
      <trkpt lat="43.619373" lon="10.632440">
        <ele>24.186021</ele>
        <time>2026-05-06T19:48:50.871Z</time>
      </trkpt>
      <trkpt lat="43.619284" lon="10.632793">
        <ele>24.116278</ele>
        <time>2026-05-06T19:48:55.641Z</time>
      </trkpt>
      <trkpt lat="43.619277" lon="10.632819">
        <ele>24.111102</ele>
        <time>2026-05-06T19:48:55.988Z</time>
      </trkpt>
      <trkpt lat="43.619214" lon="10.633104">
        <ele>24.049430</ele>
        <time>2026-05-06T19:48:59.495Z</time>
      </trkpt>
      <trkpt lat="43.619216" lon="10.633183">
        <ele>24.031818</ele>
        <time>2026-05-06T19:49:00.435Z</time>
      </trkpt>
      <trkpt lat="43.619253" lon="10.633270">
        <ele>24.009337</ele>
        <time>2026-05-06T19:49:01.614Z</time>
      </trkpt>
      <trkpt lat="43.619372" lon="10.633276">
        <ele>23.972689</ele>
        <time>2026-05-06T19:49:03.615Z</time>
      </trkpt>
      <trkpt lat="43.619843" lon="10.633409">
        <ele>23.824736</ele>
        <time>2026-05-06T19:49:12.012Z</time>
      </trkpt>
      <trkpt lat="43.619900" lon="10.633425">
        <ele>23.806835</ele>
        <time>2026-05-06T19:49:13.075Z</time>
      </trkpt>
      <trkpt lat="43.619799" lon="10.633786">
        <ele>23.720607</ele>
        <time>2026-05-06T19:49:18.174Z</time>
      </trkpt>
      <trkpt lat="43.619692" lon="10.634171">
        <ele>23.628726</ele>
        <time>2026-05-06T19:49:24.339Z</time>
      </trkpt>
      <trkpt lat="43.619507" lon="10.634429">
        <ele>23.547819</ele>
        <time>2026-05-06T19:49:30.031Z</time>
      </trkpt>
      <trkpt lat="43.619248" lon="10.634747">
        <ele>23.716581</ele>
        <time>2026-05-06T19:49:37.126Z</time>
      </trkpt>
      <trkpt lat="43.619193" lon="10.634815">
        <ele>23.761822</ele>
        <time>2026-05-06T19:49:38.711Z</time>
      </trkpt>
      <trkpt lat="43.618878" lon="10.635346">
        <ele>24.066436</ele>
        <time>2026-05-06T19:49:50.368Z</time>
      </trkpt>
      <trkpt lat="43.618390" lon="10.636155">
        <ele>24.533685</ele>
        <time>2026-05-06T19:50:07.993Z</time>
      </trkpt>
      <trkpt lat="43.618017" lon="10.636829">
        <ele>24.798869</ele>
        <time>2026-05-06T19:50:21.126Z</time>
      </trkpt>
      <trkpt lat="43.617922" lon="10.637063">
        <ele>24.869658</ele>
        <time>2026-05-06T19:50:25.176Z</time>
      </trkpt>
      <trkpt lat="43.617803" lon="10.637389">
        <ele>24.965992</ele>
        <time>2026-05-06T19:50:30.711Z</time>
      </trkpt>
      <trkpt lat="43.617669" lon="10.637674">
        <ele>25.055660</ele>
        <time>2026-05-06T19:50:35.911Z</time>
      </trkpt>
      <trkpt lat="43.617524" lon="10.637920">
        <ele>25.139363</ele>
        <time>2026-05-06T19:50:40.717Z</time>
      </trkpt>
      <trkpt lat="43.616900" lon="10.638740">
        <ele>25.336678</ele>
        <time>2026-05-06T19:50:58.044Z</time>
      </trkpt>
      <trkpt lat="43.616852" lon="10.638806">
        <ele>25.343604</ele>
        <time>2026-05-06T19:50:59.337Z</time>
      </trkpt>
      <trkpt lat="43.616666" lon="10.639057">
        <ele>25.370196</ele>
        <time>2026-05-06T19:51:04.282Z</time>
      </trkpt>
      <trkpt lat="43.616334" lon="10.639544">
        <ele>25.419720</ele>
        <time>2026-05-06T19:51:13.535Z</time>
      </trkpt>
      <trkpt lat="43.616009" lon="10.640154">
        <ele>25.476017</ele>
        <time>2026-05-06T19:51:24.435Z</time>
      </trkpt>
      <trkpt lat="43.615851" lon="10.640389">
        <ele>25.507880</ele>
        <time>2026-05-06T19:51:29.027Z</time>
      </trkpt>
      <trkpt lat="43.615655" lon="10.640578">
        <ele>25.540684</ele>
        <time>2026-05-06T19:51:33.776Z</time>
      </trkpt>
      <trkpt lat="43.615229" lon="10.640890">
        <ele>25.606855</ele>
        <time>2026-05-06T19:51:43.428Z</time>
      </trkpt>
      <trkpt lat="43.614859" lon="10.641148">
        <ele>25.663734</ele>
        <time>2026-05-06T19:51:51.605Z</time>
      </trkpt>
      <trkpt lat="43.614428" lon="10.641438">
        <ele>25.750953</ele>
        <time>2026-05-06T19:52:01.223Z</time>
      </trkpt>
      <trkpt lat="43.614282" lon="10.641516">
        <ele>25.833363</ele>
        <time>2026-05-06T19:52:04.372Z</time>
      </trkpt>
      <trkpt lat="43.614038" lon="10.641644">
        <ele>25.970769</ele>
        <time>2026-05-06T19:52:09.645Z</time>
      </trkpt>
      <trkpt lat="43.613532" lon="10.641831">
        <ele>26.246521</ele>
        <time>2026-05-06T19:52:20.697Z</time>
      </trkpt>
      <trkpt lat="43.613306" lon="10.641951">
        <ele>26.373987</ele>
        <time>2026-05-06T19:52:26.038Z</time>
      </trkpt>
      <trkpt lat="43.612841" lon="10.642364">
        <ele>26.665030</ele>
        <time>2026-05-06T19:52:39.069Z</time>
      </trkpt>
      <trkpt lat="43.612629" lon="10.642502">
        <ele>26.824435</ele>
        <time>2026-05-06T19:52:44.695Z</time>
      </trkpt>
      <trkpt lat="43.612025" lon="10.642697">
        <ele>27.249377</ele>
        <time>2026-05-06T19:52:59.710Z</time>
      </trkpt>
      <trkpt lat="43.611916" lon="10.642735">
        <ele>27.326393</ele>
        <time>2026-05-06T19:53:02.359Z</time>
      </trkpt>
      <trkpt lat="43.611547" lon="10.642925">
        <ele>27.596184</ele>
        <time>2026-05-06T19:53:11.012Z</time>
      </trkpt>
      <trkpt lat="43.611200" lon="10.643013">
        <ele>27.837881</ele>
        <time>2026-05-06T19:53:17.913Z</time>
      </trkpt>
      <trkpt lat="43.611148" lon="10.643021">
        <ele>27.873726</ele>
        <time>2026-05-06T19:53:18.923Z</time>
      </trkpt>
      <trkpt lat="43.610943" lon="10.643018">
        <ele>28.008845</ele>
        <time>2026-05-06T19:53:22.931Z</time>
      </trkpt>
      <trkpt lat="43.610695" lon="10.642936">
        <ele>28.175311</ele>
        <time>2026-05-06T19:53:28.567Z</time>
      </trkpt>
      <trkpt lat="43.610590" lon="10.642803">
        <ele>28.268316</ele>
        <time>2026-05-06T19:53:31.917Z</time>
      </trkpt>
      <trkpt lat="43.610426" lon="10.642722">
        <ele>28.382013</ele>
        <time>2026-05-06T19:53:36.225Z</time>
      </trkpt>
      <trkpt lat="43.610253" lon="10.642744">
        <ele>28.495424</ele>
        <time>2026-05-06T19:53:40.831Z</time>
      </trkpt>
      <trkpt lat="43.610103" lon="10.642864">
        <ele>28.608583</ele>
        <time>2026-05-06T19:53:45.614Z</time>
      </trkpt>
      <trkpt lat="43.610001" lon="10.643068">
        <ele>28.725761</ele>
        <time>2026-05-06T19:53:50.319Z</time>
      </trkpt>
      <trkpt lat="43.609974" lon="10.643313">
        <ele>28.842894</ele>
        <time>2026-05-06T19:53:54.565Z</time>
      </trkpt>
      <trkpt lat="43.610008" lon="10.643502">
        <ele>28.934942</ele>
        <time>2026-05-06T19:53:57.587Z</time>
      </trkpt>
      <trkpt lat="43.610087" lon="10.643663">
        <ele>29.026868</ele>
        <time>2026-05-06T19:54:00.436Z</time>
      </trkpt>
      <trkpt lat="43.609974" lon="10.643829">
        <ele>28.935095</ele>
        <time>2026-05-06T19:54:03.579Z</time>
      </trkpt>
      <trkpt lat="43.609933" lon="10.643890">
        <ele>28.842210</ele>
        <time>2026-05-06T19:54:04.675Z</time>
      </trkpt>
      <trkpt lat="43.609898" lon="10.643952">
        <ele>28.754475</ele>
        <time>2026-05-06T19:54:06.425Z</time>
      </trkpt>
      <trkpt lat="43.609732" lon="10.644032">
        <ele>28.483491</ele>
        <time>2026-05-06T19:54:11.751Z</time>
      </trkpt>
      <trkpt lat="43.609603" lon="10.643922">
        <ele>28.249820</ele>
        <time>2026-05-06T19:54:16.205Z</time>
      </trkpt>
      <trkpt lat="43.609362" lon="10.643212">
        <ele>27.374722</ele>
        <time>2026-05-06T19:54:31.625Z</time>
      </trkpt>
      <trkpt lat="43.609219" lon="10.643010">
        <ele>27.059448</ele>
        <time>2026-05-06T19:54:36.993Z</time>
      </trkpt>
      <trkpt lat="43.609107" lon="10.642966">
        <ele>26.879975</ele>
        <time>2026-05-06T19:54:39.981Z</time>
      </trkpt>
      <trkpt lat="43.608539" lon="10.642882">
        <ele>26.280275</ele>
        <time>2026-05-06T19:54:55.089Z</time>
      </trkpt>
      <trkpt lat="43.607360" lon="10.642708">
        <ele>26.143589</ele>
        <time>2026-05-06T19:55:33.679Z</time>
      </trkpt>
      <trkpt lat="43.605530" lon="10.642439">
        <ele>27.334817</ele>
        <time>2026-05-06T19:56:43.532Z</time>
      </trkpt>
      <trkpt lat="43.602437" lon="10.642376">
        <ele>27.555372</ele>
        <time>2026-05-06T19:58:20.995Z</time>
      </trkpt>
      <trkpt lat="43.598622" lon="10.642299">
        <ele>28.446141</ele>
        <time>2026-05-06T20:00:22.465Z</time>
      </trkpt>
      <trkpt lat="43.598235" lon="10.643181">
        <ele>29.139653</ele>
        <time>2026-05-06T20:00:44.413Z</time>
      </trkpt>
      <trkpt lat="43.597994" lon="10.643871">
        <ele>30.327618</ele>
        <time>2026-05-06T20:01:02.530Z</time>
      </trkpt>
      <trkpt lat="43.597771" lon="10.644423">
        <ele>31.307818</ele>
        <time>2026-05-06T20:01:16.936Z</time>
      </trkpt>
      <trkpt lat="43.597759" lon="10.644486">
        <ele>31.408839</ele>
        <time>2026-05-06T20:01:18.906Z</time>
      </trkpt>
      <trkpt lat="43.597784" lon="10.644580">
        <ele>31.564129</ele>
        <time>2026-05-06T20:01:21.976Z</time>
      </trkpt>
      <trkpt lat="43.598242" lon="10.645327">
        <ele>33.334124</ele>
        <time>2026-05-06T20:01:51.138Z</time>
      </trkpt>
      <trkpt lat="43.598702" lon="10.645994">
        <ele>36.066018</ele>
        <time>2026-05-06T20:02:20.967Z</time>
      </trkpt>
      <trkpt lat="43.598814" lon="10.646219">
        <ele>36.875817</ele>
        <time>2026-05-06T20:02:30.678Z</time>
      </trkpt>
      <trkpt lat="43.598830" lon="10.646308">
        <ele>37.147804</ele>
        <time>2026-05-06T20:02:34.067Z</time>
      </trkpt>
      <trkpt lat="43.598821" lon="10.646418">
        <ele>37.476140</ele>
        <time>2026-05-06T20:02:38.257Z</time>
      </trkpt>
      <trkpt lat="43.598546" lon="10.647313">
        <ele>40.554749</ele>
        <time>2026-05-06T20:03:20.481Z</time>
      </trkpt>
      <trkpt lat="43.598482" lon="10.647674">
        <ele>42.803068</ele>
        <time>2026-05-06T20:03:39.249Z</time>
      </trkpt>
      <trkpt lat="43.598478" lon="10.647864">
        <ele>43.952941</ele>
        <time>2026-05-06T20:03:49.361Z</time>
      </trkpt>
      <trkpt lat="43.598652" lon="10.648356">
        <ele>47.265188</ele>
        <time>2026-05-06T20:04:20.115Z</time>
      </trkpt>
      <trkpt lat="43.598892" lon="10.648886">
        <ele>51.046556</ele>
        <time>2026-05-06T20:04:57.067Z</time>
      </trkpt>
      <trkpt lat="43.598940" lon="10.649064">
        <ele>52.195572</ele>
        <time>2026-05-06T20:05:08.123Z</time>
      </trkpt>
      <trkpt lat="43.598958" lon="10.649336">
        <ele>53.847853</ele>
        <time>2026-05-06T20:05:23.591Z</time>
      </trkpt>
      <trkpt lat="43.598918" lon="10.649584">
        <ele>55.306458</ele>
        <time>2026-05-06T20:05:37.452Z</time>
      </trkpt>
      <trkpt lat="43.598843" lon="10.649792">
        <ele>56.125815</ele>
        <time>2026-05-06T20:05:49.437Z</time>
      </trkpt>
      <trkpt lat="43.598785" lon="10.649895">
        <ele>56.585904</ele>
        <time>2026-05-06T20:05:55.872Z</time>
      </trkpt>
      <trkpt lat="43.598759" lon="10.649923">
        <ele>56.746456</ele>
        <time>2026-05-06T20:05:58.079Z</time>
      </trkpt>
      <trkpt lat="43.598622" lon="10.650076">
        <ele>57.604421</ele>
        <time>2026-05-06T20:06:09.490Z</time>
      </trkpt>
      <trkpt lat="43.598033" lon="10.650300">
        <ele>60.579237</ele>
        <time>2026-05-06T20:06:44.322Z</time>
      </trkpt>
      <trkpt lat="43.597833" lon="10.650443">
        <ele>61.675913</ele>
        <time>2026-05-06T20:06:55.299Z</time>
      </trkpt>
      <trkpt lat="43.597754" lon="10.650585">
        <ele>62.307354</ele>
        <time>2026-05-06T20:07:01.125Z</time>
      </trkpt>
      <trkpt lat="43.596956" lon="10.652611">
        <ele>65.935365</ele>
        <time>2026-05-06T20:08:08.639Z</time>
      </trkpt>
      <trkpt lat="43.596695" lon="10.652710">
        <ele>66.337826</ele>
        <time>2026-05-06T20:08:18.664Z</time>
      </trkpt>
      <trkpt lat="43.596508" lon="10.652842">
        <ele>66.623109</ele>
        <time>2026-05-06T20:08:26.148Z</time>
      </trkpt>
      <trkpt lat="43.596397" lon="10.652986">
        <ele>66.552999</ele>
        <time>2026-05-06T20:08:31.420Z</time>
      </trkpt>
      <trkpt lat="43.596189" lon="10.653534">
        <ele>66.346736</ele>
        <time>2026-05-06T20:08:46.109Z</time>
      </trkpt>
      <trkpt lat="43.595457" lon="10.654025">
        <ele>65.972119</ele>
        <time>2026-05-06T20:09:10.539Z</time>
      </trkpt>
      <trkpt lat="43.595150" lon="10.654231">
        <ele>65.814994</ele>
        <time>2026-05-06T20:09:20.294Z</time>
      </trkpt>
      <trkpt lat="43.594396" lon="10.654475">
        <ele>64.112507</ele>
        <time>2026-05-06T20:09:41.726Z</time>
      </trkpt>
      <trkpt lat="43.593652" lon="10.654650">
        <ele>62.401832</ele>
        <time>2026-05-06T20:10:01.454Z</time>
      </trkpt>
      <trkpt lat="43.593573" lon="10.654704">
        <ele>62.202026</ele>
        <time>2026-05-06T20:10:03.748Z</time>
      </trkpt>
      <trkpt lat="43.593432" lon="10.654801">
        <ele>61.844957</ele>
        <time>2026-05-06T20:10:07.875Z</time>
      </trkpt>
      <trkpt lat="43.593063" lon="10.655197">
        <ele>61.648769</ele>
        <time>2026-05-06T20:10:20.356Z</time>
      </trkpt>
      <trkpt lat="43.592664" lon="10.656137">
        <ele>61.504244</ele>
        <time>2026-05-06T20:10:43.344Z</time>
      </trkpt>
      <trkpt lat="43.592465" lon="10.656699">
        <ele>61.421264</ele>
        <time>2026-05-06T20:11:01.768Z</time>
      </trkpt>
      <trkpt lat="43.592238" lon="10.657070">
        <ele>61.813786</ele>
        <time>2026-05-06T20:11:18.967Z</time>
      </trkpt>
      <trkpt lat="43.592121" lon="10.657334">
        <ele>62.261504</ele>
        <time>2026-05-06T20:11:30.701Z</time>
      </trkpt>
      <trkpt lat="43.592037" lon="10.657643">
        <ele>62.738943</ele>
        <time>2026-05-06T20:11:43.261Z</time>
      </trkpt>
      <trkpt lat="43.591911" lon="10.658347">
        <ele>63.787966</ele>
        <time>2026-05-06T20:12:08.285Z</time>
      </trkpt>
      <trkpt lat="43.591867" lon="10.658524">
        <ele>64.058671</ele>
        <time>2026-05-06T20:12:13.884Z</time>
      </trkpt>
      <trkpt lat="43.591777" lon="10.658738">
        <ele>64.416644</ele>
        <time>2026-05-06T20:12:20.681Z</time>
      </trkpt>
      <trkpt lat="43.591628" lon="10.658916">
        <ele>64.810174</ele>
        <time>2026-05-06T20:12:27.223Z</time>
      </trkpt>
      <trkpt lat="43.591424" lon="10.659082">
        <ele>64.562925</ele>
        <time>2026-05-06T20:12:34.193Z</time>
      </trkpt>
      <trkpt lat="43.590727" lon="10.659545">
        <ele>62.342437</ele>
        <time>2026-05-06T20:12:54.154Z</time>
      </trkpt>
      <trkpt lat="43.590408" lon="10.659813">
        <ele>61.270437</ele>
        <time>2026-05-06T20:13:03.289Z</time>
      </trkpt>
      <trkpt lat="43.589769" lon="10.660353">
        <ele>59.261900</ele>
        <time>2026-05-06T20:13:22.152Z</time>
      </trkpt>
      <trkpt lat="43.589035" lon="10.661217">
        <ele>57.052009</ele>
        <time>2026-05-06T20:13:49.413Z</time>
      </trkpt>
      <trkpt lat="43.588443" lon="10.662262">
        <ele>54.229015</ele>
        <time>2026-05-06T20:14:15.466Z</time>
      </trkpt>
      <trkpt lat="43.588295" lon="10.662518">
        <ele>53.289360</ele>
        <time>2026-05-06T20:14:18.986Z</time>
      </trkpt>
      <trkpt lat="43.588235" lon="10.662453">
        <ele>52.987295</ele>
        <time>2026-05-06T20:14:20.869Z</time>
      </trkpt>
      <trkpt lat="43.587954" lon="10.662150">
        <ele>51.575125</ele>
        <time>2026-05-06T20:14:29.581Z</time>
      </trkpt>
      <trkpt lat="43.587883" lon="10.662105">
        <ele>51.265701</ele>
        <time>2026-05-06T20:14:31.457Z</time>
      </trkpt>
      <trkpt lat="43.587810" lon="10.662107">
        <ele>50.976516</ele>
        <time>2026-05-06T20:14:33.204Z</time>
      </trkpt>
      <trkpt lat="43.587465" lon="10.662384">
        <ele>49.395818</ele>
        <time>2026-05-06T20:14:42.683Z</time>
      </trkpt>
      <trkpt lat="43.587224" lon="10.662454">
        <ele>48.494741</ele>
        <time>2026-05-06T20:14:48.575Z</time>
      </trkpt>
      <trkpt lat="43.587160" lon="10.662422">
        <ele>48.351176</ele>
        <time>2026-05-06T20:14:50.227Z</time>
      </trkpt>
      <trkpt lat="43.587041" lon="10.662294">
        <ele>48.033004</ele>
        <time>2026-05-06T20:14:53.973Z</time>
      </trkpt>
      <trkpt lat="43.586824" lon="10.661995">
        <ele>47.386377</ele>
        <time>2026-05-06T20:15:02.098Z</time>
      </trkpt>
      <trkpt lat="43.586702" lon="10.661881">
        <ele>47.075664</ele>
        <time>2026-05-06T20:15:06.217Z</time>
      </trkpt>
      <trkpt lat="43.586625" lon="10.661760">
        <ele>46.829603</ele>
        <time>2026-05-06T20:15:09.559Z</time>
      </trkpt>
      <trkpt lat="43.586540" lon="10.661551">
        <ele>46.463421</ele>
        <time>2026-05-06T20:15:14.577Z</time>
      </trkpt>
      <trkpt lat="43.586389" lon="10.661447">
        <ele>46.107509</ele>
        <time>2026-05-06T20:15:19.515Z</time>
      </trkpt>
      <trkpt lat="43.586239" lon="10.661415">
        <ele>45.787383</ele>
        <time>2026-05-06T20:15:23.936Z</time>
      </trkpt>
      <trkpt lat="43.585776" lon="10.661452">
        <ele>44.809216</ele>
        <time>2026-05-06T20:15:37.357Z</time>
      </trkpt>
      <trkpt lat="43.585426" lon="10.660097">
        <ele>44.390967</ele>
        <time>2026-05-06T20:16:08.241Z</time>
      </trkpt>
      <trkpt lat="43.585298" lon="10.659367">
        <ele>44.182589</ele>
        <time>2026-05-06T20:16:24.912Z</time>
      </trkpt>
      <trkpt lat="43.585285" lon="10.659288">
        <ele>44.160113</ele>
        <time>2026-05-06T20:16:26.800Z</time>
      </trkpt>
      <trkpt lat="43.584310" lon="10.659576">
        <ele>45.820469</ele>
        <time>2026-05-06T20:17:03.897Z</time>
      </trkpt>
      <trkpt lat="43.584050" lon="10.659839">
        <ele>46.488113</ele>
        <time>2026-05-06T20:17:17.259Z</time>
      </trkpt>
      <trkpt lat="43.583823" lon="10.660015">
        <ele>47.027387</ele>
        <time>2026-05-06T20:17:28.792Z</time>
      </trkpt>
      <trkpt lat="43.583134" lon="10.659882">
        <ele>49.561442</ele>
        <time>2026-05-06T20:18:04.975Z</time>
      </trkpt>
      <trkpt lat="43.582859" lon="10.659862">
        <ele>51.097122</ele>
        <time>2026-05-06T20:18:21.084Z</time>
      </trkpt>
      <trkpt lat="43.582675" lon="10.659962">
        <ele>52.199861</ele>
        <time>2026-05-06T20:18:33.097Z</time>
      </trkpt>
      <trkpt lat="43.582188" lon="10.660002">
        <ele>54.920448</ele>
        <time>2026-05-06T20:19:04.128Z</time>
      </trkpt>
      <trkpt lat="43.581022" lon="10.660691">
        <ele>62.466398</ele>
        <time>2026-05-06T20:20:24.647Z</time>
      </trkpt>
      <trkpt lat="43.580937" lon="10.660741">
        <ele>63.040508</ele>
        <time>2026-05-06T20:20:30.160Z</time>
      </trkpt>
      <trkpt lat="43.580759" lon="10.660871">
        <ele>64.291787</ele>
        <time>2026-05-06T20:20:42.169Z</time>
      </trkpt>
      <trkpt lat="43.580219" lon="10.661001">
        <ele>67.697789</ele>
        <time>2026-05-06T20:21:15.803Z</time>
      </trkpt>
      <trkpt lat="43.579911" lon="10.661147">
        <ele>69.923963</ele>
        <time>2026-05-06T20:21:36.225Z</time>
      </trkpt>
      <trkpt lat="43.579604" lon="10.661247">
        <ele>72.457666</ele>
        <time>2026-05-06T20:21:57.525Z</time>
      </trkpt>
      <trkpt lat="43.579380" lon="10.661137">
        <ele>74.367409</ele>
        <time>2026-05-06T20:22:15.056Z</time>
      </trkpt>
      <trkpt lat="43.579173" lon="10.661104">
        <ele>76.041190</ele>
        <time>2026-05-06T20:22:31.005Z</time>
      </trkpt>
      <trkpt lat="43.579006" lon="10.661180">
        <ele>77.453637</ele>
        <time>2026-05-06T20:22:44.882Z</time>
      </trkpt>
      <trkpt lat="43.578896" lon="10.661267">
        <ele>78.471967</ele>
        <time>2026-05-06T20:22:54.886Z</time>
      </trkpt>
      <trkpt lat="43.578478" lon="10.661400">
        <ele>81.917596</ele>
        <time>2026-05-06T20:23:28.394Z</time>
      </trkpt>
      <trkpt lat="43.578039" lon="10.661607">
        <ele>84.455654</ele>
        <time>2026-05-06T20:24:01.622Z</time>
      </trkpt>
      <trkpt lat="43.577771" lon="10.661790">
        <ele>85.540649</ele>
        <time>2026-05-06T20:24:21.230Z</time>
      </trkpt>
      <trkpt lat="43.577398" lon="10.661986">
        <ele>86.988939</ele>
        <time>2026-05-06T20:24:42.817Z</time>
      </trkpt>
      <trkpt lat="43.576967" lon="10.662100">
        <ele>88.581397</ele>
        <time>2026-05-06T20:24:59.853Z</time>
      </trkpt>
      <trkpt lat="43.576691" lon="10.662003">
        <ele>89.614894</ele>
        <time>2026-05-06T20:25:08.835Z</time>
      </trkpt>
      <trkpt lat="43.576655" lon="10.662003">
        <ele>89.745530</ele>
        <time>2026-05-06T20:25:09.912Z</time>
      </trkpt>
      <trkpt lat="43.576422" lon="10.662004">
        <ele>89.739455</ele>
        <time>2026-05-06T20:25:16.876Z</time>
      </trkpt>
      <trkpt lat="43.576584" lon="10.661773">
        <ele>89.359879</ele>
        <time>2026-05-06T20:25:21.011Z</time>
      </trkpt>
      <trkpt lat="43.576666" lon="10.661608">
        <ele>89.123647</ele>
        <time>2026-05-06T20:25:23.587Z</time>
      </trkpt>
      <trkpt lat="43.577080" lon="10.660588">
        <ele>87.743298</ele>
        <time>2026-05-06T20:25:37.540Z</time>
      </trkpt>
      <trkpt lat="43.577154" lon="10.660406">
        <ele>87.496898</ele>
        <time>2026-05-06T20:25:40.012Z</time>
      </trkpt>
      <trkpt lat="43.577215" lon="10.660249">
        <ele>87.286567</ele>
        <time>2026-05-06T20:25:42.146Z</time>
      </trkpt>
      <trkpt lat="43.577355" lon="10.660006">
        <ele>86.625603</ele>
        <time>2026-05-06T20:25:45.790Z</time>
      </trkpt>
      <trkpt lat="43.577563" lon="10.659762">
        <ele>85.320032</ele>
        <time>2026-05-06T20:25:50.156Z</time>
      </trkpt>
      <trkpt lat="43.577607" lon="10.659748">
        <ele>85.104064</ele>
        <time>2026-05-06T20:25:50.858Z</time>
      </trkpt>
      <trkpt lat="43.577786" lon="10.659692">
        <ele>84.226206</ele>
        <time>2026-05-06T20:25:53.721Z</time>
      </trkpt>
      <trkpt lat="43.578499" lon="10.659748">
        <ele>80.810457</ele>
        <time>2026-05-06T20:26:03.893Z</time>
      </trkpt>
      <trkpt lat="43.578784" lon="10.659557">
        <ele>79.295164</ele>
        <time>2026-05-06T20:26:11.222Z</time>
      </trkpt>
      <trkpt lat="43.578836" lon="10.659501">
        <ele>78.979716</ele>
        <time>2026-05-06T20:26:12.719Z</time>
      </trkpt>
      <trkpt lat="43.578932" lon="10.659399">
        <ele>78.362950</ele>
        <time>2026-05-06T20:26:15.463Z</time>
      </trkpt>
      <trkpt lat="43.579162" lon="10.657688">
        <ele>69.074654</ele>
        <time>2026-05-06T20:26:43.204Z</time>
      </trkpt>
      <trkpt lat="43.579403" lon="10.656890">
        <ele>64.993140</ele>
        <time>2026-05-06T20:26:57.625Z</time>
      </trkpt>
      <trkpt lat="43.579440" lon="10.656567">
        <ele>64.476607</ele>
        <time>2026-05-06T20:27:03.487Z</time>
      </trkpt>
      <trkpt lat="43.579268" lon="10.656094">
        <ele>63.640634</ele>
        <time>2026-05-06T20:27:13.647Z</time>
      </trkpt>
      <trkpt lat="43.579210" lon="10.655779">
        <ele>63.127254</ele>
        <time>2026-05-06T20:27:20.357Z</time>
      </trkpt>
      <trkpt lat="43.579195" lon="10.655143">
        <ele>62.122125</ele>
        <time>2026-05-06T20:27:34.499Z</time>
      </trkpt>
      <trkpt lat="43.579346" lon="10.654662">
        <ele>61.293989</ele>
        <time>2026-05-06T20:27:46.788Z</time>
      </trkpt>
      <trkpt lat="43.579384" lon="10.654540">
        <ele>61.068260</ele>
        <time>2026-05-06T20:27:49.825Z</time>
      </trkpt>
      <trkpt lat="43.579549" lon="10.654171">
        <ele>60.331178</ele>
        <time>2026-05-06T20:27:59.439Z</time>
      </trkpt>
      <trkpt lat="43.579749" lon="10.654030">
        <ele>59.804240</ele>
        <time>2026-05-06T20:28:05.926Z</time>
      </trkpt>
      <trkpt lat="43.580121" lon="10.653702">
        <ele>58.768521</ele>
        <time>2026-05-06T20:28:17.991Z</time>
      </trkpt>
      <trkpt lat="43.581038" lon="10.652841">
        <ele>54.904736</ele>
        <time>2026-05-06T20:28:45.690Z</time>
      </trkpt>
      <trkpt lat="43.581326" lon="10.652516">
        <ele>52.820151</ele>
        <time>2026-05-06T20:28:54.409Z</time>
      </trkpt>
      <trkpt lat="43.581531" lon="10.652191">
        <ele>51.070741</ele>
        <time>2026-05-06T20:29:01.603Z</time>
      </trkpt>
      <trkpt lat="43.581595" lon="10.651903">
        <ele>49.847831</ele>
        <time>2026-05-06T20:29:06.591Z</time>
      </trkpt>
      <trkpt lat="43.581623" lon="10.651777">
        <ele>49.312809</ele>
        <time>2026-05-06T20:29:08.768Z</time>
      </trkpt>
      <trkpt lat="43.581462" lon="10.651454">
        <ele>47.721165</ele>
        <time>2026-05-06T20:29:12.603Z</time>
      </trkpt>
      <trkpt lat="43.581144" lon="10.650697">
        <ele>46.132211</ele>
        <time>2026-05-06T20:29:21.384Z</time>
      </trkpt>
      <trkpt lat="43.580894" lon="10.649850">
        <ele>44.998300</ele>
        <time>2026-05-06T20:29:31.970Z</time>
      </trkpt>
      <trkpt lat="43.580595" lon="10.648756">
        <ele>44.961039</ele>
        <time>2026-05-06T20:29:57.194Z</time>
      </trkpt>
      <trkpt lat="43.579913" lon="10.646257">
        <ele>53.956975</ele>
        <time>2026-05-06T20:31:30.206Z</time>
      </trkpt>
      <trkpt lat="43.579590" lon="10.645801">
        <ele>55.694445</ele>
        <time>2026-05-06T20:31:54.572Z</time>
      </trkpt>
      <trkpt lat="43.579453" lon="10.645491">
        <ele>56.683738</ele>
        <time>2026-05-06T20:32:07.247Z</time>
      </trkpt>
      <trkpt lat="43.579314" lon="10.645071">
        <ele>57.941712</ele>
        <time>2026-05-06T20:32:19.971Z</time>
      </trkpt>
      <trkpt lat="43.579111" lon="10.644742">
        <ele>59.119077</ele>
        <time>2026-05-06T20:32:28.251Z</time>
      </trkpt>
      <trkpt lat="43.578955" lon="10.644569">
        <ele>58.679932</ele>
        <time>2026-05-06T20:32:31.991Z</time>
      </trkpt>
      <trkpt lat="43.578950" lon="10.644322">
        <ele>57.650645</ele>
        <time>2026-05-06T20:32:34.649Z</time>
      </trkpt>
      <trkpt lat="43.578878" lon="10.643788">
        <ele>55.388052</ele>
        <time>2026-05-06T20:32:39.880Z</time>
      </trkpt>
      <trkpt lat="43.578831" lon="10.643561">
        <ele>54.404613</ele>
        <time>2026-05-06T20:32:42.047Z</time>
      </trkpt>
      <trkpt lat="43.578717" lon="10.643200">
        <ele>52.764189</ele>
        <time>2026-05-06T20:32:45.577Z</time>
      </trkpt>
      <trkpt lat="43.578518" lon="10.642844">
        <ele>50.891100</ele>
        <time>2026-05-06T20:32:49.518Z</time>
      </trkpt>
      <trkpt lat="43.578310" lon="10.642599">
        <ele>49.318833</ele>
        <time>2026-05-06T20:32:52.837Z</time>
      </trkpt>
      <trkpt lat="43.578086" lon="10.642454">
        <ele>47.836936</ele>
        <time>2026-05-06T20:32:55.867Z</time>
      </trkpt>
      <trkpt lat="43.577014" lon="10.641947">
        <ele>40.988565</ele>
        <time>2026-05-06T20:33:10.320Z</time>
      </trkpt>
      <trkpt lat="43.576774" lon="10.641761">
        <ele>39.325147</ele>
        <time>2026-05-06T20:33:14.097Z</time>
      </trkpt>
      <trkpt lat="43.576582" lon="10.641538">
        <ele>38.122187</ele>
        <time>2026-05-06T20:33:17.653Z</time>
      </trkpt>
      <trkpt lat="43.576388" lon="10.641193">
        <ele>37.790982</ele>
        <time>2026-05-06T20:33:22.292Z</time>
      </trkpt>
      <trkpt lat="43.576266" lon="10.640823">
        <ele>37.482689</ele>
        <time>2026-05-06T20:33:26.902Z</time>
      </trkpt>
      <trkpt lat="43.576227" lon="10.640587">
        <ele>37.299116</ele>
        <time>2026-05-06T20:33:29.888Z</time>
      </trkpt>
      <trkpt lat="43.576189" lon="10.639920">
        <ele>36.791720</ele>
        <time>2026-05-06T20:33:39.530Z</time>
      </trkpt>
      <trkpt lat="43.576181" lon="10.639788">
        <ele>36.691265</ele>
        <time>2026-05-06T20:33:41.864Z</time>
      </trkpt>
      <trkpt lat="43.576176" lon="10.639677">
        <ele>36.606923</ele>
        <time>2026-05-06T20:33:43.686Z</time>
      </trkpt>
      <trkpt lat="43.576127" lon="10.638816">
        <ele>36.328918</ele>
        <time>2026-05-06T20:33:57.308Z</time>
      </trkpt>
      <trkpt lat="43.576026" lon="10.638353">
        <ele>36.353735</ele>
        <time>2026-05-06T20:34:04.673Z</time>
      </trkpt>
      <trkpt lat="43.575930" lon="10.638154">
        <ele>36.366006</ele>
        <time>2026-05-06T20:34:08.245Z</time>
      </trkpt>
      <trkpt lat="43.575789" lon="10.637968">
        <ele>36.379823</ele>
        <time>2026-05-06T20:34:12.128Z</time>
      </trkpt>
      <trkpt lat="43.575636" lon="10.637813">
        <ele>36.393268</ele>
        <time>2026-05-06T20:34:15.749Z</time>
      </trkpt>
      <trkpt lat="43.575430" lon="10.637683">
        <ele>36.409315</ele>
        <time>2026-05-06T20:34:19.965Z</time>
      </trkpt>
      <trkpt lat="43.575216" lon="10.637611">
        <ele>36.424919</ele>
        <time>2026-05-06T20:34:23.857Z</time>
      </trkpt>
      <trkpt lat="43.574891" lon="10.637553">
        <ele>36.445985</ele>
        <time>2026-05-06T20:34:29.438Z</time>
      </trkpt>
      <trkpt lat="43.573529" lon="10.637346">
        <ele>36.529755</ele>
        <time>2026-05-06T20:34:56.382Z</time>
      </trkpt>
      <trkpt lat="43.573278" lon="10.637227">
        <ele>36.531017</ele>
        <time>2026-05-06T20:35:02.601Z</time>
      </trkpt>
      <trkpt lat="43.573146" lon="10.637119">
        <ele>36.501100</ele>
        <time>2026-05-06T20:35:06.202Z</time>
      </trkpt>
      <trkpt lat="43.572972" lon="10.636913">
        <ele>36.456406</ele>
        <time>2026-05-06T20:35:11.187Z</time>
      </trkpt>
      <trkpt lat="43.572827" lon="10.636639">
        <ele>36.408478</ele>
        <time>2026-05-06T20:35:16.167Z</time>
      </trkpt>
      <trkpt lat="43.572822" lon="10.636619">
        <ele>36.405490</ele>
        <time>2026-05-06T20:35:16.460Z</time>
      </trkpt>
      <trkpt lat="43.572701" lon="10.636189">
        <ele>36.340331</ele>
        <time>2026-05-06T20:35:22.658Z</time>
      </trkpt>
      <trkpt lat="43.572675" lon="10.635913">
        <ele>36.301017</ele>
        <time>2026-05-06T20:35:26.228Z</time>
      </trkpt>
      <trkpt lat="43.572685" lon="10.635766">
        <ele>36.280162</ele>
        <time>2026-05-06T20:35:28.043Z</time>
      </trkpt>
      <trkpt lat="43.572891" lon="10.634442">
        <ele>36.094509</ele>
        <time>2026-05-06T20:35:44.834Z</time>
      </trkpt>
      <trkpt lat="43.572910" lon="10.634324">
        <ele>36.078369</ele>
        <time>2026-05-06T20:35:46.284Z</time>
      </trkpt>
      <trkpt lat="43.571093" lon="10.633826">
        <ele>36.140814</ele>
        <time>2026-05-06T20:36:23.935Z</time>
      </trkpt>
      <trkpt lat="43.570726" lon="10.633726">
        <ele>36.297702</ele>
        <time>2026-05-06T20:36:32.135Z</time>
      </trkpt>
      <trkpt lat="43.570324" lon="10.633684">
        <ele>36.466780</ele>
        <time>2026-05-06T20:36:40.804Z</time>
      </trkpt>
      <trkpt lat="43.568283" lon="10.633634">
        <ele>37.710871</ele>
        <time>2026-05-06T20:37:25.544Z</time>
      </trkpt>
      <trkpt lat="43.567573" lon="10.633813">
        <ele>38.410581</ele>
        <time>2026-05-06T20:37:43.309Z</time>
      </trkpt>
      <trkpt lat="43.566932" lon="10.633971">
        <ele>39.079252</ele>
        <time>2026-05-06T20:37:59.977Z</time>
      </trkpt>
      <trkpt lat="43.566647" lon="10.634042">
        <ele>39.376654</ele>
        <time>2026-05-06T20:38:07.173Z</time>
      </trkpt>
      <trkpt lat="43.566608" lon="10.633974">
        <ele>39.441184</ele>
        <time>2026-05-06T20:38:08.739Z</time>
      </trkpt>
      <trkpt lat="43.566514" lon="10.633918">
        <ele>39.546324</ele>
        <time>2026-05-06T20:38:11.312Z</time>
      </trkpt>
      <trkpt lat="43.565988" lon="10.633972">
        <ele>39.734346</ele>
        <time>2026-05-06T20:38:23.785Z</time>
      </trkpt>
      <trkpt lat="43.565859" lon="10.633953">
        <ele>39.764883</ele>
        <time>2026-05-06T20:38:26.684Z</time>
      </trkpt>
      <trkpt lat="43.565792" lon="10.633942">
        <ele>39.780766</ele>
        <time>2026-05-06T20:38:28.184Z</time>
      </trkpt>
      <trkpt lat="43.565425" lon="10.633740">
        <ele>39.873770</ele>
        <time>2026-05-06T20:38:36.486Z</time>
      </trkpt>
      <trkpt lat="43.565191" lon="10.633475">
        <ele>39.945022</ele>
        <time>2026-05-06T20:38:42.492Z</time>
      </trkpt>
      <trkpt lat="43.564833" lon="10.633270">
        <ele>40.036257</ele>
        <time>2026-05-06T20:38:50.056Z</time>
      </trkpt>
      <trkpt lat="43.564731" lon="10.633260">
        <ele>40.060490</ele>
        <time>2026-05-06T20:38:52.068Z</time>
      </trkpt>
      <trkpt lat="43.564405" lon="10.633225">
        <ele>40.139074</ele>
        <time>2026-05-06T20:38:58.543Z</time>
      </trkpt>
      <trkpt lat="43.564392" lon="10.633252">
        <ele>40.144719</ele>
        <time>2026-05-06T20:38:59.018Z</time>
      </trkpt>
      <trkpt lat="43.564068" lon="10.633213">
        <ele>40.222882</ele>
        <time>2026-05-06T20:39:09.380Z</time>
      </trkpt>
      <trkpt lat="43.563659" lon="10.633054">
        <ele>40.325002</ele>
        <time>2026-05-06T20:39:23.470Z</time>
      </trkpt>
      <trkpt lat="43.563367" lon="10.632959">
        <ele>40.397101</ele>
        <time>2026-05-06T20:39:33.744Z</time>
      </trkpt>
      <trkpt lat="43.562567" lon="10.632699">
        <ele>40.660136</ele>
        <time>2026-05-06T20:40:02.586Z</time>
      </trkpt>
      <trkpt lat="43.562342" lon="10.632579">
        <ele>40.752698</ele>
        <time>2026-05-06T20:40:10.918Z</time>
      </trkpt>
      <trkpt lat="43.562051" lon="10.632422">
        <ele>40.872592</ele>
        <time>2026-05-06T20:40:21.550Z</time>
      </trkpt>
      <trkpt lat="43.561469" lon="10.632237">
        <ele>41.101769</ele>
        <time>2026-05-06T20:40:41.304Z</time>
      </trkpt>
      <trkpt lat="43.561381" lon="10.632200">
        <ele>41.137069</ele>
        <time>2026-05-06T20:40:44.264Z</time>
      </trkpt>
      <trkpt lat="43.560880" lon="10.631992">
        <ele>41.105301</ele>
        <time>2026-05-06T20:41:00.993Z</time>
      </trkpt>
      <trkpt lat="43.560685" lon="10.631960">
        <ele>41.073035</ele>
        <time>2026-05-06T20:41:07.186Z</time>
      </trkpt>
      <trkpt lat="43.560207" lon="10.632081">
        <ele>40.993186</ele>
        <time>2026-05-06T20:41:22.510Z</time>
      </trkpt>
      <trkpt lat="43.559974" lon="10.632107">
        <ele>40.954778</ele>
        <time>2026-05-06T20:41:29.784Z</time>
      </trkpt>
      <trkpt lat="43.559835" lon="10.632122">
        <ele>40.931870</ele>
        <time>2026-05-06T20:41:34.062Z</time>
      </trkpt>
      <trkpt lat="43.559562" lon="10.632464">
        <ele>40.878963</ele>
        <time>2026-05-06T20:41:45.202Z</time>
      </trkpt>
      <trkpt lat="43.559322" lon="10.632626">
        <ele>40.876157</ele>
        <time>2026-05-06T20:41:53.230Z</time>
      </trkpt>
      <trkpt lat="43.559135" lon="10.632664">
        <ele>40.874171</ele>
        <time>2026-05-06T20:41:58.955Z</time>
      </trkpt>
      <trkpt lat="43.558957" lon="10.632696">
        <ele>40.872286</ele>
        <time>2026-05-06T20:42:04.457Z</time>
      </trkpt>
      <trkpt lat="43.558460" lon="10.632626">
        <ele>40.867039</ele>
        <time>2026-05-06T20:42:20.158Z</time>
      </trkpt>
      <trkpt lat="43.558303" lon="10.632521">
        <ele>40.865207</ele>
        <time>2026-05-06T20:42:25.815Z</time>
      </trkpt>
      <trkpt lat="43.558127" lon="10.632527">
        <ele>40.863358</ele>
        <time>2026-05-06T20:42:31.615Z</time>
      </trkpt>
      <trkpt lat="43.557667" lon="10.632664">
        <ele>41.196962</ele>
        <time>2026-05-06T20:42:48.090Z</time>
      </trkpt>
      <trkpt lat="43.556785" lon="10.633216">
        <ele>42.765805</ele>
        <time>2026-05-06T20:43:26.174Z</time>
      </trkpt>
      <trkpt lat="43.556465" lon="10.633585">
        <ele>43.441347</ele>
        <time>2026-05-06T20:43:43.763Z</time>
      </trkpt>
      <trkpt lat="43.556331" lon="10.633707">
        <ele>43.701406</ele>
        <time>2026-05-06T20:43:50.805Z</time>
      </trkpt>
      <trkpt lat="43.555718" lon="10.634066">
        <ele>46.304174</ele>
        <time>2026-05-06T20:44:20.373Z</time>
      </trkpt>
      <trkpt lat="43.555378" lon="10.634314">
        <ele>47.871029</ele>
        <time>2026-05-06T20:44:39.639Z</time>
      </trkpt>
      <trkpt lat="43.555485" lon="10.634571">
        <ele>48.746157</ele>
        <time>2026-05-06T20:44:48.493Z</time>
      </trkpt>
      <trkpt lat="43.555213" lon="10.634644">
        <ele>49.875106</ele>
        <time>2026-05-06T20:45:04.095Z</time>
      </trkpt>
      <trkpt lat="43.554726" lon="10.634609">
        <ele>52.739916</ele>
        <time>2026-05-06T20:45:34.498Z</time>
      </trkpt>
      <trkpt lat="43.554450" lon="10.634608">
        <ele>55.164021</ele>
        <time>2026-05-06T20:45:53.219Z</time>
      </trkpt>
      <trkpt lat="43.554220" lon="10.634655">
        <ele>57.206134</ele>
        <time>2026-05-06T20:46:10.208Z</time>
      </trkpt>
      <trkpt lat="43.554173" lon="10.634702">
        <ele>57.715940</ele>
        <time>2026-05-06T20:46:14.635Z</time>
      </trkpt>
      <trkpt lat="43.553622" lon="10.634638">
        <ele>62.572467</ele>
        <time>2026-05-06T20:46:58.513Z</time>
      </trkpt>
      <trkpt lat="43.553035" lon="10.634954">
        <ele>68.247726</ele>
        <time>2026-05-06T20:47:51.995Z</time>
      </trkpt>
      <trkpt lat="43.552584" lon="10.635133">
        <ele>72.851609</ele>
        <time>2026-05-06T20:48:33.699Z</time>
      </trkpt>
      <trkpt lat="43.552451" lon="10.635205">
        <ele>74.253220</ele>
        <time>2026-05-06T20:48:46.616Z</time>
      </trkpt>
      <trkpt lat="43.552143" lon="10.635370">
        <ele>77.494567</ele>
        <time>2026-05-06T20:49:15.464Z</time>
      </trkpt>
      <trkpt lat="43.551601" lon="10.635965">
        <ele>84.289414</ele>
        <time>2026-05-06T20:50:08.922Z</time>
      </trkpt>
      <trkpt lat="43.551570" lon="10.636099">
        <ele>84.883007</ele>
        <time>2026-05-06T20:50:15.869Z</time>
      </trkpt>
      <trkpt lat="43.551382" lon="10.636537">
        <ele>86.526078</ele>
        <time>2026-05-06T20:50:39.335Z</time>
      </trkpt>
      <trkpt lat="43.551353" lon="10.636585">
        <ele>86.727780</ele>
        <time>2026-05-06T20:50:41.979Z</time>
      </trkpt>
      <trkpt lat="43.551014" lon="10.637144">
        <ele>89.080408</ele>
        <time>2026-05-06T20:51:09.481Z</time>
      </trkpt>
      <trkpt lat="43.550128" lon="10.637190">
        <ele>92.778816</ele>
        <time>2026-05-06T20:51:50.312Z</time>
      </trkpt>
      <trkpt lat="43.549520" lon="10.637384">
        <ele>94.089942</ele>
        <time>2026-05-06T20:52:16.362Z</time>
      </trkpt>
      <trkpt lat="43.549210" lon="10.637445">
        <ele>94.747845</ele>
        <time>2026-05-06T20:52:27.229Z</time>
      </trkpt>
      <trkpt lat="43.549011" lon="10.637448">
        <ele>95.165970</ele>
        <time>2026-05-06T20:52:34.486Z</time>
      </trkpt>
      <trkpt lat="43.548831" lon="10.637563">
        <ele>95.582729</ele>
        <time>2026-05-06T20:52:42.138Z</time>
      </trkpt>
      <trkpt lat="43.548466" lon="10.637794">
        <ele>96.646595</ele>
        <time>2026-05-06T20:53:00.297Z</time>
      </trkpt>
      <trkpt lat="43.548317" lon="10.638004">
        <ele>98.163760</ele>
        <time>2026-05-06T20:53:10.835Z</time>
      </trkpt>
      <trkpt lat="43.548282" lon="10.638249">
        <ele>99.452946</ele>
        <time>2026-05-06T20:53:20.520Z</time>
      </trkpt>
      <trkpt lat="43.548255" lon="10.638556">
        <ele>101.049509</ele>
        <time>2026-05-06T20:53:33.644Z</time>
      </trkpt>
      <trkpt lat="43.548257" lon="10.638912">
        <ele>102.887472</ele>
        <time>2026-05-06T20:53:50.913Z</time>
      </trkpt>
      <trkpt lat="43.548383" lon="10.639285">
        <ele>105.012019</ele>
        <time>2026-05-06T20:54:13.595Z</time>
      </trkpt>
      <trkpt lat="43.548392" lon="10.639572">
        <ele>106.495086</ele>
        <time>2026-05-06T20:54:31.211Z</time>
      </trkpt>
      <trkpt lat="43.548357" lon="10.639781">
        <ele>107.602507</ele>
        <time>2026-05-06T20:54:44.818Z</time>
      </trkpt>
      <trkpt lat="43.548201" lon="10.639950">
        <ele>109.015289</ele>
        <time>2026-05-06T20:55:02.046Z</time>
      </trkpt>
      <trkpt lat="43.547938" lon="10.639876">
        <ele>110.405126</ele>
        <time>2026-05-06T20:55:24.563Z</time>
      </trkpt>
      <trkpt lat="43.547797" lon="10.639905">
        <ele>111.122952</ele>
        <time>2026-05-06T20:55:35.880Z</time>
      </trkpt>
      <trkpt lat="43.547554" lon="10.640095">
        <ele>112.529364</ele>
        <time>2026-05-06T20:55:56.184Z</time>
      </trkpt>
      <trkpt lat="43.547422" lon="10.640165">
        <ele>113.241434</ele>
        <time>2026-05-06T20:56:05.523Z</time>
      </trkpt>
      <trkpt lat="43.546817" lon="10.640487">
        <ele>116.506618</ele>
        <time>2026-05-06T20:56:39.198Z</time>
      </trkpt>
      <trkpt lat="43.546523" lon="10.640723">
        <ele>118.194704</ele>
        <time>2026-05-06T20:56:50.411Z</time>
      </trkpt>
      <trkpt lat="43.546347" lon="10.640864">
        <ele>117.704012</ele>
        <time>2026-05-06T20:56:56.113Z</time>
      </trkpt>
      <trkpt lat="43.545738" lon="10.641402">
        <ele>115.960483</ele>
        <time>2026-05-06T20:57:13.991Z</time>
      </trkpt>
      <trkpt lat="43.545483" lon="10.641464">
        <ele>115.336199</ele>
        <time>2026-05-06T20:57:20.273Z</time>
      </trkpt>
      <trkpt lat="43.545464" lon="10.641465">
        <ele>115.290356</ele>
        <time>2026-05-06T20:57:20.746Z</time>
      </trkpt>
      <trkpt lat="43.545179" lon="10.641481">
        <ele>114.602646</ele>
        <time>2026-05-06T20:57:27.947Z</time>
      </trkpt>
      <trkpt lat="43.544748" lon="10.641608">
        <ele>114.126480</ele>
        <time>2026-05-06T20:57:40.464Z</time>
      </trkpt>
      <trkpt lat="43.545179" lon="10.641481">
        <ele>114.974993</ele>
        <time>2026-05-06T20:57:57.614Z</time>
      </trkpt>
      <trkpt lat="43.545464" lon="10.641465">
        <ele>115.524153</ele>
        <time>2026-05-06T20:58:11.961Z</time>
      </trkpt>
      <trkpt lat="43.545483" lon="10.641464">
        <ele>115.560760</ele>
        <time>2026-05-06T20:58:12.941Z</time>
      </trkpt>
      <trkpt lat="43.545738" lon="10.641402">
        <ele>116.059273</ele>
        <time>2026-05-06T20:58:27.326Z</time>
      </trkpt>
      <trkpt lat="43.546347" lon="10.640864">
        <ele>117.138363</ele>
        <time>2026-05-06T20:59:03.019Z</time>
      </trkpt>
      <trkpt lat="43.546523" lon="10.640723">
        <ele>116.528680</ele>
        <time>2026-05-06T20:59:10.190Z</time>
      </trkpt>
      <trkpt lat="43.546347" lon="10.640864">
        <ele>115.918997</ele>
        <time>2026-05-06T20:59:16.277Z</time>
      </trkpt>
      <trkpt lat="43.545738" lon="10.641402">
        <ele>113.752673</ele>
        <time>2026-05-06T20:59:34.616Z</time>
      </trkpt>
      <trkpt lat="43.545483" lon="10.641464">
        <ele>112.977003</ele>
        <time>2026-05-06T20:59:40.645Z</time>
      </trkpt>
      <trkpt lat="43.545464" lon="10.641465">
        <ele>112.920044</ele>
        <time>2026-05-06T20:59:41.081Z</time>
      </trkpt>
      <trkpt lat="43.545179" lon="10.641481">
        <ele>112.065568</ele>
        <time>2026-05-06T20:59:47.596Z</time>
      </trkpt>
      <trkpt lat="43.544748" lon="10.641608">
        <ele>109.570849</ele>
        <time>2026-05-06T20:59:57.814Z</time>
      </trkpt>
      <trkpt lat="43.544461" lon="10.641692">
        <ele>107.828558</ele>
        <time>2026-05-06T21:00:04.784Z</time>
      </trkpt>
      <trkpt lat="43.544171" lon="10.641667">
        <ele>106.103024</ele>
        <time>2026-05-06T21:00:11.939Z</time>
      </trkpt>
      <trkpt lat="43.544003" lon="10.641901">
        <ele>104.685308</ele>
        <time>2026-05-06T21:00:17.778Z</time>
      </trkpt>
      <trkpt lat="43.543768" lon="10.642376">
        <ele>102.209794</ele>
        <time>2026-05-06T21:00:27.775Z</time>
      </trkpt>
      <trkpt lat="43.543622" lon="10.642734">
        <ele>99.575253</ele>
        <time>2026-05-06T21:00:34.527Z</time>
      </trkpt>
      <trkpt lat="43.543590" lon="10.642843">
        <ele>98.532858</ele>
        <time>2026-05-06T21:00:36.376Z</time>
      </trkpt>
      <trkpt lat="43.543590" lon="10.642843">
        <ele>98.532858</ele>
        <time>2026-05-06T21:00:36.418Z</time>
      </trkpt>
      <trkpt lat="43.543590" lon="10.642843">
        <ele>98.532858</ele>
        <time>2026-05-06T21:00:36.418Z</time>
      </trkpt>
      <trkpt lat="43.543202" lon="10.642130">
        <ele>90.630108</ele>
        <time>2026-05-06T21:01:04.196Z</time>
      </trkpt>
      <trkpt lat="43.542596" lon="10.641763">
        <ele>82.537048</ele>
        <time>2026-05-06T21:01:32.760Z</time>
      </trkpt>
      <trkpt lat="43.542110" lon="10.641119">
        <ele>74.841619</ele>
        <time>2026-05-06T21:02:01.853Z</time>
      </trkpt>
      <trkpt lat="43.542433" lon="10.640544">
        <ele>69.100921</ele>
        <time>2026-05-06T21:02:24.546Z</time>
      </trkpt>
      <trkpt lat="43.542369" lon="10.640369">
        <ele>67.554092</ele>
        <time>2026-05-06T21:02:26.864Z</time>
      </trkpt>
      <trkpt lat="43.542143" lon="10.639902">
        <ele>63.122893</ele>
        <time>2026-05-06T21:02:33.680Z</time>
      </trkpt>
      <trkpt lat="43.542026" lon="10.639676">
        <ele>60.931244</ele>
        <time>2026-05-06T21:02:37.195Z</time>
      </trkpt>
      <trkpt lat="43.541849" lon="10.639584">
        <ele>59.404542</ele>
        <time>2026-05-06T21:02:40.585Z</time>
      </trkpt>
      <trkpt lat="43.541592" lon="10.639561">
        <ele>58.441348</ele>
        <time>2026-05-06T21:02:45.364Z</time>
      </trkpt>
      <trkpt lat="43.541394" lon="10.639261">
        <ele>57.341425</ele>
        <time>2026-05-06T21:02:50.932Z</time>
      </trkpt>
      <trkpt lat="43.541066" lon="10.639719">
        <ele>55.595997</ele>
        <time>2026-05-06T21:02:58.011Z</time>
      </trkpt>
      <trkpt lat="43.540825" lon="10.640165">
        <ele>54.087890</ele>
        <time>2026-05-06T21:03:04.520Z</time>
      </trkpt>
      <trkpt lat="43.539860" lon="10.638907">
        <ele>52.071233</ele>
        <time>2026-05-06T21:03:27.533Z</time>
      </trkpt>
      <trkpt lat="43.539827" lon="10.638865">
        <ele>52.032469</ele>
        <time>2026-05-06T21:03:28.355Z</time>
      </trkpt>
      <trkpt lat="43.539692" lon="10.638600">
        <ele>51.829756</ele>
        <time>2026-05-06T21:03:32.903Z</time>
      </trkpt>
      <trkpt lat="43.539572" lon="10.638525">
        <ele>51.716014</ele>
        <time>2026-05-06T21:03:35.720Z</time>
      </trkpt>
      <trkpt lat="43.539013" lon="10.637884">
        <ele>52.019548</ele>
        <time>2026-05-06T21:03:57.922Z</time>
      </trkpt>
      <trkpt lat="43.538330" lon="10.637007">
        <ele>53.595330</ele>
        <time>2026-05-06T21:04:30.489Z</time>
      </trkpt>
      <trkpt lat="43.537964" lon="10.637620">
        <ele>54.450924</ele>
        <time>2026-05-06T21:04:52.075Z</time>
      </trkpt>
      <trkpt lat="43.537468" lon="10.638785">
        <ele>54.581643</ele>
        <time>2026-05-06T21:05:20.907Z</time>
      </trkpt>
      <trkpt lat="43.537023" lon="10.639219">
        <ele>54.654381</ele>
        <time>2026-05-06T21:05:37.872Z</time>
      </trkpt>
      <trkpt lat="43.536813" lon="10.639487">
        <ele>54.936766</ele>
        <time>2026-05-06T21:05:47.996Z</time>
      </trkpt>
      <trkpt lat="43.535485" lon="10.640495">
        <ele>59.402195</ele>
        <time>2026-05-06T21:06:58.595Z</time>
      </trkpt>
      <trkpt lat="43.535231" lon="10.640616">
        <ele>60.353771</ele>
        <time>2026-05-06T21:07:13.831Z</time>
      </trkpt>
      <trkpt lat="43.535032" lon="10.640640">
        <ele>61.381851</ele>
        <time>2026-05-06T21:07:25.324Z</time>
      </trkpt>
      <trkpt lat="43.534742" lon="10.640930">
        <ele>63.225307</ele>
        <time>2026-05-06T21:07:46.307Z</time>
      </trkpt>
      <trkpt lat="43.534540" lon="10.641063">
        <ele>64.377279</ele>
        <time>2026-05-06T21:07:59.691Z</time>
      </trkpt>
      <trkpt lat="43.534445" lon="10.641051">
        <ele>64.868252</ele>
        <time>2026-05-06T21:08:05.440Z</time>
      </trkpt>
      <trkpt lat="43.534386" lon="10.641043">
        <ele>65.173365</ele>
        <time>2026-05-06T21:08:09.053Z</time>
      </trkpt>
      <trkpt lat="43.532916" lon="10.639927">
        <ele>74.205480</ele>
        <time>2026-05-06T21:09:46.713Z</time>
      </trkpt>
      <trkpt lat="43.531197" lon="10.638543">
        <ele>85.468479</ele>
        <time>2026-05-06T21:11:48.815Z</time>
      </trkpt>
      <trkpt lat="43.531037" lon="10.638502">
        <ele>86.398377</ele>
        <time>2026-05-06T21:11:59.088Z</time>
      </trkpt>
      <trkpt lat="43.530804" lon="10.638510">
        <ele>87.730172</ele>
        <time>2026-05-06T21:12:13.603Z</time>
      </trkpt>
      <trkpt lat="43.530528" lon="10.638274">
        <ele>89.581393</ele>
        <time>2026-05-06T21:12:33.220Z</time>
      </trkpt>
      <trkpt lat="43.529618" lon="10.637191">
        <ele>93.976305</ele>
        <time>2026-05-06T21:13:36.235Z</time>
      </trkpt>
      <trkpt lat="43.528739" lon="10.635195">
        <ele>99.173000</ele>
        <time>2026-05-06T21:14:48.647Z</time>
      </trkpt>
      <trkpt lat="43.528634" lon="10.635096">
        <ele>99.522930</ele>
        <time>2026-05-06T21:14:54.290Z</time>
      </trkpt>
      <trkpt lat="43.528438" lon="10.634970">
        <ele>100.117874</ele>
        <time>2026-05-06T21:15:03.987Z</time>
      </trkpt>
      <trkpt lat="43.527312" lon="10.634251">
        <ele>105.950851</ele>
        <time>2026-05-06T21:16:08.794Z</time>
      </trkpt>
      <trkpt lat="43.527182" lon="10.634093">
        <ele>106.901650</ele>
        <time>2026-05-06T21:16:19.411Z</time>
      </trkpt>
      <trkpt lat="43.526285" lon="10.632517">
        <ele>116.171300</ele>
        <time>2026-05-06T21:17:58.103Z</time>
      </trkpt>
      <trkpt lat="43.526212" lon="10.632337">
        <ele>117.264723</ele>
        <time>2026-05-06T21:18:08.630Z</time>
      </trkpt>
      <trkpt lat="43.526156" lon="10.631661">
        <ele>120.871915</ele>
        <time>2026-05-06T21:18:43.183Z</time>
      </trkpt>
      <trkpt lat="43.525326" lon="10.631145">
        <ele>127.007208</ele>
        <time>2026-05-06T21:19:44.866Z</time>
      </trkpt>
      <trkpt lat="43.525244" lon="10.631134">
        <ele>127.517416</ele>
        <time>2026-05-06T21:19:50.339Z</time>
      </trkpt>
      <trkpt lat="43.524863" lon="10.631300">
        <ele>129.991820</ele>
        <time>2026-05-06T21:20:16.197Z</time>
      </trkpt>
      <trkpt lat="43.524832" lon="10.631292">
        <ele>130.187130</ele>
        <time>2026-05-06T21:20:18.194Z</time>
      </trkpt>
      <trkpt lat="43.524710" lon="10.631262">
        <ele>130.954569</ele>
        <time>2026-05-06T21:20:25.874Z</time>
      </trkpt>
      <trkpt lat="43.524499" lon="10.630774">
        <ele>133.505853</ele>
        <time>2026-05-06T21:20:50.262Z</time>
      </trkpt>
      <trkpt lat="43.524376" lon="10.630404">
        <ele>135.319338</ele>
        <time>2026-05-06T21:21:07.092Z</time>
      </trkpt>
      <trkpt lat="43.524281" lon="10.629760">
        <ele>137.707375</ele>
        <time>2026-05-06T21:21:34.164Z</time>
      </trkpt>
      <trkpt lat="43.524269" lon="10.629320">
        <ele>139.307332</ele>
        <time>2026-05-06T21:21:51.667Z</time>
      </trkpt>
      <trkpt lat="43.524297" lon="10.628682">
        <ele>141.629872</ele>
        <time>2026-05-06T21:22:17.101Z</time>
      </trkpt>
      <trkpt lat="43.524281" lon="10.627929">
        <ele>144.383207</ele>
        <time>2026-05-06T21:22:48.734Z</time>
      </trkpt>
      <trkpt lat="43.524240" lon="10.627779">
        <ele>145.064327</ele>
        <time>2026-05-06T21:22:55.727Z</time>
      </trkpt>
      <trkpt lat="43.523616" lon="10.627786">
        <ele>148.721040</ele>
        <time>2026-05-06T21:23:26.450Z</time>
      </trkpt>
      <trkpt lat="43.523574" lon="10.627775">
        <ele>148.971555</ele>
        <time>2026-05-06T21:23:28.629Z</time>
      </trkpt>
      <trkpt lat="43.523502" lon="10.627754">
        <ele>149.402802</ele>
        <time>2026-05-06T21:23:32.307Z</time>
      </trkpt>
      <trkpt lat="43.523212" lon="10.627352">
        <ele>151.812257</ele>
        <time>2026-05-06T21:23:53.603Z</time>
      </trkpt>
      <trkpt lat="43.523130" lon="10.627298">
        <ele>152.344740</ele>
        <time>2026-05-06T21:23:58.382Z</time>
      </trkpt>
      <trkpt lat="43.523009" lon="10.627261">
        <ele>153.071011</ele>
        <time>2026-05-06T21:24:04.897Z</time>
      </trkpt>
      <trkpt lat="43.522362" lon="10.627065">
        <ele>156.248445</ele>
        <time>2026-05-06T21:24:37.961Z</time>
      </trkpt>
      <trkpt lat="43.522177" lon="10.627009">
        <ele>156.993057</ele>
        <time>2026-05-06T21:24:46.556Z</time>
      </trkpt>
      <trkpt lat="43.521906" lon="10.626904">
        <ele>158.099698</ele>
        <time>2026-05-06T21:24:58.565Z</time>
      </trkpt>
      <trkpt lat="43.521856" lon="10.626885">
        <ele>158.303590</ele>
        <time>2026-05-06T21:25:00.674Z</time>
      </trkpt>
      <trkpt lat="43.521649" lon="10.626785">
        <ele>159.165863</ele>
        <time>2026-05-06T21:25:09.157Z</time>
      </trkpt>
      <trkpt lat="43.520851" lon="10.626285">
        <ele>162.332940</ele>
        <time>2026-05-06T21:25:37.178Z</time>
      </trkpt>
      <trkpt lat="43.520747" lon="10.626170">
        <ele>162.656314</ele>
        <time>2026-05-06T21:25:41.065Z</time>
      </trkpt>
      <trkpt lat="43.520587" lon="10.625712">
        <ele>163.550583</ele>
        <time>2026-05-06T21:25:52.241Z</time>
      </trkpt>
      <trkpt lat="43.520492" lon="10.625554">
        <ele>163.911631</ele>
        <time>2026-05-06T21:25:57.407Z</time>
      </trkpt>
      <trkpt lat="43.519877" lon="10.625045">
        <ele>165.651587</ele>
        <time>2026-05-06T21:26:21.766Z</time>
      </trkpt>
      <trkpt lat="43.519532" lon="10.624706">
        <ele>166.264520</ele>
        <time>2026-05-06T21:26:35.474Z</time>
      </trkpt>
      <trkpt lat="43.519480" lon="10.624764">
        <ele>166.271084</ele>
        <time>2026-05-06T21:26:37.516Z</time>
      </trkpt>
      <trkpt lat="43.519227" lon="10.625047">
        <ele>166.303055</ele>
        <time>2026-05-06T21:26:47.080Z</time>
      </trkpt>
      <trkpt lat="43.518749" lon="10.625593">
        <ele>166.363971</ele>
        <time>2026-05-06T21:27:00.719Z</time>
      </trkpt>
      <trkpt lat="43.518588" lon="10.625844">
        <ele>166.387820</ele>
        <time>2026-05-06T21:27:04.627Z</time>
      </trkpt>
      <trkpt lat="43.518113" lon="10.626764">
        <ele>164.741409</ele>
        <time>2026-05-06T21:27:16.765Z</time>
      </trkpt>
      <trkpt lat="43.518006" lon="10.626932">
        <ele>164.141703</ele>
        <time>2026-05-06T21:27:19.054Z</time>
      </trkpt>
      <trkpt lat="43.517610" lon="10.627168">
        <ele>162.546136</ele>
        <time>2026-05-06T21:27:24.992Z</time>
      </trkpt>
      <trkpt lat="43.517250" lon="10.627802">
        <ele>160.386414</ele>
        <time>2026-05-06T21:27:33.043Z</time>
      </trkpt>
      <trkpt lat="43.516586" lon="10.628316">
        <ele>156.725147</ele>
        <time>2026-05-06T21:27:43.333Z</time>
      </trkpt>
      <trkpt lat="43.516309" lon="10.628605">
        <ele>154.947285</ele>
        <time>2026-05-06T21:27:47.924Z</time>
      </trkpt>
      <trkpt lat="43.516233" lon="10.628751">
        <ele>154.280210</ele>
        <time>2026-05-06T21:27:49.639Z</time>
      </trkpt>
      <trkpt lat="43.516209" lon="10.628863">
        <ele>153.846726</ele>
        <time>2026-05-06T21:27:50.741Z</time>
      </trkpt>
      <trkpt lat="43.516194" lon="10.629310">
        <ele>152.185802</ele>
        <time>2026-05-06T21:27:54.999Z</time>
      </trkpt>
      <trkpt lat="43.516157" lon="10.629491">
        <ele>151.487794</ele>
        <time>2026-05-06T21:27:56.811Z</time>
      </trkpt>
      <trkpt lat="43.516093" lon="10.629638">
        <ele>150.851386</ele>
        <time>2026-05-06T21:27:58.463Z</time>
      </trkpt>
      <trkpt lat="43.515812" lon="10.630048">
        <ele>148.555360</ele>
        <time>2026-05-06T21:28:03.834Z</time>
      </trkpt>
      <trkpt lat="43.515669" lon="10.630121">
        <ele>147.687624</ele>
        <time>2026-05-06T21:28:05.782Z</time>
      </trkpt>
      <trkpt lat="43.515299" lon="10.630115">
        <ele>145.581935</ele>
        <time>2026-05-06T21:28:10.535Z</time>
      </trkpt>
      <trkpt lat="43.515218" lon="10.630169">
        <ele>145.069949</ele>
        <time>2026-05-06T21:28:11.696Z</time>
      </trkpt>
      <trkpt lat="43.515166" lon="10.630242">
        <ele>144.647667</ele>
        <time>2026-05-06T21:28:12.647Z</time>
      </trkpt>
      <trkpt lat="43.515136" lon="10.630361">
        <ele>144.127748</ele>
        <time>2026-05-06T21:28:13.821Z</time>
      </trkpt>
      <trkpt lat="43.515134" lon="10.630547">
        <ele>143.360074</ele>
        <time>2026-05-06T21:28:15.564Z</time>
      </trkpt>
      <trkpt lat="43.515246" lon="10.631057">
        <ele>141.161009</ele>
        <time>2026-05-06T21:28:20.619Z</time>
      </trkpt>
      <trkpt lat="43.515232" lon="10.631216">
        <ele>140.500027</ele>
        <time>2026-05-06T21:28:22.196Z</time>
      </trkpt>
      <trkpt lat="43.515191" lon="10.631323">
        <ele>140.067793</ele>
        <time>2026-05-06T21:28:23.423Z</time>
      </trkpt>
      <trkpt lat="43.515099" lon="10.631403">
        <ele>139.575285</ele>
        <time>2026-05-06T21:28:24.890Z</time>
      </trkpt>
      <trkpt lat="43.514970" lon="10.631408">
        <ele>138.990918</ele>
        <time>2026-05-06T21:28:26.626Z</time>
      </trkpt>
      <trkpt lat="43.514642" lon="10.631241">
        <ele>137.407662</ele>
        <time>2026-05-06T21:28:31.235Z</time>
      </trkpt>
      <trkpt lat="43.514551" lon="10.631192">
        <ele>136.965294</ele>
        <time>2026-05-06T21:28:32.517Z</time>
      </trkpt>
      <trkpt lat="43.514343" lon="10.631124">
        <ele>135.997322</ele>
        <time>2026-05-06T21:28:35.310Z</time>
      </trkpt>
      <trkpt lat="43.514165" lon="10.631161">
        <ele>135.182197</ele>
        <time>2026-05-06T21:28:37.681Z</time>
      </trkpt>
      <trkpt lat="43.513781" lon="10.631404">
        <ele>133.269010</ele>
        <time>2026-05-06T21:28:43.401Z</time>
      </trkpt>
      <trkpt lat="43.513382" lon="10.631804">
        <ele>132.283921</ele>
        <time>2026-05-06T21:28:50.996Z</time>
      </trkpt>
      <trkpt lat="43.513146" lon="10.631936">
        <ele>132.383241</ele>
        <time>2026-05-06T21:28:54.882Z</time>
      </trkpt>
      <trkpt lat="43.512976" lon="10.631890">
        <ele>132.450802</ele>
        <time>2026-05-06T21:28:57.500Z</time>
      </trkpt>
      <trkpt lat="43.512761" lon="10.631646">
        <ele>132.559396</ele>
        <time>2026-05-06T21:29:02.122Z</time>
      </trkpt>
      <trkpt lat="43.512671" lon="10.631599">
        <ele>132.596927</ele>
        <time>2026-05-06T21:29:04.390Z</time>
      </trkpt>
      <trkpt lat="43.512520" lon="10.631618">
        <ele>132.656060</ele>
        <time>2026-05-06T21:29:08.390Z</time>
      </trkpt>
      <trkpt lat="43.512348" lon="10.631725">
        <ele>132.729647</ele>
        <time>2026-05-06T21:29:14.611Z</time>
      </trkpt>
      <trkpt lat="43.512017" lon="10.631964">
        <ele>132.875360</ele>
        <time>2026-05-06T21:29:30.349Z</time>
      </trkpt>
      <trkpt lat="43.511962" lon="10.632018">
        <ele>133.003199</ele>
        <time>2026-05-06T21:29:33.441Z</time>
      </trkpt>
      <trkpt lat="43.511744" lon="10.632285">
        <ele>133.869291</ele>
        <time>2026-05-06T21:29:46.798Z</time>
      </trkpt>
      <trkpt lat="43.511329" lon="10.632636">
        <ele>135.315404</ele>
        <time>2026-05-06T21:30:04.771Z</time>
      </trkpt>
      <trkpt lat="43.511257" lon="10.632755">
        <ele>135.649250</ele>
        <time>2026-05-06T21:30:08.719Z</time>
      </trkpt>
      <trkpt lat="43.511223" lon="10.632904">
        <ele>135.985739</ele>
        <time>2026-05-06T21:30:12.657Z</time>
      </trkpt>
      <trkpt lat="43.511240" lon="10.633166">
        <ele>136.552395</ele>
        <time>2026-05-06T21:30:19.404Z</time>
      </trkpt>
      <trkpt lat="43.511320" lon="10.633429">
        <ele>137.166766</ele>
        <time>2026-05-06T21:30:26.048Z</time>
      </trkpt>
      <trkpt lat="43.511630" lon="10.633981">
        <ele>138.223350</ele>
        <time>2026-05-06T21:30:39.155Z</time>
      </trkpt>
      <trkpt lat="43.511728" lon="10.634246">
        <ele>138.215267</ele>
        <time>2026-05-06T21:30:43.609Z</time>
      </trkpt>
      <trkpt lat="43.511748" lon="10.634490">
        <ele>138.208595</ele>
        <time>2026-05-06T21:30:47.132Z</time>
      </trkpt>
      <trkpt lat="43.511716" lon="10.634627">
        <ele>138.204684</ele>
        <time>2026-05-06T21:30:49.148Z</time>
      </trkpt>
      <trkpt lat="43.511650" lon="10.634761">
        <ele>138.200283</ele>
        <time>2026-05-06T21:30:51.426Z</time>
      </trkpt>
      <trkpt lat="43.511440" lon="10.634956">
        <ele>138.190797</ele>
        <time>2026-05-06T21:30:56.099Z</time>
      </trkpt>
      <trkpt lat="43.510861" lon="10.635266">
        <ele>138.167526</ele>
        <time>2026-05-06T21:31:06.941Z</time>
      </trkpt>
      <trkpt lat="43.510646" lon="10.635280">
        <ele>138.148750</ele>
        <time>2026-05-06T21:31:10.650Z</time>
      </trkpt>
      <trkpt lat="43.510254" lon="10.635158">
        <ele>138.055850</ele>
        <time>2026-05-06T21:31:17.501Z</time>
      </trkpt>
      <trkpt lat="43.509928" lon="10.634980">
        <ele>137.974794</ele>
        <time>2026-05-06T21:31:23.388Z</time>
      </trkpt>
      <trkpt lat="43.509587" lon="10.634727">
        <ele>137.885276</ele>
        <time>2026-05-06T21:31:29.869Z</time>
      </trkpt>
      <trkpt lat="43.508793" lon="10.633931">
        <ele>137.963319</ele>
        <time>2026-05-06T21:31:54.759Z</time>
      </trkpt>
      <trkpt lat="43.508384" lon="10.633207">
        <ele>138.346364</ele>
        <time>2026-05-06T21:32:09.406Z</time>
      </trkpt>
      <trkpt lat="43.508278" lon="10.633142">
        <ele>138.413128</ele>
        <time>2026-05-06T21:32:12.020Z</time>
      </trkpt>
      <trkpt lat="43.508181" lon="10.633143">
        <ele>138.468953</ele>
        <time>2026-05-06T21:32:14.159Z</time>
      </trkpt>
      <trkpt lat="43.508069" lon="10.633215">
        <ele>138.540070</ele>
        <time>2026-05-06T21:32:16.805Z</time>
      </trkpt>
      <trkpt lat="43.507854" lon="10.633386">
        <ele>138.682913</ele>
        <time>2026-05-06T21:32:22.301Z</time>
      </trkpt>
      <trkpt lat="43.507769" lon="10.633384">
        <ele>138.731838</ele>
        <time>2026-05-06T21:32:24.161Z</time>
      </trkpt>
      <trkpt lat="43.507691" lon="10.633345">
        <ele>138.779587</ele>
        <time>2026-05-06T21:32:25.722Z</time>
      </trkpt>
      <trkpt lat="43.507636" lon="10.633245">
        <ele>138.891837</ele>
        <time>2026-05-06T21:32:27.560Z</time>
      </trkpt>
      <trkpt lat="43.507529" lon="10.632889">
        <ele>139.241056</ele>
        <time>2026-05-06T21:32:32.622Z</time>
      </trkpt>
      <trkpt lat="43.507413" lon="10.632663">
        <ele>139.491959</ele>
        <time>2026-05-06T21:32:35.995Z</time>
      </trkpt>
      <trkpt lat="43.507280" lon="10.632505">
        <ele>139.711316</ele>
        <time>2026-05-06T21:32:38.998Z</time>
      </trkpt>
      <trkpt lat="43.507044" lon="10.632342">
        <ele>140.041120</ele>
        <time>2026-05-06T21:32:45.233Z</time>
      </trkpt>
      <trkpt lat="43.506789" lon="10.632249">
        <ele>140.370693</ele>
        <time>2026-05-06T21:32:52.478Z</time>
      </trkpt>
      <trkpt lat="43.506291" lon="10.632139">
        <ele>141.000864</ele>
        <time>2026-05-06T21:33:08.551Z</time>
      </trkpt>
      <trkpt lat="43.506017" lon="10.632126">
        <ele>142.119728</ele>
        <time>2026-05-06T21:33:19.595Z</time>
      </trkpt>
      <trkpt lat="43.505792" lon="10.632169">
        <ele>143.102527</ele>
        <time>2026-05-06T21:33:29.216Z</time>
      </trkpt>
      <trkpt lat="43.505599" lon="10.632278">
        <ele>144.004909</ele>
        <time>2026-05-06T21:33:38.097Z</time>
      </trkpt>
      <trkpt lat="43.505212" lon="10.632500">
        <ele>145.818462</ele>
        <time>2026-05-06T21:33:55.766Z</time>
      </trkpt>
      <trkpt lat="43.505155" lon="10.632535">
        <ele>146.088433</ele>
        <time>2026-05-06T21:33:58.425Z</time>
      </trkpt>
      <trkpt lat="43.505110" lon="10.632614">
        <ele>146.403661</ele>
        <time>2026-05-06T21:34:01.451Z</time>
      </trkpt>
      <trkpt lat="43.505075" lon="10.632804">
        <ele>147.018841</ele>
        <time>2026-05-06T21:34:07.381Z</time>
      </trkpt>
      <trkpt lat="43.505175" lon="10.633567">
        <ele>149.360359</ele>
        <time>2026-05-06T21:34:32.131Z</time>
      </trkpt>
      <trkpt lat="43.505177" lon="10.633871">
        <ele>150.178120</ele>
        <time>2026-05-06T21:34:41.686Z</time>
      </trkpt>
      <trkpt lat="43.505131" lon="10.634148">
        <ele>150.942500</ele>
        <time>2026-05-06T21:34:49.945Z</time>
      </trkpt>
      <trkpt lat="43.505117" lon="10.634452">
        <ele>151.761874</ele>
        <time>2026-05-06T21:34:57.994Z</time>
      </trkpt>
      <trkpt lat="43.505246" lon="10.634958">
        <ele>153.204588</ele>
        <time>2026-05-06T21:35:11.717Z</time>
      </trkpt>
      <trkpt lat="43.505273" lon="10.635187">
        <ele>153.828658</ele>
        <time>2026-05-06T21:35:17.614Z</time>
      </trkpt>
      <trkpt lat="43.505260" lon="10.635335">
        <ele>154.229670</ele>
        <time>2026-05-06T21:35:21.399Z</time>
      </trkpt>
      <trkpt lat="43.505177" lon="10.635659">
        <ele>155.153955</ele>
        <time>2026-05-06T21:35:30.203Z</time>
      </trkpt>
      <trkpt lat="43.505175" lon="10.635873">
        <ele>155.764502</ele>
        <time>2026-05-06T21:35:35.532Z</time>
      </trkpt>
      <trkpt lat="43.505204" lon="10.635969">
        <ele>156.083408</ele>
        <time>2026-05-06T21:35:38.134Z</time>
      </trkpt>
      <trkpt lat="43.505429" lon="10.636388">
        <ele>157.682139</ele>
        <time>2026-05-06T21:35:51.218Z</time>
      </trkpt>
      <trkpt lat="43.505454" lon="10.636486">
        <ele>158.000712</ele>
        <time>2026-05-06T21:35:53.858Z</time>
      </trkpt>
      <trkpt lat="43.505448" lon="10.636667">
        <ele>158.556344</ele>
        <time>2026-05-06T21:35:58.481Z</time>
      </trkpt>
      <trkpt lat="43.505417" lon="10.636759">
        <ele>158.867429</ele>
        <time>2026-05-06T21:36:01.109Z</time>
      </trkpt>
      <trkpt lat="43.505311" lon="10.636862">
        <ele>159.415717</ele>
        <time>2026-05-06T21:36:05.827Z</time>
      </trkpt>
      <trkpt lat="43.505182" lon="10.636860">
        <ele>159.961160</ele>
        <time>2026-05-06T21:36:10.790Z</time>
      </trkpt>
      <trkpt lat="43.505131" lon="10.636811">
        <ele>160.223980</ele>
        <time>2026-05-06T21:36:13.263Z</time>
      </trkpt>
      <trkpt lat="43.505094" lon="10.636739">
        <ele>160.494577</ele>
        <time>2026-05-06T21:36:15.888Z</time>
      </trkpt>
      <trkpt lat="43.505014" lon="10.636378">
        <ele>161.652142</ele>
        <time>2026-05-06T21:36:27.960Z</time>
      </trkpt>
      <trkpt lat="43.504943" lon="10.636201">
        <ele>162.272411</ele>
        <time>2026-05-06T21:36:34.804Z</time>
      </trkpt>
      <trkpt lat="43.504693" lon="10.635811">
        <ele>164.361484</ele>
        <time>2026-05-06T21:36:53.427Z</time>
      </trkpt>
      <trkpt lat="43.504263" lon="10.635309">
        <ele>168.243132</ele>
        <time>2026-05-06T21:37:23.516Z</time>
      </trkpt>
      <trkpt lat="43.504161" lon="10.635253">
        <ele>168.999482</ele>
        <time>2026-05-06T21:37:29.823Z</time>
      </trkpt>
      <trkpt lat="43.504090" lon="10.635263">
        <ele>169.491151</ele>
        <time>2026-05-06T21:37:34.001Z</time>
      </trkpt>
      <trkpt lat="43.503997" lon="10.635332">
        <ele>170.218714</ele>
        <time>2026-05-06T21:37:40.113Z</time>
      </trkpt>
      <trkpt lat="43.503957" lon="10.635409">
        <ele>170.691970</ele>
        <time>2026-05-06T21:37:44.063Z</time>
      </trkpt>
      <trkpt lat="43.503832" lon="10.635914">
        <ele>173.358257</ele>
        <time>2026-05-06T21:38:06.200Z</time>
      </trkpt>
      <trkpt lat="43.503778" lon="10.636034">
        <ele>174.063902</ele>
        <time>2026-05-06T21:38:11.847Z</time>
      </trkpt>
      <trkpt lat="43.503736" lon="10.636126">
        <ele>174.607088</ele>
        <time>2026-05-06T21:38:16.129Z</time>
      </trkpt>
      <trkpt lat="43.503435" lon="10.636376">
        <ele>176.516738</ele>
        <time>2026-05-06T21:38:34.981Z</time>
      </trkpt>
      <trkpt lat="43.503234" lon="10.636516">
        <ele>177.557024</ele>
        <time>2026-05-06T21:38:47.059Z</time>
      </trkpt>
      <trkpt lat="43.503234" lon="10.636516">
        <ele>177.557024</ele>
        <time>2026-05-06T21:38:47.067Z</time>
      </trkpt>
      <trkpt lat="43.502597" lon="10.636905">
        <ele>180.775393</ele>
        <time>2026-05-06T21:39:16.913Z</time>
      </trkpt>
      <trkpt lat="43.502110" lon="10.637492">
        <ele>183.763657</ele>
        <time>2026-05-06T21:39:44.587Z</time>
      </trkpt>
      <trkpt lat="43.502050" lon="10.637566">
        <ele>183.308774</ele>
        <time>2026-05-06T21:39:45.895Z</time>
      </trkpt>
      <trkpt lat="43.501780" lon="10.637862">
        <ele>181.142730</ele>
        <time>2026-05-06T21:39:51.381Z</time>
      </trkpt>
      <trkpt lat="43.501671" lon="10.638032">
        <ele>180.109318</ele>
        <time>2026-05-06T21:39:53.727Z</time>
      </trkpt>
      <trkpt lat="43.501807" lon="10.638104">
        <ele>179.194560</ele>
        <time>2026-05-06T21:39:57.270Z</time>
      </trkpt>
      <trkpt lat="43.501868" lon="10.638178">
        <ele>178.684361</ele>
        <time>2026-05-06T21:39:59.148Z</time>
      </trkpt>
      <trkpt lat="43.502091" lon="10.638602">
        <ele>176.299002</ele>
        <time>2026-05-06T21:40:07.726Z</time>
      </trkpt>
      <trkpt lat="43.502154" lon="10.638791">
        <ele>175.351649</ele>
        <time>2026-05-06T21:40:11.024Z</time>
      </trkpt>
      <trkpt lat="43.502143" lon="10.639042">
        <ele>174.206375</ele>
        <time>2026-05-06T21:40:14.906Z</time>
      </trkpt>
      <trkpt lat="43.501951" lon="10.639862">
        <ele>167.762536</ele>
        <time>2026-05-06T21:40:27.811Z</time>
      </trkpt>
      <trkpt lat="43.501959" lon="10.640173">
        <ele>164.728959</ele>
        <time>2026-05-06T21:40:32.437Z</time>
      </trkpt>
      <trkpt lat="43.502340" lon="10.640860">
        <ele>156.298835</ele>
        <time>2026-05-06T21:40:45.203Z</time>
      </trkpt>
      <trkpt lat="43.502558" lon="10.641118">
        <ele>152.437664</ele>
        <time>2026-05-06T21:40:51.035Z</time>
      </trkpt>
      <trkpt lat="43.502581" lon="10.641429">
        <ele>149.390307</ele>
        <time>2026-05-06T21:40:55.654Z</time>
      </trkpt>
      <trkpt lat="43.502511" lon="10.641826">
        <ele>146.200056</ele>
        <time>2026-05-06T21:41:01.738Z</time>
      </trkpt>
      <trkpt lat="43.502542" lon="10.642255">
        <ele>143.141359</ele>
        <time>2026-05-06T21:41:08.248Z</time>
      </trkpt>
      <trkpt lat="43.502714" lon="10.643016">
        <ele>137.486250</ele>
        <time>2026-05-06T21:41:20.592Z</time>
      </trkpt>
      <trkpt lat="43.503072" lon="10.643928">
        <ele>130.454896</ele>
        <time>2026-05-06T21:41:37.587Z</time>
      </trkpt>
      <trkpt lat="43.503094" lon="10.644124">
        <ele>129.815657</ele>
        <time>2026-05-06T21:41:40.986Z</time>
      </trkpt>
      <trkpt lat="43.503227" lon="10.645366">
        <ele>125.769230</ele>
        <time>2026-05-06T21:42:03.698Z</time>
      </trkpt>
      <trkpt lat="43.503290" lon="10.645624">
        <ele>124.891826</ele>
        <time>2026-05-06T21:42:08.833Z</time>
      </trkpt>
      <trkpt lat="43.503912" lon="10.646203">
        <ele>121.484374</ele>
        <time>2026-05-06T21:42:27.812Z</time>
      </trkpt>
      <trkpt lat="43.504177" lon="10.647051">
        <ele>118.324885</ele>
        <time>2026-05-06T21:42:44.059Z</time>
      </trkpt>
      <trkpt lat="43.504901" lon="10.648659">
        <ele>112.414288</ele>
        <time>2026-05-06T21:43:16.907Z</time>
      </trkpt>
      <trkpt lat="43.505049" lon="10.650172">
        <ele>108.421253</ele>
        <time>2026-05-06T21:43:45.245Z</time>
      </trkpt>
      <trkpt lat="43.505757" lon="10.651824">
        <ele>105.571573</ele>
        <time>2026-05-06T21:44:24.316Z</time>
      </trkpt>
      <trkpt lat="43.506185" lon="10.652736">
        <ele>104.030169</ele>
        <time>2026-05-06T21:44:46.339Z</time>
      </trkpt>
      <trkpt lat="43.506870" lon="10.653830">
        <ele>101.529920</ele>
        <time>2026-05-06T21:45:14.852Z</time>
      </trkpt>
      <trkpt lat="43.506922" lon="10.653879">
        <ele>101.379692</ele>
        <time>2026-05-06T21:45:16.539Z</time>
      </trkpt>
      <trkpt lat="43.507516" lon="10.654431">
        <ele>98.817164</ele>
        <time>2026-05-06T21:45:35.368Z</time>
      </trkpt>
      <trkpt lat="43.508302" lon="10.654721">
        <ele>93.819139</ele>
        <time>2026-05-06T21:45:55.007Z</time>
      </trkpt>
      <trkpt lat="43.508800" lon="10.655437">
        <ele>89.399521</ele>
        <time>2026-05-06T21:46:10.956Z</time>
      </trkpt>
      <trkpt lat="43.508960" lon="10.655710">
        <ele>87.583746</ele>
        <time>2026-05-06T21:46:16.426Z</time>
      </trkpt>
      <trkpt lat="43.509013" lon="10.655847">
        <ele>86.760791</ele>
        <time>2026-05-06T21:46:18.851Z</time>
      </trkpt>
      <trkpt lat="43.509157" lon="10.656463">
        <ele>83.330527</ele>
        <time>2026-05-06T21:46:28.982Z</time>
      </trkpt>
      <trkpt lat="43.509227" lon="10.656552">
        <ele>82.634691</ele>
        <time>2026-05-06T21:46:31.081Z</time>
      </trkpt>
      <trkpt lat="43.509679" lon="10.656776">
        <ele>79.124683</ele>
        <time>2026-05-06T21:46:41.911Z</time>
      </trkpt>
      <trkpt lat="43.509751" lon="10.656852">
        <ele>78.462039</ele>
        <time>2026-05-06T21:46:44.036Z</time>
      </trkpt>
      <trkpt lat="43.510165" lon="10.656723">
        <ele>75.948194</ele>
        <time>2026-05-06T21:46:49.799Z</time>
      </trkpt>
      <trkpt lat="43.510260" lon="10.656671">
        <ele>75.866310</ele>
        <time>2026-05-06T21:46:51.274Z</time>
      </trkpt>
      <trkpt lat="43.510395" lon="10.656598">
        <ele>75.750138</ele>
        <time>2026-05-06T21:46:53.462Z</time>
      </trkpt>
      <trkpt lat="43.510643" lon="10.656384">
        <ele>75.515760</ele>
        <time>2026-05-06T21:46:58.266Z</time>
      </trkpt>
      <trkpt lat="43.511146" lon="10.655873">
        <ele>75.015231</ele>
        <time>2026-05-06T21:47:11.404Z</time>
      </trkpt>
      <trkpt lat="43.511192" lon="10.655823">
        <ele>74.968305</ele>
        <time>2026-05-06T21:47:12.738Z</time>
      </trkpt>
      <trkpt lat="43.512474" lon="10.654439">
        <ele>74.727369</ele>
        <time>2026-05-06T21:47:51.095Z</time>
      </trkpt>
      <trkpt lat="43.512824" lon="10.654714">
        <ele>74.779434</ele>
        <time>2026-05-06T21:47:58.479Z</time>
      </trkpt>
      <trkpt lat="43.514054" lon="10.655527">
        <ele>72.754572</ele>
        <time>2026-05-06T21:48:20.098Z</time>
      </trkpt>
      <trkpt lat="43.514351" lon="10.655771">
        <ele>72.114449</ele>
        <time>2026-05-06T21:48:25.335Z</time>
      </trkpt>
      <trkpt lat="43.514557" lon="10.656007">
        <ele>71.618560</ele>
        <time>2026-05-06T21:48:29.332Z</time>
      </trkpt>
      <trkpt lat="43.514758" lon="10.656306">
        <ele>71.242567</ele>
        <time>2026-05-06T21:48:33.737Z</time>
      </trkpt>
      <trkpt lat="43.514902" lon="10.656585">
        <ele>70.974724</ele>
        <time>2026-05-06T21:48:37.518Z</time>
      </trkpt>
      <trkpt lat="43.515226" lon="10.657432">
        <ele>70.225737</ele>
        <time>2026-05-06T21:48:48.717Z</time>
      </trkpt>
      <trkpt lat="43.515276" lon="10.657569">
        <ele>70.105779</ele>
        <time>2026-05-06T21:48:50.689Z</time>
      </trkpt>
      <trkpt lat="43.515593" lon="10.658468">
        <ele>69.616654</ele>
        <time>2026-05-06T21:49:05.716Z</time>
      </trkpt>
      <trkpt lat="43.515742" lon="10.658786">
        <ele>69.718231</ele>
        <time>2026-05-06T21:49:12.364Z</time>
      </trkpt>
      <trkpt lat="43.515828" lon="10.658910">
        <ele>69.764265</ele>
        <time>2026-05-06T21:49:15.413Z</time>
      </trkpt>
      <trkpt lat="43.515960" lon="10.659027">
        <ele>69.822319</ele>
        <time>2026-05-06T21:49:19.151Z</time>
      </trkpt>
      <trkpt lat="43.516305" lon="10.659190">
        <ele>69.957241</ele>
        <time>2026-05-06T21:49:27.351Z</time>
      </trkpt>
      <trkpt lat="43.516485" lon="10.659190">
        <ele>70.023835</ele>
        <time>2026-05-06T21:49:31.136Z</time>
      </trkpt>
      <trkpt lat="43.516738" lon="10.659119">
        <ele>70.119356</ele>
        <time>2026-05-06T21:49:36.282Z</time>
      </trkpt>
      <trkpt lat="43.516974" lon="10.658988">
        <ele>70.196156</ele>
        <time>2026-05-06T21:49:41.070Z</time>
      </trkpt>
      <trkpt lat="43.517400" lon="10.658672">
        <ele>69.871252</ele>
        <time>2026-05-06T21:49:49.680Z</time>
      </trkpt>
      <trkpt lat="43.517546" lon="10.658523">
        <ele>69.749254</ele>
        <time>2026-05-06T21:49:52.921Z</time>
      </trkpt>
      <trkpt lat="43.517809" lon="10.658167">
        <ele>69.501721</ele>
        <time>2026-05-06T21:49:59.509Z</time>
      </trkpt>
      <trkpt lat="43.518165" lon="10.657532">
        <ele>69.110778</ele>
        <time>2026-05-06T21:50:09.359Z</time>
      </trkpt>
      <trkpt lat="43.518329" lon="10.657204">
        <ele>68.898121</ele>
        <time>2026-05-06T21:50:14.174Z</time>
      </trkpt>
      <trkpt lat="43.518265" lon="10.657113">
        <ele>68.822453</ele>
        <time>2026-05-06T21:50:15.771Z</time>
      </trkpt>
      <trkpt lat="43.518280" lon="10.656929">
        <ele>68.711932</ele>
        <time>2026-05-06T21:50:18.150Z</time>
      </trkpt>
      <trkpt lat="43.518485" lon="10.656341">
        <ele>68.322498</ele>
        <time>2026-05-06T21:50:26.534Z</time>
      </trkpt>
      <trkpt lat="43.518606" lon="10.656119">
        <ele>68.156729</ele>
        <time>2026-05-06T21:50:30.153Z</time>
      </trkpt>
      <trkpt lat="43.519464" lon="10.655573">
        <ele>67.596277</ele>
        <time>2026-05-06T21:50:47.544Z</time>
      </trkpt>
      <trkpt lat="43.519914" lon="10.655139">
        <ele>67.847146</ele>
        <time>2026-05-06T21:51:00.095Z</time>
      </trkpt>
      <trkpt lat="43.520255" lon="10.654783">
        <ele>68.042537</ele>
        <time>2026-05-06T21:51:10.499Z</time>
      </trkpt>
      <trkpt lat="43.520917" lon="10.654090">
        <ele>68.318553</ele>
        <time>2026-05-06T21:51:30.906Z</time>
      </trkpt>
      <trkpt lat="43.521113" lon="10.653827">
        <ele>68.285190</ele>
        <time>2026-05-06T21:51:37.208Z</time>
      </trkpt>
      <trkpt lat="43.521327" lon="10.653457">
        <ele>68.243322</ele>
        <time>2026-05-06T21:51:44.526Z</time>
      </trkpt>
      <trkpt lat="43.521598" lon="10.652839">
        <ele>68.179433</ele>
        <time>2026-05-06T21:51:54.729Z</time>
      </trkpt>
      <trkpt lat="43.522272" lon="10.650678">
        <ele>66.460542</ele>
        <time>2026-05-06T21:52:24.946Z</time>
      </trkpt>
      <trkpt lat="43.522397" lon="10.650395">
        <ele>66.135278</ele>
        <time>2026-05-06T21:52:28.990Z</time>
      </trkpt>
      <trkpt lat="43.522589" lon="10.650102">
        <ele>65.747637</ele>
        <time>2026-05-06T21:52:33.781Z</time>
      </trkpt>
      <trkpt lat="43.522958" lon="10.649735">
        <ele>64.931480</ele>
        <time>2026-05-06T21:52:41.266Z</time>
      </trkpt>
      <trkpt lat="43.523131" lon="10.649649">
        <ele>64.592602</ele>
        <time>2026-05-06T21:52:44.241Z</time>
      </trkpt>
      <trkpt lat="43.523312" lon="10.649631">
        <ele>64.258193</ele>
        <time>2026-05-06T21:52:47.191Z</time>
      </trkpt>
      <trkpt lat="43.523646" lon="10.649585">
        <ele>63.639644</ele>
        <time>2026-05-06T21:52:52.633Z</time>
      </trkpt>
      <trkpt lat="43.523916" lon="10.649447">
        <ele>63.109026</ele>
        <time>2026-05-06T21:52:57.313Z</time>
      </trkpt>
      <trkpt lat="43.524231" lon="10.649147">
        <ele>62.403595</ele>
        <time>2026-05-06T21:53:03.792Z</time>
      </trkpt>
      <trkpt lat="43.524417" lon="10.648893">
        <ele>62.468227</ele>
        <time>2026-05-06T21:53:08.464Z</time>
      </trkpt>
      <trkpt lat="43.524474" lon="10.648774">
        <ele>62.509079</ele>
        <time>2026-05-06T21:53:10.372Z</time>
      </trkpt>
      <trkpt lat="43.524572" lon="10.648429">
        <ele>62.615212</ele>
        <time>2026-05-06T21:53:15.578Z</time>
      </trkpt>
      <trkpt lat="43.524640" lon="10.648273">
        <ele>62.667349</ele>
        <time>2026-05-06T21:53:18.364Z</time>
      </trkpt>
      <trkpt lat="43.524829" lon="10.648070">
        <ele>62.761982</ele>
        <time>2026-05-06T21:53:23.546Z</time>
      </trkpt>
      <trkpt lat="43.524981" lon="10.648005">
        <ele>62.824848</ele>
        <time>2026-05-06T21:53:26.620Z</time>
      </trkpt>
      <trkpt lat="43.525116" lon="10.648006">
        <ele>62.878179</ele>
        <time>2026-05-06T21:53:29.591Z</time>
      </trkpt>
      <trkpt lat="43.525244" lon="10.648056">
        <ele>62.930733</ele>
        <time>2026-05-06T21:53:32.958Z</time>
      </trkpt>
      <trkpt lat="43.525563" lon="10.648274">
        <ele>63.071373</ele>
        <time>2026-05-06T21:53:43.762Z</time>
      </trkpt>
      <trkpt lat="43.525685" lon="10.648307">
        <ele>63.294424</ele>
        <time>2026-05-06T21:53:48.117Z</time>
      </trkpt>
      <trkpt lat="43.525796" lon="10.648288">
        <ele>63.539371</ele>
        <time>2026-05-06T21:53:52.260Z</time>
      </trkpt>
      <trkpt lat="43.525977" lon="10.648180">
        <ele>63.971255</ele>
        <time>2026-05-06T21:53:59.326Z</time>
      </trkpt>
      <trkpt lat="43.525998" lon="10.648313">
        <ele>64.187387</ele>
        <time>2026-05-06T21:54:04.152Z</time>
      </trkpt>
      <trkpt lat="43.526128" lon="10.649105">
        <ele>65.476775</ele>
        <time>2026-05-06T21:54:30.433Z</time>
      </trkpt>
      <trkpt lat="43.526103" lon="10.649213">
        <ele>65.656788</ele>
        <time>2026-05-06T21:54:33.649Z</time>
      </trkpt>
      <trkpt lat="43.526060" lon="10.649266">
        <ele>65.783080</ele>
        <time>2026-05-06T21:54:35.999Z</time>
      </trkpt>
      <trkpt lat="43.525952" lon="10.649257">
        <ele>66.020024</ele>
        <time>2026-05-06T21:54:40.112Z</time>
      </trkpt>
      <trkpt lat="43.525609" lon="10.648952">
        <ele>66.913759</ele>
        <time>2026-05-06T21:54:57.271Z</time>
      </trkpt>
      <trkpt lat="43.525198" lon="10.648485">
        <ele>68.361224</ele>
        <time>2026-05-06T21:55:18.059Z</time>
      </trkpt>
      <trkpt lat="43.525092" lon="10.648476">
        <ele>68.655581</ele>
        <time>2026-05-06T21:55:21.982Z</time>
      </trkpt>
      <trkpt lat="43.525011" lon="10.648513">
        <ele>68.892083</ele>
        <time>2026-05-06T21:55:25.142Z</time>
      </trkpt>
      <trkpt lat="43.524925" lon="10.648639">
        <ele>69.239847</ele>
        <time>2026-05-06T21:55:29.925Z</time>
      </trkpt>
      <trkpt lat="43.524913" lon="10.648810">
        <ele>69.585111</ele>
        <time>2026-05-06T21:55:34.898Z</time>
      </trkpt>
      <trkpt lat="43.524942" lon="10.648946">
        <ele>69.870003</ele>
        <time>2026-05-06T21:55:39.180Z</time>
      </trkpt>
      <trkpt lat="43.525300" lon="10.649897">
        <ele>72.038314</ele>
        <time>2026-05-06T21:56:18.592Z</time>
      </trkpt>
      <trkpt lat="43.525372" lon="10.650060">
        <ele>72.756710</ele>
        <time>2026-05-06T21:56:26.965Z</time>
      </trkpt>
      <trkpt lat="43.525460" lon="10.650176">
        <ele>73.388618</ele>
        <time>2026-05-06T21:56:34.495Z</time>
      </trkpt>
      <trkpt lat="43.525837" lon="10.650332">
        <ele>75.431835</ele>
        <time>2026-05-06T21:56:59.126Z</time>
      </trkpt>
      <trkpt lat="43.525968" lon="10.650455">
        <ele>76.254493</ele>
        <time>2026-05-06T21:57:08.896Z</time>
      </trkpt>
      <trkpt lat="43.526067" lon="10.650598">
        <ele>76.998671</ele>
        <time>2026-05-06T21:57:17.615Z</time>
      </trkpt>
      <trkpt lat="43.526177" lon="10.650940">
        <ele>78.406871</ele>
        <time>2026-05-06T21:57:33.684Z</time>
      </trkpt>
      <trkpt lat="43.526466" lon="10.651330">
        <ele>80.505766</ele>
        <time>2026-05-06T21:57:56.238Z</time>
      </trkpt>
      <trkpt lat="43.526552" lon="10.651497">
        <ele>81.276730</ele>
        <time>2026-05-06T21:58:04.198Z</time>
      </trkpt>
      <trkpt lat="43.526644" lon="10.651804">
        <ele>82.679480</ele>
        <time>2026-05-06T21:58:17.179Z</time>
      </trkpt>
      <trkpt lat="43.526706" lon="10.652293">
        <ele>84.788551</ele>
        <time>2026-05-06T21:58:36.899Z</time>
      </trkpt>
      <trkpt lat="43.526849" lon="10.652694">
        <ele>86.687132</ele>
        <time>2026-05-06T21:58:55.777Z</time>
      </trkpt>
      <trkpt lat="43.526969" lon="10.652865">
        <ele>87.698188</ele>
        <time>2026-05-06T21:59:06.405Z</time>
      </trkpt>
      <trkpt lat="43.527286" lon="10.653129">
        <ele>89.868060</ele>
        <time>2026-05-06T21:59:30.313Z</time>
      </trkpt>
      <trkpt lat="43.527484" lon="10.653180">
        <ele>91.048328</ele>
        <time>2026-05-06T21:59:43.894Z</time>
      </trkpt>
      <trkpt lat="43.528038" lon="10.653130">
        <ele>95.011391</ele>
        <time>2026-05-06T22:00:22.824Z</time>
      </trkpt>
      <trkpt lat="43.528263" lon="10.653197">
        <ele>96.756037</ele>
        <time>2026-05-06T22:00:39.336Z</time>
      </trkpt>
      <trkpt lat="43.528694" lon="10.653595">
        <ele>100.687298</ele>
        <time>2026-05-06T22:01:16.240Z</time>
      </trkpt>
      <trkpt lat="43.529058" lon="10.654003">
        <ele>104.242330</ele>
        <time>2026-05-06T22:01:48.482Z</time>
      </trkpt>
      <trkpt lat="43.529514" lon="10.654833">
        <ele>109.137852</ele>
        <time>2026-05-06T22:02:41.124Z</time>
      </trkpt>
      <trkpt lat="43.529579" lon="10.655011">
        <ele>110.029488</ele>
        <time>2026-05-06T22:02:51.423Z</time>
      </trkpt>
      <trkpt lat="43.529595" lon="10.655408">
        <ele>111.808317</ele>
        <time>2026-05-06T22:03:11.654Z</time>
      </trkpt>
      <trkpt lat="43.529641" lon="10.655785">
        <ele>113.518645</ele>
        <time>2026-05-06T22:03:30.075Z</time>
      </trkpt>
      <trkpt lat="43.529874" lon="10.656389">
        <ele>116.579480</ele>
        <time>2026-05-06T22:03:57.393Z</time>
      </trkpt>
      <trkpt lat="43.529916" lon="10.656937">
        <ele>115.236275</ele>
        <time>2026-05-06T22:04:14.219Z</time>
      </trkpt>
      <trkpt lat="43.529958" lon="10.657184">
        <ele>114.593051</ele>
        <time>2026-05-06T22:04:20.058Z</time>
      </trkpt>
      <trkpt lat="43.529602" lon="10.657035">
        <ele>113.292078</ele>
        <time>2026-05-06T22:04:30.022Z</time>
      </trkpt>
      <trkpt lat="43.529228" lon="10.656680">
        <ele>111.704435</ele>
        <time>2026-05-06T22:04:40.705Z</time>
      </trkpt>
      <trkpt lat="43.529028" lon="10.656619">
        <ele>110.988147</ele>
        <time>2026-05-06T22:04:45.254Z</time>
      </trkpt>
      <trkpt lat="43.528173" lon="10.657409">
        <ele>99.775802</ele>
        <time>2026-05-06T22:05:06.896Z</time>
      </trkpt>
      <trkpt lat="43.527990" lon="10.657611">
        <ele>96.829752</ele>
        <time>2026-05-06T22:05:11.652Z</time>
      </trkpt>
      <trkpt lat="43.527868" lon="10.657947">
        <ele>93.405275</ele>
        <time>2026-05-06T22:05:17.157Z</time>
      </trkpt>
      <trkpt lat="43.527679" lon="10.658253">
        <ele>89.742022</ele>
        <time>2026-05-06T22:05:23.065Z</time>
      </trkpt>
      <trkpt lat="43.527471" lon="10.658485">
        <ele>86.986271</ele>
        <time>2026-05-06T22:05:28.497Z</time>
      </trkpt>
      <trkpt lat="43.527178" lon="10.658653">
        <ele>84.806950</ele>
        <time>2026-05-06T22:05:35.042Z</time>
      </trkpt>
      <trkpt lat="43.527092" lon="10.658796">
        <ele>83.881771</ele>
        <time>2026-05-06T22:05:37.859Z</time>
      </trkpt>
      <trkpt lat="43.527110" lon="10.658984">
        <ele>82.937460</ele>
        <time>2026-05-06T22:05:40.768Z</time>
      </trkpt>
      <trkpt lat="43.527288" lon="10.659369">
        <ele>80.663664</ele>
        <time>2026-05-06T22:05:48.048Z</time>
      </trkpt>
      <trkpt lat="43.527263" lon="10.659467">
        <ele>80.146330</ele>
        <time>2026-05-06T22:05:49.791Z</time>
      </trkpt>
      <trkpt lat="43.526805" lon="10.659813">
        <ele>76.559775</ele>
        <time>2026-05-06T22:06:03.230Z</time>
      </trkpt>
      <trkpt lat="43.526691" lon="10.659838">
        <ele>75.766977</ele>
        <time>2026-05-06T22:06:07.470Z</time>
      </trkpt>
      <trkpt lat="43.526490" lon="10.659704">
        <ele>76.806298</ele>
        <time>2026-05-06T22:06:17.941Z</time>
      </trkpt>
      <trkpt lat="43.526258" lon="10.659645">
        <ele>78.874711</ele>
        <time>2026-05-06T22:06:32.043Z</time>
      </trkpt>
      <trkpt lat="43.525939" lon="10.659739">
        <ele>81.734755</ele>
        <time>2026-05-06T22:06:55.905Z</time>
      </trkpt>
      <trkpt lat="43.524805" lon="10.660163">
        <ele>92.062560</ele>
        <time>2026-05-06T22:08:47.093Z</time>
      </trkpt>
      <trkpt lat="43.523355" lon="10.660795">
        <ele>105.783505</ele>
        <time>2026-05-06T22:10:50.491Z</time>
      </trkpt>
      <trkpt lat="43.523287" lon="10.660909">
        <ele>106.749278</ele>
        <time>2026-05-06T22:10:56.118Z</time>
      </trkpt>
      <trkpt lat="43.523343" lon="10.661901">
        <ele>108.848720</ele>
        <time>2026-05-06T22:11:29.936Z</time>
      </trkpt>
      <trkpt lat="43.523425" lon="10.662294">
        <ele>109.523025</ele>
        <time>2026-05-06T22:11:41.249Z</time>
      </trkpt>
      <trkpt lat="43.523655" lon="10.663145">
        <ele>111.020523</ele>
        <time>2026-05-06T22:12:04.196Z</time>
      </trkpt>
      <trkpt lat="43.523695" lon="10.663403">
        <ele>111.455059</ele>
        <time>2026-05-06T22:12:11.023Z</time>
      </trkpt>
      <trkpt lat="43.523627" lon="10.663624">
        <ele>111.779881</ele>
        <time>2026-05-06T22:12:17.640Z</time>
      </trkpt>
      <trkpt lat="43.523555" lon="10.663754">
        <ele>112.001213</ele>
        <time>2026-05-06T22:12:22.133Z</time>
      </trkpt>
      <trkpt lat="43.523495" lon="10.663994">
        <ele>112.344693</ele>
        <time>2026-05-06T22:12:29.132Z</time>
      </trkpt>
      <trkpt lat="43.523373" lon="10.664316">
        <ele>112.836253</ele>
        <time>2026-05-06T22:12:38.676Z</time>
      </trkpt>
      <trkpt lat="43.523360" lon="10.664492">
        <ele>113.075615</ele>
        <time>2026-05-06T22:12:43.316Z</time>
      </trkpt>
      <trkpt lat="43.523397" lon="10.664667">
        <ele>113.322252</ele>
        <time>2026-05-06T22:12:48.236Z</time>
      </trkpt>
      <trkpt lat="43.523525" lon="10.664996">
        <ele>113.827422</ele>
        <time>2026-05-06T22:12:58.965Z</time>
      </trkpt>
      <trkpt lat="43.523499" lon="10.665050">
        <ele>113.915125</ele>
        <time>2026-05-06T22:13:00.724Z</time>
      </trkpt>
      <trkpt lat="43.523430" lon="10.665670">
        <ele>114.763813</ele>
        <time>2026-05-06T22:13:21.808Z</time>
      </trkpt>
      <trkpt lat="43.523461" lon="10.666094">
        <ele>116.284085</ele>
        <time>2026-05-06T22:13:38.867Z</time>
      </trkpt>
      <trkpt lat="43.523612" lon="10.666657">
        <ele>118.538757</ele>
        <time>2026-05-06T22:14:03.306Z</time>
      </trkpt>
      <trkpt lat="43.523636" lon="10.666840">
        <ele>119.237262</ele>
        <time>2026-05-06T22:14:10.834Z</time>
      </trkpt>
      <trkpt lat="43.523610" lon="10.666947">
        <ele>119.661123</ele>
        <time>2026-05-06T22:14:15.516Z</time>
      </trkpt>
      <trkpt lat="43.523539" lon="10.667086">
        <ele>120.299748</ele>
        <time>2026-05-06T22:14:22.651Z</time>
      </trkpt>
      <trkpt lat="43.523422" lon="10.667210">
        <ele>121.064104</ele>
        <time>2026-05-06T22:14:31.316Z</time>
      </trkpt>
      <trkpt lat="43.522866" lon="10.667596">
        <ele>124.406026</ele>
        <time>2026-05-06T22:15:09.689Z</time>
      </trkpt>
      <trkpt lat="43.522591" lon="10.667993">
        <ele>127.959923</ele>
        <time>2026-05-06T22:15:36.405Z</time>
      </trkpt>
      <trkpt lat="43.522566" lon="10.668148">
        <ele>128.987750</ele>
        <time>2026-05-06T22:15:44.400Z</time>
      </trkpt>
      <trkpt lat="43.522601" lon="10.668444">
        <ele>130.929049</ele>
        <time>2026-05-06T22:16:00.284Z</time>
      </trkpt>
      <trkpt lat="43.522593" lon="10.668631">
        <ele>132.141594</ele>
        <time>2026-05-06T22:16:10.981Z</time>
      </trkpt>
      <trkpt lat="43.522531" lon="10.668798">
        <ele>133.356028</ele>
        <time>2026-05-06T22:16:22.018Z</time>
      </trkpt>
      <trkpt lat="43.521945" lon="10.669694">
        <ele>141.019072</ele>
        <time>2026-05-06T22:17:37.585Z</time>
      </trkpt>
      <trkpt lat="43.521831" lon="10.669721">
        <ele>141.896970</ele>
        <time>2026-05-06T22:17:47.692Z</time>
      </trkpt>
      <trkpt lat="43.521104" lon="10.669897">
        <ele>147.499088</ele>
        <time>2026-05-06T22:18:46.240Z</time>
      </trkpt>
      <trkpt lat="43.520961" lon="10.669959">
        <ele>148.636795</ele>
        <time>2026-05-06T22:18:56.596Z</time>
      </trkpt>
      <trkpt lat="43.520959" lon="10.670171">
        <ele>149.803635</ele>
        <time>2026-05-06T22:19:04.546Z</time>
      </trkpt>
      <trkpt lat="43.520863" lon="10.670667">
        <ele>152.628939</ele>
        <time>2026-05-06T22:19:21.264Z</time>
      </trkpt>
      <trkpt lat="43.520734" lon="10.671039">
        <ele>153.900717</ele>
        <time>2026-05-06T22:19:33.269Z</time>
      </trkpt>
      <trkpt lat="43.520544" lon="10.671333">
        <ele>154.037013</ele>
        <time>2026-05-06T22:19:41.903Z</time>
      </trkpt>
      <trkpt lat="43.520243" lon="10.671658">
        <ele>154.219470</ele>
        <time>2026-05-06T22:19:49.685Z</time>
      </trkpt>
      <trkpt lat="43.520180" lon="10.671731">
        <ele>154.258744</ele>
        <time>2026-05-06T22:19:51.222Z</time>
      </trkpt>
      <trkpt lat="43.519960" lon="10.671989">
        <ele>154.396579</ele>
        <time>2026-05-06T22:19:56.156Z</time>
      </trkpt>
      <trkpt lat="43.519857" lon="10.672247">
        <ele>154.498510</ele>
        <time>2026-05-06T22:19:59.763Z</time>
      </trkpt>
      <trkpt lat="43.519807" lon="10.672553">
        <ele>154.607070</ele>
        <time>2026-05-06T22:20:03.978Z</time>
      </trkpt>
      <trkpt lat="43.519757" lon="10.673506">
        <ele>152.877405</ele>
        <time>2026-05-06T22:20:14.854Z</time>
      </trkpt>
      <trkpt lat="43.519817" lon="10.673789">
        <ele>152.123128</ele>
        <time>2026-05-06T22:20:17.864Z</time>
      </trkpt>
      <trkpt lat="43.519905" lon="10.673962">
        <ele>151.582531</ele>
        <time>2026-05-06T22:20:20.125Z</time>
      </trkpt>
      <trkpt lat="43.519996" lon="10.674076">
        <ele>151.148810</ele>
        <time>2026-05-06T22:20:22.081Z</time>
      </trkpt>
      <trkpt lat="43.519798" lon="10.674039">
        <ele>150.443909</ele>
        <time>2026-05-06T22:20:27.351Z</time>
      </trkpt>
      <trkpt lat="43.519587" lon="10.673931">
        <ele>149.649909</ele>
        <time>2026-05-06T22:20:33.065Z</time>
      </trkpt>
      <trkpt lat="43.519489" lon="10.673942">
        <ele>149.303034</ele>
        <time>2026-05-06T22:20:35.460Z</time>
      </trkpt>
      <trkpt lat="43.519444" lon="10.674050">
        <ele>148.984386</ele>
        <time>2026-05-06T22:20:37.672Z</time>
      </trkpt>
      <trkpt lat="43.519503" lon="10.674323">
        <ele>148.127065</ele>
        <time>2026-05-06T22:20:42.465Z</time>
      </trkpt>
      <trkpt lat="43.519631" lon="10.674619">
        <ele>146.002674</ele>
        <time>2026-05-06T22:20:48.035Z</time>
      </trkpt>
      <trkpt lat="43.519695" lon="10.674768">
        <ele>144.935181</ele>
        <time>2026-05-06T22:20:50.726Z</time>
      </trkpt>
      <trkpt lat="43.519697" lon="10.674892">
        <ele>144.170640</ele>
        <time>2026-05-06T22:20:52.661Z</time>
      </trkpt>
      <trkpt lat="43.519649" lon="10.675009">
        <ele>143.342012</ele>
        <time>2026-05-06T22:20:54.786Z</time>
      </trkpt>
      <trkpt lat="43.519330" lon="10.675079">
        <ele>140.596194</ele>
        <time>2026-05-06T22:21:01.832Z</time>
      </trkpt>
      <trkpt lat="43.519086" lon="10.675418">
        <ele>137.651914</ele>
        <time>2026-05-06T22:21:09.418Z</time>
      </trkpt>
      <trkpt lat="43.518645" lon="10.675712">
        <ele>133.488056</ele>
        <time>2026-05-06T22:21:19.975Z</time>
      </trkpt>
      <trkpt lat="43.518470" lon="10.675739">
        <ele>132.000421</ele>
        <time>2026-05-06T22:21:23.809Z</time>
      </trkpt>
      <trkpt lat="43.518426" lon="10.675727">
        <ele>131.622460</ele>
        <time>2026-05-06T22:21:24.798Z</time>
      </trkpt>
      <trkpt lat="43.517740" lon="10.675536">
        <ele>125.725014</ele>
        <time>2026-05-06T22:21:40.373Z</time>
      </trkpt>
      <trkpt lat="43.517670" lon="10.675471">
        <ele>125.013870</ele>
        <time>2026-05-06T22:21:42.242Z</time>
      </trkpt>
      <trkpt lat="43.517610" lon="10.675267">
        <ele>123.668632</ele>
        <time>2026-05-06T22:21:45.783Z</time>
      </trkpt>
      <trkpt lat="43.517560" lon="10.674806">
        <ele>120.820210</ele>
        <time>2026-05-06T22:21:53.243Z</time>
      </trkpt>
      <trkpt lat="43.517511" lon="10.674756">
        <ele>120.306544</ele>
        <time>2026-05-06T22:21:54.586Z</time>
      </trkpt>
      <trkpt lat="43.517447" lon="10.674752">
        <ele>119.766674</ele>
        <time>2026-05-06T22:21:55.992Z</time>
      </trkpt>
      <trkpt lat="43.517198" lon="10.675047">
        <ele>117.391326</ele>
        <time>2026-05-06T22:22:03.217Z</time>
      </trkpt>
      <trkpt lat="43.516774" lon="10.675412">
        <ele>115.008939</ele>
        <time>2026-05-06T22:22:14.318Z</time>
      </trkpt>
      <trkpt lat="43.516622" lon="10.675460">
        <ele>114.265701</ele>
        <time>2026-05-06T22:22:17.835Z</time>
      </trkpt>
      <trkpt lat="43.516110" lon="10.675418">
        <ele>111.821019</ele>
        <time>2026-05-06T22:22:29.989Z</time>
      </trkpt>
      <trkpt lat="43.515938" lon="10.675535">
        <ele>110.906889</ele>
        <time>2026-05-06T22:22:35.110Z</time>
      </trkpt>
      <trkpt lat="43.515825" lon="10.675648">
        <ele>110.241576</ele>
        <time>2026-05-06T22:22:39.063Z</time>
      </trkpt>
      <trkpt lat="43.515183" lon="10.676294">
        <ele>111.979066</ele>
        <time>2026-05-06T22:23:11.974Z</time>
      </trkpt>
      <trkpt lat="43.514869" lon="10.676609">
        <ele>113.686674</ele>
        <time>2026-05-06T22:23:34.833Z</time>
      </trkpt>
      <trkpt lat="43.514736" lon="10.676699">
        <ele>114.338189</ele>
        <time>2026-05-06T22:23:44.316Z</time>
      </trkpt>
      <trkpt lat="43.513743" lon="10.676994">
        <ele>119.245539</ele>
        <time>2026-05-06T22:24:51.776Z</time>
      </trkpt>
      <trkpt lat="43.513589" lon="10.676855">
        <ele>120.282252</ele>
        <time>2026-05-06T22:25:03.526Z</time>
      </trkpt>
      <trkpt lat="43.513508" lon="10.676823">
        <ele>120.756842</ele>
        <time>2026-05-06T22:25:08.767Z</time>
      </trkpt>
      <trkpt lat="43.513417" lon="10.676882">
        <ele>121.323234</ele>
        <time>2026-05-06T22:25:14.964Z</time>
      </trkpt>
      <trkpt lat="43.513372" lon="10.677145">
        <ele>122.427027</ele>
        <time>2026-05-06T22:25:26.726Z</time>
      </trkpt>
      <trkpt lat="43.513331" lon="10.677247">
        <ele>122.903394</ele>
        <time>2026-05-06T22:25:31.717Z</time>
      </trkpt>
      <trkpt lat="43.513136" lon="10.677501">
        <ele>124.414301</ele>
        <time>2026-05-06T22:25:47.456Z</time>
      </trkpt>
      <trkpt lat="43.512837" lon="10.677890">
        <ele>126.729721</ele>
        <time>2026-05-06T22:26:11.356Z</time>
      </trkpt>
      <trkpt lat="43.512666" lon="10.677998">
        <ele>127.593701</ele>
        <time>2026-05-06T22:26:21.482Z</time>
      </trkpt>
      <trkpt lat="43.512409" lon="10.677896">
        <ele>128.400863</ele>
        <time>2026-05-06T22:26:34.818Z</time>
      </trkpt>
      <trkpt lat="43.512273" lon="10.677708">
        <ele>128.982089</ele>
        <time>2026-05-06T22:26:44.141Z</time>
      </trkpt>
      <trkpt lat="43.512222" lon="10.677703">
        <ele>129.136405</ele>
        <time>2026-05-06T22:26:46.714Z</time>
      </trkpt>
      <trkpt lat="43.511933" lon="10.677815">
        <ele>130.042453</ele>
        <time>2026-05-06T22:27:01.362Z</time>
      </trkpt>
      <trkpt lat="43.511845" lon="10.677906">
        <ele>130.374445</ele>
        <time>2026-05-06T22:27:06.610Z</time>
      </trkpt>
      <trkpt lat="43.511619" lon="10.678346">
        <ele>131.554634</ele>
        <time>2026-05-06T22:27:25.273Z</time>
      </trkpt>
      <trkpt lat="43.511382" lon="10.678502">
        <ele>132.347264</ele>
        <time>2026-05-06T22:27:36.817Z</time>
      </trkpt>
      <trkpt lat="43.510783" lon="10.678807">
        <ele>133.023899</ele>
        <time>2026-05-06T22:27:58.761Z</time>
      </trkpt>
      <trkpt lat="43.510689" lon="10.678936">
        <ele>133.085433</ele>
        <time>2026-05-06T22:28:02.942Z</time>
      </trkpt>
      <trkpt lat="43.510592" lon="10.679178">
        <ele>133.178475</ele>
        <time>2026-05-06T22:28:09.216Z</time>
      </trkpt>
      <trkpt lat="43.510391" lon="10.679543">
        <ele>133.332691</ele>
        <time>2026-05-06T22:28:19.721Z</time>
      </trkpt>
      <trkpt lat="43.509732" lon="10.680095">
        <ele>133.718942</ele>
        <time>2026-05-06T22:28:45.843Z</time>
      </trkpt>
      <trkpt lat="43.509585" lon="10.680395">
        <ele>133.899409</ele>
        <time>2026-05-06T22:28:54.643Z</time>
      </trkpt>
      <trkpt lat="43.509297" lon="10.680674">
        <ele>134.141318</ele>
        <time>2026-05-06T22:29:06.083Z</time>
      </trkpt>
      <trkpt lat="43.509053" lon="10.680804">
        <ele>134.321099</ele>
        <time>2026-05-06T22:29:14.767Z</time>
      </trkpt>
      <trkpt lat="43.508923" lon="10.680765">
        <ele>134.412536</ele>
        <time>2026-05-06T22:29:19.411Z</time>
      </trkpt>
      <trkpt lat="43.508659" lon="10.680497">
        <ele>134.637852</ele>
        <time>2026-05-06T22:29:31.503Z</time>
      </trkpt>
      <trkpt lat="43.508550" lon="10.680422">
        <ele>134.721576</ele>
        <time>2026-05-06T22:29:36.036Z</time>
      </trkpt>
      <trkpt lat="43.508402" lon="10.680465">
        <ele>134.825527</ele>
        <time>2026-05-06T22:29:41.806Z</time>
      </trkpt>
      <trkpt lat="43.508232" lon="10.680739">
        <ele>135.477880</ele>
        <time>2026-05-06T22:29:51.758Z</time>
      </trkpt>
      <trkpt lat="43.507936" lon="10.681501">
        <ele>137.386246</ele>
        <time>2026-05-06T22:30:17.654Z</time>
      </trkpt>
      <trkpt lat="43.507769" lon="10.681582">
        <ele>137.925122</ele>
        <time>2026-05-06T22:30:26.106Z</time>
      </trkpt>
      <trkpt lat="43.507021" lon="10.681597">
        <ele>140.202236</ele>
        <time>2026-05-06T22:31:05.758Z</time>
      </trkpt>
      <trkpt lat="43.506192" lon="10.681431">
        <ele>144.010198</ele>
        <time>2026-05-06T22:31:54.128Z</time>
      </trkpt>
      <trkpt lat="43.505536" lon="10.681099">
        <ele>147.247814</ele>
        <time>2026-05-06T22:32:33.765Z</time>
      </trkpt>
      <trkpt lat="43.505291" lon="10.680723">
        <ele>148.748472</ele>
        <time>2026-05-06T22:32:53.198Z</time>
      </trkpt>
      <trkpt lat="43.505106" lon="10.679945">
        <ele>149.488130</ele>
        <time>2026-05-06T22:33:20.734Z</time>
      </trkpt>
      <trkpt lat="43.504978" lon="10.679580">
        <ele>149.854393</ele>
        <time>2026-05-06T22:33:32.060Z</time>
      </trkpt>
      <trkpt lat="43.504803" lon="10.679478">
        <ele>150.091040</ele>
        <time>2026-05-06T22:33:38.755Z</time>
      </trkpt>
      <trkpt lat="43.504009" lon="10.679215">
        <ele>150.703304</ele>
        <time>2026-05-06T22:34:03.529Z</time>
      </trkpt>
      <trkpt lat="43.503429" lon="10.679129">
        <ele>149.898952</ele>
        <time>2026-05-06T22:34:19.495Z</time>
      </trkpt>
      <trkpt lat="43.502924" lon="10.679376">
        <ele>149.160105</ele>
        <time>2026-05-06T22:34:33.971Z</time>
      </trkpt>
      <trkpt lat="43.502371" lon="10.680009">
        <ele>148.679620</ele>
        <time>2026-05-06T22:34:54.611Z</time>
      </trkpt>
      <trkpt lat="43.501527" lon="10.681071">
        <ele>150.118271</ele>
        <time>2026-05-06T22:35:38.589Z</time>
      </trkpt>
      <trkpt lat="43.501250" lon="10.681254">
        <ele>150.504992</ele>
        <time>2026-05-06T22:35:53.043Z</time>
      </trkpt>
      <trkpt lat="43.500943" lon="10.681329">
        <ele>150.967559</ele>
        <time>2026-05-06T22:36:07.353Z</time>
      </trkpt>
      <trkpt lat="43.500328" lon="10.681404">
        <ele>152.021055</ele>
        <time>2026-05-06T22:36:34.153Z</time>
      </trkpt>
      <trkpt lat="43.500259" lon="10.681440">
        <ele>152.146942</ele>
        <time>2026-05-06T22:36:37.275Z</time>
      </trkpt>
      <trkpt lat="43.499585" lon="10.681790">
        <ele>153.375899</ele>
        <time>2026-05-06T22:37:05.528Z</time>
      </trkpt>
      <trkpt lat="43.498635" lon="10.682134">
        <ele>153.476663</ele>
        <time>2026-05-06T22:37:38.749Z</time>
      </trkpt>
      <trkpt lat="43.498495" lon="10.682321">
        <ele>153.400699</ele>
        <time>2026-05-06T22:37:44.793Z</time>
      </trkpt>
      <trkpt lat="43.498406" lon="10.682552">
        <ele>153.326762</ele>
        <time>2026-05-06T22:37:50.517Z</time>
      </trkpt>
      <trkpt lat="43.498200" lon="10.683678">
        <ele>152.664363</ele>
        <time>2026-05-06T22:38:14.614Z</time>
      </trkpt>
      <trkpt lat="43.498211" lon="10.683963">
        <ele>152.199241</ele>
        <time>2026-05-06T22:38:20.218Z</time>
      </trkpt>
      <trkpt lat="43.498301" lon="10.684365">
        <ele>151.513608</ele>
        <time>2026-05-06T22:38:28.415Z</time>
      </trkpt>
      <trkpt lat="43.498441" lon="10.684810">
        <ele>150.723123</ele>
        <time>2026-05-06T22:38:37.810Z</time>
      </trkpt>
      <trkpt lat="43.498431" lon="10.685138">
        <ele>150.188111</ele>
        <time>2026-05-06T22:38:44.134Z</time>
      </trkpt>
      <trkpt lat="43.498367" lon="10.685524">
        <ele>149.542825</ele>
        <time>2026-05-06T22:38:51.745Z</time>
      </trkpt>
      <trkpt lat="43.498083" lon="10.686162">
        <ele>148.577182</ele>
        <time>2026-05-06T22:39:06.313Z</time>
      </trkpt>
      <trkpt lat="43.497820" lon="10.686662">
        <ele>147.933766</ele>
        <time>2026-05-06T22:39:18.581Z</time>
      </trkpt>
      <trkpt lat="43.497709" lon="10.686951">
        <ele>147.593094</ele>
        <time>2026-05-06T22:39:25.180Z</time>
      </trkpt>
      <trkpt lat="43.496881" lon="10.693098">
        <ele>144.302885</ele>
        <time>2026-05-06T22:41:42.286Z</time>
      </trkpt>
      <trkpt lat="43.496764" lon="10.693849">
        <ele>143.758444</ele>
        <time>2026-05-06T22:41:59.595Z</time>
      </trkpt>
      <trkpt lat="43.496709" lon="10.694064">
        <ele>143.596856</ele>
        <time>2026-05-06T22:42:04.668Z</time>
      </trkpt>
      <trkpt lat="43.496632" lon="10.694203">
        <ele>143.472891</ele>
        <time>2026-05-06T22:42:08.591Z</time>
      </trkpt>
      <trkpt lat="43.496598" lon="10.694263">
        <ele>143.418926</ele>
        <time>2026-05-06T22:42:10.229Z</time>
      </trkpt>
      <trkpt lat="43.496355" lon="10.694429">
        <ele>143.153939</ele>
        <time>2026-05-06T22:42:18.520Z</time>
      </trkpt>
      <trkpt lat="43.495438" lon="10.694735">
        <ele>141.516880</ele>
        <time>2026-05-06T22:42:43.929Z</time>
      </trkpt>
      <trkpt lat="43.495048" lon="10.695099">
        <ele>140.322898</ele>
        <time>2026-05-06T22:42:56.503Z</time>
      </trkpt>
      <trkpt lat="43.493293" lon="10.696864">
        <ele>134.153425</ele>
        <time>2026-05-06T22:43:53.570Z</time>
      </trkpt>
      <trkpt lat="43.492849" lon="10.697352">
        <ele>132.291762</ele>
        <time>2026-05-06T22:44:08.296Z</time>
      </trkpt>
      <trkpt lat="43.492722" lon="10.697669">
        <ele>131.011545</ele>
        <time>2026-05-06T22:44:14.889Z</time>
      </trkpt>
      <trkpt lat="43.492510" lon="10.698491">
        <ele>127.927360</ele>
        <time>2026-05-06T22:44:30.111Z</time>
      </trkpt>
      <trkpt lat="43.492409" lon="10.699203">
        <ele>125.362559</ele>
        <time>2026-05-06T22:44:42.508Z</time>
      </trkpt>
      <trkpt lat="43.492237" lon="10.699564">
        <ele>123.831613</ele>
        <time>2026-05-06T22:44:49.925Z</time>
      </trkpt>
      <trkpt lat="43.492142" lon="10.699847">
        <ele>122.633692</ele>
        <time>2026-05-06T22:44:55.307Z</time>
      </trkpt>
      <trkpt lat="43.492150" lon="10.700325">
        <ele>120.796916</ele>
        <time>2026-05-06T22:45:03.581Z</time>
      </trkpt>
      <trkpt lat="43.492117" lon="10.701075">
        <ele>117.910416</ele>
        <time>2026-05-06T22:45:16.726Z</time>
      </trkpt>
      <trkpt lat="43.492032" lon="10.701611">
        <ele>115.802692</ele>
        <time>2026-05-06T22:45:26.419Z</time>
      </trkpt>
      <trkpt lat="43.491537" lon="10.702985">
        <ele>109.289724</ele>
        <time>2026-05-06T22:45:52.445Z</time>
      </trkpt>
      <trkpt lat="43.491331" lon="10.703655">
        <ele>106.104894</ele>
        <time>2026-05-06T22:46:04.662Z</time>
      </trkpt>
      <trkpt lat="43.490683" lon="10.706059">
        <ele>94.762017</ele>
        <time>2026-05-06T22:46:48.021Z</time>
      </trkpt>
      <trkpt lat="43.490533" lon="10.706536">
        <ele>92.462074</ele>
        <time>2026-05-06T22:46:56.770Z</time>
      </trkpt>
      <trkpt lat="43.490288" lon="10.706895">
        <ele>90.556946</ele>
        <time>2026-05-06T22:47:05.098Z</time>
      </trkpt>
      <trkpt lat="43.489899" lon="10.707684">
        <ele>86.869585</ele>
        <time>2026-05-06T22:47:21.330Z</time>
      </trkpt>
      <trkpt lat="43.489705" lon="10.708156">
        <ele>84.772677</ele>
        <time>2026-05-06T22:47:30.731Z</time>
      </trkpt>
      <trkpt lat="43.489682" lon="10.708484">
        <ele>83.498919</ele>
        <time>2026-05-06T22:47:36.623Z</time>
      </trkpt>
      <trkpt lat="43.489733" lon="10.708747">
        <ele>82.693268</ele>
        <time>2026-05-06T22:47:41.557Z</time>
      </trkpt>
      <trkpt lat="43.490135" lon="10.709162">
        <ele>81.398722</ele>
        <time>2026-05-06T22:47:54.416Z</time>
      </trkpt>
      <trkpt lat="43.490147" lon="10.709295">
        <ele>81.148101</ele>
        <time>2026-05-06T22:47:56.972Z</time>
      </trkpt>
      <trkpt lat="43.490616" lon="10.709649">
        <ele>79.769875</ele>
        <time>2026-05-06T22:48:05.018Z</time>
      </trkpt>
      <trkpt lat="43.491104" lon="10.710108">
        <ele>78.282917</ele>
        <time>2026-05-06T22:48:14.351Z</time>
      </trkpt>
      <trkpt lat="43.491173" lon="10.710194">
        <ele>78.251109</ele>
        <time>2026-05-06T22:48:15.893Z</time>
      </trkpt>
      <trkpt lat="43.491173" lon="10.710194">
        <ele>78.251109</ele>
        <time>2026-05-06T22:48:15.898Z</time>
      </trkpt>
      <trkpt lat="43.491774" lon="10.711038">
        <ele>77.957748</ele>
        <time>2026-05-06T22:48:52.591Z</time>
      </trkpt>
      <trkpt lat="43.492375" lon="10.711882">
        <ele>77.676292</ele>
        <time>2026-05-06T22:49:29.284Z</time>
      </trkpt>
      <trkpt lat="43.492976" lon="10.712726">
        <ele>77.770744</ele>
        <time>2026-05-06T22:50:05.978Z</time>
      </trkpt>
      <trkpt lat="43.493751" lon="10.713308">
        <ele>77.867903</ele>
        <time>2026-05-06T22:50:43.722Z</time>
      </trkpt>
      <trkpt lat="43.494526" lon="10.713890">
        <ele>76.295788</ele>
        <time>2026-05-06T22:51:21.469Z</time>
      </trkpt>
      <trkpt lat="43.495300" lon="10.714473">
        <ele>74.662268</ele>
        <time>2026-05-06T22:51:59.201Z</time>
      </trkpt>
      <trkpt lat="43.496075" lon="10.715055">
        <ele>73.096687</ele>
        <time>2026-05-06T22:52:36.953Z</time>
      </trkpt>
      <trkpt lat="43.496850" lon="10.715637">
        <ele>71.536671</ele>
        <time>2026-05-06T22:53:14.699Z</time>
      </trkpt>
      <trkpt lat="43.496850" lon="10.715637">
        <ele>71.536671</ele>
        <time>2026-05-06T22:53:14.714Z</time>
      </trkpt>
      <trkpt lat="43.497333" lon="10.716318">
        <ele>70.734612</ele>
        <time>2026-05-06T22:53:44.263Z</time>
      </trkpt>
      <trkpt lat="43.497817" lon="10.716998">
        <ele>70.002851</ele>
        <time>2026-05-06T22:54:13.819Z</time>
      </trkpt>
      <trkpt lat="43.498300" lon="10.717679">
        <ele>69.294680</ele>
        <time>2026-05-06T22:54:43.368Z</time>
      </trkpt>
      <trkpt lat="43.498784" lon="10.718359">
        <ele>68.655443</ele>
        <time>2026-05-06T22:55:12.914Z</time>
      </trkpt>
      <trkpt lat="43.498793" lon="10.718419">
        <ele>68.614332</ele>
        <time>2026-05-06T22:55:13.654Z</time>
      </trkpt>
      <trkpt lat="43.498934" lon="10.720415">
        <ele>67.839503</ele>
        <time>2026-05-06T22:55:38.739Z</time>
      </trkpt>
      <trkpt lat="43.498973" lon="10.720650">
        <ele>67.853996</ele>
        <time>2026-05-06T22:55:42.044Z</time>
      </trkpt>
      <trkpt lat="43.498862" lon="10.720698">
        <ele>67.863637</ele>
        <time>2026-05-06T22:55:44.972Z</time>
      </trkpt>
      <trkpt lat="43.498829" lon="10.720740">
        <ele>67.867359</ele>
        <time>2026-05-06T22:55:46.110Z</time>
      </trkpt>
      <trkpt lat="43.498805" lon="10.720924">
        <ele>67.878598</ele>
        <time>2026-05-06T22:55:49.552Z</time>
      </trkpt>
      <trkpt lat="43.498816" lon="10.721380">
        <ele>67.906027</ele>
        <time>2026-05-06T22:55:58.085Z</time>
      </trkpt>
      <trkpt lat="43.498841" lon="10.721566">
        <ele>67.917399</ele>
        <time>2026-05-06T22:56:02.597Z</time>
      </trkpt>
      <trkpt lat="43.498918" lon="10.721787">
        <ele>67.932138</ele>
        <time>2026-05-06T22:56:08.488Z</time>
      </trkpt>
      <trkpt lat="43.498982" lon="10.721835">
        <ele>67.938176</ele>
        <time>2026-05-06T22:56:10.900Z</time>
      </trkpt>
      <trkpt lat="43.498680" lon="10.723358">
        <ele>71.381594</ele>
        <time>2026-05-06T22:56:46.208Z</time>
      </trkpt>
      <trkpt lat="43.498621" lon="10.723645">
        <ele>72.056075</ele>
        <time>2026-05-06T22:56:54.741Z</time>
      </trkpt>
      <trkpt lat="43.498499" lon="10.724306">
        <ele>73.641247</ele>
        <time>2026-05-06T22:57:16.153Z</time>
      </trkpt>
      <trkpt lat="43.498060" lon="10.724166">
        <ele>76.248317</ele>
        <time>2026-05-06T22:57:38.310Z</time>
      </trkpt>
      <trkpt lat="43.497768" lon="10.724196">
        <ele>77.942474</ele>
        <time>2026-05-06T22:57:56.882Z</time>
      </trkpt>
      <trkpt lat="43.497577" lon="10.724115">
        <ele>79.098683</ele>
        <time>2026-05-06T22:58:09.113Z</time>
      </trkpt>
      <trkpt lat="43.497180" lon="10.723799">
        <ele>81.751073</ele>
        <time>2026-05-06T22:58:36.380Z</time>
      </trkpt>
      <trkpt lat="43.496604" lon="10.723649">
        <ele>85.382729</ele>
        <time>2026-05-06T22:59:12.493Z</time>
      </trkpt>
      <trkpt lat="43.495206" lon="10.723199">
        <ele>95.367482</ele>
        <time>2026-05-06T23:00:49.064Z</time>
      </trkpt>
      <trkpt lat="43.494993" lon="10.723032">
        <ele>97.038585</ele>
        <time>2026-05-06T23:01:06.445Z</time>
      </trkpt>
      <trkpt lat="43.494417" lon="10.722790">
        <ele>100.997816</ele>
        <time>2026-05-06T23:01:49.161Z</time>
      </trkpt>
      <trkpt lat="43.494184" lon="10.722763">
        <ele>102.535207</ele>
        <time>2026-05-06T23:02:05.513Z</time>
      </trkpt>
      <trkpt lat="43.494149" lon="10.722768">
        <ele>102.766566</ele>
        <time>2026-05-06T23:02:07.908Z</time>
      </trkpt>
      <trkpt lat="43.493861" lon="10.722801">
        <ele>104.666713</ele>
        <time>2026-05-06T23:02:27.137Z</time>
      </trkpt>
      <trkpt lat="43.493192" lon="10.723037">
        <ele>108.572500</ele>
        <time>2026-05-06T23:03:07.727Z</time>
      </trkpt>
      <trkpt lat="43.493005" lon="10.723053">
        <ele>108.951352</ele>
        <time>2026-05-06T23:03:17.083Z</time>
      </trkpt>
      <trkpt lat="43.492448" lon="10.722898">
        <ele>110.100357</ele>
        <time>2026-05-06T23:03:41.369Z</time>
      </trkpt>
      <trkpt lat="43.492328" lon="10.722549">
        <ele>110.666907</ele>
        <time>2026-05-06T23:03:51.646Z</time>
      </trkpt>
      <trkpt lat="43.492156" lon="10.722425">
        <ele>111.059396</ele>
        <time>2026-05-06T23:03:58.274Z</time>
      </trkpt>
      <trkpt lat="43.491988" lon="10.722188">
        <ele>111.545472</ele>
        <time>2026-05-06T23:04:06.334Z</time>
      </trkpt>
      <trkpt lat="43.491900" lon="10.721669">
        <ele>112.233801</ele>
        <time>2026-05-06T23:04:19.133Z</time>
      </trkpt>
      <trkpt lat="43.491787" lon="10.721495">
        <ele>112.496226</ele>
        <time>2026-05-06T23:04:24.703Z</time>
      </trkpt>
      <trkpt lat="43.491491" lon="10.721299">
        <ele>113.004872</ele>
        <time>2026-05-06T23:04:35.875Z</time>
      </trkpt>
      <trkpt lat="43.491121" lon="10.720618">
        <ele>113.960945</ele>
        <time>2026-05-06T23:04:58.919Z</time>
      </trkpt>
      <trkpt lat="43.490946" lon="10.720446">
        <ele>114.293864</ele>
        <time>2026-05-06T23:05:08.183Z</time>
      </trkpt>
      <trkpt lat="43.490355" lon="10.720242">
        <ele>116.200769</ele>
        <time>2026-05-06T23:05:38.717Z</time>
      </trkpt>
      <trkpt lat="43.489911" lon="10.719711">
        <ele>118.785065</ele>
        <time>2026-05-06T23:06:13.653Z</time>
      </trkpt>
      <trkpt lat="43.489607" lon="10.719539">
        <ele>120.229765</ele>
        <time>2026-05-06T23:06:33.342Z</time>
      </trkpt>
      <trkpt lat="43.489183" lon="10.719550">
        <ele>122.094142</ele>
        <time>2026-05-06T23:06:57.716Z</time>
      </trkpt>
      <trkpt lat="43.488949" lon="10.719679">
        <ele>122.761927</ele>
        <time>2026-05-06T23:07:10.877Z</time>
      </trkpt>
      <trkpt lat="43.487903" lon="10.719802">
        <ele>123.881015</ele>
        <time>2026-05-06T23:07:48.732Z</time>
      </trkpt>
      <trkpt lat="43.487291" lon="10.719684">
        <ele>124.537739</ele>
        <time>2026-05-06T23:08:07.535Z</time>
      </trkpt>
      <trkpt lat="43.487000" lon="10.719529">
        <ele>124.381888</ele>
        <time>2026-05-06T23:08:17.327Z</time>
      </trkpt>
      <trkpt lat="43.486681" lon="10.719344">
        <ele>124.208996</ele>
        <time>2026-05-06T23:08:28.265Z</time>
      </trkpt>
      <trkpt lat="43.486440" lon="10.718936">
        <ele>124.018304</ele>
        <time>2026-05-06T23:08:40.559Z</time>
      </trkpt>
      <trkpt lat="43.485829" lon="10.718383">
        <ele>123.653143</ele>
        <time>2026-05-06T23:09:02.753Z</time>
      </trkpt>
      <trkpt lat="43.484477" lon="10.717528">
        <ele>121.540705</ele>
        <time>2026-05-06T23:09:42.858Z</time>
      </trkpt>
      <trkpt lat="43.484007" lon="10.717093">
        <ele>121.151766</ele>
        <time>2026-05-06T23:10:01.072Z</time>
      </trkpt>
      <trkpt lat="43.483872" lon="10.717008">
        <ele>121.214365</ele>
        <time>2026-05-06T23:10:06.559Z</time>
      </trkpt>
      <trkpt lat="43.483711" lon="10.716905">
        <ele>121.289228</ele>
        <time>2026-05-06T23:10:13.292Z</time>
      </trkpt>
      <trkpt lat="43.483590" lon="10.716777">
        <ele>121.353561</ele>
        <time>2026-05-06T23:10:19.120Z</time>
      </trkpt>
      <trkpt lat="43.483318" lon="10.716393">
        <ele>121.517786</ele>
        <time>2026-05-06T23:10:33.733Z</time>
      </trkpt>
      <trkpt lat="43.483201" lon="10.716171">
        <ele>121.601754</ele>
        <time>2026-05-06T23:10:40.722Z</time>
      </trkpt>
      <trkpt lat="43.482968" lon="10.716050">
        <ele>121.706770</ele>
        <time>2026-05-06T23:10:49.081Z</time>
      </trkpt>
      <trkpt lat="43.482629" lon="10.715980">
        <ele>121.840827</ele>
        <time>2026-05-06T23:10:59.889Z</time>
      </trkpt>
      <trkpt lat="43.482069" lon="10.716039">
        <ele>122.010925</ele>
        <time>2026-05-06T23:11:17.438Z</time>
      </trkpt>
      <trkpt lat="43.481811" lon="10.716026">
        <ele>122.089115</ele>
        <time>2026-05-06T23:11:25.848Z</time>
      </trkpt>
      <trkpt lat="43.481395" lon="10.715618">
        <ele>122.243753</ele>
        <time>2026-05-06T23:11:43.609Z</time>
      </trkpt>
      <trkpt lat="43.481278" lon="10.715393">
        <ele>122.304584</ele>
        <time>2026-05-06T23:11:50.803Z</time>
      </trkpt>
      <trkpt lat="43.481107" lon="10.715296">
        <ele>122.357833</ele>
        <time>2026-05-06T23:11:57.503Z</time>
      </trkpt>
      <trkpt lat="43.480745" lon="10.715194">
        <ele>122.299436</ele>
        <time>2026-05-06T23:12:10.538Z</time>
      </trkpt>
      <trkpt lat="43.479947" lon="10.715548">
        <ele>122.166941</ele>
        <time>2026-05-06T23:12:36.003Z</time>
      </trkpt>
      <trkpt lat="43.479367" lon="10.715634">
        <ele>122.074743</ele>
        <time>2026-05-06T23:12:53.187Z</time>
      </trkpt>
      <trkpt lat="43.478935" lon="10.715500">
        <ele>122.856694</ele>
        <time>2026-05-06T23:13:07.574Z</time>
      </trkpt>
      <trkpt lat="43.478783" lon="10.715350">
        <ele>123.188058</ele>
        <time>2026-05-06T23:13:14.327Z</time>
      </trkpt>
      <trkpt lat="43.478596" lon="10.715039">
        <ele>123.707531</ele>
        <time>2026-05-06T23:13:25.897Z</time>
      </trkpt>
      <trkpt lat="43.478398" lon="10.715103">
        <ele>124.068002</ele>
        <time>2026-05-06T23:13:34.824Z</time>
      </trkpt>
      <trkpt lat="43.478071" lon="10.715264">
        <ele>124.683475</ele>
        <time>2026-05-06T23:13:51.038Z</time>
      </trkpt>
      <trkpt lat="43.477767" lon="10.715462">
        <ele>125.294609</ele>
        <time>2026-05-06T23:14:07.505Z</time>
      </trkpt>
      <trkpt lat="43.477066" lon="10.715559">
        <ele>127.661599</ele>
        <time>2026-05-06T23:14:43.475Z</time>
      </trkpt>
      <trkpt lat="43.476210" lon="10.715741">
        <ele>130.571527</ele>
        <time>2026-05-06T23:15:27.213Z</time>
      </trkpt>
      <trkpt lat="43.475840" lon="10.715881">
        <ele>131.606410</ele>
        <time>2026-05-06T23:15:44.072Z</time>
      </trkpt>
      <trkpt lat="43.475279" lon="10.716230">
        <ele>132.727506</ele>
        <time>2026-05-06T23:16:07.730Z</time>
      </trkpt>
      <trkpt lat="43.474668" lon="10.716734">
        <ele>134.024519</ele>
        <time>2026-05-06T23:16:34.866Z</time>
      </trkpt>
      <trkpt lat="43.474509" lon="10.716814">
        <ele>134.332820</ele>
        <time>2026-05-06T23:16:41.811Z</time>
      </trkpt>
      <trkpt lat="43.473975" lon="10.716686">
        <ele>135.780539</ele>
        <time>2026-05-06T23:17:05.138Z</time>
      </trkpt>
      <trkpt lat="43.473921" lon="10.716707">
        <ele>135.946452</ele>
        <time>2026-05-06T23:17:07.732Z</time>
      </trkpt>
      <trkpt lat="43.473695" lon="10.717023">
        <ele>136.898497</ele>
        <time>2026-05-06T23:17:23.236Z</time>
      </trkpt>
      <trkpt lat="43.473135" lon="10.717705">
        <ele>139.108419</ele>
        <time>2026-05-06T23:18:00.196Z</time>
      </trkpt>
      <trkpt lat="43.472963" lon="10.717812">
        <ele>139.666443</ele>
        <time>2026-05-06T23:18:09.130Z</time>
      </trkpt>
      <trkpt lat="43.471068" lon="10.720398">
        <ele>149.751751</ele>
        <time>2026-05-06T23:20:15.075Z</time>
      </trkpt>
      <trkpt lat="43.470309" lon="10.721531">
        <ele>155.771295</ele>
        <time>2026-05-06T23:21:29.897Z</time>
      </trkpt>
      <trkpt lat="43.470173" lon="10.721852">
        <ele>157.382618</ele>
        <time>2026-05-06T23:21:49.029Z</time>
      </trkpt>
      <trkpt lat="43.470379" lon="10.722460">
        <ele>160.291415</ele>
        <time>2026-05-06T23:22:21.695Z</time>
      </trkpt>
      <trkpt lat="43.470415" lon="10.722661">
        <ele>161.188900</ele>
        <time>2026-05-06T23:22:31.286Z</time>
      </trkpt>
      <trkpt lat="43.469778" lon="10.724206">
        <ele>166.473524</ele>
        <time>2026-05-06T23:23:42.719Z</time>
      </trkpt>
      <trkpt lat="43.469746" lon="10.724081">
        <ele>166.589862</ele>
        <time>2026-05-06T23:23:45.685Z</time>
      </trkpt>
      <trkpt lat="43.469720" lon="10.723799">
        <ele>166.839361</ele>
        <time>2026-05-06T23:23:51.479Z</time>
      </trkpt>
      <trkpt lat="43.469687" lon="10.722748">
        <ele>167.762684</ele>
        <time>2026-05-06T23:24:05.617Z</time>
      </trkpt>
      <trkpt lat="43.469653" lon="10.722604">
        <ele>167.895593</ele>
        <time>2026-05-06T23:24:07.346Z</time>
      </trkpt>
      <trkpt lat="43.469593" lon="10.722469">
        <ele>168.034536</ele>
        <time>2026-05-06T23:24:09.115Z</time>
      </trkpt>
      <trkpt lat="43.469505" lon="10.722359">
        <ele>168.012827</ele>
        <time>2026-05-06T23:24:10.920Z</time>
      </trkpt>
      <trkpt lat="43.469453" lon="10.722325">
        <ele>168.002144</ele>
        <time>2026-05-06T23:24:11.773Z</time>
      </trkpt>
      <trkpt lat="43.469284" lon="10.722215">
        <ele>167.967454</ele>
        <time>2026-05-06T23:24:14.584Z</time>
      </trkpt>
      <trkpt lat="43.468902" lon="10.722207">
        <ele>167.896547</ele>
        <time>2026-05-06T23:24:20.415Z</time>
      </trkpt>
      <trkpt lat="43.468709" lon="10.722144">
        <ele>167.859734</ele>
        <time>2026-05-06T23:24:23.513Z</time>
      </trkpt>
      <trkpt lat="43.467549" lon="10.721386">
        <ele>168.930615</ele>
        <time>2026-05-06T23:24:57.724Z</time>
      </trkpt>
      <trkpt lat="43.467431" lon="10.721380">
        <ele>169.269365</ele>
        <time>2026-05-06T23:25:02.480Z</time>
      </trkpt>
      <trkpt lat="43.467340" lon="10.721240">
        <ele>169.660673</ele>
        <time>2026-05-06T23:25:08.040Z</time>
      </trkpt>
      <trkpt lat="43.467141" lon="10.721047">
        <ele>170.358813</ele>
        <time>2026-05-06T23:25:18.087Z</time>
      </trkpt>
      <trkpt lat="43.467067" lon="10.720916">
        <ele>170.704448</ele>
        <time>2026-05-06T23:25:23.141Z</time>
      </trkpt>
      <trkpt lat="43.466949" lon="10.720414">
        <ele>171.803116</ele>
        <time>2026-05-06T23:25:38.803Z</time>
      </trkpt>
      <trkpt lat="43.466567" lon="10.719596">
        <ele>172.233741</ele>
        <time>2026-05-06T23:25:59.895Z</time>
      </trkpt>
      <trkpt lat="43.466504" lon="10.719360">
        <ele>171.894278</ele>
        <time>2026-05-06T23:26:03.243Z</time>
      </trkpt>
      <trkpt lat="43.466399" lon="10.718751">
        <ele>171.049257</ele>
        <time>2026-05-06T23:26:10.386Z</time>
      </trkpt>
      <trkpt lat="43.466319" lon="10.718547">
        <ele>170.736229</ele>
        <time>2026-05-06T23:26:12.835Z</time>
      </trkpt>
      <trkpt lat="43.466253" lon="10.718432">
        <ele>170.538307</ele>
        <time>2026-05-06T23:26:14.354Z</time>
      </trkpt>
      <trkpt lat="43.465838" lon="10.717993">
        <ele>169.565118</ele>
        <time>2026-05-06T23:26:21.460Z</time>
      </trkpt>
      <trkpt lat="43.465537" lon="10.717549">
        <ele>167.099197</ele>
        <time>2026-05-06T23:26:27.216Z</time>
      </trkpt>
      <trkpt lat="43.465373" lon="10.717268">
        <ele>165.572674</ele>
        <time>2026-05-06T23:26:30.616Z</time>
      </trkpt>
      <trkpt lat="43.465329" lon="10.717142">
        <ele>164.980721</ele>
        <time>2026-05-06T23:26:31.936Z</time>
      </trkpt>
      <trkpt lat="43.465219" lon="10.716391">
        <ele>161.737258</ele>
        <time>2026-05-06T23:26:39.086Z</time>
      </trkpt>
      <trkpt lat="43.465060" lon="10.715867">
        <ele>159.332827</ele>
        <time>2026-05-06T23:26:44.354Z</time>
      </trkpt>
      <trkpt lat="43.464854" lon="10.715339">
        <ele>157.841006</ele>
        <time>2026-05-06T23:26:49.944Z</time>
      </trkpt>
      <trkpt lat="43.464704" lon="10.715017">
        <ele>156.981306</ele>
        <time>2026-05-06T23:26:53.636Z</time>
      </trkpt>
      <trkpt lat="43.464514" lon="10.714712">
        <ele>156.078193</ele>
        <time>2026-05-06T23:26:57.702Z</time>
      </trkpt>
      <trkpt lat="43.464276" lon="10.714404">
        <ele>155.067357</ele>
        <time>2026-05-06T23:27:02.616Z</time>
      </trkpt>
      <trkpt lat="43.464065" lon="10.714057">
        <ele>154.050216</ele>
        <time>2026-05-06T23:27:08.271Z</time>
      </trkpt>
      <trkpt lat="43.463932" lon="10.713694">
        <ele>153.777706</ele>
        <time>2026-05-06T23:27:14.419Z</time>
      </trkpt>
      <trkpt lat="43.463602" lon="10.713014">
        <ele>155.630586</ele>
        <time>2026-05-06T23:27:31.000Z</time>
      </trkpt>
      <trkpt lat="43.463444" lon="10.712747">
        <ele>156.410918</ele>
        <time>2026-05-06T23:27:39.797Z</time>
      </trkpt>
      <trkpt lat="43.463250" lon="10.712755">
        <ele>157.016634</ele>
        <time>2026-05-06T23:27:49.661Z</time>
      </trkpt>
      <trkpt lat="43.462990" lon="10.712684">
        <ele>157.843839</ele>
        <time>2026-05-06T23:28:04.044Z</time>
      </trkpt>
      <trkpt lat="43.462827" lon="10.712594">
        <ele>158.391867</ele>
        <time>2026-05-06T23:28:13.989Z</time>
      </trkpt>
      <trkpt lat="43.462445" lon="10.712212">
        <ele>160.763315</ele>
        <time>2026-05-06T23:28:42.046Z</time>
      </trkpt>
      <trkpt lat="43.462172" lon="10.711719">
        <ele>163.753539</ele>
        <time>2026-05-06T23:29:10.834Z</time>
      </trkpt>
      <trkpt lat="43.462048" lon="10.711595">
        <ele>164.771496</ele>
        <time>2026-05-06T23:29:21.079Z</time>
      </trkpt>
      <trkpt lat="43.461871" lon="10.711563">
        <ele>165.957519</ele>
        <time>2026-05-06T23:29:33.188Z</time>
      </trkpt>
      <trkpt lat="43.461198" lon="10.711535">
        <ele>170.430794</ele>
        <time>2026-05-06T23:30:19.385Z</time>
      </trkpt>
      <trkpt lat="43.460841" lon="10.711477">
        <ele>172.372350</ele>
        <time>2026-05-06T23:30:44.253Z</time>
      </trkpt>
      <trkpt lat="43.460570" lon="10.711409">
        <ele>173.748315</ele>
        <time>2026-05-06T23:31:02.657Z</time>
      </trkpt>
      <trkpt lat="43.460210" lon="10.711233">
        <ele>175.656451</ele>
        <time>2026-05-06T23:31:26.689Z</time>
      </trkpt>
      <trkpt lat="43.460000" lon="10.711053">
        <ele>176.891894</ele>
        <time>2026-05-06T23:31:40.816Z</time>
      </trkpt>
      <trkpt lat="43.459907" lon="10.710935">
        <ele>177.523446</ele>
        <time>2026-05-06T23:31:47.530Z</time>
      </trkpt>
      <trkpt lat="43.459862" lon="10.710822">
        <ele>177.990772</ele>
        <time>2026-05-06T23:31:52.241Z</time>
      </trkpt>
      <trkpt lat="43.459843" lon="10.710538">
        <ele>179.024861</ele>
        <time>2026-05-06T23:32:02.186Z</time>
      </trkpt>
      <trkpt lat="43.459911" lon="10.710332">
        <ele>179.845383</ele>
        <time>2026-05-06T23:32:09.437Z</time>
      </trkpt>
      <trkpt lat="43.459944" lon="10.710136">
        <ele>179.872275</ele>
        <time>2026-05-06T23:32:15.307Z</time>
      </trkpt>
      <trkpt lat="43.459918" lon="10.709948">
        <ele>179.713054</ele>
        <time>2026-05-06T23:32:20.371Z</time>
      </trkpt>
      <trkpt lat="43.459876" lon="10.709867">
        <ele>179.630237</ele>
        <time>2026-05-06T23:32:22.804Z</time>
      </trkpt>
      <trkpt lat="43.459792" lon="10.709792">
        <ele>179.515507</ele>
        <time>2026-05-06T23:32:26.006Z</time>
      </trkpt>
      <trkpt lat="43.459640" lon="10.709739">
        <ele>179.335796</ele>
        <time>2026-05-06T23:32:30.695Z</time>
      </trkpt>
      <trkpt lat="43.457648" lon="10.709365">
        <ele>177.778381</ele>
        <time>2026-05-06T23:33:24.451Z</time>
      </trkpt>
      <trkpt lat="43.457226" lon="10.709285">
        <ele>177.690707</ele>
        <time>2026-05-06T23:33:37.412Z</time>
      </trkpt>
      <trkpt lat="43.457113" lon="10.709127">
        <ele>177.657569</ele>
        <time>2026-05-06T23:33:43.166Z</time>
      </trkpt>
      <trkpt lat="43.456941" lon="10.708630">
        <ele>177.575308</ele>
        <time>2026-05-06T23:34:00.162Z</time>
      </trkpt>
      <trkpt lat="43.456730" lon="10.708138">
        <ele>180.452301</ele>
        <time>2026-05-06T23:34:22.146Z</time>
      </trkpt>
      <trkpt lat="43.456485" lon="10.707760">
        <ele>183.121002</ele>
        <time>2026-05-06T23:34:45.391Z</time>
      </trkpt>
      <trkpt lat="43.455831" lon="10.706993">
        <ele>189.352172</ele>
        <time>2026-05-06T23:35:50.406Z</time>
      </trkpt>
      <trkpt lat="43.455676" lon="10.706751">
        <ele>191.280975</ele>
        <time>2026-05-06T23:36:10.213Z</time>
      </trkpt>
      <trkpt lat="43.455477" lon="10.706238">
        <ele>195.971987</ele>
        <time>2026-05-06T23:36:47.699Z</time>
      </trkpt>
      <trkpt lat="43.455382" lon="10.706059">
        <ele>197.760303</ele>
        <time>2026-05-06T23:37:02.656Z</time>
      </trkpt>
      <trkpt lat="43.455198" lon="10.705833">
        <ele>200.499139</ele>
        <time>2026-05-06T23:37:26.073Z</time>
      </trkpt>
      <trkpt lat="43.455026" lon="10.705683">
        <ele>202.760824</ele>
        <time>2026-05-06T23:37:45.670Z</time>
      </trkpt>
      <trkpt lat="43.454539" lon="10.704913">
        <ele>210.923891</ele>
        <time>2026-05-06T23:38:50.500Z</time>
      </trkpt>
      <trkpt lat="43.454461" lon="10.704750">
        <ele>212.204568</ele>
        <time>2026-05-06T23:39:01.991Z</time>
      </trkpt>
      <trkpt lat="43.454426" lon="10.704613">
        <ele>213.157300</ele>
        <time>2026-05-06T23:39:10.391Z</time>
      </trkpt>
      <trkpt lat="43.454377" lon="10.704276">
        <ele>215.411887</ele>
        <time>2026-05-06T23:39:29.707Z</time>
      </trkpt>
      <trkpt lat="43.454312" lon="10.704113">
        <ele>216.631860</ele>
        <time>2026-05-06T23:39:39.780Z</time>
      </trkpt>
      <trkpt lat="43.454246" lon="10.704050">
        <ele>217.357468</ele>
        <time>2026-05-06T23:39:45.596Z</time>
      </trkpt>
      <trkpt lat="43.454066" lon="10.704011">
        <ele>219.004055</ele>
        <time>2026-05-06T23:39:58.680Z</time>
      </trkpt>
      <trkpt lat="43.453080" lon="10.704125">
        <ele>227.789456</ele>
        <time>2026-05-06T23:41:11.327Z</time>
      </trkpt>
      <trkpt lat="43.452901" lon="10.704205">
        <ele>229.246163</ele>
        <time>2026-05-06T23:41:27.165Z</time>
      </trkpt>
      <trkpt lat="43.452549" lon="10.704435">
        <ele>232.261922</ele>
        <time>2026-05-06T23:42:00.077Z</time>
      </trkpt>
      <trkpt lat="43.452315" lon="10.704602">
        <ele>234.301937</ele>
        <time>2026-05-06T23:42:21.591Z</time>
      </trkpt>
      <trkpt lat="43.452089" lon="10.704820">
        <ele>236.437633</ele>
        <time>2026-05-06T23:42:42.848Z</time>
      </trkpt>
      <trkpt lat="43.451988" lon="10.704986">
        <ele>237.654767</ele>
        <time>2026-05-06T23:42:54.144Z</time>
      </trkpt>
      <trkpt lat="43.451908" lon="10.705399">
        <ele>240.056800</ele>
        <time>2026-05-06T23:43:13.630Z</time>
      </trkpt>
      <trkpt lat="43.451825" lon="10.705620">
        <ele>240.470657</ele>
        <time>2026-05-06T23:43:22.610Z</time>
      </trkpt>
      <trkpt lat="43.451616" lon="10.706002">
        <ele>239.236815</ele>
        <time>2026-05-06T23:43:35.184Z</time>
      </trkpt>
      <trkpt lat="43.451272" lon="10.706478">
        <ele>237.504331</ele>
        <time>2026-05-06T23:43:47.910Z</time>
      </trkpt>
      <trkpt lat="43.451194" lon="10.706539">
        <ele>237.185634</ele>
        <time>2026-05-06T23:43:50.036Z</time>
      </trkpt>
      <trkpt lat="43.451200" lon="10.707397">
        <ele>234.972365</ele>
        <time>2026-05-06T23:44:04.126Z</time>
      </trkpt>
      <trkpt lat="43.451161" lon="10.708121">
        <ele>231.241403</ele>
        <time>2026-05-06T23:44:15.548Z</time>
      </trkpt>
      <trkpt lat="43.450923" lon="10.708840">
        <ele>226.266295</ele>
        <time>2026-05-06T23:44:27.933Z</time>
      </trkpt>
      <trkpt lat="43.450699" lon="10.709243">
        <ele>223.070755</ele>
        <time>2026-05-06T23:44:35.986Z</time>
      </trkpt>
      <trkpt lat="43.450644" lon="10.709471">
        <ele>221.558111</ele>
        <time>2026-05-06T23:44:39.821Z</time>
      </trkpt>
      <trkpt lat="43.450438" lon="10.709793">
        <ele>218.855963</ele>
        <time>2026-05-06T23:44:46.759Z</time>
      </trkpt>
      <trkpt lat="43.450345" lon="10.709993">
        <ele>217.910795</ele>
        <time>2026-05-06T23:44:50.657Z</time>
      </trkpt>
      <trkpt lat="43.450298" lon="10.710211">
        <ele>217.029811</ele>
        <time>2026-05-06T23:44:54.410Z</time>
      </trkpt>
      <trkpt lat="43.450280" lon="10.710917">
        <ele>214.293089</ele>
        <time>2026-05-06T23:45:06.437Z</time>
      </trkpt>
      <trkpt lat="43.450164" lon="10.711587">
        <ele>211.624722</ele>
        <time>2026-05-06T23:45:18.749Z</time>
      </trkpt>
      <trkpt lat="43.449870" lon="10.712783">
        <ele>206.585002</ele>
        <time>2026-05-06T23:45:41.954Z</time>
      </trkpt>
      <trkpt lat="43.449692" lon="10.713065">
        <ele>205.050233</ele>
        <time>2026-05-06T23:45:48.601Z</time>
      </trkpt>
      <trkpt lat="43.449663" lon="10.713169">
        <ele>204.592668</ele>
        <time>2026-05-06T23:45:50.545Z</time>
      </trkpt>
      <trkpt lat="43.449671" lon="10.713314">
        <ele>203.995417</ele>
        <time>2026-05-06T23:45:53.069Z</time>
      </trkpt>
      <trkpt lat="43.449729" lon="10.713443">
        <ele>203.372219</ele>
        <time>2026-05-06T23:45:55.661Z</time>
      </trkpt>
      <trkpt lat="43.449994" lon="10.713746">
        <ele>201.423816</ele>
        <time>2026-05-06T23:46:03.598Z</time>
      </trkpt>
      <trkpt lat="43.450380" lon="10.714113">
        <ele>198.722531</ele>
        <time>2026-05-06T23:46:14.114Z</time>
      </trkpt>
      <trkpt lat="43.450697" lon="10.714290">
        <ele>196.412169</ele>
        <time>2026-05-06T23:46:21.685Z</time>
      </trkpt>
      <trkpt lat="43.450830" lon="10.714443">
        <ele>195.241764</ele>
        <time>2026-05-06T23:46:25.504Z</time>
      </trkpt>
      <trkpt lat="43.451065" lon="10.714864">
        <ele>192.637727</ele>
        <time>2026-05-06T23:46:34.093Z</time>
      </trkpt>
      <trkpt lat="43.451420" lon="10.715350">
        <ele>189.257123</ele>
        <time>2026-05-06T23:46:45.540Z</time>
      </trkpt>
      <trkpt lat="43.451651" lon="10.715602">
        <ele>187.266828</ele>
        <time>2026-05-06T23:46:52.618Z</time>
      </trkpt>
      <trkpt lat="43.451716" lon="10.715739">
        <ele>186.646271</ele>
        <time>2026-05-06T23:46:55.544Z</time>
      </trkpt>
      <trkpt lat="43.451711" lon="10.716007">
        <ele>185.923621</ele>
        <time>2026-05-06T23:47:00.504Z</time>
      </trkpt>
      <trkpt lat="43.451760" lon="10.716160">
        <ele>185.472849</ele>
        <time>2026-05-06T23:47:03.652Z</time>
      </trkpt>
      <trkpt lat="43.451850" lon="10.716254">
        <ele>185.053467</ele>
        <time>2026-05-06T23:47:06.613Z</time>
      </trkpt>
      <trkpt lat="43.452146" lon="10.716460">
        <ele>183.822071</ele>
        <time>2026-05-06T23:47:15.417Z</time>
      </trkpt>
      <trkpt lat="43.452212" lon="10.716560">
        <ele>183.457767</ele>
        <time>2026-05-06T23:47:18.006Z</time>
      </trkpt>
      <trkpt lat="43.452284" lon="10.716712">
        <ele>182.968536</ele>
        <time>2026-05-06T23:47:21.476Z</time>
      </trkpt>
      <trkpt lat="43.452352" lon="10.717026">
        <ele>182.085277</ele>
        <time>2026-05-06T23:47:27.629Z</time>
      </trkpt>
      <trkpt lat="43.452409" lon="10.717142">
        <ele>181.707699</ele>
        <time>2026-05-06T23:47:30.202Z</time>
      </trkpt>
      <trkpt lat="43.452568" lon="10.717341">
        <ele>180.910017</ele>
        <time>2026-05-06T23:47:35.606Z</time>
      </trkpt>
      <trkpt lat="43.452670" lon="10.717598">
        <ele>180.106097</ele>
        <time>2026-05-06T23:47:40.883Z</time>
      </trkpt>
      <trkpt lat="43.452889" lon="10.718714">
        <ele>176.342705</ele>
        <time>2026-05-06T23:48:01.016Z</time>
      </trkpt>
      <trkpt lat="43.453857" lon="10.720526">
        <ele>172.292754</ele>
        <time>2026-05-06T23:48:41.331Z</time>
      </trkpt>
      <trkpt lat="43.453992" lon="10.720779">
        <ele>172.348281</ele>
        <time>2026-05-06T23:48:48.925Z</time>
      </trkpt>
      <trkpt lat="43.454206" lon="10.721333">
        <ele>172.459258</ele>
        <time>2026-05-06T23:49:08.744Z</time>
      </trkpt>
      <trkpt lat="43.454455" lon="10.721494">
        <ele>172.526265</ele>
        <time>2026-05-06T23:49:23.195Z</time>
      </trkpt>
      <trkpt lat="43.454521" lon="10.721741">
        <ele>172.676651</ele>
        <time>2026-05-06T23:49:34.141Z</time>
      </trkpt>
      <trkpt lat="43.454498" lon="10.722068">
        <ele>173.305184</ele>
        <time>2026-05-06T23:49:49.059Z</time>
      </trkpt>
      <trkpt lat="43.454517" lon="10.722213">
        <ele>173.587075</ele>
        <time>2026-05-06T23:49:55.845Z</time>
      </trkpt>
      <trkpt lat="43.454611" lon="10.722540">
        <ele>174.259943</ele>
        <time>2026-05-06T23:50:11.522Z</time>
      </trkpt>
      <trkpt lat="43.455000" lon="10.723307">
        <ele>176.049991</ele>
        <time>2026-05-06T23:50:46.009Z</time>
      </trkpt>
      <trkpt lat="43.455132" lon="10.723645">
        <ele>176.784272</ele>
        <time>2026-05-06T23:50:55.675Z</time>
      </trkpt>
      <trkpt lat="43.455339" lon="10.724063">
        <ele>176.416183</ele>
        <time>2026-05-06T23:51:06.129Z</time>
      </trkpt>
      <trkpt lat="43.456749" lon="10.726145">
        <ele>165.075433</ele>
        <time>2026-05-06T23:51:54.040Z</time>
      </trkpt>
      <trkpt lat="43.456978" lon="10.726520">
        <ele>162.736978</ele>
        <time>2026-05-06T23:52:02.065Z</time>
      </trkpt>
      <trkpt lat="43.457150" lon="10.726885">
        <ele>160.660422</ele>
        <time>2026-05-06T23:52:09.219Z</time>
      </trkpt>
      <trkpt lat="43.457266" lon="10.727303">
        <ele>158.524993</ele>
        <time>2026-05-06T23:52:16.665Z</time>
      </trkpt>
      <trkpt lat="43.457531" lon="10.728596">
        <ele>151.736068</ele>
        <time>2026-05-06T23:52:39.664Z</time>
      </trkpt>
      <trkpt lat="43.457586" lon="10.728763">
        <ele>150.778830</ele>
        <time>2026-05-06T23:52:42.802Z</time>
      </trkpt>
      <trkpt lat="43.457823" lon="10.729133">
        <ele>148.203065</ele>
        <time>2026-05-06T23:52:51.084Z</time>
      </trkpt>
      <trkpt lat="43.457866" lon="10.729304">
        <ele>147.258437</ele>
        <time>2026-05-06T23:52:54.034Z</time>
      </trkpt>
      <trkpt lat="43.457928" lon="10.729991">
        <ele>143.644826</ele>
        <time>2026-05-06T23:53:05.085Z</time>
      </trkpt>
      <trkpt lat="43.457928" lon="10.729991">
        <ele>143.644826</ele>
        <time>2026-05-06T23:53:05.111Z</time>
      </trkpt>
      <trkpt lat="43.457928" lon="10.729991">
        <ele>143.644826</ele>
        <time>2026-05-06T23:53:05.111Z</time>
      </trkpt>
      <trkpt lat="43.457377" lon="10.730614">
        <ele>137.182126</ele>
        <time>2026-05-06T23:53:35.720Z</time>
      </trkpt>
      <trkpt lat="43.456826" lon="10.731237">
        <ele>130.593325</ele>
        <time>2026-05-06T23:54:06.350Z</time>
      </trkpt>
      <trkpt lat="43.456275" lon="10.731860">
        <ele>125.239442</ele>
        <time>2026-05-06T23:54:36.901Z</time>
      </trkpt>
      <trkpt lat="43.456966" lon="10.732375">
        <ele>121.462717</ele>
        <time>2026-05-06T23:55:10.536Z</time>
      </trkpt>
      <trkpt lat="43.457656" lon="10.732891">
        <ele>117.884679</ele>
        <time>2026-05-06T23:55:44.122Z</time>
      </trkpt>
      <trkpt lat="43.457652" lon="10.732947">
        <ele>117.846976</ele>
        <time>2026-05-06T23:55:45.194Z</time>
      </trkpt>
      <trkpt lat="43.457739" lon="10.733292">
        <ele>117.602268</ele>
        <time>2026-05-06T23:55:49.138Z</time>
      </trkpt>
      <trkpt lat="43.457836" lon="10.733521">
        <ele>117.424620</ele>
        <time>2026-05-06T23:55:52.027Z</time>
      </trkpt>
      <trkpt lat="43.457952" lon="10.733689">
        <ele>117.269266</ele>
        <time>2026-05-06T23:55:54.609Z</time>
      </trkpt>
      <trkpt lat="43.458112" lon="10.733842">
        <ele>117.089488</ele>
        <time>2026-05-06T23:55:57.703Z</time>
      </trkpt>
      <trkpt lat="43.458847" lon="10.734335">
        <ele>116.334913</ele>
        <time>2026-05-06T23:56:13.209Z</time>
      </trkpt>
      <trkpt lat="43.459379" lon="10.734744">
        <ele>118.339160</ele>
        <time>2026-05-06T23:56:31.983Z</time>
      </trkpt>
      <trkpt lat="43.459443" lon="10.734611">
        <ele>118.782711</ele>
        <time>2026-05-06T23:56:36.166Z</time>
      </trkpt>
      <trkpt lat="43.459564" lon="10.734470">
        <ele>119.389597</ele>
        <time>2026-05-06T23:56:42.154Z</time>
      </trkpt>
      <trkpt lat="43.459736" lon="10.734408">
        <ele>120.070430</ele>
        <time>2026-05-06T23:56:49.334Z</time>
      </trkpt>
      <trkpt lat="43.459976" lon="10.734391">
        <ele>120.990706</ele>
        <time>2026-05-06T23:56:59.810Z</time>
      </trkpt>
      <trkpt lat="43.460501" lon="10.734164">
        <ele>123.097842</ele>
        <time>2026-05-06T23:57:26.017Z</time>
      </trkpt>
      <trkpt lat="43.460674" lon="10.734125">
        <ele>123.911552</ele>
        <time>2026-05-06T23:57:34.644Z</time>
      </trkpt>
      <trkpt lat="43.461587" lon="10.734094">
        <ele>128.224936</ele>
        <time>2026-05-06T23:58:15.963Z</time>
      </trkpt>
      <trkpt lat="43.461724" lon="10.734040">
        <ele>128.897943</ele>
        <time>2026-05-06T23:58:21.804Z</time>
      </trkpt>
      <trkpt lat="43.461866" lon="10.733913">
        <ele>129.697526</ele>
        <time>2026-05-06T23:58:28.538Z</time>
      </trkpt>
      <trkpt lat="43.461995" lon="10.733725">
        <ele>130.584406</ele>
        <time>2026-05-06T23:58:35.848Z</time>
      </trkpt>
      <trkpt lat="43.462094" lon="10.733461">
        <ele>131.603068</ele>
        <time>2026-05-06T23:58:43.961Z</time>
      </trkpt>
      <trkpt lat="43.462193" lon="10.733012">
        <ele>133.366995</ele>
        <time>2026-05-06T23:58:56.236Z</time>
      </trkpt>
      <trkpt lat="43.462210" lon="10.732607">
        <ele>134.896282</ele>
        <time>2026-05-06T23:59:06.787Z</time>
      </trkpt>
      <trkpt lat="43.462192" lon="10.732377">
        <ele>135.768343</ele>
        <time>2026-05-06T23:59:13.259Z</time>
      </trkpt>
      <trkpt lat="43.461993" lon="10.731857">
        <ele>137.984381</ele>
        <time>2026-05-06T23:59:31.798Z</time>
      </trkpt>
      <trkpt lat="43.461920" lon="10.731595">
        <ele>139.042322</ele>
        <time>2026-05-06T23:59:41.984Z</time>
      </trkpt>
      <trkpt lat="43.461900" lon="10.731395">
        <ele>139.803391</ele>
        <time>2026-05-06T23:59:49.859Z</time>
      </trkpt>
      <trkpt lat="43.461919" lon="10.731244">
        <ele>140.381112</ele>
        <time>2026-05-06T23:59:56.167Z</time>
      </trkpt>
      <trkpt lat="43.461977" lon="10.731068">
        <ele>141.162042</ele>
        <time>2026-05-07T00:00:04.379Z</time>
      </trkpt>
      <trkpt lat="43.462083" lon="10.730954">
        <ele>142.179538</ele>
        <time>2026-05-07T00:00:12.476Z</time>
      </trkpt>
      <trkpt lat="43.462253" lon="10.730896">
        <ele>143.504714</ele>
        <time>2026-05-07T00:00:23.289Z</time>
      </trkpt>
      <trkpt lat="43.462426" lon="10.730902">
        <ele>144.814152</ele>
        <time>2026-05-07T00:00:34.179Z</time>
      </trkpt>
      <trkpt lat="43.462623" lon="10.730962">
        <ele>146.340761</ele>
        <time>2026-05-07T00:00:47.207Z</time>
      </trkpt>
      <trkpt lat="43.462869" lon="10.731090">
        <ele>148.330467</ele>
        <time>2026-05-07T00:01:04.398Z</time>
      </trkpt>
      <trkpt lat="43.463152" lon="10.731305">
        <ele>150.775791</ele>
        <time>2026-05-07T00:01:23.787Z</time>
      </trkpt>
      <trkpt lat="43.463476" lon="10.731459">
        <ele>153.369158</ele>
        <time>2026-05-07T00:01:42.398Z</time>
      </trkpt>
      <trkpt lat="43.463749" lon="10.731433">
        <ele>154.846135</ele>
        <time>2026-05-07T00:01:56.046Z</time>
      </trkpt>
      <trkpt lat="43.463865" lon="10.731326">
        <ele>155.151278</ele>
        <time>2026-05-07T00:02:02.347Z</time>
      </trkpt>
      <trkpt lat="43.463959" lon="10.731180">
        <ele>155.460912</ele>
        <time>2026-05-07T00:02:08.132Z</time>
      </trkpt>
      <trkpt lat="43.464041" lon="10.730992">
        <ele>155.808893</ele>
        <time>2026-05-07T00:02:14.184Z</time>
      </trkpt>
      <trkpt lat="43.464084" lon="10.731117">
        <ele>156.028356</ele>
        <time>2026-05-07T00:02:18.972Z</time>
      </trkpt>
      <trkpt lat="43.463961" lon="10.731884">
        <ele>157.274571</ele>
        <time>2026-05-07T00:02:42.839Z</time>
      </trkpt>
      <trkpt lat="43.463578" lon="10.735000">
        <ele>154.760925</ele>
        <time>2026-05-07T00:03:49.833Z</time>
      </trkpt>
      <trkpt lat="43.464014" lon="10.735509">
        <ele>148.913046</ele>
        <time>2026-05-07T00:04:02.414Z</time>
      </trkpt>
      <trkpt lat="43.464091" lon="10.735563">
        <ele>147.912336</ele>
        <time>2026-05-07T00:04:04.250Z</time>
      </trkpt>
      <trkpt lat="43.464901" lon="10.735703">
        <ele>138.457265</ele>
        <time>2026-05-07T00:04:20.898Z</time>
      </trkpt>
      <trkpt lat="43.465158" lon="10.735853">
        <ele>135.224591</ele>
        <time>2026-05-07T00:04:26.516Z</time>
      </trkpt>
      <trkpt lat="43.465423" lon="10.735917">
        <ele>132.513451</ele>
        <time>2026-05-07T00:04:31.955Z</time>
      </trkpt>
      <trkpt lat="43.465875" lon="10.736132">
        <ele>128.342996</ele>
        <time>2026-05-07T00:04:41.824Z</time>
      </trkpt>
      <trkpt lat="43.466365" lon="10.736303">
        <ele>123.934482</ele>
        <time>2026-05-07T00:04:52.861Z</time>
      </trkpt>
      <trkpt lat="43.466435" lon="10.736422">
        <ele>122.964883</ele>
        <time>2026-05-07T00:04:55.360Z</time>
      </trkpt>
      <trkpt lat="43.466435" lon="10.736582">
        <ele>121.952096</ele>
        <time>2026-05-07T00:04:58.073Z</time>
      </trkpt>
      <trkpt lat="43.466334" lon="10.737054">
        <ele>118.837225</ele>
        <time>2026-05-07T00:05:06.751Z</time>
      </trkpt>
      <trkpt lat="43.466194" lon="10.737344">
        <ele>118.502308</ele>
        <time>2026-05-07T00:05:13.522Z</time>
      </trkpt>
      <trkpt lat="43.466209" lon="10.737484">
        <ele>118.779025</ele>
        <time>2026-05-07T00:05:16.482Z</time>
      </trkpt>
      <trkpt lat="43.466389" lon="10.737687">
        <ele>119.405709</ele>
        <time>2026-05-07T00:05:23.848Z</time>
      </trkpt>
      <trkpt lat="43.466934" lon="10.738020">
        <ele>121.011916</ele>
        <time>2026-05-07T00:05:50.717Z</time>
      </trkpt>
      <trkpt lat="43.467572" lon="10.738256">
        <ele>122.791646</ele>
        <time>2026-05-07T00:06:31.110Z</time>
      </trkpt>
      <trkpt lat="43.467899" lon="10.738417">
        <ele>125.481781</ele>
        <time>2026-05-07T00:06:56.161Z</time>
      </trkpt>
      <trkpt lat="43.468186" lon="10.738481">
        <ele>127.940386</ele>
        <time>2026-05-07T00:07:18.431Z</time>
      </trkpt>
      <trkpt lat="43.468244" lon="10.738333">
        <ele>128.972683</ele>
        <time>2026-05-07T00:07:26.265Z</time>
      </trkpt>
      <trkpt lat="43.468435" lon="10.738142">
        <ele>130.968430</ele>
        <time>2026-05-07T00:07:41.414Z</time>
      </trkpt>
      <trkpt lat="43.468635" lon="10.738076">
        <ele>132.707567</ele>
        <time>2026-05-07T00:07:54.495Z</time>
      </trkpt>
      <trkpt lat="43.468981" lon="10.738048">
        <ele>135.638570</ele>
        <time>2026-05-07T00:08:15.982Z</time>
      </trkpt>
      <trkpt lat="43.469216" lon="10.737941">
        <ele>137.731546</ele>
        <time>2026-05-07T00:08:31.297Z</time>
      </trkpt>
      <trkpt lat="43.469319" lon="10.737820">
        <ele>139.162291</ele>
        <time>2026-05-07T00:08:39.821Z</time>
      </trkpt>
      <trkpt lat="43.469721" lon="10.737082">
        <ele>146.960242</ele>
        <time>2026-05-07T00:09:25.946Z</time>
      </trkpt>
      <trkpt lat="43.469920" lon="10.736610">
        <ele>151.573225</ele>
        <time>2026-05-07T00:09:58.399Z</time>
      </trkpt>
      <trkpt lat="43.470009" lon="10.736399">
        <ele>153.635616</ele>
        <time>2026-05-07T00:10:14.144Z</time>
      </trkpt>
      <trkpt lat="43.470199" lon="10.736040">
        <ele>157.390447</ele>
        <time>2026-05-07T00:10:43.993Z</time>
      </trkpt>
      <trkpt lat="43.470249" lon="10.735857">
        <ele>159.042886</ele>
        <time>2026-05-07T00:10:56.929Z</time>
      </trkpt>
      <trkpt lat="43.470346" lon="10.735265">
        <ele>163.637062</ele>
        <time>2026-05-07T00:11:35.206Z</time>
      </trkpt>
      <trkpt lat="43.470409" lon="10.734801">
        <ele>167.208945</ele>
        <time>2026-05-07T00:12:01.341Z</time>
      </trkpt>
      <trkpt lat="43.470321" lon="10.734293">
        <ele>171.160836</ele>
        <time>2026-05-07T00:12:27.476Z</time>
      </trkpt>
      <trkpt lat="43.470308" lon="10.734055">
        <ele>172.966815</ele>
        <time>2026-05-07T00:12:38.740Z</time>
      </trkpt>
      <trkpt lat="43.470307" lon="10.734031">
        <ele>173.148716</ele>
        <time>2026-05-07T00:12:39.867Z</time>
      </trkpt>
      <trkpt lat="43.470370" lon="10.733643">
        <ele>176.157196</ele>
        <time>2026-05-07T00:12:56.707Z</time>
      </trkpt>
      <trkpt lat="43.470391" lon="10.733291">
        <ele>178.631811</ele>
        <time>2026-05-07T00:13:10.475Z</time>
      </trkpt>
      <trkpt lat="43.470511" lon="10.733278">
        <ele>179.642230</ele>
        <time>2026-05-07T00:13:17.601Z</time>
      </trkpt>
      <trkpt lat="43.470573" lon="10.733128">
        <ele>180.693837</ele>
        <time>2026-05-07T00:13:25.202Z</time>
      </trkpt>
      <trkpt lat="43.470659" lon="10.732623">
        <ele>183.853833</ele>
        <time>2026-05-07T00:13:49.221Z</time>
      </trkpt>
      <trkpt lat="43.470789" lon="10.732124">
        <ele>187.083641</ele>
        <time>2026-05-07T00:14:16.568Z</time>
      </trkpt>
      <trkpt lat="43.470842" lon="10.731922">
        <ele>188.392163</ele>
        <time>2026-05-07T00:14:28.318Z</time>
      </trkpt>
      <trkpt lat="43.470777" lon="10.730707">
        <ele>194.807737</ele>
        <time>2026-05-07T00:15:30.347Z</time>
      </trkpt>
      <trkpt lat="43.470705" lon="10.730667">
        <ele>195.233387</ele>
        <time>2026-05-07T00:15:35.291Z</time>
      </trkpt>
      <trkpt lat="43.470659" lon="10.730259">
        <ele>196.876338</ele>
        <time>2026-05-07T00:15:51.540Z</time>
      </trkpt>
      <trkpt lat="43.470455" lon="10.729273">
        <ele>200.956071</ele>
        <time>2026-05-07T00:16:24.836Z</time>
      </trkpt>
      <trkpt lat="43.470915" lon="10.728846">
        <ele>202.854897</ele>
        <time>2026-05-07T00:16:40.888Z</time>
      </trkpt>
      <trkpt lat="43.471240" lon="10.728633">
        <ele>202.984503</ele>
        <time>2026-05-07T00:16:48.950Z</time>
      </trkpt>
      <trkpt lat="43.471493" lon="10.728522">
        <ele>203.080122</ele>
        <time>2026-05-07T00:16:54.300Z</time>
      </trkpt>
      <trkpt lat="43.471896" lon="10.728311">
        <ele>203.235376</ele>
        <time>2026-05-07T00:17:02.426Z</time>
      </trkpt>
      <trkpt lat="43.471992" lon="10.728375">
        <ele>203.273782</ele>
        <time>2026-05-07T00:17:04.255Z</time>
      </trkpt>
      <trkpt lat="43.472101" lon="10.728383">
        <ele>203.313092</ele>
        <time>2026-05-07T00:17:06.145Z</time>
      </trkpt>
      <trkpt lat="43.472345" lon="10.728318">
        <ele>203.402590</ele>
        <time>2026-05-07T00:17:10.394Z</time>
      </trkpt>
      <trkpt lat="43.472752" lon="10.728058">
        <ele>204.023672</ele>
        <time>2026-05-07T00:17:18.874Z</time>
      </trkpt>
      <trkpt lat="43.472862" lon="10.727983">
        <ele>204.211093</ele>
        <time>2026-05-07T00:17:21.866Z</time>
      </trkpt>
      <trkpt lat="43.472996" lon="10.727909">
        <ele>204.431548</ele>
        <time>2026-05-07T00:17:25.729Z</time>
      </trkpt>
      <trkpt lat="43.473122" lon="10.727891">
        <ele>204.624996</ele>
        <time>2026-05-07T00:17:29.294Z</time>
      </trkpt>
      <trkpt lat="43.473431" lon="10.727985">
        <ele>205.108238</ele>
        <time>2026-05-07T00:17:38.446Z</time>
      </trkpt>
      <trkpt lat="43.474176" lon="10.728260">
        <ele>206.200155</ele>
        <time>2026-05-07T00:18:03.879Z</time>
      </trkpt>
      <trkpt lat="43.474321" lon="10.728303">
        <ele>206.260328</ele>
        <time>2026-05-07T00:18:08.934Z</time>
      </trkpt>
      <trkpt lat="43.474678" lon="10.728408">
        <ele>206.408425</ele>
        <time>2026-05-07T00:18:20.180Z</time>
      </trkpt>
      <trkpt lat="43.475250" lon="10.728399">
        <ele>206.640501</ele>
        <time>2026-05-07T00:18:33.677Z</time>
      </trkpt>
      <trkpt lat="43.475409" lon="10.728480">
        <ele>206.709274</ele>
        <time>2026-05-07T00:18:36.667Z</time>
      </trkpt>
      <trkpt lat="43.476174" lon="10.728883">
        <ele>204.489076</ele>
        <time>2026-05-07T00:18:49.377Z</time>
      </trkpt>
      <trkpt lat="43.476350" lon="10.729038">
        <ele>203.058624</ele>
        <time>2026-05-07T00:18:52.254Z</time>
      </trkpt>
      <trkpt lat="43.476401" lon="10.729079">
        <ele>202.654262</ele>
        <time>2026-05-07T00:18:53.043Z</time>
      </trkpt>
      <trkpt lat="43.476612" lon="10.729229">
        <ele>201.028282</ele>
        <time>2026-05-07T00:18:56.152Z</time>
      </trkpt>
      <trkpt lat="43.476855" lon="10.729282">
        <ele>199.343384</ele>
        <time>2026-05-07T00:18:59.232Z</time>
      </trkpt>
      <trkpt lat="43.477054" lon="10.729352">
        <ele>197.936836</ele>
        <time>2026-05-07T00:19:01.746Z</time>
      </trkpt>
      <trkpt lat="43.477106" lon="10.729952">
        <ele>194.933881</ele>
        <time>2026-05-07T00:19:06.944Z</time>
      </trkpt>
      <trkpt lat="43.477273" lon="10.730348">
        <ele>190.952113</ele>
        <time>2026-05-07T00:19:10.796Z</time>
      </trkpt>
      <trkpt lat="43.477351" lon="10.730728">
        <ele>187.248963</ele>
        <time>2026-05-07T00:19:14.096Z</time>
      </trkpt>
      <trkpt lat="43.477387" lon="10.731189">
        <ele>182.901122</ele>
        <time>2026-05-07T00:19:17.925Z</time>
      </trkpt>
      <trkpt lat="43.477453" lon="10.731578">
        <ele>179.155019</ele>
        <time>2026-05-07T00:19:21.214Z</time>
      </trkpt>
      <trkpt lat="43.477530" lon="10.731782">
        <ele>176.998764</ele>
        <time>2026-05-07T00:19:23.119Z</time>
      </trkpt>
      <trkpt lat="43.477632" lon="10.731911">
        <ele>175.209730</ele>
        <time>2026-05-07T00:19:24.720Z</time>
      </trkpt>
      <trkpt lat="43.477674" lon="10.731916">
        <ele>174.664963</ele>
        <time>2026-05-07T00:19:25.202Z</time>
      </trkpt>
      <trkpt lat="43.477760" lon="10.731927">
        <ele>173.548849</ele>
        <time>2026-05-07T00:19:26.212Z</time>
      </trkpt>
      <trkpt lat="43.477868" lon="10.732704">
        <ele>167.151206</ele>
        <time>2026-05-07T00:19:33.032Z</time>
      </trkpt>
      <trkpt lat="43.478013" lon="10.733001">
        <ele>164.452565</ele>
        <time>2026-05-07T00:19:36.191Z</time>
      </trkpt>
      <trkpt lat="43.478338" lon="10.733482">
        <ele>159.497776</ele>
        <time>2026-05-07T00:19:41.943Z</time>
      </trkpt>
      <trkpt lat="43.478491" lon="10.733721">
        <ele>157.095055</ele>
        <time>2026-05-07T00:19:44.713Z</time>
      </trkpt>
      <trkpt lat="43.478577" lon="10.733979">
        <ele>154.954648</ele>
        <time>2026-05-07T00:19:47.191Z</time>
      </trkpt>
      <trkpt lat="43.478605" lon="10.734117">
        <ele>153.874393</ele>
        <time>2026-05-07T00:19:48.434Z</time>
      </trkpt>
      <trkpt lat="43.478635" lon="10.734662">
        <ele>149.225136</ele>
        <time>2026-05-07T00:19:53.091Z</time>
      </trkpt>
      <trkpt lat="43.478857" lon="10.735729">
        <ele>139.329789</ele>
        <time>2026-05-07T00:20:02.359Z</time>
      </trkpt>
      <trkpt lat="43.478966" lon="10.736005">
        <ele>136.528509</ele>
        <time>2026-05-07T00:20:07.049Z</time>
      </trkpt>
      <trkpt lat="43.479067" lon="10.736153">
        <ele>134.717308</ele>
        <time>2026-05-07T00:20:10.079Z</time>
      </trkpt>
      <trkpt lat="43.479258" lon="10.736231">
        <ele>132.269908</ele>
        <time>2026-05-07T00:20:14.224Z</time>
      </trkpt>
      <trkpt lat="43.479503" lon="10.736427">
        <ele>129.416651</ele>
        <time>2026-05-07T00:20:20.166Z</time>
      </trkpt>
      <trkpt lat="43.479787" lon="10.736781">
        <ele>126.384247</ele>
        <time>2026-05-07T00:20:28.356Z</time>
      </trkpt>
      <trkpt lat="43.480558" lon="10.737494">
        <ele>119.031594</ele>
        <time>2026-05-07T00:20:49.465Z</time>
      </trkpt>
      <trkpt lat="43.480711" lon="10.737589">
        <ele>117.702713</ele>
        <time>2026-05-07T00:20:53.480Z</time>
      </trkpt>
      <trkpt lat="43.481249" lon="10.737637">
        <ele>114.544358</ele>
        <time>2026-05-07T00:21:06.465Z</time>
      </trkpt>
      <trkpt lat="43.481628" lon="10.737671">
        <ele>112.698031</ele>
        <time>2026-05-07T00:21:15.592Z</time>
      </trkpt>
      <trkpt lat="43.481959" lon="10.737795">
        <ele>111.030558</ele>
        <time>2026-05-07T00:21:23.795Z</time>
      </trkpt>
      <trkpt lat="43.482610" lon="10.738205">
        <ele>107.557308</ele>
        <time>2026-05-07T00:21:41.161Z</time>
      </trkpt>
      <trkpt lat="43.482898" lon="10.738387">
        <ele>106.623540</ele>
        <time>2026-05-07T00:21:49.332Z</time>
      </trkpt>
      <trkpt lat="43.483132" lon="10.738646">
        <ele>105.739028</ele>
        <time>2026-05-07T00:21:57.013Z</time>
      </trkpt>
      <trkpt lat="43.482898" lon="10.738387">
        <ele>104.854516</ele>
        <time>2026-05-07T00:22:04.864Z</time>
      </trkpt>
      <trkpt lat="43.482610" lon="10.738205">
        <ele>103.920747</ele>
        <time>2026-05-07T00:22:13.375Z</time>
      </trkpt>
      <trkpt lat="43.482898" lon="10.738387">
        <ele>102.986979</ele>
        <time>2026-05-07T00:22:22.128Z</time>
      </trkpt>
      <trkpt lat="43.483132" lon="10.738646">
        <ele>102.088846</ele>
        <time>2026-05-07T00:22:30.477Z</time>
      </trkpt>
      <trkpt lat="43.483297" lon="10.738828">
        <ele>101.414094</ele>
        <time>2026-05-07T00:22:36.136Z</time>
      </trkpt>
      <trkpt lat="43.483882" lon="10.739474">
        <ele>99.020742</ele>
        <time>2026-05-07T00:22:54.986Z</time>
      </trkpt>
      <trkpt lat="43.483972" lon="10.739672">
        <ele>98.479486</ele>
        <time>2026-05-07T00:22:59.274Z</time>
      </trkpt>
      <trkpt lat="43.484058" lon="10.740447">
        <ele>96.663269</ele>
        <time>2026-05-07T00:23:13.745Z</time>
      </trkpt>
      <trkpt lat="43.484832" lon="10.741533">
        <ele>94.211060</ele>
        <time>2026-05-07T00:23:43.224Z</time>
      </trkpt>
      <trkpt lat="43.485750" lon="10.742762">
        <ele>90.326080</ele>
        <time>2026-05-07T00:24:19.679Z</time>
      </trkpt>
      <trkpt lat="43.486140" lon="10.742440">
        <ele>88.416162</ele>
        <time>2026-05-07T00:24:31.361Z</time>
      </trkpt>
      <trkpt lat="43.486233" lon="10.742446">
        <ele>88.025030</ele>
        <time>2026-05-07T00:24:33.659Z</time>
      </trkpt>
      <trkpt lat="43.486540" lon="10.742655">
        <ele>86.586535</ele>
        <time>2026-05-07T00:24:41.857Z</time>
      </trkpt>
      <trkpt lat="43.487638" lon="10.742537">
        <ele>80.188069</ele>
        <time>2026-05-07T00:25:06.363Z</time>
      </trkpt>
      <trkpt lat="43.488281" lon="10.742711">
        <ele>75.854925</ele>
        <time>2026-05-07T00:25:21.131Z</time>
      </trkpt>
      <trkpt lat="43.488431" lon="10.742916">
        <ele>74.458082</ele>
        <time>2026-05-07T00:25:26.135Z</time>
      </trkpt>
      <trkpt lat="43.488663" lon="10.742640">
        <ele>72.977761</ele>
        <time>2026-05-07T00:25:30.297Z</time>
      </trkpt>
      <trkpt lat="43.488954" lon="10.742356">
        <ele>72.407321</ele>
        <time>2026-05-07T00:25:35.512Z</time>
      </trkpt>
      <trkpt lat="43.490140" lon="10.741542">
        <ele>70.287693</ele>
        <time>2026-05-07T00:25:59.369Z</time>
      </trkpt>
      <trkpt lat="43.490746" lon="10.740959">
        <ele>68.994837</ele>
        <time>2026-05-07T00:26:12.039Z</time>
      </trkpt>
      <trkpt lat="43.491122" lon="10.740421">
        <ele>68.045799</ele>
        <time>2026-05-07T00:26:20.364Z</time>
      </trkpt>
      <trkpt lat="43.492283" lon="10.741247">
        <ele>65.182749</ele>
        <time>2026-05-07T00:26:40.891Z</time>
      </trkpt>
      <trkpt lat="43.492287" lon="10.741250">
        <ele>65.171420</ele>
        <time>2026-05-07T00:26:40.963Z</time>
      </trkpt>
      <trkpt lat="43.493038" lon="10.741739">
        <ele>63.105034</ele>
        <time>2026-05-07T00:26:54.263Z</time>
      </trkpt>
      <trkpt lat="43.493094" lon="10.741802">
        <ele>62.925201</ele>
        <time>2026-05-07T00:26:55.413Z</time>
      </trkpt>
      <trkpt lat="43.493140" lon="10.741952">
        <ele>62.637677</ele>
        <time>2026-05-07T00:26:57.316Z</time>
      </trkpt>
      <trkpt lat="43.493034" lon="10.742283">
        <ele>62.207589</ele>
        <time>2026-05-07T00:27:01.624Z</time>
      </trkpt>
      <trkpt lat="43.493032" lon="10.742331">
        <ele>62.150437</ele>
        <time>2026-05-07T00:27:02.189Z</time>
      </trkpt>
      <trkpt lat="43.493031" lon="10.742378">
        <ele>62.094545</ele>
        <time>2026-05-07T00:27:02.745Z</time>
      </trkpt>
      <trkpt lat="43.493074" lon="10.742494">
        <ele>61.939698</ele>
        <time>2026-05-07T00:27:04.287Z</time>
      </trkpt>
      <trkpt lat="43.493256" lon="10.742864">
        <ele>61.408313</ele>
        <time>2026-05-07T00:27:09.612Z</time>
      </trkpt>
      <trkpt lat="43.493383" lon="10.743099">
        <ele>61.059980</ele>
        <time>2026-05-07T00:27:13.119Z</time>
      </trkpt>
      <trkpt lat="43.492923" lon="10.743683">
        <ele>60.035277</ele>
        <time>2026-05-07T00:27:30.672Z</time>
      </trkpt>
      <trkpt lat="43.492481" lon="10.743904">
        <ele>59.715367</ele>
        <time>2026-05-07T00:27:44.868Z</time>
      </trkpt>
      <trkpt lat="43.491897" lon="10.744449">
        <ele>59.748335</ele>
        <time>2026-05-07T00:28:08.093Z</time>
      </trkpt>
      <trkpt lat="43.491444" lon="10.745061">
        <ele>59.777985</ele>
        <time>2026-05-07T00:28:29.462Z</time>
      </trkpt>
      <trkpt lat="43.491358" lon="10.745306">
        <ele>59.789601</ele>
        <time>2026-05-07T00:28:36.031Z</time>
      </trkpt>
      <trkpt lat="43.491191" lon="10.745622">
        <ele>59.922022</ele>
        <time>2026-05-07T00:28:45.511Z</time>
      </trkpt>
      <trkpt lat="43.490938" lon="10.746390">
        <ele>60.207718</ele>
        <time>2026-05-07T00:29:06.098Z</time>
      </trkpt>
      <trkpt lat="43.490649" lon="10.747114">
        <ele>60.487618</ele>
        <time>2026-05-07T00:29:26.633Z</time>
      </trkpt>
      <trkpt lat="43.490297" lon="10.747752">
        <ele>60.807321</ele>
        <time>2026-05-07T00:29:47.053Z</time>
      </trkpt>
      <trkpt lat="43.489962" lon="10.748597">
        <ele>61.252244</ele>
        <time>2026-05-07T00:30:11.625Z</time>
      </trkpt>
      <trkpt lat="43.489202" lon="10.750165">
        <ele>62.038908</ele>
        <time>2026-05-07T00:30:58.970Z</time>
      </trkpt>
      <trkpt lat="43.488895" lon="10.750632">
        <ele>62.259940</ele>
        <time>2026-05-07T00:31:14.824Z</time>
      </trkpt>
      <trkpt lat="43.488480" lon="10.751395">
        <ele>62.594405</ele>
        <time>2026-05-07T00:31:38.593Z</time>
      </trkpt>
      <trkpt lat="43.487597" lon="10.752600">
        <ele>62.810476</ele>
        <time>2026-05-07T00:32:19.238Z</time>
      </trkpt>
      <trkpt lat="43.487109" lon="10.753153">
        <ele>62.903601</ele>
        <time>2026-05-07T00:32:39.244Z</time>
      </trkpt>
      <trkpt lat="43.486586" lon="10.753627">
        <ele>63.088939</ele>
        <time>2026-05-07T00:32:59.369Z</time>
      </trkpt>
      <trkpt lat="43.485928" lon="10.754155">
        <ele>63.318553</ele>
        <time>2026-05-07T00:33:24.888Z</time>
      </trkpt>
      <trkpt lat="43.485192" lon="10.754431">
        <ele>63.648630</ele>
        <time>2026-05-07T00:33:51.294Z</time>
      </trkpt>
      <trkpt lat="43.484019" lon="10.754549">
        <ele>64.360755</ele>
        <time>2026-05-07T00:34:32.642Z</time>
      </trkpt>
      <trkpt lat="43.483351" lon="10.754821">
        <ele>64.798709</ele>
        <time>2026-05-07T00:34:56.355Z</time>
      </trkpt>
      <trkpt lat="43.483100" lon="10.755139">
        <ele>65.018846</ele>
        <time>2026-05-07T00:35:07.795Z</time>
      </trkpt>
      <trkpt lat="43.482752" lon="10.755189">
        <ele>65.244760</ele>
        <time>2026-05-07T00:35:19.574Z</time>
      </trkpt>
      <trkpt lat="43.482523" lon="10.755336">
        <ele>65.407872</ele>
        <time>2026-05-07T00:35:28.022Z</time>
      </trkpt>
      <trkpt lat="43.484158" lon="10.759628">
        <ele>71.605391</ele>
        <time>2026-05-07T00:37:41.289Z</time>
      </trkpt>
      <trkpt lat="43.484281" lon="10.759636">
        <ele>71.970323</ele>
        <time>2026-05-07T00:37:47.971Z</time>
      </trkpt>
      <trkpt lat="43.485443" lon="10.761387">
        <ele>82.666955</ele>
        <time>2026-05-07T00:39:44.355Z</time>
      </trkpt>
      <trkpt lat="43.485887" lon="10.762900">
        <ele>90.864092</ele>
        <time>2026-05-07T00:41:10.021Z</time>
      </trkpt>
      <trkpt lat="43.485917" lon="10.763512">
        <ele>93.851330</ele>
        <time>2026-05-07T00:41:39.972Z</time>
      </trkpt>
      <trkpt lat="43.486470" lon="10.764456">
        <ele>98.932963</ele>
        <time>2026-05-07T00:42:32.129Z</time>
      </trkpt>
      <trkpt lat="43.487335" lon="10.764466">
        <ele>101.560392</ele>
        <time>2026-05-07T00:43:13.293Z</time>
      </trkpt>
      <trkpt lat="43.487864" lon="10.765593">
        <ele>104.158191</ele>
        <time>2026-05-07T00:43:52.585Z</time>
      </trkpt>
      <trkpt lat="43.490030" lon="10.767426">
        <ele>108.439224</ele>
        <time>2026-05-07T00:45:34.408Z</time>
      </trkpt>
      <trkpt lat="43.491351" lon="10.768543">
        <ele>110.997609</ele>
        <time>2026-05-07T00:46:36.988Z</time>
      </trkpt>
      <trkpt lat="43.493608" lon="10.770936">
        <ele>115.506956</ele>
        <time>2026-05-07T00:48:29.298Z</time>
      </trkpt>
      <trkpt lat="43.494284" lon="10.771279">
        <ele>117.301822</ele>
        <time>2026-05-07T00:48:58.782Z</time>
      </trkpt>
      <trkpt lat="43.494541" lon="10.771161">
        <ele>117.976774</ele>
        <time>2026-05-07T00:49:10.374Z</time>
      </trkpt>
      <trkpt lat="43.494744" lon="10.770839">
        <ele>118.747886</ele>
        <time>2026-05-07T00:49:24.374Z</time>
      </trkpt>
      <trkpt lat="43.495016" lon="10.770303">
        <ele>119.930259</ele>
        <time>2026-05-07T00:49:47.293Z</time>
      </trkpt>
      <trkpt lat="43.495159" lon="10.770170">
        <ele>120.516973</ele>
        <time>2026-05-07T00:49:55.819Z</time>
      </trkpt>
      <trkpt lat="43.495305" lon="10.770035">
        <ele>121.128835</ele>
        <time>2026-05-07T00:50:04.663Z</time>
      </trkpt>
      <trkpt lat="43.495671" lon="10.770271">
        <ele>122.535121</ele>
        <time>2026-05-07T00:50:25.724Z</time>
      </trkpt>
      <trkpt lat="43.496371" lon="10.771515">
        <ele>126.402858</ele>
        <time>2026-05-07T00:51:22.385Z</time>
      </trkpt>
      <trkpt lat="43.496573" lon="10.772470">
        <ele>127.971217</ele>
        <time>2026-05-07T00:51:54.312Z</time>
      </trkpt>
      <trkpt lat="43.496970" lon="10.773286">
        <ele>129.520272</ele>
        <time>2026-05-07T00:52:24.170Z</time>
      </trkpt>
      <trkpt lat="43.497679" lon="10.774047">
        <ele>130.442363</ele>
        <time>2026-05-07T00:52:57.345Z</time>
      </trkpt>
      <trkpt lat="43.497788" lon="10.774294">
        <ele>130.547373</ele>
        <time>2026-05-07T00:53:03.799Z</time>
      </trkpt>
      <trkpt lat="43.497825" lon="10.774552">
        <ele>130.642894</ele>
        <time>2026-05-07T00:53:09.743Z</time>
      </trkpt>
      <trkpt lat="43.497834" lon="10.774622">
        <ele>130.668715</ele>
        <time>2026-05-07T00:53:11.361Z</time>
      </trkpt>
      <trkpt lat="43.497787" lon="10.774919">
        <ele>130.779126</ele>
        <time>2026-05-07T00:53:18.339Z</time>
      </trkpt>
      <trkpt lat="43.497807" lon="10.775632">
        <ele>131.036501</ele>
        <time>2026-05-07T00:53:35.367Z</time>
      </trkpt>
      <trkpt lat="43.497857" lon="10.777239">
        <ele>131.353828</ele>
        <time>2026-05-07T00:54:17.318Z</time>
      </trkpt>
      <trkpt lat="43.497903" lon="10.778199">
        <ele>131.369512</ele>
        <time>2026-05-07T00:54:39.822Z</time>
      </trkpt>
      <trkpt lat="43.497805" lon="10.778769">
        <ele>130.483361</ele>
        <time>2026-05-07T00:54:51.876Z</time>
      </trkpt>
      <trkpt lat="43.497630" lon="10.782215">
        <ele>124.495419</ele>
        <time>2026-05-07T00:55:58.029Z</time>
      </trkpt>
      <trkpt lat="43.497543" lon="10.782396">
        <ele>124.067405</ele>
        <time>2026-05-07T00:56:02.017Z</time>
      </trkpt>
      <trkpt lat="43.497406" lon="10.782531">
        <ele>123.609782</ele>
        <time>2026-05-07T00:56:06.314Z</time>
      </trkpt>
      <trkpt lat="43.496597" lon="10.783021">
        <ele>123.507165</ele>
        <time>2026-05-07T00:56:30.012Z</time>
      </trkpt>
      <trkpt lat="43.496130" lon="10.783107">
        <ele>123.982355</ele>
        <time>2026-05-07T00:56:46.590Z</time>
      </trkpt>
      <trkpt lat="43.495719" lon="10.783021">
        <ele>124.401628</ele>
        <time>2026-05-07T00:57:06.267Z</time>
      </trkpt>
      <trkpt lat="43.495383" lon="10.783150">
        <ele>124.889936</ele>
        <time>2026-05-07T00:57:26.086Z</time>
      </trkpt>
      <trkpt lat="43.494430" lon="10.783879">
        <ele>128.749069</ele>
        <time>2026-05-07T00:58:31.684Z</time>
      </trkpt>
      <trkpt lat="43.493888" lon="10.784377">
        <ele>131.055443</ele>
        <time>2026-05-07T00:58:58.682Z</time>
      </trkpt>
      <trkpt lat="43.493789" lon="10.784755">
        <ele>130.327648</ele>
        <time>2026-05-07T00:59:07.222Z</time>
      </trkpt>
      <trkpt lat="43.493582" lon="10.785887">
        <ele>128.152122</ele>
        <time>2026-05-07T00:59:29.029Z</time>
      </trkpt>
      <trkpt lat="43.493545" lon="10.786094">
        <ele>127.754829</ele>
        <time>2026-05-07T00:59:32.830Z</time>
      </trkpt>
      <trkpt lat="43.493506" lon="10.786309">
        <ele>127.341829</ele>
        <time>2026-05-07T00:59:36.782Z</time>
      </trkpt>
      <trkpt lat="43.493449" lon="10.786590">
        <ele>126.798084</ele>
        <time>2026-05-07T00:59:42.050Z</time>
      </trkpt>
      <trkpt lat="43.493272" lon="10.787465">
        <ele>124.142661</ele>
        <time>2026-05-07T00:59:58.988Z</time>
      </trkpt>
      <trkpt lat="43.493207" lon="10.787642">
        <ele>123.507778</ele>
        <time>2026-05-07T01:00:02.803Z</time>
      </trkpt>
      <trkpt lat="43.493150" lon="10.787799">
        <ele>122.945932</ele>
        <time>2026-05-07T01:00:06.208Z</time>
      </trkpt>
      <trkpt lat="43.492493" lon="10.788917">
        <ele>118.224604</ele>
        <time>2026-05-07T01:00:31.496Z</time>
      </trkpt>
      <trkpt lat="43.493012" lon="10.789041">
        <ele>114.316873</ele>
        <time>2026-05-07T01:00:38.086Z</time>
      </trkpt>
      <trkpt lat="43.493393" lon="10.789416">
        <ele>110.843748</ele>
        <time>2026-05-07T01:00:43.826Z</time>
      </trkpt>
      <trkpt lat="43.494542" lon="10.791503">
        <ele>97.903419</ele>
        <time>2026-05-07T01:01:07.468Z</time>
      </trkpt>
      <trkpt lat="43.494706" lon="10.791750">
        <ele>96.349465</ele>
        <time>2026-05-07T01:01:10.665Z</time>
      </trkpt>
      <trkpt lat="43.496040" lon="10.791916">
        <ele>90.110624</ele>
        <time>2026-05-07T01:01:29.256Z</time>
      </trkpt>
      <trkpt lat="43.496355" lon="10.791911">
        <ele>88.893627</ele>
        <time>2026-05-07T01:01:33.723Z</time>
      </trkpt>
      <trkpt lat="43.496706" lon="10.791739">
        <ele>87.454510</ele>
        <time>2026-05-07T01:01:38.933Z</time>
      </trkpt>
      <trkpt lat="43.497764" lon="10.790645">
        <ele>83.462105</ele>
        <time>2026-05-07T01:01:57.562Z</time>
      </trkpt>
      <trkpt lat="43.498052" lon="10.790774">
        <ele>82.591326</ele>
        <time>2026-05-07T01:02:02.028Z</time>
      </trkpt>
      <trkpt lat="43.502348" lon="10.795763">
        <ele>76.026137</ele>
        <time>2026-05-07T01:03:36.023Z</time>
      </trkpt>
      <trkpt lat="43.502688" lon="10.796306">
        <ele>76.007402</ele>
        <time>2026-05-07T01:03:46.192Z</time>
      </trkpt>
      <trkpt lat="43.502795" lon="10.796442">
        <ele>76.049552</ele>
        <time>2026-05-07T01:03:49.212Z</time>
      </trkpt>
      <trkpt lat="43.502893" lon="10.796513">
        <ele>76.081615</ele>
        <time>2026-05-07T01:03:51.557Z</time>
      </trkpt>
      <trkpt lat="43.503137" lon="10.796519">
        <ele>76.152294</ele>
        <time>2026-05-07T01:03:56.911Z</time>
      </trkpt>
      <trkpt lat="43.505215" lon="10.795135">
        <ele>76.852723</ele>
        <time>2026-05-07T01:04:47.575Z</time>
      </trkpt>
      <trkpt lat="43.507191" lon="10.791262">
        <ele>75.656660</ele>
        <time>2026-05-07T01:05:49.883Z</time>
      </trkpt>
      <trkpt lat="43.509090" lon="10.790157">
        <ele>74.488087</ele>
        <time>2026-05-07T01:06:24.833Z</time>
      </trkpt>
      <trkpt lat="43.509187" lon="10.790008">
        <ele>74.406351</ele>
        <time>2026-05-07T01:06:27.979Z</time>
      </trkpt>
      <trkpt lat="43.509217" lon="10.789902">
        <ele>74.359901</ele>
        <time>2026-05-07T01:06:29.749Z</time>
      </trkpt>
      <trkpt lat="43.509257" lon="10.789694">
        <ele>74.341066</ele>
        <time>2026-05-07T01:06:33.309Z</time>
      </trkpt>
      <trkpt lat="43.509287" lon="10.789592">
        <ele>74.373901</ele>
        <time>2026-05-07T01:06:35.239Z</time>
      </trkpt>
      <trkpt lat="43.509383" lon="10.789475">
        <ele>74.426603</ele>
        <time>2026-05-07T01:06:38.249Z</time>
      </trkpt>
      <trkpt lat="43.510231" lon="10.789229">
        <ele>74.783041</ele>
        <time>2026-05-07T01:06:59.582Z</time>
      </trkpt>
      <trkpt lat="43.511974" lon="10.789535">
        <ele>74.564214</ele>
        <time>2026-05-07T01:07:31.650Z</time>
      </trkpt>
      <trkpt lat="43.514485" lon="10.789969">
        <ele>73.087201</ele>
        <time>2026-05-07T01:08:16.319Z</time>
      </trkpt>
      <trkpt lat="43.517673" lon="10.790458">
        <ele>70.796074</ele>
        <time>2026-05-07T01:09:12.412Z</time>
      </trkpt>
      <trkpt lat="43.517953" lon="10.790481">
        <ele>70.583536</ele>
        <time>2026-05-07T01:09:17.153Z</time>
      </trkpt>
      <trkpt lat="43.518263" lon="10.790353">
        <ele>70.251129</ele>
        <time>2026-05-07T01:09:22.576Z</time>
      </trkpt>
      <trkpt lat="43.518882" lon="10.789769">
        <ele>69.422888</ele>
        <time>2026-05-07T01:09:35.032Z</time>
      </trkpt>
      <trkpt lat="43.519518" lon="10.789074">
        <ele>68.526311</ele>
        <time>2026-05-07T01:09:48.528Z</time>
      </trkpt>
      <trkpt lat="43.520528" lon="10.787183">
        <ele>66.592085</ele>
        <time>2026-05-07T01:10:16.871Z</time>
      </trkpt>
      <trkpt lat="43.521251" lon="10.785987">
        <ele>65.635868</ele>
        <time>2026-05-07T01:10:35.696Z</time>
      </trkpt>
      <trkpt lat="43.521493" lon="10.785763">
        <ele>65.395556</ele>
        <time>2026-05-07T01:10:40.821Z</time>
      </trkpt>
      <trkpt lat="43.521618" lon="10.785692">
        <ele>65.284091</ele>
        <time>2026-05-07T01:10:43.249Z</time>
      </trkpt>
      <trkpt lat="43.522368" lon="10.785248">
        <ele>64.847785</ele>
        <time>2026-05-07T01:10:58.547Z</time>
      </trkpt>
      <trkpt lat="43.523101" lon="10.784824">
        <ele>64.574639</ele>
        <time>2026-05-07T01:11:13.341Z</time>
      </trkpt>
      <trkpt lat="43.523296" lon="10.784679">
        <ele>64.498510</ele>
        <time>2026-05-07T01:11:17.276Z</time>
      </trkpt>
      <trkpt lat="43.523773" lon="10.784387">
        <ele>64.364130</ele>
        <time>2026-05-07T01:11:26.388Z</time>
      </trkpt>
      <trkpt lat="43.524030" lon="10.783990">
        <ele>64.306379</ele>
        <time>2026-05-07T01:11:32.893Z</time>
      </trkpt>
      <trkpt lat="43.524888" lon="10.782257">
        <ele>65.278021</ele>
        <time>2026-05-07T01:12:01.911Z</time>
      </trkpt>
      <trkpt lat="43.525965" lon="10.781195">
        <ele>69.742448</ele>
        <time>2026-05-07T01:12:50.252Z</time>
      </trkpt>
      <trkpt lat="43.526585" lon="10.783169">
        <ele>80.755014</ele>
        <time>2026-05-07T01:14:23.905Z</time>
      </trkpt>
      <trkpt lat="43.527104" lon="10.784071">
        <ele>87.221062</ele>
        <time>2026-05-07T01:15:11.942Z</time>
      </trkpt>
      <trkpt lat="43.527244" lon="10.784384">
        <ele>89.358782</ele>
        <time>2026-05-07T01:15:27.038Z</time>
      </trkpt>
      <trkpt lat="43.527484" lon="10.784601">
        <ele>91.659448</ele>
        <time>2026-05-07T01:15:43.758Z</time>
      </trkpt>
      <trkpt lat="43.527667" lon="10.784655">
        <ele>93.159757</ele>
        <time>2026-05-07T01:15:55.117Z</time>
      </trkpt>
      <trkpt lat="43.528108" lon="10.784709">
        <ele>96.709149</ele>
        <time>2026-05-07T01:16:23.048Z</time>
      </trkpt>
      <trkpt lat="43.528669" lon="10.784604">
        <ele>101.703767</ele>
        <time>2026-05-07T01:17:01.345Z</time>
      </trkpt>
      <trkpt lat="43.529532" lon="10.784749">
        <ele>109.633370</ele>
        <time>2026-05-07T01:17:57.160Z</time>
      </trkpt>
      <trkpt lat="43.529907" lon="10.784705">
        <ele>113.066095</ele>
        <time>2026-05-07T01:18:21.483Z</time>
      </trkpt>
      <trkpt lat="43.530050" lon="10.784594">
        <ele>114.564455</ele>
        <time>2026-05-07T01:18:32.866Z</time>
      </trkpt>
      <trkpt lat="43.530432" lon="10.784145">
        <ele>119.177546</ele>
        <time>2026-05-07T01:19:09.390Z</time>
      </trkpt>
      <trkpt lat="43.530544" lon="10.784116">
        <ele>120.224969</ele>
        <time>2026-05-07T01:19:17.474Z</time>
      </trkpt>
      <trkpt lat="43.530586" lon="10.784131">
        <ele>120.623740</ele>
        <time>2026-05-07T01:19:20.637Z</time>
      </trkpt>
      <trkpt lat="43.530666" lon="10.784333">
        <ele>122.157580</ele>
        <time>2026-05-07T01:19:32.428Z</time>
      </trkpt>
      <trkpt lat="43.530831" lon="10.784927">
        <ele>126.396485</ele>
        <time>2026-05-07T01:20:03.749Z</time>
      </trkpt>
      <trkpt lat="43.530873" lon="10.785159">
        <ele>127.989961</ele>
        <time>2026-05-07T01:20:15.361Z</time>
      </trkpt>
      <trkpt lat="43.530852" lon="10.785318">
        <ele>129.066947</ele>
        <time>2026-05-07T01:20:23.243Z</time>
      </trkpt>
      <trkpt lat="43.530617" lon="10.785985">
        <ele>132.672599</ele>
        <time>2026-05-07T01:20:54.843Z</time>
      </trkpt>
      <trkpt lat="43.530596" lon="10.786110">
        <ele>133.163073</ele>
        <time>2026-05-07T01:20:59.288Z</time>
      </trkpt>
      <trkpt lat="43.531415" lon="10.787375">
        <ele>139.645918</ele>
        <time>2026-05-07T01:21:47.846Z</time>
      </trkpt>
      <trkpt lat="43.531790" lon="10.788061">
        <ele>143.505376</ele>
        <time>2026-05-07T01:22:17.615Z</time>
      </trkpt>
      <trkpt lat="43.531937" lon="10.788196">
        <ele>144.644811</ele>
        <time>2026-05-07T01:22:26.932Z</time>
      </trkpt>
      <trkpt lat="43.532756" lon="10.788645">
        <ele>150.331073</ele>
        <time>2026-05-07T01:23:16.543Z</time>
      </trkpt>
      <trkpt lat="43.533617" lon="10.789152">
        <ele>156.469371</ele>
        <time>2026-05-07T01:24:08.622Z</time>
      </trkpt>
      <trkpt lat="43.534843" lon="10.789874">
        <ele>164.914210</ele>
        <time>2026-05-07T01:25:18.240Z</time>
      </trkpt>
      <trkpt lat="43.535931" lon="10.790800">
        <ele>171.305377</ele>
        <time>2026-05-07T01:26:20.567Z</time>
      </trkpt>
      <trkpt lat="43.536047" lon="10.790852">
        <ele>171.915140</ele>
        <time>2026-05-07T01:26:25.006Z</time>
      </trkpt>
      <trkpt lat="43.536206" lon="10.790862">
        <ele>172.710841</ele>
        <time>2026-05-07T01:26:30.378Z</time>
      </trkpt>
      <trkpt lat="43.536540" lon="10.790778">
        <ele>173.067548</ele>
        <time>2026-05-07T01:26:40.169Z</time>
      </trkpt>
      <trkpt lat="43.537019" lon="10.790825">
        <ele>173.444447</ele>
        <time>2026-05-07T01:26:51.252Z</time>
      </trkpt>
      <trkpt lat="43.537066" lon="10.790808">
        <ele>173.482583</ele>
        <time>2026-05-07T01:26:52.291Z</time>
      </trkpt>
      <trkpt lat="43.537627" lon="10.790608">
        <ele>173.937358</ele>
        <time>2026-05-07T01:27:03.372Z</time>
      </trkpt>
      <trkpt lat="43.538034" lon="10.790636">
        <ele>174.224260</ele>
        <time>2026-05-07T01:27:11.612Z</time>
      </trkpt>
      <trkpt lat="43.538325" lon="10.790768">
        <ele>174.177976</ele>
        <time>2026-05-07T01:27:19.217Z</time>
      </trkpt>
      <trkpt lat="43.538468" lon="10.790843">
        <ele>174.154860</ele>
        <time>2026-05-07T01:27:23.162Z</time>
      </trkpt>
      <trkpt lat="43.538999" lon="10.791633">
        <ele>174.036860</ele>
        <time>2026-05-07T01:27:39.823Z</time>
      </trkpt>
      <trkpt lat="43.539047" lon="10.791684">
        <ele>174.027705</ele>
        <time>2026-05-07T01:27:40.907Z</time>
      </trkpt>
      <trkpt lat="43.539196" lon="10.792073">
        <ele>173.979516</ele>
        <time>2026-05-07T01:27:46.214Z</time>
      </trkpt>
      <trkpt lat="43.539588" lon="10.793039">
        <ele>172.680571</ele>
        <time>2026-05-07T01:27:58.735Z</time>
      </trkpt>
      <trkpt lat="43.539569" lon="10.793400">
        <ele>172.171938</ele>
        <time>2026-05-07T01:28:02.882Z</time>
      </trkpt>
      <trkpt lat="43.539533" lon="10.793550">
        <ele>171.949897</ele>
        <time>2026-05-07T01:28:04.728Z</time>
      </trkpt>
      <trkpt lat="43.539449" lon="10.793687">
        <ele>171.697745</ele>
        <time>2026-05-07T01:28:06.877Z</time>
      </trkpt>
      <trkpt lat="43.539062" lon="10.794115">
        <ele>170.736196</ele>
        <time>2026-05-07T01:28:14.837Z</time>
      </trkpt>
      <trkpt lat="43.539013" lon="10.794246">
        <ele>170.529043</ele>
        <time>2026-05-07T01:28:16.375Z</time>
      </trkpt>
      <trkpt lat="43.538949" lon="10.794687">
        <ele>168.901599</ele>
        <time>2026-05-07T01:28:20.966Z</time>
      </trkpt>
      <trkpt lat="43.538908" lon="10.794965">
        <ele>167.811588</ele>
        <time>2026-05-07T01:28:23.826Z</time>
      </trkpt>
      <trkpt lat="43.538819" lon="10.795147">
        <ele>166.968076</ele>
        <time>2026-05-07T01:28:25.992Z</time>
      </trkpt>
      <trkpt lat="43.538681" lon="10.795324">
        <ele>165.969330</ele>
        <time>2026-05-07T01:28:28.466Z</time>
      </trkpt>
      <trkpt lat="43.538389" lon="10.795492">
        <ele>164.292441</ele>
        <time>2026-05-07T01:28:32.526Z</time>
      </trkpt>
      <trkpt lat="43.538217" lon="10.795726">
        <ele>163.012033</ele>
        <time>2026-05-07T01:28:35.572Z</time>
      </trkpt>
      <trkpt lat="43.538088" lon="10.796174">
        <ele>161.159887</ele>
        <time>2026-05-07T01:28:39.902Z</time>
      </trkpt>
      <trkpt lat="43.538091" lon="10.796322">
        <ele>160.821245</ele>
        <time>2026-05-07T01:28:41.237Z</time>
      </trkpt>
      <trkpt lat="43.538123" lon="10.796459">
        <ele>160.635398</ele>
        <time>2026-05-07T01:28:42.553Z</time>
      </trkpt>
      <trkpt lat="43.538299" lon="10.797045">
        <ele>159.816403</ele>
        <time>2026-05-07T01:28:48.656Z</time>
      </trkpt>
      <trkpt lat="43.538349" lon="10.797294">
        <ele>159.482795</ele>
        <time>2026-05-07T01:28:51.262Z</time>
      </trkpt>
      <trkpt lat="43.538505" lon="10.798449">
        <ele>157.965834</ele>
        <time>2026-05-07T01:29:07.646Z</time>
      </trkpt>
      <trkpt lat="43.538518" lon="10.798812">
        <ele>158.183542</ele>
        <time>2026-05-07T01:29:18.601Z</time>
      </trkpt>
      <trkpt lat="43.538453" lon="10.799194">
        <ele>159.141872</ele>
        <time>2026-05-07T01:29:32.188Z</time>
      </trkpt>
      <trkpt lat="43.538051" lon="10.800249">
        <ele>162.052827</ele>
        <time>2026-05-07T01:30:14.102Z</time>
      </trkpt>
      <trkpt lat="43.537739" lon="10.800785">
        <ele>163.731734</ele>
        <time>2026-05-07T01:30:30.068Z</time>
      </trkpt>
      <trkpt lat="43.537179" lon="10.801285">
        <ele>160.545972</ele>
        <time>2026-05-07T01:30:39.505Z</time>
      </trkpt>
      <trkpt lat="43.536894" lon="10.801756">
        <ele>158.318617</ele>
        <time>2026-05-07T01:30:45.050Z</time>
      </trkpt>
      <trkpt lat="43.536806" lon="10.802026">
        <ele>157.243872</ele>
        <time>2026-05-07T01:30:47.657Z</time>
      </trkpt>
      <trkpt lat="43.536754" lon="10.802322">
        <ele>156.138142</ele>
        <time>2026-05-07T01:30:50.356Z</time>
      </trkpt>
      <trkpt lat="43.536712" lon="10.803606">
        <ele>154.184624</ele>
        <time>2026-05-07T01:31:02.519Z</time>
      </trkpt>
      <trkpt lat="43.536525" lon="10.804446">
        <ele>153.605457</ele>
        <time>2026-05-07T01:31:17.931Z</time>
      </trkpt>
      <trkpt lat="43.536245" lon="10.805207">
        <ele>153.377487</ele>
        <time>2026-05-07T01:31:41.397Z</time>
      </trkpt>
      <trkpt lat="43.536077" lon="10.805665">
        <ele>154.086299</ele>
        <time>2026-05-07T01:31:55.519Z</time>
      </trkpt>
      <trkpt lat="43.536020" lon="10.806221">
        <ele>154.861729</ele>
        <time>2026-05-07T01:32:08.886Z</time>
      </trkpt>
      <trkpt lat="43.536142" lon="10.807645">
        <ele>157.009702</ele>
        <time>2026-05-07T01:32:30.381Z</time>
      </trkpt>
      <trkpt lat="43.536100" lon="10.808201">
        <ele>158.271353</ele>
        <time>2026-05-07T01:32:40.800Z</time>
      </trkpt>
      <trkpt lat="43.535983" lon="10.808803">
        <ele>159.678011</ele>
        <time>2026-05-07T01:32:56.716Z</time>
      </trkpt>
      <trkpt lat="43.536030" lon="10.809265">
        <ele>160.730934</ele>
        <time>2026-05-07T01:33:11.038Z</time>
      </trkpt>
      <trkpt lat="43.536137" lon="10.809667">
        <ele>161.697445</ele>
        <time>2026-05-07T01:33:25.042Z</time>
      </trkpt>
      <trkpt lat="43.536455" lon="10.810223">
        <ele>163.393771</ele>
        <time>2026-05-07T01:33:47.559Z</time>
      </trkpt>
      <trkpt lat="43.536443" lon="10.811171">
        <ele>165.720993</ele>
        <time>2026-05-07T01:34:13.514Z</time>
      </trkpt>
      <trkpt lat="43.536501" lon="10.811507">
        <ele>166.568763</ele>
        <time>2026-05-07T01:34:22.257Z</time>
      </trkpt>
      <trkpt lat="43.536624" lon="10.811808">
        <ele>167.416859</ele>
        <time>2026-05-07T01:34:30.650Z</time>
      </trkpt>
      <trkpt lat="43.536756" lon="10.812058">
        <ele>168.175988</ele>
        <time>2026-05-07T01:34:38.243Z</time>
      </trkpt>
      <trkpt lat="43.537044" lon="10.812488">
        <ele>167.603336</ele>
        <time>2026-05-07T01:34:49.281Z</time>
      </trkpt>
      <trkpt lat="43.537486" lon="10.812941">
        <ele>166.684508</ele>
        <time>2026-05-07T01:34:58.258Z</time>
      </trkpt>
      <trkpt lat="43.537548" lon="10.813141">
        <ele>166.421387</ele>
        <time>2026-05-07T01:35:00.529Z</time>
      </trkpt>
      <trkpt lat="43.537548" lon="10.813370">
        <ele>166.144378</ele>
        <time>2026-05-07T01:35:02.843Z</time>
      </trkpt>
      <trkpt lat="43.537174" lon="10.814192">
        <ele>165.042990</ele>
        <time>2026-05-07T01:35:12.498Z</time>
      </trkpt>
      <trkpt lat="43.537140" lon="10.814343">
        <ele>164.898767</ele>
        <time>2026-05-07T01:35:14.049Z</time>
      </trkpt>
      <trkpt lat="43.537191" lon="10.814693">
        <ele>164.573136</ele>
        <time>2026-05-07T01:35:17.597Z</time>
      </trkpt>
      <trkpt lat="43.537268" lon="10.814967">
        <ele>164.305091</ele>
        <time>2026-05-07T01:35:20.658Z</time>
      </trkpt>
      <trkpt lat="43.537482" lon="10.815668">
        <ele>163.611306</ele>
        <time>2026-05-07T01:35:30.247Z</time>
      </trkpt>
      <trkpt lat="43.537795" lon="10.816452">
        <ele>163.316019</ele>
        <time>2026-05-07T01:35:49.742Z</time>
      </trkpt>
      <trkpt lat="43.538463" lon="10.818007">
        <ele>165.809412</ele>
        <time>2026-05-07T01:36:29.722Z</time>
      </trkpt>
      <trkpt lat="43.538479" lon="10.818080">
        <ele>165.914613</ele>
        <time>2026-05-07T01:36:31.308Z</time>
      </trkpt>
      <trkpt lat="43.538764" lon="10.819374">
        <ele>166.157704</ele>
        <time>2026-05-07T01:36:55.109Z</time>
      </trkpt>
      <trkpt lat="43.539001" lon="10.820275">
        <ele>165.896930</ele>
        <time>2026-05-07T01:37:07.223Z</time>
      </trkpt>
      <trkpt lat="43.539054" lon="10.821160">
        <ele>165.014678</ele>
        <time>2026-05-07T01:37:17.076Z</time>
      </trkpt>
      <trkpt lat="43.539065" lon="10.821354">
        <ele>164.603206</ele>
        <time>2026-05-07T01:37:19.159Z</time>
      </trkpt>
      <trkpt lat="43.539077" lon="10.821500">
        <ele>164.292505</ele>
        <time>2026-05-07T01:37:20.723Z</time>
      </trkpt>
      <trkpt lat="43.539419" lon="10.823931">
        <ele>158.903443</ele>
        <time>2026-05-07T01:37:46.489Z</time>
      </trkpt>
      <trkpt lat="43.539893" lon="10.827293">
        <ele>151.375153</ele>
        <time>2026-05-07T01:38:22.168Z</time>
      </trkpt>
      <trkpt lat="43.540002" lon="10.828069">
        <ele>149.759568</ele>
        <time>2026-05-07T01:38:31.016Z</time>
      </trkpt>
      <trkpt lat="43.540113" lon="10.827941">
        <ele>149.259925</ele>
        <time>2026-05-07T01:38:34.974Z</time>
      </trkpt>
      <trkpt lat="43.540486" lon="10.827254">
        <ele>146.930568</ele>
        <time>2026-05-07T01:38:51.744Z</time>
      </trkpt>
      <trkpt lat="43.540789" lon="10.826230">
        <ele>143.929043</ele>
        <time>2026-05-07T01:39:11.971Z</time>
      </trkpt>
      <trkpt lat="43.540955" lon="10.825533">
        <ele>141.036974</ele>
        <time>2026-05-07T01:39:24.390Z</time>
      </trkpt>
      <trkpt lat="43.541808" lon="10.822743">
        <ele>124.277868</ele>
        <time>2026-05-07T01:40:13.497Z</time>
      </trkpt>
      <trkpt lat="43.541815" lon="10.821850">
        <ele>118.758803</ele>
        <time>2026-05-07T01:40:27.776Z</time>
      </trkpt>
      <trkpt lat="43.541981" lon="10.821425">
        <ele>115.775274</ele>
        <time>2026-05-07T01:40:35.401Z</time>
      </trkpt>
      <trkpt lat="43.542195" lon="10.820989">
        <ele>112.149141</ele>
        <time>2026-05-07T01:40:43.641Z</time>
      </trkpt>
      <trkpt lat="43.542534" lon="10.819758">
        <ele>102.486776</ele>
        <time>2026-05-07T01:41:04.038Z</time>
      </trkpt>
      <trkpt lat="43.542656" lon="10.817827">
        <ele>90.335045</ele>
        <time>2026-05-07T01:41:34.059Z</time>
      </trkpt>
      <trkpt lat="43.542713" lon="10.817520">
        <ele>88.608874</ele>
        <time>2026-05-07T01:41:39.145Z</time>
      </trkpt>
      <trkpt lat="43.542784" lon="10.817357">
        <ele>87.573066</ele>
        <time>2026-05-07T01:41:42.249Z</time>
      </trkpt>
      <trkpt lat="43.542888" lon="10.817248">
        <ele>86.591630</ele>
        <time>2026-05-07T01:41:45.246Z</time>
      </trkpt>
      <trkpt lat="43.543256" lon="10.817075">
        <ele>83.670207</ele>
        <time>2026-05-07T01:41:54.604Z</time>
      </trkpt>
      <trkpt lat="43.543354" lon="10.817029">
        <ele>82.892344</ele>
        <time>2026-05-07T01:41:57.215Z</time>
      </trkpt>
      <trkpt lat="43.543766" lon="10.816849">
        <ele>83.086340</ele>
        <time>2026-05-07T01:42:09.049Z</time>
      </trkpt>
      <trkpt lat="43.543932" lon="10.816740">
        <ele>83.218899</ele>
        <time>2026-05-07T01:42:14.788Z</time>
      </trkpt>
      <trkpt lat="43.544169" lon="10.816730">
        <ele>83.389866</ele>
        <time>2026-05-07T01:42:23.527Z</time>
      </trkpt>
      <trkpt lat="43.544327" lon="10.816947">
        <ele>83.550619</ele>
        <time>2026-05-07T01:42:32.829Z</time>
      </trkpt>
      <trkpt lat="43.544437" lon="10.817220">
        <ele>83.713864</ele>
        <time>2026-05-07T01:42:43.292Z</time>
      </trkpt>
      <trkpt lat="43.544610" lon="10.818814">
        <ele>86.751553</ele>
        <time>2026-05-07T01:43:39.439Z</time>
      </trkpt>
      <trkpt lat="43.544635" lon="10.819083">
        <ele>87.549329</ele>
        <time>2026-05-07T01:43:49.267Z</time>
      </trkpt>
      <trkpt lat="43.544722" lon="10.819540">
        <ele>88.939246</ele>
        <time>2026-05-07T01:44:06.864Z</time>
      </trkpt>
      <trkpt lat="43.544919" lon="10.819856">
        <ele>90.165317</ele>
        <time>2026-05-07T01:44:23.140Z</time>
      </trkpt>
      <trkpt lat="43.545385" lon="10.820510">
        <ele>94.015886</ele>
        <time>2026-05-07T01:45:01.584Z</time>
      </trkpt>
      <trkpt lat="43.545622" lon="10.821719">
        <ele>100.566724</ele>
        <time>2026-05-07T01:46:02.997Z</time>
      </trkpt>
      <trkpt lat="43.545890" lon="10.822493">
        <ele>105.299418</ele>
        <time>2026-05-07T01:46:50.432Z</time>
      </trkpt>
      <trkpt lat="43.546056" lon="10.822787">
        <ele>107.941348</ele>
        <time>2026-05-07T01:47:11.837Z</time>
      </trkpt>
      <trkpt lat="43.546183" lon="10.822831">
        <ele>109.222032</ele>
        <time>2026-05-07T01:47:22.314Z</time>
      </trkpt>
      <trkpt lat="43.546348" lon="10.822678">
        <ele>111.166430</ele>
        <time>2026-05-07T01:47:38.547Z</time>
      </trkpt>
      <trkpt lat="43.546791" lon="10.820684">
        <ele>125.718202</ele>
        <time>2026-05-07T01:49:43.459Z</time>
      </trkpt>
      <trkpt lat="43.546862" lon="10.820467">
        <ele>127.307703</ele>
        <time>2026-05-07T01:49:57.730Z</time>
      </trkpt>
      <trkpt lat="43.546918" lon="10.820371">
        <ele>128.130401</ele>
        <time>2026-05-07T01:50:05.067Z</time>
      </trkpt>
      <trkpt lat="43.547133" lon="10.820365">
        <ele>130.111156</ele>
        <time>2026-05-07T01:50:22.643Z</time>
      </trkpt>
      <trkpt lat="43.547762" lon="10.821251">
        <ele>138.390914</ele>
        <time>2026-05-07T01:51:33.361Z</time>
      </trkpt>
      <trkpt lat="43.548401" lon="10.822101">
        <ele>140.914802</ele>
        <time>2026-05-07T01:52:27.001Z</time>
      </trkpt>
      <trkpt lat="43.548729" lon="10.822379">
        <ele>141.970210</ele>
        <time>2026-05-07T01:52:42.744Z</time>
      </trkpt>
      <trkpt lat="43.550294" lon="10.822776">
        <ele>139.855118</ele>
        <time>2026-05-07T01:53:25.040Z</time>
      </trkpt>
      <trkpt lat="43.550423" lon="10.822809">
        <ele>139.406343</ele>
        <time>2026-05-07T01:53:28.305Z</time>
      </trkpt>
      <trkpt lat="43.551094" lon="10.822940">
        <ele>136.865319</ele>
        <time>2026-05-07T01:53:44.838Z</time>
      </trkpt>
      <trkpt lat="43.551299" lon="10.822929">
        <ele>135.419072</ele>
        <time>2026-05-07T01:53:49.746Z</time>
      </trkpt>
      <trkpt lat="43.551497" lon="10.822809">
        <ele>133.894548</ele>
        <time>2026-05-07T01:53:54.853Z</time>
      </trkpt>
      <trkpt lat="43.555428" lon="10.815758">
        <ele>88.590056</ele>
        <time>2026-05-07T01:56:20.739Z</time>
      </trkpt>
      <trkpt lat="43.555529" lon="10.815646">
        <ele>87.688866</ele>
        <time>2026-05-07T01:56:23.722Z</time>
      </trkpt>
      <trkpt lat="43.556835" lon="10.815182">
        <ele>80.884656</ele>
        <time>2026-05-07T01:56:55.583Z</time>
      </trkpt>
      <trkpt lat="43.557036" lon="10.815173">
        <ele>79.912716</ele>
        <time>2026-05-07T01:57:00.466Z</time>
      </trkpt>
      <trkpt lat="43.557906" lon="10.815348">
        <ele>78.072595</ele>
        <time>2026-05-07T01:57:23.680Z</time>
      </trkpt>
      <trkpt lat="43.557987" lon="10.815364">
        <ele>78.075151</ele>
        <time>2026-05-07T01:57:26.066Z</time>
      </trkpt>
      <trkpt lat="43.559383" lon="10.815695">
        <ele>78.424214</ele>
        <time>2026-05-07T01:58:21.155Z</time>
      </trkpt>
      <trkpt lat="43.559590" lon="10.815780">
        <ele>78.768750</ele>
        <time>2026-05-07T01:58:30.720Z</time>
      </trkpt>
      <trkpt lat="43.560699" lon="10.816855">
        <ele>80.930781</ele>
        <time>2026-05-07T01:59:25.771Z</time>
      </trkpt>
      <trkpt lat="43.560871" lon="10.817067">
        <ele>81.019283</ele>
        <time>2026-05-07T01:59:34.398Z</time>
      </trkpt>
      <trkpt lat="43.561907" lon="10.818879">
        <ele>81.244834</ele>
        <time>2026-05-07T02:00:28.710Z</time>
      </trkpt>
      <trkpt lat="43.562119" lon="10.819170">
        <ele>80.952858</ele>
        <time>2026-05-07T02:00:37.018Z</time>
      </trkpt>
      <trkpt lat="43.562252" lon="10.819248">
        <ele>80.811748</ele>
        <time>2026-05-07T02:00:40.982Z</time>
      </trkpt>
      <trkpt lat="43.562394" lon="10.819240">
        <ele>80.672975</ele>
        <time>2026-05-07T02:00:44.824Z</time>
      </trkpt>
      <trkpt lat="43.562762" lon="10.819036">
        <ele>80.285728</ele>
        <time>2026-05-07T02:00:55.593Z</time>
      </trkpt>
      <trkpt lat="43.563069" lon="10.818800">
        <ele>79.942583</ele>
        <time>2026-05-07T02:01:05.350Z</time>
      </trkpt>
      <trkpt lat="43.563196" lon="10.818710">
        <ele>79.803177</ele>
        <time>2026-05-07T02:01:09.533Z</time>
      </trkpt>
      <trkpt lat="43.563359" lon="10.818611">
        <ele>79.629281</ele>
        <time>2026-05-07T02:01:14.959Z</time>
      </trkpt>
      <trkpt lat="43.563563" lon="10.818534">
        <ele>80.180005</ele>
        <time>2026-05-07T02:01:21.927Z</time>
      </trkpt>
      <trkpt lat="43.563696" lon="10.818551">
        <ele>80.775529</ele>
        <time>2026-05-07T02:01:26.838Z</time>
      </trkpt>
      <trkpt lat="43.563845" lon="10.818652">
        <ele>81.515662</ele>
        <time>2026-05-07T02:01:33.665Z</time>
      </trkpt>
      <trkpt lat="43.564347" lon="10.819727">
        <ele>85.647377</ele>
        <time>2026-05-07T02:02:15.552Z</time>
      </trkpt>
      <trkpt lat="43.565085" lon="10.820700">
        <ele>92.323481</ele>
        <time>2026-05-07T02:03:16.309Z</time>
      </trkpt>
      <trkpt lat="43.565344" lon="10.821006">
        <ele>95.076896</ele>
        <time>2026-05-07T02:03:37.474Z</time>
      </trkpt>
      <trkpt lat="43.565579" lon="10.821163">
        <ele>97.185396</ele>
        <time>2026-05-07T02:03:53.561Z</time>
      </trkpt>
      <trkpt lat="43.565893" lon="10.821288">
        <ele>99.824601</ele>
        <time>2026-05-07T02:04:13.433Z</time>
      </trkpt>
      <trkpt lat="43.567102" lon="10.821649">
        <ele>109.915766</ele>
        <time>2026-05-07T02:05:31.789Z</time>
      </trkpt>
      <trkpt lat="43.568004" lon="10.821885">
        <ele>117.287038</ele>
        <time>2026-05-07T02:06:27.871Z</time>
      </trkpt>
      <trkpt lat="43.568152" lon="10.821959">
        <ele>118.276789</ele>
        <time>2026-05-07T02:06:36.589Z</time>
      </trkpt>
      <trkpt lat="43.568252" lon="10.822141">
        <ele>119.317374</ele>
        <time>2026-05-07T02:06:45.461Z</time>
      </trkpt>
      <trkpt lat="43.568318" lon="10.822387">
        <ele>120.512443</ele>
        <time>2026-05-07T02:06:55.120Z</time>
      </trkpt>
      <trkpt lat="43.568437" lon="10.824075">
        <ele>128.217525</ele>
        <time>2026-05-07T02:07:55.865Z</time>
      </trkpt>
      <trkpt lat="43.568518" lon="10.824525">
        <ele>129.917793</ele>
        <time>2026-05-07T02:08:12.196Z</time>
      </trkpt>
      <trkpt lat="43.568566" lon="10.824981">
        <ele>131.607458</ele>
        <time>2026-05-07T02:08:27.984Z</time>
      </trkpt>
      <trkpt lat="43.568646" lon="10.825162">
        <ele>132.384912</ele>
        <time>2026-05-07T02:08:35.057Z</time>
      </trkpt>
      <trkpt lat="43.568791" lon="10.824918">
        <ele>133.542083</ele>
        <time>2026-05-07T02:08:45.180Z</time>
      </trkpt>
      <trkpt lat="43.568762" lon="10.824738">
        <ele>134.218245</ele>
        <time>2026-05-07T02:08:51.096Z</time>
      </trkpt>
      <trkpt lat="43.568961" lon="10.823709">
        <ele>138.594899</ele>
        <time>2026-05-07T02:09:22.510Z</time>
      </trkpt>
      <trkpt lat="43.569026" lon="10.823229">
        <ele>141.332740</ele>
        <time>2026-05-07T02:09:36.229Z</time>
      </trkpt>
      <trkpt lat="43.569105" lon="10.822112">
        <ele>147.625238</ele>
        <time>2026-05-07T02:10:24.634Z</time>
      </trkpt>
      <trkpt lat="43.569088" lon="10.821869">
        <ele>148.994012</ele>
        <time>2026-05-07T02:10:37.737Z</time>
      </trkpt>
      <trkpt lat="43.568884" lon="10.820663">
        <ele>156.473723</ele>
        <time>2026-05-07T02:11:47.138Z</time>
      </trkpt>
      <trkpt lat="43.568891" lon="10.820485">
        <ele>157.585147</ele>
        <time>2026-05-07T02:11:56.830Z</time>
      </trkpt>
      <trkpt lat="43.569023" lon="10.820059">
        <ele>160.473849</ele>
        <time>2026-05-07T02:12:20.364Z</time>
      </trkpt>
      <trkpt lat="43.569471" lon="10.819116">
        <ele>166.875804</ele>
        <time>2026-05-07T02:13:00.647Z</time>
      </trkpt>
      <trkpt lat="43.569507" lon="10.818798">
        <ele>167.442310</ele>
        <time>2026-05-07T02:13:08.914Z</time>
      </trkpt>
      <trkpt lat="43.569478" lon="10.818530">
        <ele>167.919252</ele>
        <time>2026-05-07T02:13:15.042Z</time>
      </trkpt>
      <trkpt lat="43.569431" lon="10.818364">
        <ele>168.232947</ele>
        <time>2026-05-07T02:13:19.007Z</time>
      </trkpt>
      <trkpt lat="43.568921" lon="10.817122">
        <ele>170.745687</ele>
        <time>2026-05-07T02:13:47.577Z</time>
      </trkpt>
      <trkpt lat="43.568273" lon="10.815734">
        <ele>171.455649</ele>
        <time>2026-05-07T02:14:14.123Z</time>
      </trkpt>
      <trkpt lat="43.568189" lon="10.815388">
        <ele>171.566411</ele>
        <time>2026-05-07T02:14:18.624Z</time>
      </trkpt>
      <trkpt lat="43.568014" lon="10.813851">
        <ele>171.921857</ele>
        <time>2026-05-07T02:14:41.362Z</time>
      </trkpt>
      <trkpt lat="43.568009" lon="10.813665">
        <ele>171.955375</ele>
        <time>2026-05-07T02:14:44.796Z</time>
      </trkpt>
      <trkpt lat="43.568024" lon="10.813498">
        <ele>171.985678</ele>
        <time>2026-05-07T02:14:47.831Z</time>
      </trkpt>
      <trkpt lat="43.568073" lon="10.813304">
        <ele>172.022675</ele>
        <time>2026-05-07T02:14:51.548Z</time>
      </trkpt>
      <trkpt lat="43.568231" lon="10.812910">
        <ele>172.103768</ele>
        <time>2026-05-07T02:14:59.548Z</time>
      </trkpt>
      <trkpt lat="43.568225" lon="10.812686">
        <ele>172.144133</ele>
        <time>2026-05-07T02:15:03.467Z</time>
      </trkpt>
      <trkpt lat="43.567779" lon="10.810979">
        <ele>169.939923</ele>
        <time>2026-05-07T02:15:24.861Z</time>
      </trkpt>
      <trkpt lat="43.567743" lon="10.810704">
        <ele>169.522682</ele>
        <time>2026-05-07T02:15:27.761Z</time>
      </trkpt>
      <trkpt lat="43.567788" lon="10.810541">
        <ele>169.262245</ele>
        <time>2026-05-07T02:15:29.585Z</time>
      </trkpt>
      <trkpt lat="43.567991" lon="10.810128">
        <ele>168.517112</ele>
        <time>2026-05-07T02:15:34.731Z</time>
      </trkpt>
      <trkpt lat="43.568072" lon="10.810016">
        <ele>168.335697</ele>
        <time>2026-05-07T02:15:36.334Z</time>
      </trkpt>
      <trkpt lat="43.568196" lon="10.809933">
        <ele>168.125443</ele>
        <time>2026-05-07T02:15:38.248Z</time>
      </trkpt>
      <trkpt lat="43.568457" lon="10.809877">
        <ele>167.722467</ele>
        <time>2026-05-07T02:15:41.873Z</time>
      </trkpt>
      <trkpt lat="43.568558" lon="10.809791">
        <ele>167.541412</ele>
        <time>2026-05-07T02:15:43.519Z</time>
      </trkpt>
      <trkpt lat="43.568664" lon="10.809656">
        <ele>167.321362</ele>
        <time>2026-05-07T02:15:45.548Z</time>
      </trkpt>
      <trkpt lat="43.569074" lon="10.808998">
        <ele>166.362036</ele>
        <time>2026-05-07T02:15:55.516Z</time>
      </trkpt>
      <trkpt lat="43.569356" lon="10.808709">
        <ele>165.826170</ele>
        <time>2026-05-07T02:16:03.850Z</time>
      </trkpt>
      <trkpt lat="43.569503" lon="10.808641">
        <ele>166.186141</ele>
        <time>2026-05-07T02:16:08.579Z</time>
      </trkpt>
      <trkpt lat="43.569613" lon="10.808633">
        <ele>166.650959</ele>
        <time>2026-05-07T02:16:12.183Z</time>
      </trkpt>
      <trkpt lat="43.570054" lon="10.808845">
        <ele>168.621521</ele>
        <time>2026-05-07T02:16:31.090Z</time>
      </trkpt>
      <trkpt lat="43.570173" lon="10.808867">
        <ele>169.128157</ele>
        <time>2026-05-07T02:16:36.903Z</time>
      </trkpt>
      <trkpt lat="43.570307" lon="10.808843">
        <ele>169.698346</ele>
        <time>2026-05-07T02:16:43.674Z</time>
      </trkpt>
      <trkpt lat="43.570425" lon="10.808761">
        <ele>170.255829</ele>
        <time>2026-05-07T02:16:50.531Z</time>
      </trkpt>
      <trkpt lat="43.570530" lon="10.808635">
        <ele>170.842951</ele>
        <time>2026-05-07T02:16:57.738Z</time>
      </trkpt>
      <trkpt lat="43.571082" lon="10.807730">
        <ele>174.678930</ele>
        <time>2026-05-07T02:17:34.456Z</time>
      </trkpt>
      <trkpt lat="43.571145" lon="10.807545">
        <ele>175.425991</ele>
        <time>2026-05-07T02:17:39.254Z</time>
      </trkpt>
      <trkpt lat="43.571175" lon="10.807380">
        <ele>176.047697</ele>
        <time>2026-05-07T02:17:42.989Z</time>
      </trkpt>
      <trkpt lat="43.571176" lon="10.807215">
        <ele>176.650727</ele>
        <time>2026-05-07T02:17:46.651Z</time>
      </trkpt>
      <trkpt lat="43.571044" lon="10.806407">
        <ele>179.677782</ele>
        <time>2026-05-07T02:18:09.693Z</time>
      </trkpt>
      <trkpt lat="43.570981" lon="10.805871">
        <ele>181.662261</ele>
        <time>2026-05-07T02:18:29.415Z</time>
      </trkpt>
      <trkpt lat="43.570989" lon="10.805643">
        <ele>182.542271</ele>
        <time>2026-05-07T02:18:39.089Z</time>
      </trkpt>
      <trkpt lat="43.571084" lon="10.804794">
        <ele>187.354305</ele>
        <time>2026-05-07T02:19:20.773Z</time>
      </trkpt>
      <trkpt lat="43.571086" lon="10.804343">
        <ele>189.880616</ele>
        <time>2026-05-07T02:19:43.189Z</time>
      </trkpt>
      <trkpt lat="43.571056" lon="10.804130">
        <ele>191.096064</ele>
        <time>2026-05-07T02:19:53.571Z</time>
      </trkpt>
      <trkpt lat="43.571002" lon="10.803918">
        <ele>192.354827</ele>
        <time>2026-05-07T02:20:03.762Z</time>
      </trkpt>
      <trkpt lat="43.570917" lon="10.803760">
        <ele>193.457163</ele>
        <time>2026-05-07T02:20:12.161Z</time>
      </trkpt>
      <trkpt lat="43.570820" lon="10.803662">
        <ele>194.386541</ele>
        <time>2026-05-07T02:20:18.924Z</time>
      </trkpt>
      <trkpt lat="43.570123" lon="10.803218">
        <ele>195.864857</ele>
        <time>2026-05-07T02:20:50.287Z</time>
      </trkpt>
      <trkpt lat="43.570007" lon="10.803017">
        <ele>195.702582</ele>
        <time>2026-05-07T02:20:53.940Z</time>
      </trkpt>
      <trkpt lat="43.569829" lon="10.802583">
        <ele>195.387649</ele>
        <time>2026-05-07T02:20:59.487Z</time>
      </trkpt>
      <trkpt lat="43.569713" lon="10.802341">
        <ele>195.204410</ele>
        <time>2026-05-07T02:21:02.602Z</time>
      </trkpt>
      <trkpt lat="43.569622" lon="10.802137">
        <ele>195.053126</ele>
        <time>2026-05-07T02:21:05.125Z</time>
      </trkpt>
      <trkpt lat="43.569522" lon="10.801934">
        <ele>194.898109</ele>
        <time>2026-05-07T02:21:07.667Z</time>
      </trkpt>
      <trkpt lat="43.569485" lon="10.801888">
        <ele>194.854706</ele>
        <time>2026-05-07T02:21:08.374Z</time>
      </trkpt>
      <trkpt lat="43.569415" lon="10.801825">
        <ele>194.781870</ele>
        <time>2026-05-07T02:21:09.540Z</time>
      </trkpt>
      <trkpt lat="43.569313" lon="10.801792">
        <ele>194.422695</ele>
        <time>2026-05-07T02:21:10.995Z</time>
      </trkpt>
      <trkpt lat="43.568902" lon="10.801925">
        <ele>192.359698</ele>
        <time>2026-05-07T02:21:16.760Z</time>
      </trkpt>
      <trkpt lat="43.568300" lon="10.801922">
        <ele>189.417747</ele>
        <time>2026-05-07T02:21:25.057Z</time>
      </trkpt>
      <trkpt lat="43.567880" lon="10.801901">
        <ele>187.363890</ele>
        <time>2026-05-07T02:21:31.141Z</time>
      </trkpt>
      <trkpt lat="43.567594" lon="10.801855">
        <ele>185.957965</ele>
        <time>2026-05-07T02:21:35.542Z</time>
      </trkpt>
      <trkpt lat="43.567331" lon="10.801778">
        <ele>185.396520</ele>
        <time>2026-05-07T02:21:39.749Z</time>
      </trkpt>
      <trkpt lat="43.566944" lon="10.801600">
        <ele>184.544650</ele>
        <time>2026-05-07T02:21:46.244Z</time>
      </trkpt>
      <trkpt lat="43.565896" lon="10.800914">
        <ele>182.242957</ele>
        <time>2026-05-07T02:22:05.418Z</time>
      </trkpt>
      <trkpt lat="43.565828" lon="10.800860">
        <ele>182.324964</ele>
        <time>2026-05-07T02:22:06.921Z</time>
      </trkpt>
      <trkpt lat="43.565668" lon="10.800631">
        <ele>182.565910</ele>
        <time>2026-05-07T02:22:11.513Z</time>
      </trkpt>
      <trkpt lat="43.565560" lon="10.800494">
        <ele>182.719245</ele>
        <time>2026-05-07T02:22:15.025Z</time>
      </trkpt>
      <trkpt lat="43.565399" lon="10.800412">
        <ele>182.898632</ele>
        <time>2026-05-07T02:22:19.564Z</time>
      </trkpt>
      <trkpt lat="43.565131" lon="10.800430">
        <ele>183.179102</ele>
        <time>2026-05-07T02:22:27.741Z</time>
      </trkpt>
      <trkpt lat="43.564920" lon="10.800397">
        <ele>183.401071</ele>
        <time>2026-05-07T02:22:35.260Z</time>
      </trkpt>
      <trkpt lat="43.564261" lon="10.800061">
        <ele>183.880804</ele>
        <time>2026-05-07T02:22:59.614Z</time>
      </trkpt>
      <trkpt lat="43.563928" lon="10.799816">
        <ele>182.364503</ele>
        <time>2026-05-07T02:23:08.643Z</time>
      </trkpt>
      <trkpt lat="43.563881" lon="10.799766">
        <ele>182.126055</ele>
        <time>2026-05-07T02:23:09.817Z</time>
      </trkpt>
      <trkpt lat="43.563836" lon="10.799661">
        <ele>181.770872</ele>
        <time>2026-05-07T02:23:11.452Z</time>
      </trkpt>
      <trkpt lat="43.563787" lon="10.799449">
        <ele>181.122981</ele>
        <time>2026-05-07T02:23:14.233Z</time>
      </trkpt>
      <trkpt lat="43.563693" lon="10.799206">
        <ele>180.320966</ele>
        <time>2026-05-07T02:23:17.408Z</time>
      </trkpt>
      <trkpt lat="43.563586" lon="10.799068">
        <ele>179.732505</ele>
        <time>2026-05-07T02:23:19.623Z</time>
      </trkpt>
      <trkpt lat="43.563286" lon="10.798799">
        <ele>178.294973</ele>
        <time>2026-05-07T02:23:24.729Z</time>
      </trkpt>
      <trkpt lat="43.562252" lon="10.797828">
        <ele>169.983005</ele>
        <time>2026-05-07T02:23:41.860Z</time>
      </trkpt>
      <trkpt lat="43.562151" lon="10.797758">
        <ele>169.112673</ele>
        <time>2026-05-07T02:23:43.460Z</time>
      </trkpt>
      <trkpt lat="43.561405" lon="10.797508">
        <ele>163.201090</ele>
        <time>2026-05-07T02:23:54.599Z</time>
      </trkpt>
      <trkpt lat="43.561001" lon="10.797453">
        <ele>160.594407</ele>
        <time>2026-05-07T02:24:00.697Z</time>
      </trkpt>
      <trkpt lat="43.560605" lon="10.797458">
        <ele>158.085468</ele>
        <time>2026-05-07T02:24:06.576Z</time>
      </trkpt>
      <trkpt lat="43.560403" lon="10.797397">
        <ele>156.775426</ele>
        <time>2026-05-07T02:24:09.588Z</time>
      </trkpt>
      <trkpt lat="43.560213" lon="10.797231">
        <ele>155.350725</ele>
        <time>2026-05-07T02:24:12.818Z</time>
      </trkpt>
      <trkpt lat="43.559509" lon="10.796039">
        <ele>149.040060</ele>
        <time>2026-05-07T02:24:28.778Z</time>
      </trkpt>
      <trkpt lat="43.559359" lon="10.795851">
        <ele>148.046054</ele>
        <time>2026-05-07T02:24:31.765Z</time>
      </trkpt>
      <trkpt lat="43.558848" lon="10.795372">
        <ele>145.015740</ele>
        <time>2026-05-07T02:24:41.250Z</time>
      </trkpt>
      <trkpt lat="43.558718" lon="10.795215">
        <ele>144.168300</ele>
        <time>2026-05-07T02:24:44.068Z</time>
      </trkpt>
      <trkpt lat="43.558361" lon="10.794529">
        <ele>142.307511</ele>
        <time>2026-05-07T02:24:54.442Z</time>
      </trkpt>
      <trkpt lat="43.558222" lon="10.794175">
        <ele>141.884271</ele>
        <time>2026-05-07T02:24:59.715Z</time>
      </trkpt>
      <trkpt lat="43.558168" lon="10.793676">
        <ele>141.353905</ele>
        <time>2026-05-07T02:25:06.609Z</time>
      </trkpt>
      <trkpt lat="43.557829" lon="10.792345">
        <ele>140.434507</ele>
        <time>2026-05-07T02:25:25.994Z</time>
      </trkpt>
      <trkpt lat="43.557822" lon="10.792234">
        <ele>140.532528</ele>
        <time>2026-05-07T02:25:27.664Z</time>
      </trkpt>
      <trkpt lat="43.557849" lon="10.792069">
        <ele>140.681342</ele>
        <time>2026-05-07T02:25:30.315Z</time>
      </trkpt>
      <trkpt lat="43.557850" lon="10.792067">
        <ele>140.683479</ele>
        <time>2026-05-07T02:25:30.354Z</time>
      </trkpt>
      <trkpt lat="43.558000" lon="10.791745">
        <ele>141.020239</ele>
        <time>2026-05-07T02:25:37.200Z</time>
      </trkpt>
      <trkpt lat="43.558035" lon="10.791617">
        <ele>141.140596</ele>
        <time>2026-05-07T02:25:39.938Z</time>
      </trkpt>
      <trkpt lat="43.558075" lon="10.791387">
        <ele>141.348683</ele>
        <time>2026-05-07T02:25:45.006Z</time>
      </trkpt>
      <trkpt lat="43.558059" lon="10.791061">
        <ele>141.636137</ele>
        <time>2026-05-07T02:25:52.739Z</time>
      </trkpt>
      <trkpt lat="43.557946" lon="10.790764">
        <ele>141.931244</ele>
        <time>2026-05-07T02:26:01.115Z</time>
      </trkpt>
      <trkpt lat="43.557471" lon="10.789834">
        <ele>143.471490</ele>
        <time>2026-05-07T02:26:28.913Z</time>
      </trkpt>
      <trkpt lat="43.557402" lon="10.789620">
        <ele>143.872178</ele>
        <time>2026-05-07T02:26:34.025Z</time>
      </trkpt>
      <trkpt lat="43.557361" lon="10.789184">
        <ele>144.624293</ele>
        <time>2026-05-07T02:26:43.543Z</time>
      </trkpt>
      <trkpt lat="43.557320" lon="10.788985">
        <ele>144.978212</ele>
        <time>2026-05-07T02:26:48.155Z</time>
      </trkpt>
      <trkpt lat="43.557006" lon="10.788224">
        <ele>146.476282</ele>
        <time>2026-05-07T02:27:09.279Z</time>
      </trkpt>
      <trkpt lat="43.556781" lon="10.787514">
        <ele>147.795497</ele>
        <time>2026-05-07T02:27:31.380Z</time>
      </trkpt>
      <trkpt lat="43.556696" lon="10.787313">
        <ele>148.191467</ele>
        <time>2026-05-07T02:27:37.727Z</time>
      </trkpt>
      <trkpt lat="43.556295" lon="10.786632">
        <ele>149.684467</ele>
        <time>2026-05-07T02:27:58.874Z</time>
      </trkpt>
      <trkpt lat="43.556104" lon="10.786350">
        <ele>150.341228</ele>
        <time>2026-05-07T02:28:06.604Z</time>
      </trkpt>
      <trkpt lat="43.555908" lon="10.786126">
        <ele>151.042073</ele>
        <time>2026-05-07T02:28:13.251Z</time>
      </trkpt>
      <trkpt lat="43.555694" lon="10.785944">
        <ele>152.193589</ele>
        <time>2026-05-07T02:28:20.181Z</time>
      </trkpt>
      <trkpt lat="43.555647" lon="10.785859">
        <ele>152.548517</ele>
        <time>2026-05-07T02:28:22.345Z</time>
      </trkpt>
      <trkpt lat="43.555630" lon="10.785650">
        <ele>153.246691</ele>
        <time>2026-05-07T02:28:26.783Z</time>
      </trkpt>
      <trkpt lat="43.555735" lon="10.785192">
        <ele>154.841375</ele>
        <time>2026-05-07T02:28:38.365Z</time>
      </trkpt>
      <trkpt lat="43.555736" lon="10.785087">
        <ele>155.189973</ele>
        <time>2026-05-07T02:28:41.442Z</time>
      </trkpt>
      <trkpt lat="43.555720" lon="10.784968">
        <ele>155.591758</ele>
        <time>2026-05-07T02:28:45.261Z</time>
      </trkpt>
      <trkpt lat="43.555475" lon="10.784236">
        <ele>158.268420</ele>
        <time>2026-05-07T02:29:18.835Z</time>
      </trkpt>
      <trkpt lat="43.555451" lon="10.784079">
        <ele>158.801083</ele>
        <time>2026-05-07T02:29:26.463Z</time>
      </trkpt>
      <trkpt lat="43.555529" lon="10.782981">
        <ele>163.583401</ele>
        <time>2026-05-07T02:30:20.598Z</time>
      </trkpt>
      <trkpt lat="43.555655" lon="10.782064">
        <ele>167.703978</ele>
        <time>2026-05-07T02:30:54.861Z</time>
      </trkpt>
      <trkpt lat="43.555788" lon="10.781657">
        <ele>169.675060</ele>
        <time>2026-05-07T02:31:05.851Z</time>
      </trkpt>
      <trkpt lat="43.555840" lon="10.781327">
        <ele>170.433674</ele>
        <time>2026-05-07T02:31:11.977Z</time>
      </trkpt>
      <trkpt lat="43.555796" lon="10.780962">
        <ele>171.017360</ele>
        <time>2026-05-07T02:31:18.005Z</time>
      </trkpt>
      <trkpt lat="43.555431" lon="10.779865">
        <ele>172.921512</ele>
        <time>2026-05-07T02:31:43.148Z</time>
      </trkpt>
      <trkpt lat="43.555411" lon="10.779709">
        <ele>173.171419</ele>
        <time>2026-05-07T02:31:47.459Z</time>
      </trkpt>
      <trkpt lat="43.555403" lon="10.779203">
        <ele>173.914089</ele>
        <time>2026-05-07T02:32:01.700Z</time>
      </trkpt>
      <trkpt lat="43.555409" lon="10.778662">
        <ele>173.079296</ele>
        <time>2026-05-07T02:32:15.227Z</time>
      </trkpt>
      <trkpt lat="43.555330" lon="10.778000">
        <ele>172.044158</ele>
        <time>2026-05-07T02:32:27.865Z</time>
      </trkpt>
      <trkpt lat="43.554951" lon="10.777612">
        <ele>171.039462</ele>
        <time>2026-05-07T02:32:35.282Z</time>
      </trkpt>
      <trkpt lat="43.554909" lon="10.777523">
        <ele>170.875599</ele>
        <time>2026-05-07T02:32:36.321Z</time>
      </trkpt>
      <trkpt lat="43.554885" lon="10.777316">
        <ele>170.552160</ele>
        <time>2026-05-07T02:32:38.317Z</time>
      </trkpt>
      <trkpt lat="43.554892" lon="10.777153">
        <ele>170.300228</ele>
        <time>2026-05-07T02:32:39.839Z</time>
      </trkpt>
      <trkpt lat="43.554958" lon="10.776767">
        <ele>168.255272</ele>
        <time>2026-05-07T02:32:43.483Z</time>
      </trkpt>
      <trkpt lat="43.554954" lon="10.776627">
        <ele>167.308616</ele>
        <time>2026-05-07T02:32:44.757Z</time>
      </trkpt>
      <trkpt lat="43.554890" lon="10.776385">
        <ele>165.568055</ele>
        <time>2026-05-07T02:32:47.102Z</time>
      </trkpt>
      <trkpt lat="43.554685" lon="10.776009">
        <ele>162.388925</ele>
        <time>2026-05-07T02:32:51.399Z</time>
      </trkpt>
      <trkpt lat="43.554460" lon="10.775652">
        <ele>159.192266</ele>
        <time>2026-05-07T02:32:55.764Z</time>
      </trkpt>
      <trkpt lat="43.554165" lon="10.775347">
        <ele>155.755547</ele>
        <time>2026-05-07T02:33:00.475Z</time>
      </trkpt>
      <trkpt lat="43.554117" lon="10.775253">
        <ele>154.978597</ele>
        <time>2026-05-07T02:33:01.534Z</time>
      </trkpt>
      <trkpt lat="43.554076" lon="10.775108">
        <ele>153.926951</ele>
        <time>2026-05-07T02:33:02.989Z</time>
      </trkpt>
      <trkpt lat="43.554076" lon="10.774959">
        <ele>153.070913</ele>
        <time>2026-05-07T02:33:04.410Z</time>
      </trkpt>
      <trkpt lat="43.554125" lon="10.774509">
        <ele>151.091026</ele>
        <time>2026-05-07T02:33:08.840Z</time>
      </trkpt>
      <trkpt lat="43.554177" lon="10.774137">
        <ele>149.442656</ele>
        <time>2026-05-07T02:33:12.575Z</time>
      </trkpt>
      <trkpt lat="43.554177" lon="10.773746">
        <ele>147.741451</ele>
        <time>2026-05-07T02:33:16.454Z</time>
      </trkpt>
      <trkpt lat="43.554105" lon="10.771519">
        <ele>140.508214</ele>
        <time>2026-05-07T02:33:39.639Z</time>
      </trkpt>
      <trkpt lat="43.554130" lon="10.771254">
        <ele>139.982222</ele>
        <time>2026-05-07T02:33:42.767Z</time>
      </trkpt>
      <trkpt lat="43.554167" lon="10.771147">
        <ele>139.748873</ele>
        <time>2026-05-07T02:33:44.185Z</time>
      </trkpt>
      <trkpt lat="43.554644" lon="10.769775">
        <ele>138.202757</ele>
        <time>2026-05-07T02:34:03.373Z</time>
      </trkpt>
      <trkpt lat="43.554924" lon="10.769357">
        <ele>138.873093</ele>
        <time>2026-05-07T02:34:14.299Z</time>
      </trkpt>
      <trkpt lat="43.556065" lon="10.767925">
        <ele>141.234178</ele>
        <time>2026-05-07T02:35:07.682Z</time>
      </trkpt>
      <trkpt lat="43.556053" lon="10.767857">
        <ele>141.301564</ele>
        <time>2026-05-07T02:35:09.595Z</time>
      </trkpt>
      <trkpt lat="43.555861" lon="10.767476">
        <ele>141.748374</ele>
        <time>2026-05-07T02:35:22.297Z</time>
      </trkpt>
      <trkpt lat="43.555750" lon="10.767166">
        <ele>142.081296</ele>
        <time>2026-05-07T02:35:30.239Z</time>
      </trkpt>
      <trkpt lat="43.555675" lon="10.766792">
        <ele>142.454927</ele>
        <time>2026-05-07T02:35:36.785Z</time>
      </trkpt>
      <trkpt lat="43.555700" lon="10.766718">
        <ele>142.533538</ele>
        <time>2026-05-07T02:35:38.030Z</time>
      </trkpt>
      <trkpt lat="43.555778" lon="10.766637">
        <ele>142.663235</ele>
        <time>2026-05-07T02:35:39.738Z</time>
      </trkpt>
      <trkpt lat="43.556001" lon="10.766580">
        <ele>142.964550</ele>
        <time>2026-05-07T02:35:43.562Z</time>
      </trkpt>
      <trkpt lat="43.556248" lon="10.766479">
        <ele>141.505554</ele>
        <time>2026-05-07T02:35:47.687Z</time>
      </trkpt>
      <trkpt lat="43.556315" lon="10.766420">
        <ele>141.041728</ele>
        <time>2026-05-07T02:35:48.930Z</time>
      </trkpt>
      <trkpt lat="43.556836" lon="10.765826">
        <ele>137.097786</ele>
        <time>2026-05-07T02:35:58.667Z</time>
      </trkpt>
      <trkpt lat="43.556926" lon="10.765637">
        <ele>136.141373</ele>
        <time>2026-05-07T02:36:00.813Z</time>
      </trkpt>
      <trkpt lat="43.557214" lon="10.764691">
        <ele>131.674201</ele>
        <time>2026-05-07T02:36:10.348Z</time>
      </trkpt>
      <trkpt lat="43.557276" lon="10.764560">
        <ele>130.887149</ele>
        <time>2026-05-07T02:36:11.816Z</time>
      </trkpt>
      <trkpt lat="43.557352" lon="10.764461">
        <ele>130.161681</ele>
        <time>2026-05-07T02:36:13.151Z</time>
      </trkpt>
      <trkpt lat="43.557629" lon="10.764307">
        <ele>128.088743</ele>
        <time>2026-05-07T02:36:17.027Z</time>
      </trkpt>
      <trkpt lat="43.557675" lon="10.764209">
        <ele>127.501403</ele>
        <time>2026-05-07T02:36:18.156Z</time>
      </trkpt>
      <trkpt lat="43.557687" lon="10.764097">
        <ele>126.931890</ele>
        <time>2026-05-07T02:36:19.224Z</time>
      </trkpt>
      <trkpt lat="43.557576" lon="10.763554">
        <ele>124.093867</ele>
        <time>2026-05-07T02:36:24.733Z</time>
      </trkpt>
      <trkpt lat="43.557569" lon="10.763416">
        <ele>123.397991</ele>
        <time>2026-05-07T02:36:26.127Z</time>
      </trkpt>
      <trkpt lat="43.557621" lon="10.762563">
        <ele>119.374709</ele>
        <time>2026-05-07T02:36:35.047Z</time>
      </trkpt>
      <trkpt lat="43.557474" lon="10.761725">
        <ele>116.400796</ele>
        <time>2026-05-07T02:36:44.260Z</time>
      </trkpt>
      <trkpt lat="43.557274" lon="10.760764">
        <ele>112.952115</ele>
        <time>2026-05-07T02:36:54.765Z</time>
      </trkpt>
      <trkpt lat="43.557067" lon="10.759744">
        <ele>108.507348</ele>
        <time>2026-05-07T02:37:05.354Z</time>
      </trkpt>
      <trkpt lat="43.557053" lon="10.759593">
        <ele>107.787409</ele>
        <time>2026-05-07T02:37:06.844Z</time>
      </trkpt>
      <trkpt lat="43.557137" lon="10.759368">
        <ele>106.590424</ele>
        <time>2026-05-07T02:37:09.310Z</time>
      </trkpt>
      <trkpt lat="43.557535" lon="10.758834">
        <ele>102.967748</ele>
        <time>2026-05-07T02:37:16.743Z</time>
      </trkpt>
      <trkpt lat="43.557710" lon="10.758479">
        <ele>100.937264</ele>
        <time>2026-05-07T02:37:20.909Z</time>
      </trkpt>
      <trkpt lat="43.557780" lon="10.758247">
        <ele>99.748788</ele>
        <time>2026-05-07T02:37:23.361Z</time>
      </trkpt>
      <trkpt lat="43.557948" lon="10.757265">
        <ele>95.195980</ele>
        <time>2026-05-07T02:37:33.373Z</time>
      </trkpt>
      <trkpt lat="43.557972" lon="10.756882">
        <ele>93.462342</ele>
        <time>2026-05-07T02:37:37.261Z</time>
      </trkpt>
      <trkpt lat="43.557936" lon="10.756680">
        <ele>92.524252</ele>
        <time>2026-05-07T02:37:39.379Z</time>
      </trkpt>
      <trkpt lat="43.557906" lon="10.756510">
        <ele>91.735209</ele>
        <time>2026-05-07T02:37:41.167Z</time>
      </trkpt>
      <trkpt lat="43.557795" lon="10.756209">
        <ele>90.212159</ele>
        <time>2026-05-07T02:37:44.570Z</time>
      </trkpt>
      <trkpt lat="43.557781" lon="10.756028">
        <ele>89.391275</ele>
        <time>2026-05-07T02:37:46.375Z</time>
      </trkpt>
      <trkpt lat="43.557804" lon="10.755937">
        <ele>88.956653</ele>
        <time>2026-05-07T02:37:47.324Z</time>
      </trkpt>
      <trkpt lat="43.558147" lon="10.755187">
        <ele>83.587608</ele>
        <time>2026-05-07T02:37:55.879Z</time>
      </trkpt>
      <trkpt lat="43.558443" lon="10.753754">
        <ele>74.270063</ele>
        <time>2026-05-07T02:38:09.708Z</time>
      </trkpt>
      <trkpt lat="43.558552" lon="10.752803">
        <ele>68.332332</ele>
        <time>2026-05-07T02:38:18.616Z</time>
      </trkpt>
      <trkpt lat="43.558627" lon="10.752525">
        <ele>66.509914</ele>
        <time>2026-05-07T02:38:21.393Z</time>
      </trkpt>
      <trkpt lat="43.558670" lon="10.752434">
        <ele>65.842502</ele>
        <time>2026-05-07T02:38:22.418Z</time>
      </trkpt>
      <trkpt lat="43.558751" lon="10.752357">
        <ele>65.008640</ele>
        <time>2026-05-07T02:38:23.698Z</time>
      </trkpt>
      <trkpt lat="43.559117" lon="10.752161">
        <ele>61.680349</ele>
        <time>2026-05-07T02:38:28.811Z</time>
      </trkpt>
      <trkpt lat="43.559190" lon="10.752029">
        <ele>60.660239</ele>
        <time>2026-05-07T02:38:30.386Z</time>
      </trkpt>
      <trkpt lat="43.559201" lon="10.751924">
        <ele>60.008469</ele>
        <time>2026-05-07T02:38:31.400Z</time>
      </trkpt>
      <trkpt lat="43.559135" lon="10.751078">
        <ele>56.395837</ele>
        <time>2026-05-07T02:38:39.690Z</time>
      </trkpt>
      <trkpt lat="43.559111" lon="10.750986">
        <ele>56.123911</ele>
        <time>2026-05-07T02:38:40.653Z</time>
      </trkpt>
      <trkpt lat="43.558839" lon="10.750442">
        <ele>54.285870</ele>
        <time>2026-05-07T02:38:47.404Z</time>
      </trkpt>
      <trkpt lat="43.557419" lon="10.747756">
        <ele>49.342098</ele>
        <time>2026-05-07T02:39:55.810Z</time>
      </trkpt>
      <trkpt lat="43.556127" lon="10.745230">
        <ele>51.369352</ele>
        <time>2026-05-07T02:41:12.962Z</time>
      </trkpt>
      <trkpt lat="43.556127" lon="10.745230">
        <ele>51.369352</ele>
        <time>2026-05-07T02:41:13.055Z</time>
      </trkpt>
      <trkpt lat="43.556127" lon="10.745230">
        <ele>51.369352</ele>
        <time>2026-05-07T02:41:13.055Z</time>
      </trkpt>
      <trkpt lat="43.555391" lon="10.745287">
        <ele>55.214716</ele>
        <time>2026-05-07T02:41:44.612Z</time>
      </trkpt>
      <trkpt lat="43.554656" lon="10.745344">
        <ele>59.054871</ele>
        <time>2026-05-07T02:42:16.157Z</time>
      </trkpt>
      <trkpt lat="43.553920" lon="10.745402">
        <ele>63.777694</ele>
        <time>2026-05-07T02:42:47.743Z</time>
      </trkpt>
      <trkpt lat="43.553185" lon="10.745459">
        <ele>68.763386</ele>
        <time>2026-05-07T02:43:19.287Z</time>
      </trkpt>
      <trkpt lat="43.552449" lon="10.745516">
        <ele>73.400401</ele>
        <time>2026-05-07T02:43:50.872Z</time>
      </trkpt>
      <trkpt lat="43.552201" lon="10.745558">
        <ele>74.720110</ele>
        <time>2026-05-07T02:44:06.356Z</time>
      </trkpt>
      <trkpt lat="43.551833" lon="10.745514">
        <ele>76.671087</ele>
        <time>2026-05-07T02:44:27.390Z</time>
      </trkpt>
      <trkpt lat="43.551662" lon="10.745537">
        <ele>77.578551</ele>
        <time>2026-05-07T02:44:36.690Z</time>
      </trkpt>
      <trkpt lat="43.551219" lon="10.745659">
        <ele>79.964529</ele>
        <time>2026-05-07T02:45:01.279Z</time>
      </trkpt>
      <trkpt lat="43.551228" lon="10.745518">
        <ele>80.506367</ele>
        <time>2026-05-07T02:45:06.806Z</time>
      </trkpt>
      <trkpt lat="43.551196" lon="10.745432">
        <ele>80.876428</ele>
        <time>2026-05-07T02:45:10.494Z</time>
      </trkpt>
      <trkpt lat="43.550948" lon="10.745439">
        <ele>82.353123</ele>
        <time>2026-05-07T02:45:23.750Z</time>
      </trkpt>
      <trkpt lat="43.550872" lon="10.745365">
        <ele>82.994433</ele>
        <time>2026-05-07T02:45:28.707Z</time>
      </trkpt>
      <trkpt lat="43.550089" lon="10.745589">
        <ele>88.507595</ele>
        <time>2026-05-07T02:46:17.090Z</time>
      </trkpt>
      <trkpt lat="43.550046" lon="10.745656">
        <ele>88.954780</ele>
        <time>2026-05-07T02:46:21.482Z</time>
      </trkpt>
      <trkpt lat="43.550041" lon="10.745736">
        <ele>89.356016</ele>
        <time>2026-05-07T02:46:25.479Z</time>
      </trkpt>
      <trkpt lat="43.550035" lon="10.745834">
        <ele>89.847456</ele>
        <time>2026-05-07T02:46:30.585Z</time>
      </trkpt>
      <trkpt lat="43.550003" lon="10.745889">
        <ele>90.199884</ele>
        <time>2026-05-07T02:46:34.241Z</time>
      </trkpt>
      <trkpt lat="43.548897" lon="10.746714">
        <ele>100.620973</ele>
        <time>2026-05-07T02:48:13.437Z</time>
      </trkpt>
      <trkpt lat="43.546409" lon="10.748572">
        <ele>126.859312</ele>
        <time>2026-05-07T02:51:58.226Z</time>
      </trkpt>
      <trkpt lat="43.546356" lon="10.748595">
        <ele>127.370239</ele>
        <time>2026-05-07T02:52:02.187Z</time>
      </trkpt>
      <trkpt lat="43.546295" lon="10.748580">
        <ele>127.719541</ele>
        <time>2026-05-07T02:52:06.642Z</time>
      </trkpt>
      <trkpt lat="43.545966" lon="10.748171">
        <ele>129.813779</ele>
        <time>2026-05-07T02:52:37.425Z</time>
      </trkpt>
      <trkpt lat="43.545839" lon="10.748190">
        <ele>130.417871</ele>
        <time>2026-05-07T02:52:46.000Z</time>
      </trkpt>
      <trkpt lat="43.545605" lon="10.747947">
        <ele>131.802871</ele>
        <time>2026-05-07T02:53:04.018Z</time>
      </trkpt>
      <trkpt lat="43.545135" lon="10.747603">
        <ele>134.318855</ele>
        <time>2026-05-07T02:53:31.406Z</time>
      </trkpt>
      <trkpt lat="43.544952" lon="10.747415">
        <ele>135.397813</ele>
        <time>2026-05-07T02:53:42.146Z</time>
      </trkpt>
      <trkpt lat="43.543779" lon="10.745672">
        <ele>133.740043</ele>
        <time>2026-05-07T02:54:30.799Z</time>
      </trkpt>
      <trkpt lat="43.543695" lon="10.745273">
        <ele>133.113312</ele>
        <time>2026-05-07T02:54:38.485Z</time>
      </trkpt>
      <trkpt lat="43.543835" lon="10.744579">
        <ele>131.330026</ele>
        <time>2026-05-07T02:54:51.814Z</time>
      </trkpt>
      <trkpt lat="43.543851" lon="10.744257">
        <ele>130.531047</ele>
        <time>2026-05-07T02:54:57.644Z</time>
      </trkpt>
      <trkpt lat="43.543946" lon="10.743692">
        <ele>129.095257</ele>
        <time>2026-05-07T02:55:08.263Z</time>
      </trkpt>
      <trkpt lat="43.543946" lon="10.743182">
        <ele>127.832758</ele>
        <time>2026-05-07T02:55:17.775Z</time>
      </trkpt>
      <trkpt lat="43.543960" lon="10.742806">
        <ele>126.992023</ele>
        <time>2026-05-07T02:55:24.747Z</time>
      </trkpt>
      <trkpt lat="43.544136" lon="10.742236">
        <ele>125.796064</ele>
        <time>2026-05-07T02:55:36.095Z</time>
      </trkpt>
      <trkpt lat="43.544251" lon="10.741698">
        <ele>124.713333</ele>
        <time>2026-05-07T02:55:46.362Z</time>
      </trkpt>
      <trkpt lat="43.544620" lon="10.740678">
        <ele>122.513994</ele>
        <time>2026-05-07T02:56:09.043Z</time>
      </trkpt>
      <trkpt lat="43.544731" lon="10.740421">
        <ele>121.991672</ele>
        <time>2026-05-07T02:56:15.569Z</time>
      </trkpt>
      <trkpt lat="43.545043" lon="10.739840">
        <ele>120.729233</ele>
        <time>2026-05-07T02:56:31.914Z</time>
      </trkpt>
      <trkpt lat="43.545209" lon="10.739378">
        <ele>119.828954</ele>
        <time>2026-05-07T02:56:42.800Z</time>
      </trkpt>
      <trkpt lat="43.545286" lon="10.739254">
        <ele>119.543877</ele>
        <time>2026-05-07T02:56:45.989Z</time>
      </trkpt>
      <trkpt lat="43.545711" lon="10.738845">
        <ele>118.295727</ele>
        <time>2026-05-07T02:56:59.023Z</time>
      </trkpt>
      <trkpt lat="43.545773" lon="10.738665">
        <ele>117.262341</ele>
        <time>2026-05-07T02:57:02.426Z</time>
      </trkpt>
      <trkpt lat="43.545822" lon="10.738405">
        <ele>115.481396</ele>
        <time>2026-05-07T02:57:06.883Z</time>
      </trkpt>
      <trkpt lat="43.545905" lon="10.737961">
        <ele>112.441645</ele>
        <time>2026-05-07T02:57:14.251Z</time>
      </trkpt>
      <trkpt lat="43.546457" lon="10.736518">
        <ele>101.612164</ele>
        <time>2026-05-07T02:57:39.347Z</time>
      </trkpt>
      <trkpt lat="43.546437" lon="10.736251">
        <ele>99.637619</ele>
        <time>2026-05-07T02:57:43.452Z</time>
      </trkpt>
      <trkpt lat="43.546287" lon="10.735543">
        <ele>94.211547</ele>
        <time>2026-05-07T02:57:54.788Z</time>
      </trkpt>
      <trkpt lat="43.546047" lon="10.734863">
        <ele>88.647850</ele>
        <time>2026-05-07T02:58:06.523Z</time>
      </trkpt>
      <trkpt lat="43.545984" lon="10.734517">
        <ele>86.023534</ele>
        <time>2026-05-07T02:58:12.112Z</time>
      </trkpt>
      <trkpt lat="43.545956" lon="10.734358">
        <ele>84.819876</ele>
        <time>2026-05-07T02:58:14.681Z</time>
      </trkpt>
      <trkpt lat="43.545947" lon="10.734136">
        <ele>83.238076</ele>
        <time>2026-05-07T02:58:18.192Z</time>
      </trkpt>
      <trkpt lat="43.545959" lon="10.733909">
        <ele>81.860660</ele>
        <time>2026-05-07T02:58:21.806Z</time>
      </trkpt>
      <trkpt lat="43.546014" lon="10.733578">
        <ele>79.805539</ele>
        <time>2026-05-07T02:58:27.196Z</time>
      </trkpt>
      <trkpt lat="43.546341" lon="10.732411">
        <ele>72.233698</ele>
        <time>2026-05-07T02:58:47.214Z</time>
      </trkpt>
      <trkpt lat="43.546394" lon="10.731954">
        <ele>69.432849</ele>
        <time>2026-05-07T02:58:54.760Z</time>
      </trkpt>
      <trkpt lat="43.546630" lon="10.731015">
        <ele>64.520004</ele>
        <time>2026-05-07T02:59:11.067Z</time>
      </trkpt>
      <trkpt lat="43.546853" lon="10.730584">
        <ele>62.014193</ele>
        <time>2026-05-07T02:59:19.820Z</time>
      </trkpt>
      <trkpt lat="43.547250" lon="10.729940">
        <ele>58.013660</ele>
        <time>2026-05-07T02:59:33.973Z</time>
      </trkpt>
      <trkpt lat="43.547659" lon="10.729140">
        <ele>55.863403</ele>
        <time>2026-05-07T02:59:51.067Z</time>
      </trkpt>
      <trkpt lat="43.547941" lon="10.728602">
        <ele>55.052073</ele>
        <time>2026-05-07T03:00:03.900Z</time>
      </trkpt>
      <trkpt lat="43.548069" lon="10.728343">
        <ele>54.669008</ele>
        <time>2026-05-07T03:00:10.632Z</time>
      </trkpt>
      <trkpt lat="43.548123" lon="10.728153">
        <ele>54.419620</ele>
        <time>2026-05-07T03:00:15.383Z</time>
      </trkpt>
      <trkpt lat="43.548146" lon="10.727947">
        <ele>54.164923</ele>
        <time>2026-05-07T03:00:20.750Z</time>
      </trkpt>
      <trkpt lat="43.548123" lon="10.727748">
        <ele>53.918677</ele>
        <time>2026-05-07T03:00:26.461Z</time>
      </trkpt>
      <trkpt lat="43.547974" lon="10.727172">
        <ele>55.611171</ele>
        <time>2026-05-07T03:00:46.469Z</time>
      </trkpt>
      <trkpt lat="43.547834" lon="10.726633">
        <ele>58.170317</ele>
        <time>2026-05-07T03:01:08.686Z</time>
      </trkpt>
      <trkpt lat="43.547674" lon="10.726266">
        <ele>60.084548</ele>
        <time>2026-05-07T03:01:28.182Z</time>
      </trkpt>
      <trkpt lat="43.547626" lon="10.726215">
        <ele>60.458151</ele>
        <time>2026-05-07T03:01:32.199Z</time>
      </trkpt>
      <trkpt lat="43.547503" lon="10.726191">
        <ele>61.224203</ele>
        <time>2026-05-07T03:01:40.856Z</time>
      </trkpt>
      <trkpt lat="43.547190" lon="10.726269">
        <ele>63.185613</ele>
        <time>2026-05-07T03:02:04.652Z</time>
      </trkpt>
      <trkpt lat="43.547120" lon="10.726253">
        <ele>63.623166</ele>
        <time>2026-05-07T03:02:10.298Z</time>
      </trkpt>
      <trkpt lat="43.546235" lon="10.725552">
        <ele>73.250719</ele>
        <time>2026-05-07T03:03:37.154Z</time>
      </trkpt>
      <trkpt lat="43.546176" lon="10.725552">
        <ele>73.851082</ele>
        <time>2026-05-07T03:03:42.454Z</time>
      </trkpt>
      <trkpt lat="43.546104" lon="10.725608">
        <ele>74.692131</ele>
        <time>2026-05-07T03:03:49.989Z</time>
      </trkpt>
      <trkpt lat="43.545874" lon="10.725995">
        <ele>78.383289</ele>
        <time>2026-05-07T03:04:21.907Z</time>
      </trkpt>
      <trkpt lat="43.545591" lon="10.726205">
        <ele>81.653105</ele>
        <time>2026-05-07T03:04:48.716Z</time>
      </trkpt>
      <trkpt lat="43.545483" lon="10.726194">
        <ele>82.755065</ele>
        <time>2026-05-07T03:04:57.471Z</time>
      </trkpt>
      <trkpt lat="43.544122" lon="10.724977">
        <ele>96.625353</ele>
        <time>2026-05-07T03:06:53.948Z</time>
      </trkpt>
      <trkpt lat="43.543721" lon="10.724587">
        <ele>101.110830</ele>
        <time>2026-05-07T03:07:31.912Z</time>
      </trkpt>
      <trkpt lat="43.543684" lon="10.724489">
        <ele>101.880344</ele>
        <time>2026-05-07T03:07:38.240Z</time>
      </trkpt>
      <trkpt lat="43.543689" lon="10.724345">
        <ele>102.884327</ele>
        <time>2026-05-07T03:07:46.670Z</time>
      </trkpt>
      <trkpt lat="43.543782" lon="10.724029">
        <ele>105.259462</ele>
        <time>2026-05-07T03:08:07.099Z</time>
      </trkpt>
      <trkpt lat="43.544010" lon="10.723564">
        <ele>109.169080</ele>
        <time>2026-05-07T03:08:41.358Z</time>
      </trkpt>
      <trkpt lat="43.544057" lon="10.723394">
        <ele>110.436166</ele>
        <time>2026-05-07T03:08:52.815Z</time>
      </trkpt>
      <trkpt lat="43.544047" lon="10.723117">
        <ele>112.367606</ele>
        <time>2026-05-07T03:09:10.391Z</time>
      </trkpt>
      <trkpt lat="43.544088" lon="10.722878">
        <ele>114.077998</ele>
        <time>2026-05-07T03:09:24.101Z</time>
      </trkpt>
      <trkpt lat="43.544272" lon="10.722417">
        <ele>116.716321</ele>
        <time>2026-05-07T03:09:48.746Z</time>
      </trkpt>
      <trkpt lat="43.544364" lon="10.722250">
        <ele>117.445989</ele>
        <time>2026-05-07T03:09:57.144Z</time>
      </trkpt>
      <trkpt lat="43.544497" lon="10.721996">
        <ele>118.535985</ele>
        <time>2026-05-07T03:10:08.033Z</time>
      </trkpt>
      <trkpt lat="43.544719" lon="10.721754">
        <ele>119.893832</ele>
        <time>2026-05-07T03:10:20.049Z</time>
      </trkpt>
      <trkpt lat="43.544801" lon="10.721668">
        <ele>120.388160</ele>
        <time>2026-05-07T03:10:24.126Z</time>
      </trkpt>
      <trkpt lat="43.544801" lon="10.721668">
        <ele>120.388160</ele>
        <time>2026-05-07T03:10:24.146Z</time>
      </trkpt>
      <trkpt lat="43.545459" lon="10.721456">
        <ele>123.630950</ele>
        <time>2026-05-07T03:10:53.050Z</time>
      </trkpt>
      <trkpt lat="43.546117" lon="10.721245">
        <ele>126.982239</ele>
        <time>2026-05-07T03:11:21.947Z</time>
      </trkpt>
      <trkpt lat="43.546775" lon="10.721034">
        <ele>130.363220</ele>
        <time>2026-05-07T03:11:50.867Z</time>
      </trkpt>
      <trkpt lat="43.546802" lon="10.721026">
        <ele>130.501432</ele>
        <time>2026-05-07T03:11:52.387Z</time>
      </trkpt>
      <trkpt lat="43.547028" lon="10.721004">
        <ele>131.635343</ele>
        <time>2026-05-07T03:12:04.498Z</time>
      </trkpt>
      <trkpt lat="43.547058" lon="10.721006">
        <ele>131.785664</ele>
        <time>2026-05-07T03:12:06.107Z</time>
      </trkpt>
      <trkpt lat="43.547071" lon="10.721006">
        <ele>131.850727</ele>
        <time>2026-05-07T03:12:06.851Z</time>
      </trkpt>
      <trkpt lat="43.547114" lon="10.721010">
        <ele>132.066425</ele>
        <time>2026-05-07T03:12:09.376Z</time>
      </trkpt>
      <trkpt lat="43.547369" lon="10.721014">
        <ele>133.344483</ele>
        <time>2026-05-07T03:12:23.943Z</time>
      </trkpt>
      <trkpt lat="43.547625" lon="10.720931">
        <ele>134.793535</ele>
        <time>2026-05-07T03:12:39.886Z</time>
      </trkpt>
      <trkpt lat="43.547672" lon="10.720905">
        <ele>135.072559</ele>
        <time>2026-05-07T03:12:42.929Z</time>
      </trkpt>
      <trkpt lat="43.547728" lon="10.720876">
        <ele>135.402154</ele>
        <time>2026-05-07T03:12:46.783Z</time>
      </trkpt>
      <trkpt lat="43.547864" lon="10.720831">
        <ele>136.172799</ele>
        <time>2026-05-07T03:12:55.494Z</time>
      </trkpt>
      <trkpt lat="43.547912" lon="10.720885">
        <ele>136.514074</ele>
        <time>2026-05-07T03:12:59.279Z</time>
      </trkpt>
      <trkpt lat="43.548178" lon="10.720943">
        <ele>137.997994</ele>
        <time>2026-05-07T03:13:15.631Z</time>
      </trkpt>
      <trkpt lat="43.548379" lon="10.720963">
        <ele>139.108433</ele>
        <time>2026-05-07T03:13:26.562Z</time>
      </trkpt>
      <trkpt lat="43.548519" lon="10.720979">
        <ele>139.882511</ele>
        <time>2026-05-07T03:13:33.016Z</time>
      </trkpt>
      <trkpt lat="43.548763" lon="10.721008">
        <ele>141.231993</ele>
        <time>2026-05-07T03:13:42.725Z</time>
      </trkpt>
      <trkpt lat="43.549058" lon="10.721006">
        <ele>142.857540</ele>
        <time>2026-05-07T03:13:52.330Z</time>
      </trkpt>
      <trkpt lat="43.549022" lon="10.720555">
        <ele>142.628348</ele>
        <time>2026-05-07T03:14:01.329Z</time>
      </trkpt>
      <trkpt lat="43.549014" lon="10.720328">
        <ele>142.243138</ele>
        <time>2026-05-07T03:14:04.753Z</time>
      </trkpt>
      <trkpt lat="43.549037" lon="10.720340">
        <ele>142.185633</ele>
        <time>2026-05-07T03:14:05.284Z</time>
      </trkpt>
      <trkpt lat="43.549337" lon="10.720447">
        <ele>141.461000</ele>
        <time>2026-05-07T03:14:10.416Z</time>
      </trkpt>
      <trkpt lat="43.549387" lon="10.720502">
        <ele>141.311459</ele>
        <time>2026-05-07T03:14:11.407Z</time>
      </trkpt>
      <trkpt lat="43.549391" lon="10.720840">
        <ele>140.738489</ele>
        <time>2026-05-07T03:14:15.055Z</time>
      </trkpt>
      <trkpt lat="43.549429" lon="10.721338">
        <ele>139.889740</ele>
        <time>2026-05-07T03:14:20.015Z</time>
      </trkpt>
      <trkpt lat="43.549498" lon="10.721354">
        <ele>139.726115</ele>
        <time>2026-05-07T03:14:20.933Z</time>
      </trkpt>
      <trkpt lat="43.549572" lon="10.721390">
        <ele>139.542619</ele>
        <time>2026-05-07T03:14:21.997Z</time>
      </trkpt>
      <trkpt lat="43.549647" lon="10.721221">
        <ele>139.206742</ele>
        <time>2026-05-07T03:14:23.919Z</time>
      </trkpt>
      <trkpt lat="43.549679" lon="10.720826">
        <ele>136.668019</ele>
        <time>2026-05-07T03:14:27.643Z</time>
      </trkpt>
      <trkpt lat="43.549692" lon="10.720558">
        <ele>134.505110</ele>
        <time>2026-05-07T03:14:30.063Z</time>
      </trkpt>
      <trkpt lat="43.549691" lon="10.720280">
        <ele>132.266476</ele>
        <time>2026-05-07T03:14:32.520Z</time>
      </trkpt>
      <trkpt lat="43.549602" lon="10.720057">
        <ele>130.216507</ele>
        <time>2026-05-07T03:14:34.737Z</time>
      </trkpt>
      <trkpt lat="43.549538" lon="10.719940">
        <ele>129.036144</ele>
        <time>2026-05-07T03:14:35.998Z</time>
      </trkpt>
      <trkpt lat="43.549438" lon="10.719753">
        <ele>127.164800</ele>
        <time>2026-05-07T03:14:37.951Z</time>
      </trkpt>
      <trkpt lat="43.549535" lon="10.719666">
        <ele>125.879400</ele>
        <time>2026-05-07T03:14:39.282Z</time>
      </trkpt>
      <trkpt lat="43.549646" lon="10.719647">
        <ele>124.636694</ele>
        <time>2026-05-07T03:14:40.553Z</time>
      </trkpt>
      <trkpt lat="43.550045" lon="10.719835">
        <ele>119.952291</ele>
        <time>2026-05-07T03:14:45.309Z</time>
      </trkpt>
      <trkpt lat="43.550120" lon="10.719803">
        <ele>119.080081</ele>
        <time>2026-05-07T03:14:46.203Z</time>
      </trkpt>
      <trkpt lat="43.550164" lon="10.719739">
        <ele>118.458922</ele>
        <time>2026-05-07T03:14:46.927Z</time>
      </trkpt>
      <trkpt lat="43.550181" lon="10.719698">
        <ele>118.128666</ele>
        <time>2026-05-07T03:14:47.319Z</time>
      </trkpt>
      <trkpt lat="43.550419" lon="10.719221">
        <ele>114.079730</ele>
        <time>2026-05-07T03:14:52.111Z</time>
      </trkpt>
      <trkpt lat="43.550583" lon="10.718919">
        <ele>111.441292</ele>
        <time>2026-05-07T03:14:55.269Z</time>
      </trkpt>
      <trkpt lat="43.550877" lon="10.718513">
        <ele>107.428619</ele>
        <time>2026-05-07T03:15:00.212Z</time>
      </trkpt>
      <trkpt lat="43.551231" lon="10.718148">
        <ele>103.165471</ele>
        <time>2026-05-07T03:15:05.983Z</time>
      </trkpt>
      <trkpt lat="43.551390" lon="10.718047">
        <ele>101.675502</ele>
        <time>2026-05-07T03:15:08.738Z</time>
      </trkpt>
      <trkpt lat="43.551737" lon="10.717973">
        <ele>101.365052</ele>
        <time>2026-05-07T03:15:15.545Z</time>
      </trkpt>
      <trkpt lat="43.552181" lon="10.717893">
        <ele>100.969148</ele>
        <time>2026-05-07T03:15:25.582Z</time>
      </trkpt>
      <trkpt lat="43.552302" lon="10.717868">
        <ele>100.860971</ele>
        <time>2026-05-07T03:15:28.561Z</time>
      </trkpt>
      <trkpt lat="43.552452" lon="10.717868">
        <ele>100.728346</ele>
        <time>2026-05-07T03:15:32.455Z</time>
      </trkpt>
      <trkpt lat="43.552635" lon="10.717928">
        <ele>100.562038</ele>
        <time>2026-05-07T03:15:37.550Z</time>
      </trkpt>
      <trkpt lat="43.552786" lon="10.717976">
        <ele>100.425031</ele>
        <time>2026-05-07T03:15:40.822Z</time>
      </trkpt>
      <trkpt lat="43.553456" lon="10.717951">
        <ele>98.469170</ele>
        <time>2026-05-07T03:15:50.995Z</time>
      </trkpt>
      <trkpt lat="43.553702" lon="10.717894">
        <ele>97.146540</ele>
        <time>2026-05-07T03:15:54.364Z</time>
      </trkpt>
      <trkpt lat="43.554709" lon="10.717626">
        <ele>91.708706</ele>
        <time>2026-05-07T03:16:07.321Z</time>
      </trkpt>
      <trkpt lat="43.554771" lon="10.717682">
        <ele>91.315795</ele>
        <time>2026-05-07T03:16:08.972Z</time>
      </trkpt>
      <trkpt lat="43.555014" lon="10.717733">
        <ele>90.235919</ele>
        <time>2026-05-07T03:16:14.582Z</time>
      </trkpt>
      <trkpt lat="43.555255" lon="10.717847">
        <ele>89.428074</ele>
        <time>2026-05-07T03:16:20.516Z</time>
      </trkpt>
      <trkpt lat="43.556314" lon="10.718435">
        <ele>85.808428</ele>
        <time>2026-05-07T03:16:50.760Z</time>
      </trkpt>
      <trkpt lat="43.556435" lon="10.718518">
        <ele>85.379956</ele>
        <time>2026-05-07T03:16:54.863Z</time>
      </trkpt>
      <trkpt lat="43.556718" lon="10.718545">
        <ele>84.714570</ele>
        <time>2026-05-07T03:17:03.412Z</time>
      </trkpt>
      <trkpt lat="43.557754" lon="10.718470">
        <ele>83.428010</ele>
        <time>2026-05-07T03:17:34.676Z</time>
      </trkpt>
      <trkpt lat="43.558015" lon="10.718488">
        <ele>83.103928</ele>
        <time>2026-05-07T03:17:42.094Z</time>
      </trkpt>
      <trkpt lat="43.558594" lon="10.718618">
        <ele>81.515609</ele>
        <time>2026-05-07T03:17:58.129Z</time>
      </trkpt>
      <trkpt lat="43.558700" lon="10.718674">
        <ele>80.905063</ele>
        <time>2026-05-07T03:18:01.120Z</time>
      </trkpt>
      <trkpt lat="43.558808" lon="10.719009">
        <ele>79.475808</ele>
        <time>2026-05-07T03:18:08.059Z</time>
      </trkpt>
      <trkpt lat="43.558835" lon="10.719265">
        <ele>78.467384</ele>
        <time>2026-05-07T03:18:12.814Z</time>
      </trkpt>
      <trkpt lat="43.558895" lon="10.719378">
        <ele>77.921315</ele>
        <time>2026-05-07T03:18:15.369Z</time>
      </trkpt>
      <trkpt lat="43.559867" lon="10.719589">
        <ele>72.341353</ele>
        <time>2026-05-07T03:18:37.705Z</time>
      </trkpt>
      <trkpt lat="43.560173" lon="10.719732">
        <ele>69.094668</ele>
        <time>2026-05-07T03:18:44.651Z</time>
      </trkpt>
      <trkpt lat="43.561163" lon="10.720311">
        <ele>58.289077</ele>
        <time>2026-05-07T03:19:07.165Z</time>
      </trkpt>
      <trkpt lat="43.561621" lon="10.720797">
        <ele>53.879751</ele>
        <time>2026-05-07T03:19:19.746Z</time>
      </trkpt>
      <trkpt lat="43.561885" lon="10.720598">
        <ele>52.615461</ele>
        <time>2026-05-07T03:19:24.082Z</time>
      </trkpt>
      <trkpt lat="43.562182" lon="10.720249">
        <ele>50.975990</ele>
        <time>2026-05-07T03:19:30.021Z</time>
      </trkpt>
      <trkpt lat="43.566599" lon="10.722687">
        <ele>43.554440</ele>
        <time>2026-05-07T03:21:00.644Z</time>
      </trkpt>
      <trkpt lat="43.568741" lon="10.723464">
        <ele>42.330520</ele>
        <time>2026-05-07T03:21:44.787Z</time>
      </trkpt>
      <trkpt lat="43.568977" lon="10.723461">
        <ele>42.245801</ele>
        <time>2026-05-07T03:21:49.616Z</time>
      </trkpt>
      <trkpt lat="43.570123" lon="10.722989">
        <ele>41.840805</ele>
        <time>2026-05-07T03:22:14.454Z</time>
      </trkpt>
      <trkpt lat="43.571157" lon="10.722691">
        <ele>41.537030</ele>
        <time>2026-05-07T03:22:36.102Z</time>
      </trkpt>
      <trkpt lat="43.571443" lon="10.722357">
        <ele>41.429290</ele>
        <time>2026-05-07T03:22:43.792Z</time>
      </trkpt>
      <trkpt lat="43.571642" lon="10.722014">
        <ele>41.401047</ele>
        <time>2026-05-07T03:22:50.386Z</time>
      </trkpt>
      <trkpt lat="43.571118" lon="10.719130">
        <ele>41.082243</ele>
        <time>2026-05-07T03:23:36.334Z</time>
      </trkpt>
      <trkpt lat="43.571120" lon="10.719033">
        <ele>41.059070</ele>
        <time>2026-05-07T03:23:37.799Z</time>
      </trkpt>
      <trkpt lat="43.571132" lon="10.718481">
        <ele>40.927197</ele>
        <time>2026-05-07T03:23:45.961Z</time>
      </trkpt>
      <trkpt lat="43.573172" lon="10.718053">
        <ele>40.023041</ele>
        <time>2026-05-07T03:24:22.329Z</time>
      </trkpt>
      <trkpt lat="43.573649" lon="10.717957">
        <ele>39.809589</ele>
        <time>2026-05-07T03:24:31.193Z</time>
      </trkpt>
      <trkpt lat="43.574325" lon="10.717746">
        <ele>39.719184</ele>
        <time>2026-05-07T03:24:44.596Z</time>
      </trkpt>
      <trkpt lat="43.574887" lon="10.717517">
        <ele>39.642747</ele>
        <time>2026-05-07T03:24:55.780Z</time>
      </trkpt>
      <trkpt lat="43.576166" lon="10.717112">
        <ele>39.337815</ele>
        <time>2026-05-07T03:25:19.908Z</time>
      </trkpt>
      <trkpt lat="43.577539" lon="10.716951">
        <ele>38.966574</ele>
        <time>2026-05-07T03:25:45.061Z</time>
      </trkpt>
      <trkpt lat="43.579048" lon="10.716774">
        <ele>38.633774</ele>
        <time>2026-05-07T03:26:13.278Z</time>
      </trkpt>
      <trkpt lat="43.580380" lon="10.716590">
        <ele>38.496930</ele>
        <time>2026-05-07T03:26:38.648Z</time>
      </trkpt>
      <trkpt lat="43.580428" lon="10.713915">
        <ele>38.261647</ele>
        <time>2026-05-07T03:27:15.300Z</time>
      </trkpt>
      <trkpt lat="43.580984" lon="10.713807">
        <ele>38.094692</ele>
        <time>2026-05-07T03:27:32.709Z</time>
      </trkpt>
      <trkpt lat="43.582573" lon="10.713499">
        <ele>37.471636</ele>
        <time>2026-05-07T03:28:21.735Z</time>
      </trkpt>
      <trkpt lat="43.584995" lon="10.713022">
        <ele>36.193649</ele>
        <time>2026-05-07T03:29:36.098Z</time>
      </trkpt>
      <trkpt lat="43.585182" lon="10.712934">
        <ele>36.087099</ele>
        <time>2026-05-07T03:29:42.307Z</time>
      </trkpt>
      <trkpt lat="43.585756" lon="10.712345">
        <ele>35.701387</ele>
        <time>2026-05-07T03:30:04.084Z</time>
      </trkpt>
      <trkpt lat="43.586152" lon="10.711956">
        <ele>35.406032</ele>
        <time>2026-05-07T03:30:18.070Z</time>
      </trkpt>
      <trkpt lat="43.586343" lon="10.711816">
        <ele>35.273366</ele>
        <time>2026-05-07T03:30:24.309Z</time>
      </trkpt>
      <trkpt lat="43.586557" lon="10.711834">
        <ele>35.141837</ele>
        <time>2026-05-07T03:30:30.610Z</time>
      </trkpt>
      <trkpt lat="43.586669" lon="10.711904">
        <ele>35.066414</ele>
        <time>2026-05-07T03:30:34.272Z</time>
      </trkpt>
      <trkpt lat="43.586801" lon="10.712059">
        <ele>34.960104</ele>
        <time>2026-05-07T03:30:39.489Z</time>
      </trkpt>
      <trkpt lat="43.586943" lon="10.712347">
        <ele>34.805291</ele>
        <time>2026-05-07T03:30:47.097Z</time>
      </trkpt>
      <trkpt lat="43.587114" lon="10.712704">
        <ele>34.615104</ele>
        <time>2026-05-07T03:30:56.479Z</time>
      </trkpt>
      <trkpt lat="43.587241" lon="10.713014">
        <ele>34.769738</ele>
        <time>2026-05-07T03:31:04.775Z</time>
      </trkpt>
      <trkpt lat="43.587275" lon="10.713247">
        <ele>34.937906</ele>
        <time>2026-05-07T03:31:10.946Z</time>
      </trkpt>
      <trkpt lat="43.587179" lon="10.713478">
        <ele>35.126337</ele>
        <time>2026-05-07T03:31:16.227Z</time>
      </trkpt>
      <trkpt lat="43.586894" lon="10.713912">
        <ele>35.540818</ele>
        <time>2026-05-07T03:31:28.915Z</time>
      </trkpt>
      <trkpt lat="43.587166" lon="10.714722">
        <ele>36.172516</ele>
        <time>2026-05-07T03:31:53.455Z</time>
      </trkpt>
      <trkpt lat="43.587124" lon="10.714924">
        <ele>36.321209</ele>
        <time>2026-05-07T03:31:58.794Z</time>
      </trkpt>
      <trkpt lat="43.587070" lon="10.714999">
        <ele>36.359531</ele>
        <time>2026-05-07T03:32:01.482Z</time>
      </trkpt>
      <trkpt lat="43.586927" lon="10.715092">
        <ele>36.422353</ele>
        <time>2026-05-07T03:32:07.074Z</time>
      </trkpt>
      <trkpt lat="43.586874" lon="10.715161">
        <ele>36.451305</ele>
        <time>2026-05-07T03:32:09.634Z</time>
      </trkpt>
      <trkpt lat="43.586774" lon="10.715522">
        <ele>36.562566</ele>
        <time>2026-05-07T03:32:19.442Z</time>
      </trkpt>
      <trkpt lat="43.586868" lon="10.715704">
        <ele>36.626913</ele>
        <time>2026-05-07T03:32:23.036Z</time>
      </trkpt>
      <trkpt lat="43.587068" lon="10.716466">
        <ele>36.860227</ele>
        <time>2026-05-07T03:32:35.109Z</time>
      </trkpt>
      <trkpt lat="43.587162" lon="10.716710">
        <ele>36.939783</ele>
        <time>2026-05-07T03:32:39.135Z</time>
      </trkpt>
      <trkpt lat="43.587478" lon="10.717075">
        <ele>37.104497</ele>
        <time>2026-05-07T03:32:47.984Z</time>
      </trkpt>
      <trkpt lat="43.587506" lon="10.717123">
        <ele>37.122556</ele>
        <time>2026-05-07T03:32:48.967Z</time>
      </trkpt>
      <trkpt lat="43.587541" lon="10.717188">
        <ele>37.146289</ele>
        <time>2026-05-07T03:32:50.270Z</time>
      </trkpt>
      <trkpt lat="43.587628" lon="10.717447">
        <ele>37.229944</ele>
        <time>2026-05-07T03:32:54.874Z</time>
      </trkpt>
      <trkpt lat="43.587917" lon="10.718376">
        <ele>37.526199</ele>
        <time>2026-05-07T03:33:11.244Z</time>
      </trkpt>
      <trkpt lat="43.588037" lon="10.719392">
        <ele>37.860147</ele>
        <time>2026-05-07T03:33:27.889Z</time>
      </trkpt>
      <trkpt lat="43.588175" lon="10.719600">
        <ele>37.995281</ele>
        <time>2026-05-07T03:33:32.509Z</time>
      </trkpt>
      <trkpt lat="43.589031" lon="10.720146">
        <ele>38.618964</ele>
        <time>2026-05-07T03:33:54.443Z</time>
      </trkpt>
      <trkpt lat="43.589054" lon="10.720141">
        <ele>38.634364</ele>
        <time>2026-05-07T03:33:54.977Z</time>
      </trkpt>
      <trkpt lat="43.589492" lon="10.720028">
        <ele>38.929083</ele>
        <time>2026-05-07T03:34:05.413Z</time>
      </trkpt>
      <trkpt lat="43.590473" lon="10.719775">
        <ele>39.632936</ele>
        <time>2026-05-07T03:34:29.129Z</time>
      </trkpt>
      <trkpt lat="43.591253" lon="10.719367">
        <ele>40.223421</ele>
        <time>2026-05-07T03:34:47.677Z</time>
      </trkpt>
      <trkpt lat="43.591324" lon="10.719325">
        <ele>40.245958</ele>
        <time>2026-05-07T03:34:49.314Z</time>
      </trkpt>
      <trkpt lat="43.592133" lon="10.718857">
        <ele>40.344055</ele>
        <time>2026-05-07T03:35:07.307Z</time>
      </trkpt>
      <trkpt lat="43.592235" lon="10.718791">
        <ele>40.356653</ele>
        <time>2026-05-07T03:35:09.463Z</time>
      </trkpt>
      <trkpt lat="43.592422" lon="10.718689">
        <ele>40.379139</ele>
        <time>2026-05-07T03:35:13.251Z</time>
      </trkpt>
      <trkpt lat="43.592537" lon="10.718625">
        <ele>40.393006</ele>
        <time>2026-05-07T03:35:15.560Z</time>
      </trkpt>
      <trkpt lat="43.592959" lon="10.718390">
        <ele>40.431310</ele>
        <time>2026-05-07T03:35:24.078Z</time>
      </trkpt>
      <trkpt lat="43.592987" lon="10.718373">
        <ele>40.419425</ele>
        <time>2026-05-07T03:35:24.656Z</time>
      </trkpt>
      <trkpt lat="43.593417" lon="10.718142">
        <ele>40.240158</ele>
        <time>2026-05-07T03:35:33.324Z</time>
      </trkpt>
      <trkpt lat="43.593488" lon="10.718104">
        <ele>40.210573</ele>
        <time>2026-05-07T03:35:34.752Z</time>
      </trkpt>
      <trkpt lat="43.593721" lon="10.718042">
        <ele>40.118380</ele>
        <time>2026-05-07T03:35:39.135Z</time>
      </trkpt>
      <trkpt lat="43.594403" lon="10.718080">
        <ele>39.853188</ele>
        <time>2026-05-07T03:35:51.206Z</time>
      </trkpt>
      <trkpt lat="43.594685" lon="10.718035">
        <ele>39.742894</ele>
        <time>2026-05-07T03:35:56.115Z</time>
      </trkpt>
      <trkpt lat="43.594848" lon="10.717932">
        <ele>39.716083</ele>
        <time>2026-05-07T03:35:59.268Z</time>
      </trkpt>
      <trkpt lat="43.595233" lon="10.717551">
        <ele>39.646281</ele>
        <time>2026-05-07T03:36:07.862Z</time>
      </trkpt>
      <trkpt lat="43.595565" lon="10.717210">
        <ele>39.585304</ele>
        <time>2026-05-07T03:36:15.568Z</time>
      </trkpt>
      <trkpt lat="43.596009" lon="10.716759">
        <ele>39.504077</ele>
        <time>2026-05-07T03:36:26.110Z</time>
      </trkpt>
      <trkpt lat="43.596131" lon="10.716635">
        <ele>39.481753</ele>
        <time>2026-05-07T03:36:29.217Z</time>
      </trkpt>
      <trkpt lat="43.596724" lon="10.715875">
        <ele>39.685070</ele>
        <time>2026-05-07T03:36:47.416Z</time>
      </trkpt>
      <trkpt lat="43.596884" lon="10.715721">
        <ele>39.737168</ele>
        <time>2026-05-07T03:36:51.460Z</time>
      </trkpt>
      <trkpt lat="43.597208" lon="10.715503">
        <ele>39.833443</ele>
        <time>2026-05-07T03:36:58.810Z</time>
      </trkpt>
      <trkpt lat="43.597281" lon="10.715456">
        <ele>39.854958</ele>
        <time>2026-05-07T03:37:00.403Z</time>
      </trkpt>
      <trkpt lat="43.597298" lon="10.715443">
        <ele>39.860149</ele>
        <time>2026-05-07T03:37:00.803Z</time>
      </trkpt>
      <trkpt lat="43.597473" lon="10.715303">
        <ele>39.914173</ele>
        <time>2026-05-07T03:37:04.784Z</time>
      </trkpt>
      <trkpt lat="43.597735" lon="10.714979">
        <ele>39.847364</ele>
        <time>2026-05-07T03:37:11.479Z</time>
      </trkpt>
      <trkpt lat="43.598035" lon="10.714575">
        <ele>39.602741</ele>
        <time>2026-05-07T03:37:19.177Z</time>
      </trkpt>
      <trkpt lat="43.598217" lon="10.714247">
        <ele>39.428055</ele>
        <time>2026-05-07T03:37:24.388Z</time>
      </trkpt>
      <trkpt lat="43.599284" lon="10.712245">
        <ele>38.426199</ele>
        <time>2026-05-07T03:37:55.147Z</time>
      </trkpt>
      <trkpt lat="43.599992" lon="10.710941">
        <ele>38.049014</ele>
        <time>2026-05-07T03:38:16.852Z</time>
      </trkpt>
      <trkpt lat="43.601108" lon="10.709538">
        <ele>38.539026</ele>
        <time>2026-05-07T03:38:50.036Z</time>
      </trkpt>
      <trkpt lat="43.601579" lon="10.708962">
        <ele>38.442291</ele>
        <time>2026-05-07T03:39:02.892Z</time>
      </trkpt>
      <trkpt lat="43.601817" lon="10.708671">
        <ele>38.393414</ele>
        <time>2026-05-07T03:39:08.910Z</time>
      </trkpt>
      <trkpt lat="43.601905" lon="10.708552">
        <ele>38.374476</ele>
        <time>2026-05-07T03:39:11.167Z</time>
      </trkpt>
      <trkpt lat="43.602326" lon="10.708012">
        <ele>38.286129</ele>
        <time>2026-05-07T03:39:21.301Z</time>
      </trkpt>
      <trkpt lat="43.602665" lon="10.707566">
        <ele>38.224636</ele>
        <time>2026-05-07T03:39:29.438Z</time>
      </trkpt>
      <trkpt lat="43.602920" lon="10.707247">
        <ele>38.183191</ele>
        <time>2026-05-07T03:39:35.602Z</time>
      </trkpt>
      <trkpt lat="43.603041" lon="10.707136">
        <ele>38.165693</ele>
        <time>2026-05-07T03:39:38.249Z</time>
      </trkpt>
      <trkpt lat="43.603256" lon="10.706982">
        <ele>38.136519</ele>
        <time>2026-05-07T03:39:42.869Z</time>
      </trkpt>
      <trkpt lat="43.603382" lon="10.706898">
        <ele>38.119666</ele>
        <time>2026-05-07T03:39:45.893Z</time>
      </trkpt>
      <trkpt lat="43.603470" lon="10.706832">
        <ele>38.107603</ele>
        <time>2026-05-07T03:39:48.020Z</time>
      </trkpt>
      <trkpt lat="43.603552" lon="10.706771">
        <ele>38.096384</ele>
        <time>2026-05-07T03:39:50.003Z</time>
      </trkpt>
      <trkpt lat="43.603656" lon="10.706685">
        <ele>38.081783</ele>
        <time>2026-05-07T03:39:52.331Z</time>
      </trkpt>
      <trkpt lat="43.603982" lon="10.706301">
        <ele>38.151649</ele>
        <time>2026-05-07T03:40:00.861Z</time>
      </trkpt>
      <trkpt lat="43.604097" lon="10.706082">
        <ele>38.309639</ele>
        <time>2026-05-07T03:40:05.081Z</time>
      </trkpt>
      <trkpt lat="43.604102" lon="10.705834">
        <ele>38.454531</ele>
        <time>2026-05-07T03:40:09.085Z</time>
      </trkpt>
      <trkpt lat="43.603994" lon="10.705405">
        <ele>38.719784</ele>
        <time>2026-05-07T03:40:16.788Z</time>
      </trkpt>
      <trkpt lat="43.603882" lon="10.704927">
        <ele>39.013195</ele>
        <time>2026-05-07T03:40:25.721Z</time>
      </trkpt>
      <trkpt lat="43.603896" lon="10.704531">
        <ele>39.244741</ele>
        <time>2026-05-07T03:40:32.985Z</time>
      </trkpt>
      <trkpt lat="43.603997" lon="10.704033">
        <ele>39.512716</ele>
        <time>2026-05-07T03:40:41.548Z</time>
      </trkpt>
      <trkpt lat="43.604041" lon="10.703886">
        <ele>39.542566</ele>
        <time>2026-05-07T03:40:44.385Z</time>
      </trkpt>
      <trkpt lat="43.604114" lon="10.703717">
        <ele>39.579495</ele>
        <time>2026-05-07T03:40:48.037Z</time>
      </trkpt>
      <trkpt lat="43.604191" lon="10.703619">
        <ele>39.606633</ele>
        <time>2026-05-07T03:40:50.707Z</time>
      </trkpt>
      <trkpt lat="43.604274" lon="10.703548">
        <ele>39.631935</ele>
        <time>2026-05-07T03:40:53.141Z</time>
      </trkpt>
      <trkpt lat="43.604500" lon="10.703366">
        <ele>39.699736</ele>
        <time>2026-05-07T03:40:59.313Z</time>
      </trkpt>
      <trkpt lat="43.604605" lon="10.703131">
        <ele>39.751557</ele>
        <time>2026-05-07T03:41:03.582Z</time>
      </trkpt>
      <trkpt lat="43.604677" lon="10.702869">
        <ele>39.804146</ele>
        <time>2026-05-07T03:41:07.575Z</time>
      </trkpt>
      <trkpt lat="43.604690" lon="10.702813">
        <ele>39.815181</ele>
        <time>2026-05-07T03:41:08.369Z</time>
      </trkpt>
      <trkpt lat="43.604778" lon="10.702458">
        <ele>39.885597</ele>
        <time>2026-05-07T03:41:13.250Z</time>
      </trkpt>
      <trkpt lat="43.604927" lon="10.701724">
        <ele>40.055509</ele>
        <time>2026-05-07T03:41:22.566Z</time>
      </trkpt>
      <trkpt lat="43.604946" lon="10.701636">
        <ele>40.079763</ele>
        <time>2026-05-07T03:41:23.713Z</time>
      </trkpt>
      <trkpt lat="43.605045" lon="10.701273">
        <ele>40.182212</ele>
        <time>2026-05-07T03:41:28.640Z</time>
      </trkpt>
      <trkpt lat="43.605246" lon="10.700807">
        <ele>40.325472</ele>
        <time>2026-05-07T03:41:35.965Z</time>
      </trkpt>
      <trkpt lat="43.605352" lon="10.700560">
        <ele>40.401305</ele>
        <time>2026-05-07T03:41:40.427Z</time>
      </trkpt>
      <trkpt lat="43.605515" lon="10.700679">
        <ele>40.468555</ele>
        <time>2026-05-07T03:41:45.083Z</time>
      </trkpt>
      <trkpt lat="43.605175" lon="10.701932">
        <ele>44.499777</ele>
        <time>2026-05-07T03:42:13.790Z</time>
      </trkpt>
      <trkpt lat="43.605086" lon="10.702378">
        <ele>46.833595</ele>
        <time>2026-05-07T03:42:28.229Z</time>
      </trkpt>
      <trkpt lat="43.605073" lon="10.702443">
        <ele>47.173779</ele>
        <time>2026-05-07T03:42:30.615Z</time>
      </trkpt>
      <trkpt lat="43.605011" lon="10.702739">
        <ele>48.728235</ele>
        <time>2026-05-07T03:42:42.799Z</time>
      </trkpt>
      <trkpt lat="43.604951" lon="10.702903">
        <ele>49.655174</ele>
        <time>2026-05-07T03:42:51.210Z</time>
      </trkpt>
      <trkpt lat="43.605078" lon="10.702938">
        <ele>50.557401</ele>
        <time>2026-05-07T03:43:00.325Z</time>
      </trkpt>
      <trkpt lat="43.605245" lon="10.703031">
        <ele>51.811885</ele>
        <time>2026-05-07T03:43:14.424Z</time>
      </trkpt>
      <trkpt lat="43.605600" lon="10.703144">
        <ele>55.850604</ele>
        <time>2026-05-07T03:43:47.655Z</time>
      </trkpt>
      <trkpt lat="43.605866" lon="10.703260">
        <ele>60.223422</ele>
        <time>2026-05-07T03:44:16.774Z</time>
      </trkpt>
      <trkpt lat="43.606034" lon="10.703285">
        <ele>62.872264</ele>
        <time>2026-05-07T03:44:36.503Z</time>
      </trkpt>
      <trkpt lat="43.606101" lon="10.703262">
        <ele>63.954529</ele>
        <time>2026-05-07T03:44:44.912Z</time>
      </trkpt>
      <trkpt lat="43.606172" lon="10.703096">
        <ele>66.142976</ele>
        <time>2026-05-07T03:45:01.721Z</time>
      </trkpt>
      <trkpt lat="43.606199" lon="10.703080">
        <ele>66.603553</ele>
        <time>2026-05-07T03:45:05.313Z</time>
      </trkpt>
      <trkpt lat="43.606283" lon="10.703146">
        <ele>68.118549</ele>
        <time>2026-05-07T03:45:16.614Z</time>
      </trkpt>
      <trkpt lat="43.606472" lon="10.703080">
        <ele>71.174595</ele>
        <time>2026-05-07T03:45:38.975Z</time>
      </trkpt>
      <trkpt lat="43.606524" lon="10.703089">
        <ele>71.996133</ele>
        <time>2026-05-07T03:45:44.753Z</time>
      </trkpt>
      <trkpt lat="43.606870" lon="10.703407">
        <ele>78.511391</ele>
        <time>2026-05-07T03:46:28.458Z</time>
      </trkpt>
      <trkpt lat="43.606929" lon="10.703600">
        <ele>80.889360</ele>
        <time>2026-05-07T03:46:41.954Z</time>
      </trkpt>
      <trkpt lat="43.606939" lon="10.703829">
        <ele>82.325401</ele>
        <time>2026-05-07T03:46:57.290Z</time>
      </trkpt>
      <trkpt lat="43.606911" lon="10.704274">
        <ele>84.638605</ele>
        <time>2026-05-07T03:47:22.464Z</time>
      </trkpt>
      <trkpt lat="43.606892" lon="10.704322">
        <ele>84.921901</ele>
        <time>2026-05-07T03:47:24.947Z</time>
      </trkpt>
      <trkpt lat="43.606889" lon="10.704345">
        <ele>85.042928</ele>
        <time>2026-05-07T03:47:25.845Z</time>
      </trkpt>
      <trkpt lat="43.606922" lon="10.704327">
        <ele>85.296686</ele>
        <time>2026-05-07T03:47:28.003Z</time>
      </trkpt>
      <trkpt lat="43.606939" lon="10.704267">
        <ele>85.630349</ele>
        <time>2026-05-07T03:47:30.700Z</time>
      </trkpt>
      <trkpt lat="43.607030" lon="10.704158">
        <ele>86.491871</ele>
        <time>2026-05-07T03:47:37.510Z</time>
      </trkpt>
      <trkpt lat="43.607130" lon="10.704034">
        <ele>87.453058</ele>
        <time>2026-05-07T03:47:44.595Z</time>
      </trkpt>
      <trkpt lat="43.607209" lon="10.703936">
        <ele>88.212533</ele>
        <time>2026-05-07T03:47:49.880Z</time>
      </trkpt>
      <trkpt lat="43.607216" lon="10.703783">
        <ele>89.006450</ele>
        <time>2026-05-07T03:47:55.217Z</time>
      </trkpt>
      <trkpt lat="43.607209" lon="10.703936">
        <ele>89.800367</ele>
        <time>2026-05-07T03:47:59.888Z</time>
      </trkpt>
      <trkpt lat="43.607130" lon="10.704034">
        <ele>90.559842</ele>
        <time>2026-05-07T03:48:04.010Z</time>
      </trkpt>
      <trkpt lat="43.607030" lon="10.704158">
        <ele>91.521029</ele>
        <time>2026-05-07T03:48:09.645Z</time>
      </trkpt>
      <trkpt lat="43.606939" lon="10.704267">
        <ele>92.382550</ele>
        <time>2026-05-07T03:48:15.087Z</time>
      </trkpt>
      <trkpt lat="43.606922" lon="10.704327">
        <ele>92.716213</ele>
        <time>2026-05-07T03:48:16.976Z</time>
      </trkpt>
      <trkpt lat="43.607330" lon="10.704295">
        <ele>95.785760</ele>
        <time>2026-05-07T03:48:36.112Z</time>
      </trkpt>
      <trkpt lat="43.607591" lon="10.704487">
        <ele>98.117940</ele>
        <time>2026-05-07T03:48:52.724Z</time>
      </trkpt>
      <trkpt lat="43.607685" lon="10.704583">
        <ele>99.039951</ele>
        <time>2026-05-07T03:48:59.702Z</time>
      </trkpt>
      <trkpt lat="43.607782" lon="10.704675">
        <ele>99.967970</ele>
        <time>2026-05-07T03:49:06.846Z</time>
      </trkpt>
      <trkpt lat="43.608150" lon="10.704876">
        <ele>103.088938</ele>
        <time>2026-05-07T03:49:33.256Z</time>
      </trkpt>
      <trkpt lat="43.608632" lon="10.705032">
        <ele>106.993227</ele>
        <time>2026-05-07T03:50:05.496Z</time>
      </trkpt>
      <trkpt lat="43.608743" lon="10.705110">
        <ele>107.975429</ele>
        <time>2026-05-07T03:50:13.690Z</time>
      </trkpt>
      <trkpt lat="43.609093" lon="10.705744">
        <ele>113.328358</ele>
        <time>2026-05-07T03:50:51.430Z</time>
      </trkpt>
      <trkpt lat="43.609263" lon="10.705904">
        <ele>115.264902</ele>
        <time>2026-05-07T03:51:04.650Z</time>
      </trkpt>
      <trkpt lat="43.609704" lon="10.705978">
        <ele>119.446757</ele>
        <time>2026-05-07T03:51:34.352Z</time>
      </trkpt>
      <trkpt lat="43.610044" lon="10.706212">
        <ele>123.022700</ele>
        <time>2026-05-07T03:52:03.306Z</time>
      </trkpt>
      <trkpt lat="43.610479" lon="10.706298">
        <ele>126.835315</ele>
        <time>2026-05-07T03:52:33.044Z</time>
      </trkpt>
      <trkpt lat="43.610697" lon="10.706221">
        <ele>128.579220</ele>
        <time>2026-05-07T03:52:47.655Z</time>
      </trkpt>
      <trkpt lat="43.610942" lon="10.706008">
        <ele>130.822869</ele>
        <time>2026-05-07T03:53:05.846Z</time>
      </trkpt>
      <trkpt lat="43.610999" lon="10.705971">
        <ele>131.310985</ele>
        <time>2026-05-07T03:53:09.613Z</time>
      </trkpt>
      <trkpt lat="43.611166" lon="10.705877">
        <ele>132.708614</ele>
        <time>2026-05-07T03:53:20.333Z</time>
      </trkpt>
      <trkpt lat="43.611356" lon="10.705862">
        <ele>134.183544</ele>
        <time>2026-05-07T03:53:31.553Z</time>
      </trkpt>
      <trkpt lat="43.611736" lon="10.705964">
        <ele>137.183698</ele>
        <time>2026-05-07T03:53:53.410Z</time>
      </trkpt>
      <trkpt lat="43.612055" lon="10.706110">
        <ele>139.527656</ele>
        <time>2026-05-07T03:54:09.588Z</time>
      </trkpt>
      <trkpt lat="43.612444" lon="10.706333">
        <ele>141.164779</ele>
        <time>2026-05-07T03:54:28.600Z</time>
      </trkpt>
      <trkpt lat="43.612546" lon="10.706423">
        <ele>141.635254</ele>
        <time>2026-05-07T03:54:34.407Z</time>
      </trkpt>
      <trkpt lat="43.612805" lon="10.706899">
        <ele>143.310976</ele>
        <time>2026-05-07T03:54:53.790Z</time>
      </trkpt>
      <trkpt lat="43.613016" lon="10.706789">
        <ele>144.187617</ele>
        <time>2026-05-07T03:55:02.923Z</time>
      </trkpt>
      <trkpt lat="43.613758" lon="10.706632">
        <ele>146.470442</ele>
        <time>2026-05-07T03:55:24.581Z</time>
      </trkpt>
      <trkpt lat="43.613923" lon="10.706459">
        <ele>146.673101</ele>
        <time>2026-05-07T03:55:29.163Z</time>
      </trkpt>
      <trkpt lat="43.614107" lon="10.706173">
        <ele>146.944095</ele>
        <time>2026-05-07T03:55:36.146Z</time>
      </trkpt>
      <trkpt lat="43.614182" lon="10.706027">
        <ele>147.070890</ele>
        <time>2026-05-07T03:55:39.878Z</time>
      </trkpt>
      <trkpt lat="43.614219" lon="10.705847">
        <ele>147.203421</ele>
        <time>2026-05-07T03:55:43.783Z</time>
      </trkpt>
      <trkpt lat="43.614235" lon="10.705547">
        <ele>147.416483</ele>
        <time>2026-05-07T03:55:49.933Z</time>
      </trkpt>
      <trkpt lat="43.614274" lon="10.705472">
        <ele>147.481887</ele>
        <time>2026-05-07T03:55:51.840Z</time>
      </trkpt>
      <trkpt lat="43.614331" lon="10.705449">
        <ele>147.539981</ele>
        <time>2026-05-07T03:55:53.496Z</time>
      </trkpt>
      <trkpt lat="43.614689" lon="10.705613">
        <ele>147.908972</ele>
        <time>2026-05-07T03:56:03.921Z</time>
      </trkpt>
      <trkpt lat="43.614948" lon="10.705682">
        <ele>147.520585</ele>
        <time>2026-05-07T03:56:10.551Z</time>
      </trkpt>
      <trkpt lat="43.615704" lon="10.705561">
        <ele>145.067969</ele>
        <time>2026-05-07T03:56:24.363Z</time>
      </trkpt>
      <trkpt lat="43.615843" lon="10.705483">
        <ele>144.584467</ele>
        <time>2026-05-07T03:56:26.670Z</time>
      </trkpt>
      <trkpt lat="43.616114" lon="10.705153">
        <ele>143.420205</ele>
        <time>2026-05-07T03:56:31.989Z</time>
      </trkpt>
      <trkpt lat="43.616227" lon="10.704939">
        <ele>142.802226</ele>
        <time>2026-05-07T03:56:34.775Z</time>
      </trkpt>
      <trkpt lat="43.616410" lon="10.704705">
        <ele>142.044405</ele>
        <time>2026-05-07T03:56:38.391Z</time>
      </trkpt>
      <trkpt lat="43.616564" lon="10.704580">
        <ele>141.587858</ele>
        <time>2026-05-07T03:56:40.986Z</time>
      </trkpt>
      <trkpt lat="43.616807" lon="10.704466">
        <ele>140.931917</ele>
        <time>2026-05-07T03:56:44.757Z</time>
      </trkpt>
      <trkpt lat="43.617057" lon="10.704303">
        <ele>140.225321</ele>
        <time>2026-05-07T03:56:48.970Z</time>
      </trkpt>
      <trkpt lat="43.617112" lon="10.704233">
        <ele>140.034168</ele>
        <time>2026-05-07T03:56:50.139Z</time>
      </trkpt>
      <trkpt lat="43.617318" lon="10.703780">
        <ele>139.044284</ele>
        <time>2026-05-07T03:56:56.711Z</time>
      </trkpt>
      <trkpt lat="43.617553" lon="10.703187">
        <ele>137.793353</ele>
        <time>2026-05-07T03:57:08.558Z</time>
      </trkpt>
      <trkpt lat="43.617547" lon="10.703107">
        <ele>137.644529</ele>
        <time>2026-05-07T03:57:10.464Z</time>
      </trkpt>
      <trkpt lat="43.617515" lon="10.703052">
        <ele>137.784019</ele>
        <time>2026-05-07T03:57:12.204Z</time>
      </trkpt>
      <trkpt lat="43.617446" lon="10.703024">
        <ele>138.055997</ele>
        <time>2026-05-07T03:57:14.778Z</time>
      </trkpt>
      <trkpt lat="43.617351" lon="10.702934">
        <ele>138.491658</ele>
        <time>2026-05-07T03:57:19.243Z</time>
      </trkpt>
      <trkpt lat="43.617262" lon="10.702732">
        <ele>139.139091</ele>
        <time>2026-05-07T03:57:26.321Z</time>
      </trkpt>
      <trkpt lat="43.617262" lon="10.702638">
        <ele>139.396457</ele>
        <time>2026-05-07T03:57:29.242Z</time>
      </trkpt>
      <trkpt lat="43.617391" lon="10.702299">
        <ele>140.445024</ele>
        <time>2026-05-07T03:57:41.734Z</time>
      </trkpt>
      <trkpt lat="43.617415" lon="10.702070">
        <ele>141.078546</ele>
        <time>2026-05-07T03:57:49.299Z</time>
      </trkpt>
      <trkpt lat="43.617764" lon="10.701412">
        <ele>143.311855</ele>
        <time>2026-05-07T03:58:15.976Z</time>
      </trkpt>
      <trkpt lat="43.617842" lon="10.701214">
        <ele>143.929024</ele>
        <time>2026-05-07T03:58:23.486Z</time>
      </trkpt>
      <trkpt lat="43.617908" lon="10.700923">
        <ele>144.381493</ele>
        <time>2026-05-07T03:58:32.979Z</time>
      </trkpt>
      <trkpt lat="43.617953" lon="10.700438">
        <ele>144.209139</ele>
        <time>2026-05-07T03:58:46.094Z</time>
      </trkpt>
      <trkpt lat="43.618101" lon="10.700395">
        <ele>144.135503</ele>
        <time>2026-05-07T03:58:52.659Z</time>
      </trkpt>
      <trkpt lat="43.618164" lon="10.700410">
        <ele>144.104377</ele>
        <time>2026-05-07T03:58:55.387Z</time>
      </trkpt>
      <trkpt lat="43.618836" lon="10.701329">
        <ele>143.643960</ele>
        <time>2026-05-07T03:59:22.934Z</time>
      </trkpt>
      <trkpt lat="43.619059" lon="10.701495">
        <ele>142.937855</ele>
        <time>2026-05-07T03:59:29.058Z</time>
      </trkpt>
      <trkpt lat="43.619197" lon="10.701500">
        <ele>141.508454</ele>
        <time>2026-05-07T03:59:32.220Z</time>
      </trkpt>
      <trkpt lat="43.619770" lon="10.701412">
        <ele>135.538817</ele>
        <time>2026-05-07T03:59:44.686Z</time>
      </trkpt>
      <trkpt lat="43.620249" lon="10.701254">
        <ele>130.439607</ele>
        <time>2026-05-07T03:59:54.850Z</time>
      </trkpt>
      <trkpt lat="43.620828" lon="10.700946">
        <ele>124.089811</ele>
        <time>2026-05-07T04:00:07.588Z</time>
      </trkpt>
      <trkpt lat="43.621415" lon="10.700162">
        <ele>116.328092</ele>
        <time>2026-05-07T04:00:24.753Z</time>
      </trkpt>
      <trkpt lat="43.621526" lon="10.700048">
        <ele>115.013251</ele>
        <time>2026-05-07T04:00:27.772Z</time>
      </trkpt>
      <trkpt lat="43.621677" lon="10.700001">
        <ele>113.541857</ele>
        <time>2026-05-07T04:00:31.219Z</time>
      </trkpt>
      <trkpt lat="43.621969" lon="10.699987">
        <ele>110.764432</ele>
        <time>2026-05-07T04:00:37.833Z</time>
      </trkpt>
      <trkpt lat="43.622597" lon="10.699717">
        <ele>106.050153</ele>
        <time>2026-05-07T04:00:53.182Z</time>
      </trkpt>
      <trkpt lat="43.622982" lon="10.699601">
        <ele>104.041944</ele>
        <time>2026-05-07T04:01:02.584Z</time>
      </trkpt>
      <trkpt lat="43.623073" lon="10.699521">
        <ele>103.492232</ele>
        <time>2026-05-07T04:01:05.177Z</time>
      </trkpt>
      <trkpt lat="43.623479" lon="10.698936">
        <ele>100.502434</ele>
        <time>2026-05-07T04:01:19.303Z</time>
      </trkpt>
      <trkpt lat="43.623519" lon="10.698776">
        <ele>99.877958</ele>
        <time>2026-05-07T04:01:22.289Z</time>
      </trkpt>
      <trkpt lat="43.623469" lon="10.698324">
        <ele>98.507238</ele>
        <time>2026-05-07T04:01:30.502Z</time>
      </trkpt>
      <trkpt lat="43.623531" lon="10.697836">
        <ele>97.908837</ele>
        <time>2026-05-07T04:01:39.645Z</time>
      </trkpt>
      <trkpt lat="43.623557" lon="10.697406">
        <ele>97.387687</ele>
        <time>2026-05-07T04:01:47.989Z</time>
      </trkpt>
      <trkpt lat="43.623564" lon="10.697286">
        <ele>97.242285</ele>
        <time>2026-05-07T04:01:50.382Z</time>
      </trkpt>
      <trkpt lat="43.623604" lon="10.697071">
        <ele>96.974176</ele>
        <time>2026-05-07T04:01:54.929Z</time>
      </trkpt>
      <trkpt lat="43.623736" lon="10.696646">
        <ele>96.415623</ele>
        <time>2026-05-07T04:02:04.951Z</time>
      </trkpt>
      <trkpt lat="43.623735" lon="10.695868">
        <ele>95.689462</ele>
        <time>2026-05-07T04:02:24.447Z</time>
      </trkpt>
      <trkpt lat="43.623796" lon="10.695745">
        <ele>95.718098</ele>
        <time>2026-05-07T04:02:28.257Z</time>
      </trkpt>
      <trkpt lat="43.624061" lon="10.695626">
        <ele>95.792030</ele>
        <time>2026-05-07T04:02:37.887Z</time>
      </trkpt>
      <trkpt lat="43.624262" lon="10.695133">
        <ele>95.900703</ele>
        <time>2026-05-07T04:02:51.656Z</time>
      </trkpt>
      <trkpt lat="43.624401" lon="10.694860">
        <ele>95.964807</ele>
        <time>2026-05-07T04:02:56.153Z</time>
      </trkpt>
      <trkpt lat="43.624436" lon="10.694739">
        <ele>95.989833</ele>
        <time>2026-05-07T04:02:57.850Z</time>
      </trkpt>
      <trkpt lat="43.624457" lon="10.694412">
        <ele>96.052884</ele>
        <time>2026-05-07T04:03:01.974Z</time>
      </trkpt>
      <trkpt lat="43.624310" lon="10.692929">
        <ele>98.584804</ele>
        <time>2026-05-07T04:03:26.204Z</time>
      </trkpt>
      <trkpt lat="43.624003" lon="10.691700">
        <ele>101.595635</ele>
        <time>2026-05-07T04:04:05.931Z</time>
      </trkpt>
      <trkpt lat="43.624006" lon="10.691581">
        <ele>101.871385</ele>
        <time>2026-05-07T04:04:10.450Z</time>
      </trkpt>
      <trkpt lat="43.624041" lon="10.691480">
        <ele>102.314697</ele>
        <time>2026-05-07T04:04:14.835Z</time>
      </trkpt>
      <trkpt lat="43.624273" lon="10.691187">
        <ele>104.094011</ele>
        <time>2026-05-07T04:04:32.306Z</time>
      </trkpt>
      <trkpt lat="43.624617" lon="10.690841">
        <ele>106.502661</ele>
        <time>2026-05-07T04:04:55.281Z</time>
      </trkpt>
      <trkpt lat="43.625022" lon="10.690346">
        <ele>109.563600</ele>
        <time>2026-05-07T04:05:21.889Z</time>
      </trkpt>
      <trkpt lat="43.625077" lon="10.690235">
        <ele>110.114766</ele>
        <time>2026-05-07T04:05:26.253Z</time>
      </trkpt>
      <trkpt lat="43.625142" lon="10.689981">
        <ele>111.218642</ele>
        <time>2026-05-07T04:05:34.600Z</time>
      </trkpt>
      <trkpt lat="43.625211" lon="10.689198">
        <ele>112.491191</ele>
        <time>2026-05-07T04:05:56.787Z</time>
      </trkpt>
      <trkpt lat="43.625172" lon="10.688172">
        <ele>113.231993</ele>
        <time>2026-05-07T04:06:17.356Z</time>
      </trkpt>
      <trkpt lat="43.625204" lon="10.687636">
        <ele>113.619780</ele>
        <time>2026-05-07T04:06:23.810Z</time>
      </trkpt>
      <trkpt lat="43.625186" lon="10.687303">
        <ele>113.860553</ele>
        <time>2026-05-07T04:06:27.485Z</time>
      </trkpt>
      <trkpt lat="43.624919" lon="10.686612">
        <ele>112.026901</ele>
        <time>2026-05-07T04:06:35.592Z</time>
      </trkpt>
      <trkpt lat="43.624869" lon="10.686395">
        <ele>111.489067</ele>
        <time>2026-05-07T04:06:37.853Z</time>
      </trkpt>
      <trkpt lat="43.624777" lon="10.684736">
        <ele>108.002573</ele>
        <time>2026-05-07T04:06:54.604Z</time>
      </trkpt>
      <trkpt lat="43.624657" lon="10.683996">
        <ele>108.029465</ele>
        <time>2026-05-07T04:07:03.673Z</time>
      </trkpt>
      <trkpt lat="43.624609" lon="10.683806">
        <ele>108.036601</ele>
        <time>2026-05-07T04:07:06.742Z</time>
      </trkpt>
      <trkpt lat="43.624416" lon="10.683284">
        <ele>108.057387</ele>
        <time>2026-05-07T04:07:17.818Z</time>
      </trkpt>
      <trkpt lat="43.624403" lon="10.683087">
        <ele>108.064402</ele>
        <time>2026-05-07T04:07:22.265Z</time>
      </trkpt>
      <trkpt lat="43.624463" lon="10.682941">
        <ele>108.070355</ele>
        <time>2026-05-07T04:07:26.157Z</time>
      </trkpt>
      <trkpt lat="43.624549" lon="10.683206">
        <ele>108.080654</ele>
        <time>2026-05-07T04:07:32.293Z</time>
      </trkpt>
      <trkpt lat="43.624706" lon="10.683307">
        <ele>108.150935</ele>
        <time>2026-05-07T04:07:37.145Z</time>
      </trkpt>
      <trkpt lat="43.625366" lon="10.683398">
        <ele>108.584433</ele>
        <time>2026-05-07T04:07:54.130Z</time>
      </trkpt>
      <trkpt lat="43.625753" lon="10.683250">
        <ele>108.846876</ele>
        <time>2026-05-07T04:08:02.676Z</time>
      </trkpt>
      <trkpt lat="43.625999" lon="10.683226">
        <ele>109.008054</ele>
        <time>2026-05-07T04:08:10.459Z</time>
      </trkpt>
      <trkpt lat="43.626285" lon="10.682886">
        <ele>109.254655</ele>
        <time>2026-05-07T04:08:22.163Z</time>
      </trkpt>
      <trkpt lat="43.626454" lon="10.682657">
        <ele>109.313653</ele>
        <time>2026-05-07T04:08:29.305Z</time>
      </trkpt>
      <trkpt lat="43.626590" lon="10.682385">
        <ele>109.370052</ele>
        <time>2026-05-07T04:08:36.669Z</time>
      </trkpt>
      <trkpt lat="43.626832" lon="10.681899">
        <ele>109.470691</ele>
        <time>2026-05-07T04:08:50.167Z</time>
      </trkpt>
      <trkpt lat="43.627261" lon="10.681864">
        <ele>109.571979</ele>
        <time>2026-05-07T04:09:04.906Z</time>
      </trkpt>
      <trkpt lat="43.628007" lon="10.682302">
        <ele>109.488753</ele>
        <time>2026-05-07T04:09:34.843Z</time>
      </trkpt>
      <trkpt lat="43.628399" lon="10.682381">
        <ele>109.259728</ele>
        <time>2026-05-07T04:09:47.251Z</time>
      </trkpt>
      <trkpt lat="43.628636" lon="10.682491">
        <ele>109.115186</ele>
        <time>2026-05-07T04:09:54.810Z</time>
      </trkpt>
      <trkpt lat="43.629519" lon="10.683464">
        <ele>107.165561</ele>
        <time>2026-05-07T04:10:27.335Z</time>
      </trkpt>
      <trkpt lat="43.629731" lon="10.683582">
        <ele>106.089631</ele>
        <time>2026-05-07T04:10:33.147Z</time>
      </trkpt>
      <trkpt lat="43.629929" lon="10.683609">
        <ele>105.153025</ele>
        <time>2026-05-07T04:10:38.046Z</time>
      </trkpt>
      <trkpt lat="43.630182" lon="10.683561">
        <ele>103.950860</ele>
        <time>2026-05-07T04:10:44.128Z</time>
      </trkpt>
      <trkpt lat="43.630387" lon="10.683447">
        <ele>102.910591</ele>
        <time>2026-05-07T04:10:49.240Z</time>
      </trkpt>
      <trkpt lat="43.630753" lon="10.683384">
        <ele>101.174339</ele>
        <time>2026-05-07T04:10:57.714Z</time>
      </trkpt>
      <trkpt lat="43.631005" lon="10.683287">
        <ele>99.991411</ele>
        <time>2026-05-07T04:11:03.657Z</time>
      </trkpt>
      <trkpt lat="43.631378" lon="10.683046">
        <ele>98.455328</ele>
        <time>2026-05-07T04:11:13.001Z</time>
      </trkpt>
      <trkpt lat="43.632132" lon="10.682643">
        <ele>95.439461</ele>
        <time>2026-05-07T04:11:32.710Z</time>
      </trkpt>
      <trkpt lat="43.632391" lon="10.682396">
        <ele>94.265468</ele>
        <time>2026-05-07T04:11:41.920Z</time>
      </trkpt>
      <trkpt lat="43.632582" lon="10.682096">
        <ele>93.393472</ele>
        <time>2026-05-07T04:11:52.032Z</time>
      </trkpt>
      <trkpt lat="43.632854" lon="10.681844">
        <ele>93.072958</ele>
        <time>2026-05-07T04:12:04.972Z</time>
      </trkpt>
      <trkpt lat="43.633394" lon="10.681728">
        <ele>92.538113</ele>
        <time>2026-05-07T04:12:26.988Z</time>
      </trkpt>
      <trkpt lat="43.633511" lon="10.681677">
        <ele>92.418042</ele>
        <time>2026-05-07T04:12:30.976Z</time>
      </trkpt>
      <trkpt lat="43.633654" lon="10.681476">
        <ele>92.218397</ele>
        <time>2026-05-07T04:12:36.964Z</time>
      </trkpt>
      <trkpt lat="43.633726" lon="10.681112">
        <ele>91.951103</ele>
        <time>2026-05-07T04:12:44.206Z</time>
      </trkpt>
      <trkpt lat="43.633800" lon="10.680921">
        <ele>91.797644</ele>
        <time>2026-05-07T04:12:48.089Z</time>
      </trkpt>
      <trkpt lat="43.633924" lon="10.680698">
        <ele>91.076506</ele>
        <time>2026-05-07T04:12:52.972Z</time>
      </trkpt>
      <trkpt lat="43.634012" lon="10.680578">
        <ele>90.372043</ele>
        <time>2026-05-07T04:12:55.888Z</time>
      </trkpt>
      <trkpt lat="43.634122" lon="10.680484">
        <ele>89.635117</ele>
        <time>2026-05-07T04:12:58.902Z</time>
      </trkpt>
      <trkpt lat="43.634402" lon="10.680326">
        <ele>87.911860</ele>
        <time>2026-05-07T04:13:05.751Z</time>
      </trkpt>
      <trkpt lat="43.634771" lon="10.680173">
        <ele>85.716806</ele>
        <time>2026-05-07T04:13:14.326Z</time>
      </trkpt>
      <trkpt lat="43.635499" lon="10.679961">
        <ele>81.477805</ele>
        <time>2026-05-07T04:13:31.553Z</time>
      </trkpt>
      <trkpt lat="43.635835" lon="10.679816">
        <ele>80.949546</ele>
        <time>2026-05-07T04:13:40.951Z</time>
      </trkpt>
      <trkpt lat="43.636223" lon="10.679757">
        <ele>80.379521</ele>
        <time>2026-05-07T04:13:53.637Z</time>
      </trkpt>
      <trkpt lat="43.637186" lon="10.679526">
        <ele>78.952200</ele>
        <time>2026-05-07T04:14:25.687Z</time>
      </trkpt>
      <trkpt lat="43.637318" lon="10.679462">
        <ele>78.565598</ele>
        <time>2026-05-07T04:14:29.549Z</time>
      </trkpt>
      <trkpt lat="43.637490" lon="10.679189">
        <ele>77.354578</ele>
        <time>2026-05-07T04:14:36.395Z</time>
      </trkpt>
      <trkpt lat="43.637540" lon="10.678980">
        <ele>76.618099</ele>
        <time>2026-05-07T04:14:40.399Z</time>
      </trkpt>
      <trkpt lat="43.637781" lon="10.678609">
        <ele>74.950139</ele>
        <time>2026-05-07T04:14:49.099Z</time>
      </trkpt>
      <trkpt lat="43.637847" lon="10.678459">
        <ele>74.362803</ele>
        <time>2026-05-07T04:14:52.092Z</time>
      </trkpt>
      <trkpt lat="43.637847" lon="10.678304">
        <ele>73.844212</ele>
        <time>2026-05-07T04:14:54.700Z</time>
      </trkpt>
      <trkpt lat="43.637878" lon="10.678186">
        <ele>73.424207</ele>
        <time>2026-05-07T04:14:56.786Z</time>
      </trkpt>
      <trkpt lat="43.637932" lon="10.678116">
        <ele>73.081903</ele>
        <time>2026-05-07T04:14:58.477Z</time>
      </trkpt>
      <trkpt lat="43.638002" lon="10.678073">
        <ele>72.727754</ele>
        <time>2026-05-07T04:15:00.225Z</time>
      </trkpt>
      <trkpt lat="43.638138" lon="10.678078">
        <ele>72.098802</ele>
        <time>2026-05-07T04:15:03.355Z</time>
      </trkpt>
      <trkpt lat="43.638204" lon="10.678052">
        <ele>71.781525</ele>
        <time>2026-05-07T04:15:04.948Z</time>
      </trkpt>
      <trkpt lat="43.638253" lon="10.677981">
        <ele>71.453282</ele>
        <time>2026-05-07T04:15:06.604Z</time>
      </trkpt>
      <trkpt lat="43.638351" lon="10.677923">
        <ele>70.960418</ele>
        <time>2026-05-07T04:15:09.110Z</time>
      </trkpt>
      <trkpt lat="43.638879" lon="10.678009">
        <ele>68.098239</ele>
        <time>2026-05-07T04:15:21.727Z</time>
      </trkpt>
      <trkpt lat="43.639115" lon="10.677820">
        <ele>66.584094</ele>
        <time>2026-05-07T04:15:28.224Z</time>
      </trkpt>
      <trkpt lat="43.639209" lon="10.677708">
        <ele>65.895109</ele>
        <time>2026-05-07T04:15:31.171Z</time>
      </trkpt>
      <trkpt lat="43.639388" lon="10.677622">
        <ele>64.843140</ele>
        <time>2026-05-07T04:15:35.629Z</time>
      </trkpt>
      <trkpt lat="43.639520" lon="10.677510">
        <ele>63.983303</ele>
        <time>2026-05-07T04:15:39.280Z</time>
      </trkpt>
      <trkpt lat="43.639543" lon="10.677435">
        <ele>63.656078</ele>
        <time>2026-05-07T04:15:40.668Z</time>
      </trkpt>
      <trkpt lat="43.639546" lon="10.677069">
        <ele>62.185689</ele>
        <time>2026-05-07T04:15:46.883Z</time>
      </trkpt>
      <trkpt lat="43.639524" lon="10.676297">
        <ele>60.207459</ele>
        <time>2026-05-07T04:16:00.134Z</time>
      </trkpt>
      <trkpt lat="43.639557" lon="10.676171">
        <ele>60.086755</ele>
        <time>2026-05-07T04:16:02.481Z</time>
      </trkpt>
      <trkpt lat="43.639628" lon="10.676023">
        <ele>59.926806</ele>
        <time>2026-05-07T04:16:05.614Z</time>
      </trkpt>
      <trkpt lat="43.639804" lon="10.675761">
        <ele>59.604795</ele>
        <time>2026-05-07T04:16:12.182Z</time>
      </trkpt>
      <trkpt lat="43.639876" lon="10.675712">
        <ele>59.504896</ele>
        <time>2026-05-07T04:16:14.338Z</time>
      </trkpt>
      <trkpt lat="43.639990" lon="10.675420">
        <ele>59.206032</ele>
        <time>2026-05-07T04:16:21.384Z</time>
      </trkpt>
      <trkpt lat="43.640069" lon="10.675297">
        <ele>59.057893</ele>
        <time>2026-05-07T04:16:25.212Z</time>
      </trkpt>
      <trkpt lat="43.640322" lon="10.674991">
        <ele>58.639387</ele>
        <time>2026-05-07T04:16:38.462Z</time>
      </trkpt>
      <trkpt lat="43.640375" lon="10.674822">
        <ele>58.473476</ele>
        <time>2026-05-07T04:16:44.562Z</time>
      </trkpt>
      <trkpt lat="43.640581" lon="10.674620">
        <ele>58.591206</ele>
        <time>2026-05-07T04:16:57.096Z</time>
      </trkpt>
      <trkpt lat="43.640664" lon="10.674485">
        <ele>58.942756</ele>
        <time>2026-05-07T04:17:03.839Z</time>
      </trkpt>
      <trkpt lat="43.640971" lon="10.674565">
        <ele>59.799489</ele>
        <time>2026-05-07T04:17:20.230Z</time>
      </trkpt>
      <trkpt lat="43.640978" lon="10.674567">
        <ele>59.819092</ele>
        <time>2026-05-07T04:17:20.566Z</time>
      </trkpt>
      <trkpt lat="43.641153" lon="10.674648">
        <ele>60.325205</ele>
        <time>2026-05-07T04:17:30.140Z</time>
      </trkpt>
      <trkpt lat="43.641253" lon="10.674642">
        <ele>60.599696</ele>
        <time>2026-05-07T04:17:35.458Z</time>
      </trkpt>
      <trkpt lat="43.641343" lon="10.674591">
        <ele>60.866452</ele>
        <time>2026-05-07T04:17:40.363Z</time>
      </trkpt>
      <trkpt lat="43.641518" lon="10.674653">
        <ele>61.361881</ele>
        <time>2026-05-07T04:17:49.546Z</time>
      </trkpt>
      <trkpt lat="43.641792" lon="10.674540">
        <ele>62.146028</ele>
        <time>2026-05-07T04:18:02.609Z</time>
      </trkpt>
      <trkpt lat="43.642069" lon="10.674610">
        <ele>62.918250</ele>
        <time>2026-05-07T04:18:13.978Z</time>
      </trkpt>
      <trkpt lat="43.642312" lon="10.674527">
        <ele>63.093171</ele>
        <time>2026-05-07T04:18:23.232Z</time>
      </trkpt>
      <trkpt lat="43.642481" lon="10.674502">
        <ele>62.928951</ele>
        <time>2026-05-07T04:18:28.753Z</time>
      </trkpt>
      <trkpt lat="43.643268" lon="10.674530">
        <ele>62.168307</ele>
        <time>2026-05-07T04:18:51.140Z</time>
      </trkpt>
      <trkpt lat="43.643451" lon="10.674478">
        <ele>61.987794</ele>
        <time>2026-05-07T04:18:56.292Z</time>
      </trkpt>
      <trkpt lat="43.643673" lon="10.674330">
        <ele>61.749643</ele>
        <time>2026-05-07T04:19:03.052Z</time>
      </trkpt>
      <trkpt lat="43.643943" lon="10.674147">
        <ele>61.446963</ele>
        <time>2026-05-07T04:19:11.349Z</time>
      </trkpt>
      <trkpt lat="43.644188" lon="10.674135">
        <ele>61.112847</ele>
        <time>2026-05-07T04:19:18.168Z</time>
      </trkpt>
      <trkpt lat="43.644435" lon="10.674071">
        <ele>60.770349</ele>
        <time>2026-05-07T04:19:25.146Z</time>
      </trkpt>
      <trkpt lat="43.644718" lon="10.673848">
        <ele>60.326356</ele>
        <time>2026-05-07T04:19:34.304Z</time>
      </trkpt>
      <trkpt lat="43.645308" lon="10.673535">
        <ele>59.465040</ele>
        <time>2026-05-07T04:19:52.911Z</time>
      </trkpt>
      <trkpt lat="43.645650" lon="10.673057">
        <ele>58.741570</ele>
        <time>2026-05-07T04:20:07.151Z</time>
      </trkpt>
      <trkpt lat="43.645905" lon="10.672837">
        <ele>58.226404</ele>
        <time>2026-05-07T04:20:15.797Z</time>
      </trkpt>
      <trkpt lat="43.646108" lon="10.672553">
        <ele>57.731373</ele>
        <time>2026-05-07T04:20:23.903Z</time>
      </trkpt>
      <trkpt lat="43.646170" lon="10.672419">
        <ele>57.534138</ele>
        <time>2026-05-07T04:20:27.134Z</time>
      </trkpt>
      <trkpt lat="43.646434" lon="10.672161">
        <ele>56.980021</ele>
        <time>2026-05-07T04:20:36.300Z</time>
      </trkpt>
      <trkpt lat="43.646911" lon="10.671764">
        <ele>56.025780</ele>
        <time>2026-05-07T04:20:51.480Z</time>
      </trkpt>
      <trkpt lat="43.647020" lon="10.671797">
        <ele>55.711132</ele>
        <time>2026-05-07T04:20:54.410Z</time>
      </trkpt>
      <trkpt lat="43.647315" lon="10.671728">
        <ele>54.672557</ele>
        <time>2026-05-07T04:21:02.216Z</time>
      </trkpt>
      <trkpt lat="43.647377" lon="10.671700">
        <ele>54.446141</ele>
        <time>2026-05-07T04:21:03.913Z</time>
      </trkpt>
      <trkpt lat="43.647451" lon="10.671603">
        <ele>54.092101</ele>
        <time>2026-05-07T04:21:06.533Z</time>
      </trkpt>
      <trkpt lat="43.647547" lon="10.671270">
        <ele>53.191740</ele>
        <time>2026-05-07T04:21:13.185Z</time>
      </trkpt>
      <trkpt lat="43.647602" lon="10.671174">
        <ele>52.884179</ele>
        <time>2026-05-07T04:21:15.449Z</time>
      </trkpt>
      <trkpt lat="43.647618" lon="10.671051">
        <ele>52.570279</ele>
        <time>2026-05-07T04:21:17.757Z</time>
      </trkpt>
      <trkpt lat="43.647567" lon="10.670590">
        <ele>51.398895</ele>
        <time>2026-05-07T04:21:26.316Z</time>
      </trkpt>
      <trkpt lat="43.647571" lon="10.670434">
        <ele>51.006812</ele>
        <time>2026-05-07T04:21:29.123Z</time>
      </trkpt>
      <trkpt lat="43.647858" lon="10.670273">
        <ele>49.931622</ele>
        <time>2026-05-07T04:21:36.705Z</time>
      </trkpt>
      <trkpt lat="43.647954" lon="10.670160">
        <ele>49.464648</ele>
        <time>2026-05-07T04:21:39.789Z</time>
      </trkpt>
      <trkpt lat="43.648043" lon="10.670139">
        <ele>49.109098</ele>
        <time>2026-05-07T04:21:41.989Z</time>
      </trkpt>
      <trkpt lat="43.648145" lon="10.670197">
        <ele>48.674754</ele>
        <time>2026-05-07T04:21:44.685Z</time>
      </trkpt>
      <trkpt lat="43.648242" lon="10.670203">
        <ele>48.292390</ele>
        <time>2026-05-07T04:21:47.086Z</time>
      </trkpt>
      <trkpt lat="43.648455" lon="10.670112">
        <ele>47.414439</ele>
        <time>2026-05-07T04:21:52.640Z</time>
      </trkpt>
      <trkpt lat="43.648796" lon="10.670043">
        <ele>46.057278</ele>
        <time>2026-05-07T04:22:01.290Z</time>
      </trkpt>
      <trkpt lat="43.648868" lon="10.669985">
        <ele>45.729094</ele>
        <time>2026-05-07T04:22:03.383Z</time>
      </trkpt>
      <trkpt lat="43.649056" lon="10.669834">
        <ele>44.872808</ele>
        <time>2026-05-07T04:22:08.887Z</time>
      </trkpt>
      <trkpt lat="43.649134" lon="10.669678">
        <ele>44.332496</ele>
        <time>2026-05-07T04:22:12.343Z</time>
      </trkpt>
      <trkpt lat="43.649208" lon="10.669598">
        <ele>43.962520</ele>
        <time>2026-05-07T04:22:14.714Z</time>
      </trkpt>
      <trkpt lat="43.649619" lon="10.669431">
        <ele>42.298901</ele>
        <time>2026-05-07T04:22:25.522Z</time>
      </trkpt>
      <trkpt lat="43.649774" lon="10.669410">
        <ele>41.726231</ele>
        <time>2026-05-07T04:22:29.452Z</time>
      </trkpt>
      <trkpt lat="43.650003" lon="10.669458">
        <ele>40.874565</ele>
        <time>2026-05-07T04:22:35.298Z</time>
      </trkpt>
      <trkpt lat="43.650050" lon="10.669415">
        <ele>40.667309</ele>
        <time>2026-05-07T04:22:36.712Z</time>
      </trkpt>
      <trkpt lat="43.650311" lon="10.669532">
        <ele>39.658386</ele>
        <time>2026-05-07T04:22:43.660Z</time>
      </trkpt>
      <trkpt lat="43.650423" lon="10.669533">
        <ele>39.246552</ele>
        <time>2026-05-07T04:22:46.512Z</time>
      </trkpt>
      <trkpt lat="43.650861" lon="10.669356">
        <ele>37.568583</ele>
        <time>2026-05-07T04:22:58.117Z</time>
      </trkpt>
      <trkpt lat="43.651067" lon="10.669473">
        <ele>36.749651</ele>
        <time>2026-05-07T04:23:03.761Z</time>
      </trkpt>
      <trkpt lat="43.651273" lon="10.669452">
        <ele>35.984488</ele>
        <time>2026-05-07T04:23:08.973Z</time>
      </trkpt>
      <trkpt lat="43.651669" lon="10.669333">
        <ele>34.153481</ele>
        <time>2026-05-07T04:23:19.108Z</time>
      </trkpt>
      <trkpt lat="43.652096" lon="10.669150">
        <ele>32.133588</ele>
        <time>2026-05-07T04:23:30.140Z</time>
      </trkpt>
      <trkpt lat="43.652241" lon="10.669088">
        <ele>31.447815</ele>
        <time>2026-05-07T04:23:33.860Z</time>
      </trkpt>
      <trkpt lat="43.652769" lon="10.668805">
        <ele>28.889103</ele>
        <time>2026-05-07T04:23:47.514Z</time>
      </trkpt>
      <trkpt lat="43.653000" lon="10.668731">
        <ele>27.824831</ele>
        <time>2026-05-07T04:23:53.185Z</time>
      </trkpt>
      <trkpt lat="43.653489" lon="10.668605">
        <ele>25.803792</ele>
        <time>2026-05-07T04:24:04.988Z</time>
      </trkpt>
      <trkpt lat="43.654801" lon="10.668603">
        <ele>20.560968</ele>
        <time>2026-05-07T04:24:37.720Z</time>
      </trkpt>
      <trkpt lat="43.654959" lon="10.668945">
        <ele>20.345877</ele>
        <time>2026-05-07T04:24:42.439Z</time>
      </trkpt>
      <trkpt lat="43.654998" lon="10.669189">
        <ele>20.213420</ele>
        <time>2026-05-07T04:24:45.511Z</time>
      </trkpt>
      <trkpt lat="43.654895" lon="10.669979">
        <ele>19.787917</ele>
        <time>2026-05-07T04:24:56.355Z</time>
      </trkpt>
      <trkpt lat="43.654779" lon="10.670621">
        <ele>19.437157</ele>
        <time>2026-05-07T04:25:06.364Z</time>
      </trkpt>
      <trkpt lat="43.654707" lon="10.670877">
        <ele>19.291565</ele>
        <time>2026-05-07T04:25:10.460Z</time>
      </trkpt>
      <trkpt lat="43.654546" lon="10.671250">
        <ele>19.086516</ele>
        <time>2026-05-07T04:25:16.643Z</time>
      </trkpt>
      <trkpt lat="43.654542" lon="10.671318">
        <ele>19.054878</ele>
        <time>2026-05-07T04:25:17.550Z</time>
      </trkpt>
      <trkpt lat="43.654563" lon="10.671370">
        <ele>19.027262</ele>
        <time>2026-05-07T04:25:18.333Z</time>
      </trkpt>
      <trkpt lat="43.654689" lon="10.671470">
        <ele>18.934135</ele>
        <time>2026-05-07T04:25:20.954Z</time>
      </trkpt>
      <trkpt lat="43.654861" lon="10.671561">
        <ele>18.816092</ele>
        <time>2026-05-07T04:25:24.210Z</time>
      </trkpt>
      <trkpt lat="43.654984" lon="10.671555">
        <ele>18.737207</ele>
        <time>2026-05-07T04:25:26.343Z</time>
      </trkpt>
      <trkpt lat="43.655034" lon="10.671507">
        <ele>18.698188</ele>
        <time>2026-05-07T04:25:27.384Z</time>
      </trkpt>
      <trkpt lat="43.655072" lon="10.671393">
        <ele>18.639982</ele>
        <time>2026-05-07T04:25:28.928Z</time>
      </trkpt>
      <trkpt lat="43.655107" lon="10.671114">
        <ele>18.508671</ele>
        <time>2026-05-07T04:25:32.391Z</time>
      </trkpt>
      <trkpt lat="43.655145" lon="10.671026">
        <ele>18.461147</ele>
        <time>2026-05-07T04:25:33.625Z</time>
      </trkpt>
      <trkpt lat="43.655198" lon="10.670987">
        <ele>18.422663</ele>
        <time>2026-05-07T04:25:34.647Z</time>
      </trkpt>
      <trkpt lat="43.655309" lon="10.670988">
        <ele>18.351516</ele>
        <time>2026-05-07T04:25:36.498Z</time>
      </trkpt>
      <trkpt lat="43.655633" lon="10.669201">
        <ele>17.188532</ele>
        <time>2026-05-07T04:25:58.926Z</time>
      </trkpt>
      <trkpt lat="43.655727" lon="10.668610">
        <ele>16.766507</ele>
        <time>2026-05-07T04:26:06.330Z</time>
      </trkpt>
      <trkpt lat="43.655750" lon="10.667597">
        <ele>16.099894</ele>
        <time>2026-05-07T04:26:18.928Z</time>
      </trkpt>
      <trkpt lat="43.655692" lon="10.667082">
        <ele>15.782644</ele>
        <time>2026-05-07T04:26:25.418Z</time>
      </trkpt>
      <trkpt lat="43.655528" lon="10.666199">
        <ele>15.227743</ele>
        <time>2026-05-07T04:26:36.751Z</time>
      </trkpt>
      <trkpt lat="43.655464" lon="10.665582">
        <ele>14.852999</ele>
        <time>2026-05-07T04:26:44.503Z</time>
      </trkpt>
      <trkpt lat="43.655470" lon="10.665231">
        <ele>14.708908</ele>
        <time>2026-05-07T04:26:48.883Z</time>
      </trkpt>
      <trkpt lat="43.655479" lon="10.665189">
        <ele>14.690931</ele>
        <time>2026-05-07T04:26:49.426Z</time>
      </trkpt>
      <trkpt lat="43.655513" lon="10.665033">
        <ele>14.624067</ele>
        <time>2026-05-07T04:26:51.469Z</time>
      </trkpt>
      <trkpt lat="43.656283" lon="10.662786">
        <ele>13.772589</ele>
        <time>2026-05-07T04:27:23.562Z</time>
      </trkpt>
      <trkpt lat="43.656688" lon="10.661145">
        <ele>13.564538</ele>
        <time>2026-05-07T04:27:47.899Z</time>
      </trkpt>
      <trkpt lat="43.657002" lon="10.659775">
        <ele>13.473579</ele>
        <time>2026-05-07T04:28:07.159Z</time>
      </trkpt>
      <trkpt lat="43.657237" lon="10.658731">
        <ele>13.412729</ele>
        <time>2026-05-07T04:28:22.659Z</time>
      </trkpt>
      <trkpt lat="43.657387" lon="10.657927">
        <ele>13.516561</ele>
        <time>2026-05-07T04:28:33.697Z</time>
      </trkpt>
      <trkpt lat="43.657395" lon="10.657877">
        <ele>13.524623</ele>
        <time>2026-05-07T04:28:34.448Z</time>
      </trkpt>
      <trkpt lat="43.657423" lon="10.657738">
        <ele>13.547341</ele>
        <time>2026-05-07T04:28:36.497Z</time>
      </trkpt>
      <trkpt lat="43.657441" lon="10.657652">
        <ele>13.561437</ele>
        <time>2026-05-07T04:28:37.783Z</time>
      </trkpt>
      <trkpt lat="43.657500" lon="10.657425">
        <ele>13.599415</ele>
        <time>2026-05-07T04:28:41.425Z</time>
      </trkpt>
      <trkpt lat="43.657617" lon="10.657011">
        <ele>13.669396</ele>
        <time>2026-05-07T04:28:48.556Z</time>
      </trkpt>
      <trkpt lat="43.657579" lon="10.656910">
        <ele>13.687320</ele>
        <time>2026-05-07T04:28:50.356Z</time>
      </trkpt>
      <trkpt lat="43.657509" lon="10.656861">
        <ele>13.704396</ele>
        <time>2026-05-07T04:28:52.046Z</time>
      </trkpt>
      <trkpt lat="43.657177" lon="10.656876">
        <ele>13.776688</ele>
        <time>2026-05-07T04:28:58.864Z</time>
      </trkpt>
      <trkpt lat="43.657019" lon="10.656847">
        <ele>13.845552</ele>
        <time>2026-05-07T04:29:01.838Z</time>
      </trkpt>
      <trkpt lat="43.655925" lon="10.656518">
        <ele>14.674227</ele>
        <time>2026-05-07T04:29:27.324Z</time>
      </trkpt>
      <trkpt lat="43.655724" lon="10.656318">
        <ele>14.857539</ele>
        <time>2026-05-07T04:29:33.606Z</time>
      </trkpt>
      <trkpt lat="43.655156" lon="10.655430">
        <ele>15.358000</ele>
        <time>2026-05-07T04:29:53.828Z</time>
      </trkpt>
      <trkpt lat="43.655007" lon="10.655208">
        <ele>15.460321</ele>
        <time>2026-05-07T04:29:59.004Z</time>
      </trkpt>
      <trkpt lat="43.654903" lon="10.655318">
        <ele>15.521482</ele>
        <time>2026-05-07T04:30:02.108Z</time>
      </trkpt>
      <trkpt lat="43.654796" lon="10.655337">
        <ele>15.571866</ele>
        <time>2026-05-07T04:30:04.581Z</time>
      </trkpt>
      <trkpt lat="43.654638" lon="10.655129">
        <ele>15.673773</ele>
        <time>2026-05-07T04:30:09.275Z</time>
      </trkpt>
      <trkpt lat="43.654473" lon="10.654784">
        <ele>15.813517</ele>
        <time>2026-05-07T04:30:15.114Z</time>
      </trkpt>
      <trkpt lat="43.654321" lon="10.654235">
        <ele>15.953397</ele>
        <time>2026-05-07T04:30:22.905Z</time>
      </trkpt>
      <trkpt lat="43.654288" lon="10.654089">
        <ele>15.935603</ele>
        <time>2026-05-07T04:30:24.918Z</time>
      </trkpt>
      <trkpt lat="43.654069" lon="10.653378">
        <ele>15.845707</ele>
        <time>2026-05-07T04:30:35.246Z</time>
      </trkpt>
      <trkpt lat="43.653342" lon="10.651275">
        <ele>15.647142</ele>
        <time>2026-05-07T04:31:06.924Z</time>
      </trkpt>
      <trkpt lat="43.653311" lon="10.650847">
        <ele>15.631796</ele>
        <time>2026-05-07T04:31:15.203Z</time>
      </trkpt>
      <trkpt lat="43.653315" lon="10.650573">
        <ele>15.622018</ele>
        <time>2026-05-07T04:31:20.455Z</time>
      </trkpt>
      <trkpt lat="43.653321" lon="10.650363">
        <ele>15.614520</ele>
        <time>2026-05-07T04:31:24.420Z</time>
      </trkpt>
      <trkpt lat="43.653323" lon="10.649927">
        <ele>15.598964</ele>
        <time>2026-05-07T04:31:32.502Z</time>
      </trkpt>
      <trkpt lat="43.653290" lon="10.649536">
        <ele>15.530462</ele>
        <time>2026-05-07T04:31:39.636Z</time>
      </trkpt>
      <trkpt lat="43.653382" lon="10.649025">
        <ele>15.330052</ele>
        <time>2026-05-07T04:31:48.695Z</time>
      </trkpt>
      <trkpt lat="43.653674" lon="10.648205">
        <ele>14.982224</ele>
        <time>2026-05-07T04:32:04.116Z</time>
      </trkpt>
      <trkpt lat="43.653673" lon="10.647909">
        <ele>14.869571</ele>
        <time>2026-05-07T04:32:09.087Z</time>
      </trkpt>
      <trkpt lat="43.653726" lon="10.647780">
        <ele>14.813112</ele>
        <time>2026-05-07T04:32:10.956Z</time>
      </trkpt>
      <trkpt lat="43.654046" lon="10.646938">
        <ele>14.649770</ele>
        <time>2026-05-07T04:32:23.305Z</time>
      </trkpt>
      <trkpt lat="43.654173" lon="10.646584">
        <ele>14.653911</ele>
        <time>2026-05-07T04:32:28.836Z</time>
      </trkpt>
      <trkpt lat="43.654312" lon="10.645943">
        <ele>14.660924</ele>
        <time>2026-05-07T04:32:38.774Z</time>
      </trkpt>
      <trkpt lat="43.654335" lon="10.645591">
        <ele>14.664628</ele>
        <time>2026-05-07T04:32:43.869Z</time>
      </trkpt>
      <trkpt lat="43.654279" lon="10.645154">
        <ele>14.669279</ele>
        <time>2026-05-07T04:32:50.261Z</time>
      </trkpt>
      <trkpt lat="43.654322" lon="10.644978">
        <ele>14.676237</ele>
        <time>2026-05-07T04:32:52.986Z</time>
      </trkpt>
      <trkpt lat="43.654371" lon="10.644851">
        <ele>14.688161</ele>
        <time>2026-05-07T04:32:55.080Z</time>
      </trkpt>
      <trkpt lat="43.654340" lon="10.644675">
        <ele>14.703168</ele>
        <time>2026-05-07T04:32:57.714Z</time>
      </trkpt>
      <trkpt lat="43.654353" lon="10.644274">
        <ele>14.736422</ele>
        <time>2026-05-07T04:33:03.535Z</time>
      </trkpt>
      <trkpt lat="43.654292" lon="10.643683">
        <ele>14.785880</ele>
        <time>2026-05-07T04:33:11.988Z</time>
      </trkpt>
      <trkpt lat="43.653830" lon="10.639423">
        <ele>14.909621</ele>
        <time>2026-05-07T04:34:13.026Z</time>
      </trkpt>
      <trkpt lat="43.653748" lon="10.638553">
        <ele>14.760496</ele>
        <time>2026-05-07T04:34:24.645Z</time>
      </trkpt>
      <trkpt lat="43.653756" lon="10.637816">
        <ele>14.635213</ele>
        <time>2026-05-07T04:34:34.275Z</time>
      </trkpt>
      <trkpt lat="43.653917" lon="10.635976">
        <ele>14.333011</ele>
        <time>2026-05-07T04:34:58.856Z</time>
      </trkpt>
      <trkpt lat="43.653947" lon="10.635839">
        <ele>14.309755</ele>
        <time>2026-05-07T04:35:00.795Z</time>
      </trkpt>
      <trkpt lat="43.654059" lon="10.635617">
        <ele>14.265783</ele>
        <time>2026-05-07T04:35:04.522Z</time>
      </trkpt>
      <trkpt lat="43.654116" lon="10.635550">
        <ele>14.248980</ele>
        <time>2026-05-07T04:35:05.953Z</time>
      </trkpt>
      <trkpt lat="43.654171" lon="10.635380">
        <ele>14.218724</ele>
        <time>2026-05-07T04:35:08.530Z</time>
      </trkpt>
      <trkpt lat="43.654150" lon="10.635195">
        <ele>14.203379</ele>
        <time>2026-05-07T04:35:11.108Z</time>
      </trkpt>
      <trkpt lat="43.654096" lon="10.635095">
        <ele>14.199470</ele>
        <time>2026-05-07T04:35:12.810Z</time>
      </trkpt>
      <trkpt lat="43.654040" lon="10.634833">
        <ele>14.190911</ele>
        <time>2026-05-07T04:35:16.618Z</time>
      </trkpt>
      <trkpt lat="43.654036" lon="10.634651">
        <ele>14.185206</ele>
        <time>2026-05-07T04:35:19.139Z</time>
      </trkpt>
      <trkpt lat="43.654246" lon="10.632250">
        <ele>14.221232</ele>
        <time>2026-05-07T04:35:52.447Z</time>
      </trkpt>
      <trkpt lat="43.654286" lon="10.631815">
        <ele>14.285608</ele>
        <time>2026-05-07T04:35:58.483Z</time>
      </trkpt>
      <trkpt lat="43.654335" lon="10.631486">
        <ele>14.334921</ele>
        <time>2026-05-07T04:36:03.269Z</time>
      </trkpt>
      <trkpt lat="43.654390" lon="10.631410">
        <ele>14.350702</ele>
        <time>2026-05-07T04:36:04.851Z</time>
      </trkpt>
      <trkpt lat="43.654492" lon="10.631362">
        <ele>14.372566</ele>
        <time>2026-05-07T04:36:07.083Z</time>
      </trkpt>
      <trkpt lat="43.654666" lon="10.631375">
        <ele>14.407924</ele>
        <time>2026-05-07T04:36:10.735Z</time>
      </trkpt>
      <trkpt lat="43.654604" lon="10.631337">
        <ele>14.421686</ele>
        <time>2026-05-07T04:36:12.121Z</time>
      </trkpt>
      <trkpt lat="43.654628" lon="10.631289">
        <ele>14.430252</ele>
        <time>2026-05-07T04:36:13.021Z</time>
      </trkpt>
      <trkpt lat="43.654679" lon="10.631313">
        <ele>14.441183</ele>
        <time>2026-05-07T04:36:14.185Z</time>
      </trkpt>
      <trkpt lat="43.654984" lon="10.631432">
        <ele>14.494064</ele>
        <time>2026-05-07T04:36:21.045Z</time>
      </trkpt>
      <trkpt lat="43.655125" lon="10.631413">
        <ele>14.494064</ele>
        <time>2026-05-07T04:36:24.216Z</time>
      </trkpt>
      <trkpt lat="43.655438" lon="10.631528">
        <ele>14.494064</ele>
        <time>2026-05-07T04:36:31.991Z</time>
      </trkpt>
      <trkpt lat="43.655590" lon="10.631469">
        <ele>14.494064</ele>
        <time>2026-05-07T04:36:35.937Z</time>
      </trkpt>
      <trkpt lat="43.655659" lon="10.631488">
        <ele>14.494064</ele>
        <time>2026-05-07T04:36:37.681Z</time>
      </trkpt>
      <trkpt lat="43.655747" lon="10.631021">
        <ele>14.494064</ele>
        <time>2026-05-07T04:36:46.307Z</time>
      </trkpt>
      <trkpt lat="43.655783" lon="10.630798">
        <ele>14.494064</ele>
        <time>2026-05-07T04:36:50.246Z</time>
      </trkpt>
      <trkpt lat="43.655877" lon="10.630097">
        <ele>14.494064</ele>
        <time>2026-05-07T04:37:02.005Z</time>
      </trkpt>
    </trkseg>
  </trk>
</gpx>